<?xml version="1.0" encoding="UTF-8" standalone="no" ?>
<gpx xmlns="http://www.topografix.com/GPX/1/1" xmlns:xsi="http://www.w3.org/2001/XMLSchema-instance" xsi:schemaLocation="http://www.topografix.com/GPX/1/1 http://www.topografix.com/GPX/1/1/gpx.xsd" version="1.1" creator="VisuGPX - https://www.visugpx.com">
  <metadata>
    <name>Chézine - Cens - Gesvre</name>
    <desc><![CDATA[Balade alternant zones roulantes et spots sympas]]></desc>
  </metadata>
  <trk>
    <name><![CDATA[Chezine - Cens - Pont du Cens - 2013-08-18-01]]></name>
    <trkseg>
      <trkpt lat="47.2311" lon="-1.60721">
        <ele>41.241962</ele>
        <time>2013-08-18T07:12:32Z</time>
      </trkpt>
      <trkpt lat="47.2311" lon="-1.60721">
        <ele>54.268947</ele>
        <time>2013-08-18T07:12:33Z</time>
      </trkpt>
      <trkpt lat="47.2311" lon="-1.60721">
        <ele>54.2</ele>
        <time>2013-08-18T07:12:33Z</time>
      </trkpt>
      <trkpt lat="47.23116" lon="-1.60731">
        <ele>42.4</ele>
        <time>2013-08-18T07:12:43Z</time>
      </trkpt>
      <trkpt lat="47.23105" lon="-1.60736">
        <ele>45.7</ele>
        <time>2013-08-18T07:12:52Z</time>
      </trkpt>
      <trkpt lat="47.23095" lon="-1.60741">
        <ele>38.8</ele>
        <time>2013-08-18T07:12:56Z</time>
      </trkpt>
      <trkpt lat="47.23086" lon="-1.60746">
        <ele>32.8</ele>
        <time>2013-08-18T07:13:00Z</time>
      </trkpt>
      <trkpt lat="47.23076" lon="-1.60747">
        <ele>32.5</ele>
        <time>2013-08-18T07:13:04Z</time>
      </trkpt>
      <trkpt lat="47.23066" lon="-1.60749">
        <ele>32.4</ele>
        <time>2013-08-18T07:13:08Z</time>
      </trkpt>
      <trkpt lat="47.23057" lon="-1.60741">
        <ele>32.6</ele>
        <time>2013-08-18T07:13:12Z</time>
      </trkpt>
      <trkpt lat="47.23052" lon="-1.60728">
        <ele>32.9</ele>
        <time>2013-08-18T07:13:15Z</time>
      </trkpt>
      <trkpt lat="47.23047" lon="-1.60716">
        <ele>33</ele>
        <time>2013-08-18T07:13:17Z</time>
      </trkpt>
      <trkpt lat="47.23043" lon="-1.60705">
        <ele>33.2</ele>
        <time>2013-08-18T07:13:19Z</time>
      </trkpt>
      <trkpt lat="47.23038" lon="-1.60688">
        <ele>34.5</ele>
        <time>2013-08-18T07:13:27Z</time>
      </trkpt>
      <trkpt lat="47.23033" lon="-1.60674">
        <ele>34.8</ele>
        <time>2013-08-18T07:13:30Z</time>
      </trkpt>
      <trkpt lat="47.23027" lon="-1.60657">
        <ele>35.2</ele>
        <time>2013-08-18T07:13:33Z</time>
      </trkpt>
      <trkpt lat="47.23023" lon="-1.60644">
        <ele>36.8</ele>
        <time>2013-08-18T07:13:35Z</time>
      </trkpt>
      <trkpt lat="47.23023" lon="-1.60644">
        <ele>36.8</ele>
        <time>2013-08-18T07:13:35Z</time>
      </trkpt>
      <trkpt lat="47.23016" lon="-1.6063">
        <ele>39.1</ele>
        <time>2013-08-18T07:13:37Z</time>
      </trkpt>
      <trkpt lat="47.2301" lon="-1.60616">
        <ele>40.3</ele>
        <time>2013-08-18T07:13:39Z</time>
      </trkpt>
      <trkpt lat="47.23004" lon="-1.606">
        <ele>41</ele>
        <time>2013-08-18T07:13:42Z</time>
      </trkpt>
      <trkpt lat="47.22999" lon="-1.60584">
        <ele>40.7</ele>
        <time>2013-08-18T07:13:45Z</time>
      </trkpt>
      <trkpt lat="47.22993" lon="-1.60573">
        <ele>40.5</ele>
        <time>2013-08-18T07:13:49Z</time>
      </trkpt>
      <trkpt lat="47.2299" lon="-1.6056">
        <ele>40.4</ele>
        <time>2013-08-18T07:13:54Z</time>
      </trkpt>
      <trkpt lat="47.22983" lon="-1.60549">
        <ele>40.2</ele>
        <time>2013-08-18T07:13:57Z</time>
      </trkpt>
      <trkpt lat="47.22971" lon="-1.60538">
        <ele>39.9</ele>
        <time>2013-08-18T07:14:00Z</time>
      </trkpt>
      <trkpt lat="47.22962" lon="-1.60529">
        <ele>39.4</ele>
        <time>2013-08-18T07:14:03Z</time>
      </trkpt>
      <trkpt lat="47.2295" lon="-1.60521">
        <ele>38.9</ele>
        <time>2013-08-18T07:14:06Z</time>
      </trkpt>
      <trkpt lat="47.22942" lon="-1.60514">
        <ele>38.8</ele>
        <time>2013-08-18T07:14:08Z</time>
      </trkpt>
      <trkpt lat="47.22932" lon="-1.60504">
        <ele>37.6</ele>
        <time>2013-08-18T07:14:11Z</time>
      </trkpt>
      <trkpt lat="47.22922" lon="-1.60494">
        <ele>37.3</ele>
        <time>2013-08-18T07:14:14Z</time>
      </trkpt>
      <trkpt lat="47.22911" lon="-1.60485">
        <ele>37.1</ele>
        <time>2013-08-18T07:14:17Z</time>
      </trkpt>
      <trkpt lat="47.22911" lon="-1.60471">
        <ele>36.7</ele>
        <time>2013-08-18T07:14:25Z</time>
      </trkpt>
      <trkpt lat="47.22917" lon="-1.60457">
        <ele>36.7</ele>
        <time>2013-08-18T07:14:28Z</time>
      </trkpt>
      <trkpt lat="47.22922" lon="-1.60447">
        <ele>36.7</ele>
        <time>2013-08-18T07:14:32Z</time>
      </trkpt>
      <trkpt lat="47.22931" lon="-1.6045">
        <ele>36.6</ele>
        <time>2013-08-18T07:14:40Z</time>
      </trkpt>
      <trkpt lat="47.22928" lon="-1.60462">
        <ele>36.1</ele>
        <time>2013-08-18T07:16:37Z</time>
      </trkpt>
      <trkpt lat="47.22922" lon="-1.60476">
        <ele>36.3</ele>
        <time>2013-08-18T07:16:44Z</time>
      </trkpt>
      <trkpt lat="47.2293" lon="-1.60488">
        <ele>36.8</ele>
        <time>2013-08-18T07:16:50Z</time>
      </trkpt>
      <trkpt lat="47.22937" lon="-1.60499">
        <ele>36.9</ele>
        <time>2013-08-18T07:16:53Z</time>
      </trkpt>
      <trkpt lat="47.22945" lon="-1.60512">
        <ele>37</ele>
        <time>2013-08-18T07:16:57Z</time>
      </trkpt>
      <trkpt lat="47.22953" lon="-1.6052">
        <ele>37.1</ele>
        <time>2013-08-18T07:17:00Z</time>
      </trkpt>
      <trkpt lat="47.22961" lon="-1.6053">
        <ele>37.1</ele>
        <time>2013-08-18T07:17:03Z</time>
      </trkpt>
      <trkpt lat="47.22971" lon="-1.6054">
        <ele>36.9</ele>
        <time>2013-08-18T07:17:07Z</time>
      </trkpt>
      <trkpt lat="47.22979" lon="-1.60549">
        <ele>36.9</ele>
        <time>2013-08-18T07:17:10Z</time>
      </trkpt>
      <trkpt lat="47.22988" lon="-1.60559">
        <ele>37</ele>
        <time>2013-08-18T07:17:13Z</time>
      </trkpt>
      <trkpt lat="47.22996" lon="-1.60567">
        <ele>37.1</ele>
        <time>2013-08-18T07:17:16Z</time>
      </trkpt>
      <trkpt lat="47.23002" lon="-1.60581">
        <ele>37.3</ele>
        <time>2013-08-18T07:17:20Z</time>
      </trkpt>
      <trkpt lat="47.23004" lon="-1.60597">
        <ele>37.5</ele>
        <time>2013-08-18T07:17:24Z</time>
      </trkpt>
      <trkpt lat="47.23009" lon="-1.60609">
        <ele>37.5</ele>
        <time>2013-08-18T07:17:27Z</time>
      </trkpt>
      <trkpt lat="47.23015" lon="-1.60623">
        <ele>37.6</ele>
        <time>2013-08-18T07:17:30Z</time>
      </trkpt>
      <trkpt lat="47.2302" lon="-1.60637">
        <ele>37.7</ele>
        <time>2013-08-18T07:17:33Z</time>
      </trkpt>
      <trkpt lat="47.23025" lon="-1.60653">
        <ele>38.1</ele>
        <time>2013-08-18T07:17:36Z</time>
      </trkpt>
      <trkpt lat="47.23029" lon="-1.60666">
        <ele>38.6</ele>
        <time>2013-08-18T07:17:39Z</time>
      </trkpt>
      <trkpt lat="47.23033" lon="-1.60682">
        <ele>39.1</ele>
        <time>2013-08-18T07:17:43Z</time>
      </trkpt>
      <trkpt lat="47.23039" lon="-1.60697">
        <ele>39.3</ele>
        <time>2013-08-18T07:17:47Z</time>
      </trkpt>
      <trkpt lat="47.23045" lon="-1.60711">
        <ele>39.9</ele>
        <time>2013-08-18T07:17:54Z</time>
      </trkpt>
      <trkpt lat="47.23049" lon="-1.60723">
        <ele>40.1</ele>
        <time>2013-08-18T07:17:57Z</time>
      </trkpt>
      <trkpt lat="47.23054" lon="-1.60736">
        <ele>40.6</ele>
        <time>2013-08-18T07:18:01Z</time>
      </trkpt>
      <trkpt lat="47.23059" lon="-1.60747">
        <ele>40.9</ele>
        <time>2013-08-18T07:18:06Z</time>
      </trkpt>
      <trkpt lat="47.23068" lon="-1.60753">
        <ele>40.7</ele>
        <time>2013-08-18T07:18:12Z</time>
      </trkpt>
      <trkpt lat="47.23077" lon="-1.60748">
        <ele>40.6</ele>
        <time>2013-08-18T07:18:16Z</time>
      </trkpt>
      <trkpt lat="47.23087" lon="-1.60746">
        <ele>40.5</ele>
        <time>2013-08-18T07:18:20Z</time>
      </trkpt>
      <trkpt lat="47.23097" lon="-1.60739">
        <ele>40.4</ele>
        <time>2013-08-18T07:18:24Z</time>
      </trkpt>
      <trkpt lat="47.23106" lon="-1.60734">
        <ele>40.4</ele>
        <time>2013-08-18T07:18:27Z</time>
      </trkpt>
      <trkpt lat="47.23115" lon="-1.6074">
        <ele>40.7</ele>
        <time>2013-08-18T07:18:32Z</time>
      </trkpt>
      <trkpt lat="47.2312" lon="-1.60754">
        <ele>40.7</ele>
        <time>2013-08-18T07:18:35Z</time>
      </trkpt>
      <trkpt lat="47.23125" lon="-1.6077">
        <ele>40.8</ele>
        <time>2013-08-18T07:18:39Z</time>
      </trkpt>
      <trkpt lat="47.2313" lon="-1.60783">
        <ele>40.8</ele>
        <time>2013-08-18T07:18:42Z</time>
      </trkpt>
      <trkpt lat="47.23135" lon="-1.60797">
        <ele>40.9</ele>
        <time>2013-08-18T07:18:46Z</time>
      </trkpt>
      <trkpt lat="47.23139" lon="-1.60809">
        <ele>40.9</ele>
        <time>2013-08-18T07:18:49Z</time>
      </trkpt>
      <trkpt lat="47.23145" lon="-1.60825">
        <ele>41.1</ele>
        <time>2013-08-18T07:18:53Z</time>
      </trkpt>
      <trkpt lat="47.2315" lon="-1.60838">
        <ele>41.1</ele>
        <time>2013-08-18T07:18:56Z</time>
      </trkpt>
      <trkpt lat="47.23154" lon="-1.6085">
        <ele>41.2</ele>
        <time>2013-08-18T07:18:59Z</time>
      </trkpt>
      <trkpt lat="47.2316" lon="-1.60865">
        <ele>41.4</ele>
        <time>2013-08-18T07:19:02Z</time>
      </trkpt>
      <trkpt lat="47.23165" lon="-1.60878">
        <ele>41.5</ele>
        <time>2013-08-18T07:19:05Z</time>
      </trkpt>
      <trkpt lat="47.23171" lon="-1.60893">
        <ele>41.5</ele>
        <time>2013-08-18T07:19:08Z</time>
      </trkpt>
      <trkpt lat="47.23177" lon="-1.60905">
        <ele>41.5</ele>
        <time>2013-08-18T07:19:11Z</time>
      </trkpt>
      <trkpt lat="47.23183" lon="-1.60917">
        <ele>41.6</ele>
        <time>2013-08-18T07:19:14Z</time>
      </trkpt>
      <trkpt lat="47.23188" lon="-1.60929">
        <ele>41.6</ele>
        <time>2013-08-18T07:19:17Z</time>
      </trkpt>
      <trkpt lat="47.23193" lon="-1.60942">
        <ele>41.5</ele>
        <time>2013-08-18T07:19:20Z</time>
      </trkpt>
      <trkpt lat="47.23199" lon="-1.60955">
        <ele>41.3</ele>
        <time>2013-08-18T07:19:23Z</time>
      </trkpt>
      <trkpt lat="47.23205" lon="-1.60967">
        <ele>41.2</ele>
        <time>2013-08-18T07:19:26Z</time>
      </trkpt>
      <trkpt lat="47.23211" lon="-1.60978">
        <ele>41.1</ele>
        <time>2013-08-18T07:19:29Z</time>
      </trkpt>
      <trkpt lat="47.23216" lon="-1.6099">
        <ele>41.1</ele>
        <time>2013-08-18T07:19:32Z</time>
      </trkpt>
      <trkpt lat="47.23217" lon="-1.61004">
        <ele>40.9</ele>
        <time>2013-08-18T07:19:35Z</time>
      </trkpt>
      <trkpt lat="47.23216" lon="-1.61019">
        <ele>40.5</ele>
        <time>2013-08-18T07:19:38Z</time>
      </trkpt>
      <trkpt lat="47.23213" lon="-1.61033">
        <ele>39.9</ele>
        <time>2013-08-18T07:19:41Z</time>
      </trkpt>
      <trkpt lat="47.2321" lon="-1.61047">
        <ele>39.4</ele>
        <time>2013-08-18T07:19:44Z</time>
      </trkpt>
      <trkpt lat="47.23206" lon="-1.61062">
        <ele>39.2</ele>
        <time>2013-08-18T07:19:47Z</time>
      </trkpt>
      <trkpt lat="47.232" lon="-1.61077">
        <ele>38.8</ele>
        <time>2013-08-18T07:19:50Z</time>
      </trkpt>
      <trkpt lat="47.23191" lon="-1.61089">
        <ele>38.7</ele>
        <time>2013-08-18T07:19:53Z</time>
      </trkpt>
      <trkpt lat="47.2318" lon="-1.61095">
        <ele>38.7</ele>
        <time>2013-08-18T07:19:56Z</time>
      </trkpt>
      <trkpt lat="47.23169" lon="-1.61101">
        <ele>37.4</ele>
        <time>2013-08-18T07:19:59Z</time>
      </trkpt>
      <trkpt lat="47.23156" lon="-1.61109">
        <ele>37.1</ele>
        <time>2013-08-18T07:20:02Z</time>
      </trkpt>
      <trkpt lat="47.23148" lon="-1.61114">
        <ele>36.7</ele>
        <time>2013-08-18T07:20:04Z</time>
      </trkpt>
      <trkpt lat="47.23136" lon="-1.61122">
        <ele>36.1</ele>
        <time>2013-08-18T07:20:07Z</time>
      </trkpt>
      <trkpt lat="47.23125" lon="-1.61129">
        <ele>35.9</ele>
        <time>2013-08-18T07:20:10Z</time>
      </trkpt>
      <trkpt lat="47.23115" lon="-1.61136">
        <ele>35.7</ele>
        <time>2013-08-18T07:20:13Z</time>
      </trkpt>
      <trkpt lat="47.23104" lon="-1.61149">
        <ele>34.9</ele>
        <time>2013-08-18T07:20:16Z</time>
      </trkpt>
      <trkpt lat="47.231" lon="-1.61161">
        <ele>34.8</ele>
        <time>2013-08-18T07:20:18Z</time>
      </trkpt>
      <trkpt lat="47.23097" lon="-1.61179">
        <ele>35.2</ele>
        <time>2013-08-18T07:20:21Z</time>
      </trkpt>
      <trkpt lat="47.23097" lon="-1.61195">
        <ele>35.4</ele>
        <time>2013-08-18T07:20:24Z</time>
      </trkpt>
      <trkpt lat="47.23105" lon="-1.61208">
        <ele>35.4</ele>
        <time>2013-08-18T07:20:27Z</time>
      </trkpt>
      <trkpt lat="47.23111" lon="-1.61221">
        <ele>35.4</ele>
        <time>2013-08-18T07:20:29Z</time>
      </trkpt>
      <trkpt lat="47.23117" lon="-1.61234">
        <ele>35.2</ele>
        <time>2013-08-18T07:20:31Z</time>
      </trkpt>
      <trkpt lat="47.23127" lon="-1.61241">
        <ele>33.6</ele>
        <time>2013-08-18T07:20:33Z</time>
      </trkpt>
      <trkpt lat="47.23139" lon="-1.61247">
        <ele>34</ele>
        <time>2013-08-18T07:20:35Z</time>
      </trkpt>
      <trkpt lat="47.2315" lon="-1.61252">
        <ele>33.4</ele>
        <time>2013-08-18T07:20:37Z</time>
      </trkpt>
      <trkpt lat="47.2316" lon="-1.61258">
        <ele>32.8</ele>
        <time>2013-08-18T07:20:39Z</time>
      </trkpt>
      <trkpt lat="47.23167" lon="-1.61269">
        <ele>32.8</ele>
        <time>2013-08-18T07:20:42Z</time>
      </trkpt>
      <trkpt lat="47.23175" lon="-1.61275">
        <ele>32.3</ele>
        <time>2013-08-18T07:20:47Z</time>
      </trkpt>
      <trkpt lat="47.23184" lon="-1.61271">
        <ele>32.1</ele>
        <time>2013-08-18T07:20:50Z</time>
      </trkpt>
      <trkpt lat="47.23192" lon="-1.6128">
        <ele>31.3</ele>
        <time>2013-08-18T07:20:56Z</time>
      </trkpt>
      <trkpt lat="47.23199" lon="-1.61288">
        <ele>30.4</ele>
        <time>2013-08-18T07:20:59Z</time>
      </trkpt>
      <trkpt lat="47.23209" lon="-1.6128">
        <ele>29.9</ele>
        <time>2013-08-18T07:21:04Z</time>
      </trkpt>
      <trkpt lat="47.23217" lon="-1.61263">
        <ele>29.5</ele>
        <time>2013-08-18T07:21:08Z</time>
      </trkpt>
      <trkpt lat="47.23223" lon="-1.61251">
        <ele>29</ele>
        <time>2013-08-18T07:21:11Z</time>
      </trkpt>
      <trkpt lat="47.23235" lon="-1.61247">
        <ele>28.7</ele>
        <time>2013-08-18T07:21:15Z</time>
      </trkpt>
      <trkpt lat="47.23246" lon="-1.61247">
        <ele>28.7</ele>
        <time>2013-08-18T07:21:18Z</time>
      </trkpt>
      <trkpt lat="47.23259" lon="-1.61244">
        <ele>28.9</ele>
        <time>2013-08-18T07:21:21Z</time>
      </trkpt>
      <trkpt lat="47.23272" lon="-1.61244">
        <ele>29.4</ele>
        <time>2013-08-18T07:21:24Z</time>
      </trkpt>
      <trkpt lat="47.23284" lon="-1.61244">
        <ele>30.1</ele>
        <time>2013-08-18T07:21:27Z</time>
      </trkpt>
      <trkpt lat="47.23293" lon="-1.61242">
        <ele>30.5</ele>
        <time>2013-08-18T07:21:29Z</time>
      </trkpt>
      <trkpt lat="47.23306" lon="-1.61243">
        <ele>30.9</ele>
        <time>2013-08-18T07:21:32Z</time>
      </trkpt>
      <trkpt lat="47.23318" lon="-1.61245">
        <ele>31.3</ele>
        <time>2013-08-18T07:21:35Z</time>
      </trkpt>
      <trkpt lat="47.23331" lon="-1.61245">
        <ele>31.5</ele>
        <time>2013-08-18T07:21:38Z</time>
      </trkpt>
      <trkpt lat="47.23343" lon="-1.61243">
        <ele>31.8</ele>
        <time>2013-08-18T07:21:41Z</time>
      </trkpt>
      <trkpt lat="47.23352" lon="-1.61242">
        <ele>31.6</ele>
        <time>2013-08-18T07:21:45Z</time>
      </trkpt>
      <trkpt lat="47.23361" lon="-1.61235">
        <ele>31.3</ele>
        <time>2013-08-18T07:21:51Z</time>
      </trkpt>
      <trkpt lat="47.2337" lon="-1.61229">
        <ele>30.5</ele>
        <time>2013-08-18T07:21:58Z</time>
      </trkpt>
      <trkpt lat="47.23376" lon="-1.6122">
        <ele>30.4</ele>
        <time>2013-08-18T07:22:05Z</time>
      </trkpt>
      <trkpt lat="47.23385" lon="-1.61214">
        <ele>30.4</ele>
        <time>2013-08-18T07:22:10Z</time>
      </trkpt>
      <trkpt lat="47.23395" lon="-1.61209">
        <ele>30.1</ele>
        <time>2013-08-18T07:22:16Z</time>
      </trkpt>
      <trkpt lat="47.23404" lon="-1.61202">
        <ele>29.2</ele>
        <time>2013-08-18T07:22:25Z</time>
      </trkpt>
      <trkpt lat="47.23415" lon="-1.61197">
        <ele>28.7</ele>
        <time>2013-08-18T07:22:30Z</time>
      </trkpt>
      <trkpt lat="47.23426" lon="-1.61195">
        <ele>28.5</ele>
        <time>2013-08-18T07:22:34Z</time>
      </trkpt>
      <trkpt lat="47.23435" lon="-1.61193">
        <ele>28.3</ele>
        <time>2013-08-18T07:22:37Z</time>
      </trkpt>
      <trkpt lat="47.23444" lon="-1.6119">
        <ele>28.4</ele>
        <time>2013-08-18T07:22:40Z</time>
      </trkpt>
      <trkpt lat="47.23456" lon="-1.61188">
        <ele>28.4</ele>
        <time>2013-08-18T07:22:43Z</time>
      </trkpt>
      <trkpt lat="47.23466" lon="-1.61187">
        <ele>28.2</ele>
        <time>2013-08-18T07:22:45Z</time>
      </trkpt>
      <trkpt lat="47.2348" lon="-1.6118">
        <ele>25.6</ele>
        <time>2013-08-18T07:22:48Z</time>
      </trkpt>
      <trkpt lat="47.23491" lon="-1.61171">
        <ele>23.9</ele>
        <time>2013-08-18T07:22:50Z</time>
      </trkpt>
      <trkpt lat="47.235" lon="-1.61164">
        <ele>23.7</ele>
        <time>2013-08-18T07:22:52Z</time>
      </trkpt>
      <trkpt lat="47.23511" lon="-1.61157">
        <ele>23.5</ele>
        <time>2013-08-18T07:22:54Z</time>
      </trkpt>
      <trkpt lat="47.23524" lon="-1.61151">
        <ele>24</ele>
        <time>2013-08-18T07:22:56Z</time>
      </trkpt>
      <trkpt lat="47.23537" lon="-1.61145">
        <ele>24.1</ele>
        <time>2013-08-18T07:22:58Z</time>
      </trkpt>
      <trkpt lat="47.2355" lon="-1.6114">
        <ele>23.9</ele>
        <time>2013-08-18T07:23:00Z</time>
      </trkpt>
      <trkpt lat="47.23565" lon="-1.61134">
        <ele>22.5</ele>
        <time>2013-08-18T07:23:02Z</time>
      </trkpt>
      <trkpt lat="47.23573" lon="-1.61115">
        <ele>20.4</ele>
        <time>2013-08-18T07:23:04Z</time>
      </trkpt>
      <trkpt lat="47.23577" lon="-1.61098">
        <ele>18.1</ele>
        <time>2013-08-18T07:23:06Z</time>
      </trkpt>
      <trkpt lat="47.23576" lon="-1.61081">
        <ele>16.4</ele>
        <time>2013-08-18T07:23:08Z</time>
      </trkpt>
      <trkpt lat="47.23577" lon="-1.61066">
        <ele>16</ele>
        <time>2013-08-18T07:23:10Z</time>
      </trkpt>
      <trkpt lat="47.23583" lon="-1.61049">
        <ele>16.1</ele>
        <time>2013-08-18T07:23:13Z</time>
      </trkpt>
      <trkpt lat="47.23594" lon="-1.6104">
        <ele>16</ele>
        <time>2013-08-18T07:23:16Z</time>
      </trkpt>
      <trkpt lat="47.23604" lon="-1.61037">
        <ele>16</ele>
        <time>2013-08-18T07:23:19Z</time>
      </trkpt>
      <trkpt lat="47.23612" lon="-1.61049">
        <ele>16</ele>
        <time>2013-08-18T07:23:22Z</time>
      </trkpt>
      <trkpt lat="47.23615" lon="-1.61063">
        <ele>15.8</ele>
        <time>2013-08-18T07:23:24Z</time>
      </trkpt>
      <trkpt lat="47.23618" lon="-1.61078">
        <ele>15.6</ele>
        <time>2013-08-18T07:23:26Z</time>
      </trkpt>
      <trkpt lat="47.2362" lon="-1.61096">
        <ele>15.6</ele>
        <time>2013-08-18T07:23:29Z</time>
      </trkpt>
      <trkpt lat="47.23623" lon="-1.61112">
        <ele>15</ele>
        <time>2013-08-18T07:23:32Z</time>
      </trkpt>
      <trkpt lat="47.23627" lon="-1.61129">
        <ele>14.9</ele>
        <time>2013-08-18T07:23:35Z</time>
      </trkpt>
      <trkpt lat="47.23632" lon="-1.61146">
        <ele>14.9</ele>
        <time>2013-08-18T07:23:38Z</time>
      </trkpt>
      <trkpt lat="47.23638" lon="-1.61157">
        <ele>14.4</ele>
        <time>2013-08-18T07:23:40Z</time>
      </trkpt>
      <trkpt lat="47.23644" lon="-1.61174">
        <ele>14.1</ele>
        <time>2013-08-18T07:23:43Z</time>
      </trkpt>
      <trkpt lat="47.23652" lon="-1.61188">
        <ele>13.3</ele>
        <time>2013-08-18T07:23:46Z</time>
      </trkpt>
      <trkpt lat="47.2366" lon="-1.61203">
        <ele>13.2</ele>
        <time>2013-08-18T07:23:49Z</time>
      </trkpt>
      <trkpt lat="47.23666" lon="-1.61216">
        <ele>14.1</ele>
        <time>2013-08-18T07:23:51Z</time>
      </trkpt>
      <trkpt lat="47.2367" lon="-1.61229">
        <ele>15.2</ele>
        <time>2013-08-18T07:23:53Z</time>
      </trkpt>
      <trkpt lat="47.23672" lon="-1.61249">
        <ele>15.4</ele>
        <time>2013-08-18T07:23:56Z</time>
      </trkpt>
      <trkpt lat="47.23672" lon="-1.61264">
        <ele>16.3</ele>
        <time>2013-08-18T07:23:58Z</time>
      </trkpt>
      <trkpt lat="47.23674" lon="-1.61278">
        <ele>16.3</ele>
        <time>2013-08-18T07:24:00Z</time>
      </trkpt>
      <trkpt lat="47.23678" lon="-1.61295">
        <ele>15.5</ele>
        <time>2013-08-18T07:24:03Z</time>
      </trkpt>
      <trkpt lat="47.23687" lon="-1.61306">
        <ele>15.7</ele>
        <time>2013-08-18T07:24:06Z</time>
      </trkpt>
      <trkpt lat="47.23698" lon="-1.61313">
        <ele>15.9</ele>
        <time>2013-08-18T07:24:09Z</time>
      </trkpt>
      <trkpt lat="47.23709" lon="-1.61321">
        <ele>14.8</ele>
        <time>2013-08-18T07:24:12Z</time>
      </trkpt>
      <trkpt lat="47.2372" lon="-1.61331">
        <ele>12.1</ele>
        <time>2013-08-18T07:24:15Z</time>
      </trkpt>
      <trkpt lat="47.23729" lon="-1.61343">
        <ele>11.8</ele>
        <time>2013-08-18T07:24:18Z</time>
      </trkpt>
      <trkpt lat="47.23735" lon="-1.61353">
        <ele>11.6</ele>
        <time>2013-08-18T07:24:20Z</time>
      </trkpt>
      <trkpt lat="47.23742" lon="-1.61369">
        <ele>11.4</ele>
        <time>2013-08-18T07:24:23Z</time>
      </trkpt>
      <trkpt lat="47.23745" lon="-1.61384">
        <ele>11</ele>
        <time>2013-08-18T07:24:26Z</time>
      </trkpt>
      <trkpt lat="47.23748" lon="-1.61407">
        <ele>10.9</ele>
        <time>2013-08-18T07:24:29Z</time>
      </trkpt>
      <trkpt lat="47.23748" lon="-1.61424">
        <ele>11</ele>
        <time>2013-08-18T07:24:31Z</time>
      </trkpt>
      <trkpt lat="47.23745" lon="-1.61437">
        <ele>11.1</ele>
        <time>2013-08-18T07:24:33Z</time>
      </trkpt>
      <trkpt lat="47.23739" lon="-1.61453">
        <ele>11.1</ele>
        <time>2013-08-18T07:24:36Z</time>
      </trkpt>
      <trkpt lat="47.23735" lon="-1.61468">
        <ele>11</ele>
        <time>2013-08-18T07:24:39Z</time>
      </trkpt>
      <trkpt lat="47.23734" lon="-1.61486">
        <ele>10.8</ele>
        <time>2013-08-18T07:24:42Z</time>
      </trkpt>
      <trkpt lat="47.23736" lon="-1.61503">
        <ele>10.7</ele>
        <time>2013-08-18T07:24:45Z</time>
      </trkpt>
      <trkpt lat="47.23739" lon="-1.61517">
        <ele>10.9</ele>
        <time>2013-08-18T07:24:48Z</time>
      </trkpt>
      <trkpt lat="47.23745" lon="-1.61528">
        <ele>11.2</ele>
        <time>2013-08-18T07:24:51Z</time>
      </trkpt>
      <trkpt lat="47.23753" lon="-1.61535">
        <ele>11.6</ele>
        <time>2013-08-18T07:24:54Z</time>
      </trkpt>
      <trkpt lat="47.2376" lon="-1.61545">
        <ele>12.1</ele>
        <time>2013-08-18T07:24:58Z</time>
      </trkpt>
      <trkpt lat="47.2377" lon="-1.61553">
        <ele>12.6</ele>
        <time>2013-08-18T07:25:02Z</time>
      </trkpt>
      <trkpt lat="47.23779" lon="-1.61565">
        <ele>13</ele>
        <time>2013-08-18T07:25:06Z</time>
      </trkpt>
      <trkpt lat="47.23776" lon="-1.61579">
        <ele>13.8</ele>
        <time>2013-08-18T07:25:16Z</time>
      </trkpt>
      <trkpt lat="47.23773" lon="-1.61593">
        <ele>15.6</ele>
        <time>2013-08-18T07:25:33Z</time>
      </trkpt>
      <trkpt lat="47.23771" lon="-1.61607">
        <ele>16.7</ele>
        <time>2013-08-18T07:25:42Z</time>
      </trkpt>
      <trkpt lat="47.23769" lon="-1.61621">
        <ele>17.6</ele>
        <time>2013-08-18T07:25:47Z</time>
      </trkpt>
      <trkpt lat="47.23766" lon="-1.61634">
        <ele>17.8</ele>
        <time>2013-08-18T07:25:51Z</time>
      </trkpt>
      <trkpt lat="47.23764" lon="-1.61648">
        <ele>17.4</ele>
        <time>2013-08-18T07:25:56Z</time>
      </trkpt>
      <trkpt lat="47.23762" lon="-1.61662">
        <ele>17</ele>
        <time>2013-08-18T07:26:03Z</time>
      </trkpt>
      <trkpt lat="47.23763" lon="-1.61676">
        <ele>16.3</ele>
        <time>2013-08-18T07:26:09Z</time>
      </trkpt>
      <trkpt lat="47.23768" lon="-1.61688">
        <ele>15.3</ele>
        <time>2013-08-18T07:26:15Z</time>
      </trkpt>
      <trkpt lat="47.23773" lon="-1.61699">
        <ele>15.1</ele>
        <time>2013-08-18T07:26:22Z</time>
      </trkpt>
      <trkpt lat="47.23775" lon="-1.61715">
        <ele>15.2</ele>
        <time>2013-08-18T07:26:28Z</time>
      </trkpt>
      <trkpt lat="47.23778" lon="-1.61729">
        <ele>15.3</ele>
        <time>2013-08-18T07:26:31Z</time>
      </trkpt>
      <trkpt lat="47.23781" lon="-1.61743">
        <ele>15.2</ele>
        <time>2013-08-18T07:26:34Z</time>
      </trkpt>
      <trkpt lat="47.23784" lon="-1.61756">
        <ele>15</ele>
        <time>2013-08-18T07:26:38Z</time>
      </trkpt>
      <trkpt lat="47.23789" lon="-1.61771">
        <ele>14.5</ele>
        <time>2013-08-18T07:26:43Z</time>
      </trkpt>
      <trkpt lat="47.23795" lon="-1.61786">
        <ele>13.9</ele>
        <time>2013-08-18T07:26:46Z</time>
      </trkpt>
      <trkpt lat="47.238" lon="-1.61803">
        <ele>13.7</ele>
        <time>2013-08-18T07:26:49Z</time>
      </trkpt>
      <trkpt lat="47.23807" lon="-1.61818">
        <ele>13.7</ele>
        <time>2013-08-18T07:26:53Z</time>
      </trkpt>
      <trkpt lat="47.23814" lon="-1.6183">
        <ele>13.7</ele>
        <time>2013-08-18T07:26:57Z</time>
      </trkpt>
      <trkpt lat="47.23822" lon="-1.6184">
        <ele>14</ele>
        <time>2013-08-18T07:27:01Z</time>
      </trkpt>
      <trkpt lat="47.23828" lon="-1.61851">
        <ele>14.1</ele>
        <time>2013-08-18T07:27:04Z</time>
      </trkpt>
      <trkpt lat="47.23834" lon="-1.61863">
        <ele>13.9</ele>
        <time>2013-08-18T07:27:08Z</time>
      </trkpt>
      <trkpt lat="47.23839" lon="-1.61878">
        <ele>13.3</ele>
        <time>2013-08-18T07:27:11Z</time>
      </trkpt>
      <trkpt lat="47.23839" lon="-1.61892">
        <ele>13</ele>
        <time>2013-08-18T07:27:14Z</time>
      </trkpt>
      <trkpt lat="47.23842" lon="-1.61904">
        <ele>12.8</ele>
        <time>2013-08-18T07:27:21Z</time>
      </trkpt>
      <trkpt lat="47.23847" lon="-1.61917">
        <ele>13.1</ele>
        <time>2013-08-18T07:27:25Z</time>
      </trkpt>
      <trkpt lat="47.23854" lon="-1.61929">
        <ele>13.7</ele>
        <time>2013-08-18T07:27:30Z</time>
      </trkpt>
      <trkpt lat="47.23861" lon="-1.61938">
        <ele>14.7</ele>
        <time>2013-08-18T07:27:46Z</time>
      </trkpt>
      <trkpt lat="47.23858" lon="-1.61951">
        <ele>16.9</ele>
        <time>2013-08-18T07:28:03Z</time>
      </trkpt>
      <trkpt lat="47.23867" lon="-1.61959">
        <ele>17.8</ele>
        <time>2013-08-18T07:28:08Z</time>
      </trkpt>
      <trkpt lat="47.23876" lon="-1.61961">
        <ele>18.5</ele>
        <time>2013-08-18T07:28:12Z</time>
      </trkpt>
      <trkpt lat="47.23887" lon="-1.61965">
        <ele>19.3</ele>
        <time>2013-08-18T07:28:18Z</time>
      </trkpt>
      <trkpt lat="47.23896" lon="-1.61968">
        <ele>19.6</ele>
        <time>2013-08-18T07:28:22Z</time>
      </trkpt>
      <trkpt lat="47.23907" lon="-1.61969">
        <ele>19.8</ele>
        <time>2013-08-18T07:28:26Z</time>
      </trkpt>
      <trkpt lat="47.23916" lon="-1.61969">
        <ele>20</ele>
        <time>2013-08-18T07:28:29Z</time>
      </trkpt>
      <trkpt lat="47.23927" lon="-1.61969">
        <ele>20.4</ele>
        <time>2013-08-18T07:28:33Z</time>
      </trkpt>
      <trkpt lat="47.23937" lon="-1.61969">
        <ele>20.6</ele>
        <time>2013-08-18T07:28:37Z</time>
      </trkpt>
      <trkpt lat="47.23949" lon="-1.61975">
        <ele>20.9</ele>
        <time>2013-08-18T07:28:41Z</time>
      </trkpt>
      <trkpt lat="47.23957" lon="-1.61983">
        <ele>20.9</ele>
        <time>2013-08-18T07:28:43Z</time>
      </trkpt>
      <trkpt lat="47.23966" lon="-1.6199">
        <ele>20.9</ele>
        <time>2013-08-18T07:28:45Z</time>
      </trkpt>
      <trkpt lat="47.23973" lon="-1.61998">
        <ele>20.9</ele>
        <time>2013-08-18T07:28:48Z</time>
      </trkpt>
      <trkpt lat="47.23982" lon="-1.62007">
        <ele>21</ele>
        <time>2013-08-18T07:28:52Z</time>
      </trkpt>
      <trkpt lat="47.23991" lon="-1.62018">
        <ele>21.5</ele>
        <time>2013-08-18T07:28:55Z</time>
      </trkpt>
      <trkpt lat="47.23997" lon="-1.62028">
        <ele>21.9</ele>
        <time>2013-08-18T07:28:58Z</time>
      </trkpt>
      <trkpt lat="47.24004" lon="-1.62043">
        <ele>21.9</ele>
        <time>2013-08-18T07:29:01Z</time>
      </trkpt>
      <trkpt lat="47.24008" lon="-1.62055">
        <ele>21.9</ele>
        <time>2013-08-18T07:29:04Z</time>
      </trkpt>
      <trkpt lat="47.2401" lon="-1.62068">
        <ele>21.7</ele>
        <time>2013-08-18T07:29:07Z</time>
      </trkpt>
      <trkpt lat="47.24011" lon="-1.62086">
        <ele>21.3</ele>
        <time>2013-08-18T07:29:10Z</time>
      </trkpt>
      <trkpt lat="47.24014" lon="-1.62104">
        <ele>21.2</ele>
        <time>2013-08-18T07:29:13Z</time>
      </trkpt>
      <trkpt lat="47.24015" lon="-1.62123">
        <ele>20.9</ele>
        <time>2013-08-18T07:29:16Z</time>
      </trkpt>
      <trkpt lat="47.24017" lon="-1.62138">
        <ele>20.7</ele>
        <time>2013-08-18T07:29:19Z</time>
      </trkpt>
      <trkpt lat="47.24019" lon="-1.62152">
        <ele>20.4</ele>
        <time>2013-08-18T07:29:22Z</time>
      </trkpt>
      <trkpt lat="47.2402" lon="-1.62168">
        <ele>20.1</ele>
        <time>2013-08-18T07:29:25Z</time>
      </trkpt>
      <trkpt lat="47.2402" lon="-1.62182">
        <ele>20</ele>
        <time>2013-08-18T07:29:27Z</time>
      </trkpt>
      <trkpt lat="47.2402" lon="-1.62197">
        <ele>20</ele>
        <time>2013-08-18T07:29:29Z</time>
      </trkpt>
      <trkpt lat="47.24019" lon="-1.62211">
        <ele>18.9</ele>
        <time>2013-08-18T07:29:31Z</time>
      </trkpt>
      <trkpt lat="47.24016" lon="-1.62228">
        <ele>18.7</ele>
        <time>2013-08-18T07:29:34Z</time>
      </trkpt>
      <trkpt lat="47.24013" lon="-1.62246">
        <ele>18.4</ele>
        <time>2013-08-18T07:29:37Z</time>
      </trkpt>
      <trkpt lat="47.24012" lon="-1.62264">
        <ele>18.3</ele>
        <time>2013-08-18T07:29:40Z</time>
      </trkpt>
      <trkpt lat="47.24012" lon="-1.62277">
        <ele>18.1</ele>
        <time>2013-08-18T07:29:42Z</time>
      </trkpt>
      <trkpt lat="47.24013" lon="-1.62296">
        <ele>18</ele>
        <time>2013-08-18T07:29:45Z</time>
      </trkpt>
      <trkpt lat="47.24012" lon="-1.62311">
        <ele>17.9</ele>
        <time>2013-08-18T07:29:48Z</time>
      </trkpt>
      <trkpt lat="47.24008" lon="-1.62329">
        <ele>17.6</ele>
        <time>2013-08-18T07:29:51Z</time>
      </trkpt>
      <trkpt lat="47.2401" lon="-1.62346">
        <ele>15.8</ele>
        <time>2013-08-18T07:29:54Z</time>
      </trkpt>
      <trkpt lat="47.24012" lon="-1.62361">
        <ele>14.2</ele>
        <time>2013-08-18T07:29:56Z</time>
      </trkpt>
      <trkpt lat="47.24014" lon="-1.62377">
        <ele>13.6</ele>
        <time>2013-08-18T07:29:59Z</time>
      </trkpt>
      <trkpt lat="47.24015" lon="-1.62393">
        <ele>13.6</ele>
        <time>2013-08-18T07:30:02Z</time>
      </trkpt>
      <trkpt lat="47.24016" lon="-1.62406">
        <ele>13.6</ele>
        <time>2013-08-18T07:30:04Z</time>
      </trkpt>
      <trkpt lat="47.24014" lon="-1.6242">
        <ele>13.6</ele>
        <time>2013-08-18T07:30:07Z</time>
      </trkpt>
      <trkpt lat="47.24011" lon="-1.62435">
        <ele>13.7</ele>
        <time>2013-08-18T07:30:10Z</time>
      </trkpt>
      <trkpt lat="47.24015" lon="-1.6245">
        <ele>14.4</ele>
        <time>2013-08-18T07:30:13Z</time>
      </trkpt>
      <trkpt lat="47.24023" lon="-1.62461">
        <ele>14.3</ele>
        <time>2013-08-18T07:30:16Z</time>
      </trkpt>
      <trkpt lat="47.24029" lon="-1.62472">
        <ele>14</ele>
        <time>2013-08-18T07:30:18Z</time>
      </trkpt>
      <trkpt lat="47.24035" lon="-1.62482">
        <ele>13.9</ele>
        <time>2013-08-18T07:30:20Z</time>
      </trkpt>
      <trkpt lat="47.24041" lon="-1.62493">
        <ele>13.8</ele>
        <time>2013-08-18T07:30:22Z</time>
      </trkpt>
      <trkpt lat="47.24049" lon="-1.62506">
        <ele>14.4</ele>
        <time>2013-08-18T07:30:24Z</time>
      </trkpt>
      <trkpt lat="47.24057" lon="-1.62518">
        <ele>14.8</ele>
        <time>2013-08-18T07:30:26Z</time>
      </trkpt>
      <trkpt lat="47.24065" lon="-1.6253">
        <ele>15.4</ele>
        <time>2013-08-18T07:30:28Z</time>
      </trkpt>
      <trkpt lat="47.24073" lon="-1.62538">
        <ele>15.3</ele>
        <time>2013-08-18T07:30:30Z</time>
      </trkpt>
      <trkpt lat="47.24087" lon="-1.62542">
        <ele>14.5</ele>
        <time>2013-08-18T07:30:33Z</time>
      </trkpt>
      <trkpt lat="47.24098" lon="-1.62548">
        <ele>14</ele>
        <time>2013-08-18T07:30:35Z</time>
      </trkpt>
      <trkpt lat="47.24106" lon="-1.62559">
        <ele>13.8</ele>
        <time>2013-08-18T07:30:38Z</time>
      </trkpt>
      <trkpt lat="47.24103" lon="-1.62578">
        <ele>13.6</ele>
        <time>2013-08-18T07:30:41Z</time>
      </trkpt>
      <trkpt lat="47.24098" lon="-1.62589">
        <ele>13.2</ele>
        <time>2013-08-18T07:30:43Z</time>
      </trkpt>
      <trkpt lat="47.24093" lon="-1.62602">
        <ele>13.1</ele>
        <time>2013-08-18T07:30:45Z</time>
      </trkpt>
      <trkpt lat="47.24087" lon="-1.62616">
        <ele>13.1</ele>
        <time>2013-08-18T07:30:48Z</time>
      </trkpt>
      <trkpt lat="47.2408" lon="-1.62625">
        <ele>12.9</ele>
        <time>2013-08-18T07:30:50Z</time>
      </trkpt>
      <trkpt lat="47.24073" lon="-1.62636">
        <ele>12.8</ele>
        <time>2013-08-18T07:30:52Z</time>
      </trkpt>
      <trkpt lat="47.24064" lon="-1.62652">
        <ele>12.5</ele>
        <time>2013-08-18T07:30:55Z</time>
      </trkpt>
      <trkpt lat="47.24057" lon="-1.62667">
        <ele>12.1</ele>
        <time>2013-08-18T07:30:59Z</time>
      </trkpt>
      <trkpt lat="47.24057" lon="-1.62682">
        <ele>12.2</ele>
        <time>2013-08-18T07:31:03Z</time>
      </trkpt>
      <trkpt lat="47.24062" lon="-1.62697">
        <ele>12.5</ele>
        <time>2013-08-18T07:31:10Z</time>
      </trkpt>
      <trkpt lat="47.2407" lon="-1.62708">
        <ele>12.8</ele>
        <time>2013-08-18T07:31:16Z</time>
      </trkpt>
      <trkpt lat="47.24079" lon="-1.62712">
        <ele>13.5</ele>
        <time>2013-08-18T07:31:20Z</time>
      </trkpt>
      <trkpt lat="47.24088" lon="-1.62715">
        <ele>14.9</ele>
        <time>2013-08-18T07:31:35Z</time>
      </trkpt>
      <trkpt lat="47.24097" lon="-1.62723">
        <ele>15.6</ele>
        <time>2013-08-18T07:31:52Z</time>
      </trkpt>
      <trkpt lat="47.24103" lon="-1.62734">
        <ele>16</ele>
        <time>2013-08-18T07:31:56Z</time>
      </trkpt>
      <trkpt lat="47.24104" lon="-1.62748">
        <ele>16.5</ele>
        <time>2013-08-18T07:32:01Z</time>
      </trkpt>
      <trkpt lat="47.24107" lon="-1.6276">
        <ele>16.1</ele>
        <time>2013-08-18T07:32:18Z</time>
      </trkpt>
      <trkpt lat="47.24111" lon="-1.62774">
        <ele>19.3</ele>
        <time>2013-08-18T07:33:07Z</time>
      </trkpt>
      <trkpt lat="47.24119" lon="-1.62785">
        <ele>19.6</ele>
        <time>2013-08-18T07:33:12Z</time>
      </trkpt>
      <trkpt lat="47.24128" lon="-1.62796">
        <ele>19.8</ele>
        <time>2013-08-18T07:33:15Z</time>
      </trkpt>
      <trkpt lat="47.24133" lon="-1.62812">
        <ele>19.6</ele>
        <time>2013-08-18T07:33:19Z</time>
      </trkpt>
      <trkpt lat="47.24139" lon="-1.62826">
        <ele>19.8</ele>
        <time>2013-08-18T07:33:23Z</time>
      </trkpt>
      <trkpt lat="47.24144" lon="-1.62837">
        <ele>19.9</ele>
        <time>2013-08-18T07:33:26Z</time>
      </trkpt>
      <trkpt lat="47.24151" lon="-1.6285">
        <ele>19.7</ele>
        <time>2013-08-18T07:33:30Z</time>
      </trkpt>
      <trkpt lat="47.24157" lon="-1.62862">
        <ele>19.3</ele>
        <time>2013-08-18T07:33:34Z</time>
      </trkpt>
      <trkpt lat="47.2416" lon="-1.62875">
        <ele>18.6</ele>
        <time>2013-08-18T07:33:37Z</time>
      </trkpt>
      <trkpt lat="47.24164" lon="-1.62887">
        <ele>18.2</ele>
        <time>2013-08-18T07:33:40Z</time>
      </trkpt>
      <trkpt lat="47.24168" lon="-1.629">
        <ele>18</ele>
        <time>2013-08-18T07:33:43Z</time>
      </trkpt>
      <trkpt lat="47.24173" lon="-1.62915">
        <ele>17.6</ele>
        <time>2013-08-18T07:33:47Z</time>
      </trkpt>
      <trkpt lat="47.24182" lon="-1.62928">
        <ele>17.3</ele>
        <time>2013-08-18T07:33:50Z</time>
      </trkpt>
      <trkpt lat="47.24189" lon="-1.62944">
        <ele>17.2</ele>
        <time>2013-08-18T07:33:53Z</time>
      </trkpt>
      <trkpt lat="47.24193" lon="-1.62957">
        <ele>17.2</ele>
        <time>2013-08-18T07:33:56Z</time>
      </trkpt>
      <trkpt lat="47.24199" lon="-1.62971">
        <ele>17.2</ele>
        <time>2013-08-18T07:34:00Z</time>
      </trkpt>
      <trkpt lat="47.24204" lon="-1.62984">
        <ele>17.1</ele>
        <time>2013-08-18T07:34:03Z</time>
      </trkpt>
      <trkpt lat="47.24208" lon="-1.62997">
        <ele>16.7</ele>
        <time>2013-08-18T07:34:06Z</time>
      </trkpt>
      <trkpt lat="47.24212" lon="-1.63014">
        <ele>16</ele>
        <time>2013-08-18T07:34:10Z</time>
      </trkpt>
      <trkpt lat="47.24214" lon="-1.63033">
        <ele>15.7</ele>
        <time>2013-08-18T07:34:13Z</time>
      </trkpt>
      <trkpt lat="47.24215" lon="-1.63046">
        <ele>15.5</ele>
        <time>2013-08-18T07:34:15Z</time>
      </trkpt>
      <trkpt lat="47.24217" lon="-1.63061">
        <ele>15.2</ele>
        <time>2013-08-18T07:34:17Z</time>
      </trkpt>
      <trkpt lat="47.24219" lon="-1.63074">
        <ele>13.3</ele>
        <time>2013-08-18T07:34:19Z</time>
      </trkpt>
      <trkpt lat="47.24221" lon="-1.63088">
        <ele>11.9</ele>
        <time>2013-08-18T07:34:21Z</time>
      </trkpt>
      <trkpt lat="47.24224" lon="-1.63103">
        <ele>9.8</ele>
        <time>2013-08-18T07:34:23Z</time>
      </trkpt>
      <trkpt lat="47.24225" lon="-1.63117">
        <ele>9.6</ele>
        <time>2013-08-18T07:34:25Z</time>
      </trkpt>
      <trkpt lat="47.24232" lon="-1.63135">
        <ele>11.2</ele>
        <time>2013-08-18T07:34:28Z</time>
      </trkpt>
      <trkpt lat="47.24238" lon="-1.63147">
        <ele>13</ele>
        <time>2013-08-18T07:34:30Z</time>
      </trkpt>
      <trkpt lat="47.24244" lon="-1.63158">
        <ele>14</ele>
        <time>2013-08-18T07:34:32Z</time>
      </trkpt>
      <trkpt lat="47.24249" lon="-1.63169">
        <ele>14</ele>
        <time>2013-08-18T07:34:34Z</time>
      </trkpt>
      <trkpt lat="47.24256" lon="-1.63184">
        <ele>13.8</ele>
        <time>2013-08-18T07:34:37Z</time>
      </trkpt>
      <trkpt lat="47.24262" lon="-1.63194">
        <ele>14.1</ele>
        <time>2013-08-18T07:34:40Z</time>
      </trkpt>
      <trkpt lat="47.24271" lon="-1.63203">
        <ele>14.6</ele>
        <time>2013-08-18T07:34:44Z</time>
      </trkpt>
      <trkpt lat="47.24279" lon="-1.63212">
        <ele>15.1</ele>
        <time>2013-08-18T07:34:47Z</time>
      </trkpt>
      <trkpt lat="47.24287" lon="-1.6322">
        <ele>15.6</ele>
        <time>2013-08-18T07:34:50Z</time>
      </trkpt>
      <trkpt lat="47.24295" lon="-1.6323">
        <ele>16.1</ele>
        <time>2013-08-18T07:34:53Z</time>
      </trkpt>
      <trkpt lat="47.24303" lon="-1.6324">
        <ele>16.4</ele>
        <time>2013-08-18T07:34:56Z</time>
      </trkpt>
      <trkpt lat="47.24311" lon="-1.63252">
        <ele>16.7</ele>
        <time>2013-08-18T07:34:59Z</time>
      </trkpt>
      <trkpt lat="47.24321" lon="-1.63263">
        <ele>17</ele>
        <time>2013-08-18T07:35:02Z</time>
      </trkpt>
      <trkpt lat="47.24331" lon="-1.63273">
        <ele>17</ele>
        <time>2013-08-18T07:35:05Z</time>
      </trkpt>
      <trkpt lat="47.24339" lon="-1.6328">
        <ele>17</ele>
        <time>2013-08-18T07:35:08Z</time>
      </trkpt>
      <trkpt lat="47.2435" lon="-1.63287">
        <ele>16.9</ele>
        <time>2013-08-18T07:35:11Z</time>
      </trkpt>
      <trkpt lat="47.24358" lon="-1.63295">
        <ele>16.7</ele>
        <time>2013-08-18T07:35:13Z</time>
      </trkpt>
      <trkpt lat="47.24368" lon="-1.63307">
        <ele>16.3</ele>
        <time>2013-08-18T07:35:16Z</time>
      </trkpt>
      <trkpt lat="47.24375" lon="-1.63321">
        <ele>16.1</ele>
        <time>2013-08-18T07:35:19Z</time>
      </trkpt>
      <trkpt lat="47.2438" lon="-1.63335">
        <ele>15.8</ele>
        <time>2013-08-18T07:35:21Z</time>
      </trkpt>
      <trkpt lat="47.24382" lon="-1.63349">
        <ele>15.8</ele>
        <time>2013-08-18T07:35:23Z</time>
      </trkpt>
      <trkpt lat="47.2438" lon="-1.63368">
        <ele>16</ele>
        <time>2013-08-18T07:35:26Z</time>
      </trkpt>
      <trkpt lat="47.24377" lon="-1.63381">
        <ele>16</ele>
        <time>2013-08-18T07:35:28Z</time>
      </trkpt>
      <trkpt lat="47.24371" lon="-1.63392">
        <ele>15.7</ele>
        <time>2013-08-18T07:35:30Z</time>
      </trkpt>
      <trkpt lat="47.24368" lon="-1.63407">
        <ele>15.1</ele>
        <time>2013-08-18T07:35:34Z</time>
      </trkpt>
      <trkpt lat="47.24375" lon="-1.63416">
        <ele>14.7</ele>
        <time>2013-08-18T07:35:39Z</time>
      </trkpt>
      <trkpt lat="47.24381" lon="-1.63426">
        <ele>14.9</ele>
        <time>2013-08-18T07:35:43Z</time>
      </trkpt>
      <trkpt lat="47.24386" lon="-1.63439">
        <ele>15.3</ele>
        <time>2013-08-18T07:35:48Z</time>
      </trkpt>
      <trkpt lat="47.2439" lon="-1.63452">
        <ele>15.5</ele>
        <time>2013-08-18T07:35:54Z</time>
      </trkpt>
      <trkpt lat="47.24392" lon="-1.63468">
        <ele>15.7</ele>
        <time>2013-08-18T07:35:58Z</time>
      </trkpt>
      <trkpt lat="47.24392" lon="-1.63483">
        <ele>16</ele>
        <time>2013-08-18T07:36:02Z</time>
      </trkpt>
      <trkpt lat="47.24394" lon="-1.635">
        <ele>16.9</ele>
        <time>2013-08-18T07:36:07Z</time>
      </trkpt>
      <trkpt lat="47.24394" lon="-1.63514">
        <ele>17.7</ele>
        <time>2013-08-18T07:36:11Z</time>
      </trkpt>
      <trkpt lat="47.24391" lon="-1.63527">
        <ele>18.1</ele>
        <time>2013-08-18T07:36:15Z</time>
      </trkpt>
      <trkpt lat="47.24387" lon="-1.63547">
        <ele>19.9</ele>
        <time>2013-08-18T07:36:18Z</time>
      </trkpt>
      <trkpt lat="47.24384" lon="-1.63561">
        <ele>20.1</ele>
        <time>2013-08-18T07:36:20Z</time>
      </trkpt>
      <trkpt lat="47.24383" lon="-1.63574">
        <ele>21</ele>
        <time>2013-08-18T07:36:22Z</time>
      </trkpt>
      <trkpt lat="47.24386" lon="-1.6359">
        <ele>20.8</ele>
        <time>2013-08-18T07:36:26Z</time>
      </trkpt>
      <trkpt lat="47.24391" lon="-1.63602">
        <ele>20.5</ele>
        <time>2013-08-18T07:36:29Z</time>
      </trkpt>
      <trkpt lat="47.24396" lon="-1.63617">
        <ele>20.6</ele>
        <time>2013-08-18T07:36:32Z</time>
      </trkpt>
      <trkpt lat="47.24398" lon="-1.6363">
        <ele>21</ele>
        <time>2013-08-18T07:36:35Z</time>
      </trkpt>
      <trkpt lat="47.24398" lon="-1.63646">
        <ele>21.4</ele>
        <time>2013-08-18T07:36:39Z</time>
      </trkpt>
      <trkpt lat="47.24398" lon="-1.6366">
        <ele>21.6</ele>
        <time>2013-08-18T07:36:42Z</time>
      </trkpt>
      <trkpt lat="47.24398" lon="-1.63674">
        <ele>21.8</ele>
        <time>2013-08-18T07:36:45Z</time>
      </trkpt>
      <trkpt lat="47.24397" lon="-1.6369">
        <ele>22.3</ele>
        <time>2013-08-18T07:36:49Z</time>
      </trkpt>
      <trkpt lat="47.24396" lon="-1.63703">
        <ele>22.5</ele>
        <time>2013-08-18T07:36:52Z</time>
      </trkpt>
      <trkpt lat="47.24393" lon="-1.63723">
        <ele>22.7</ele>
        <time>2013-08-18T07:36:55Z</time>
      </trkpt>
      <trkpt lat="47.2439" lon="-1.6374">
        <ele>23.8</ele>
        <time>2013-08-18T07:36:58Z</time>
      </trkpt>
      <trkpt lat="47.24394" lon="-1.63754">
        <ele>23.8</ele>
        <time>2013-08-18T07:37:02Z</time>
      </trkpt>
      <trkpt lat="47.24403" lon="-1.63748">
        <ele>23.8</ele>
        <time>2013-08-18T07:37:07Z</time>
      </trkpt>
      <trkpt lat="47.2441" lon="-1.63739">
        <ele>24.2</ele>
        <time>2013-08-18T07:37:11Z</time>
      </trkpt>
      <trkpt lat="47.24419" lon="-1.63739">
        <ele>24.8</ele>
        <time>2013-08-18T07:37:16Z</time>
      </trkpt>
      <trkpt lat="47.24428" lon="-1.6374">
        <ele>25.3</ele>
        <time>2013-08-18T07:37:20Z</time>
      </trkpt>
      <trkpt lat="47.2444" lon="-1.63743">
        <ele>25.5</ele>
        <time>2013-08-18T07:37:23Z</time>
      </trkpt>
      <trkpt lat="47.24448" lon="-1.63747">
        <ele>25.7</ele>
        <time>2013-08-18T07:37:26Z</time>
      </trkpt>
      <trkpt lat="47.24457" lon="-1.63756">
        <ele>25.8</ele>
        <time>2013-08-18T07:37:29Z</time>
      </trkpt>
      <trkpt lat="47.24467" lon="-1.63762">
        <ele>26.1</ele>
        <time>2013-08-18T07:37:32Z</time>
      </trkpt>
      <trkpt lat="47.24476" lon="-1.6377">
        <ele>26.3</ele>
        <time>2013-08-18T07:37:35Z</time>
      </trkpt>
      <trkpt lat="47.24486" lon="-1.63779">
        <ele>26.5</ele>
        <time>2013-08-18T07:37:38Z</time>
      </trkpt>
      <trkpt lat="47.24494" lon="-1.63785">
        <ele>26.6</ele>
        <time>2013-08-18T07:37:41Z</time>
      </trkpt>
      <trkpt lat="47.24506" lon="-1.63793">
        <ele>26.9</ele>
        <time>2013-08-18T07:37:45Z</time>
      </trkpt>
      <trkpt lat="47.24517" lon="-1.63797">
        <ele>27.4</ele>
        <time>2013-08-18T07:37:48Z</time>
      </trkpt>
      <trkpt lat="47.24528" lon="-1.63801">
        <ele>27.8</ele>
        <time>2013-08-18T07:37:52Z</time>
      </trkpt>
      <trkpt lat="47.24539" lon="-1.63802">
        <ele>27.8</ele>
        <time>2013-08-18T07:37:55Z</time>
      </trkpt>
      <trkpt lat="47.2455" lon="-1.638">
        <ele>27.8</ele>
        <time>2013-08-18T07:37:58Z</time>
      </trkpt>
      <trkpt lat="47.24562" lon="-1.63795">
        <ele>27.9</ele>
        <time>2013-08-18T07:38:01Z</time>
      </trkpt>
      <trkpt lat="47.24572" lon="-1.63787">
        <ele>28.1</ele>
        <time>2013-08-18T07:38:04Z</time>
      </trkpt>
      <trkpt lat="47.24583" lon="-1.6378">
        <ele>28.3</ele>
        <time>2013-08-18T07:38:07Z</time>
      </trkpt>
      <trkpt lat="47.24592" lon="-1.63774">
        <ele>28.6</ele>
        <time>2013-08-18T07:38:10Z</time>
      </trkpt>
      <trkpt lat="47.24603" lon="-1.63768">
        <ele>29</ele>
        <time>2013-08-18T07:38:13Z</time>
      </trkpt>
      <trkpt lat="47.24614" lon="-1.63764">
        <ele>29.7</ele>
        <time>2013-08-18T07:38:16Z</time>
      </trkpt>
      <trkpt lat="47.24625" lon="-1.63761">
        <ele>30.4</ele>
        <time>2013-08-18T07:38:19Z</time>
      </trkpt>
      <trkpt lat="47.24636" lon="-1.63766">
        <ele>30.9</ele>
        <time>2013-08-18T07:38:22Z</time>
      </trkpt>
      <trkpt lat="47.24645" lon="-1.63775">
        <ele>31.4</ele>
        <time>2013-08-18T07:38:25Z</time>
      </trkpt>
      <trkpt lat="47.24656" lon="-1.63785">
        <ele>34.4</ele>
        <time>2013-08-18T07:38:28Z</time>
      </trkpt>
      <trkpt lat="47.24664" lon="-1.63792">
        <ele>36.4</ele>
        <time>2013-08-18T07:38:30Z</time>
      </trkpt>
      <trkpt lat="47.24674" lon="-1.63797">
        <ele>39</ele>
        <time>2013-08-18T07:38:33Z</time>
      </trkpt>
      <trkpt lat="47.24686" lon="-1.63795">
        <ele>39.1</ele>
        <time>2013-08-18T07:38:36Z</time>
      </trkpt>
      <trkpt lat="47.24696" lon="-1.6379">
        <ele>39.1</ele>
        <time>2013-08-18T07:38:38Z</time>
      </trkpt>
      <trkpt lat="47.24707" lon="-1.63778">
        <ele>39.1</ele>
        <time>2013-08-18T07:38:41Z</time>
      </trkpt>
      <trkpt lat="47.24715" lon="-1.63764">
        <ele>39</ele>
        <time>2013-08-18T07:38:44Z</time>
      </trkpt>
      <trkpt lat="47.24721" lon="-1.63749">
        <ele>39</ele>
        <time>2013-08-18T07:38:47Z</time>
      </trkpt>
      <trkpt lat="47.24726" lon="-1.63737">
        <ele>39.1</ele>
        <time>2013-08-18T07:38:51Z</time>
      </trkpt>
      <trkpt lat="47.24733" lon="-1.63727">
        <ele>39.6</ele>
        <time>2013-08-18T07:38:55Z</time>
      </trkpt>
      <trkpt lat="47.24742" lon="-1.6372">
        <ele>40.2</ele>
        <time>2013-08-18T07:39:00Z</time>
      </trkpt>
      <trkpt lat="47.24752" lon="-1.63717">
        <ele>40.9</ele>
        <time>2013-08-18T07:39:04Z</time>
      </trkpt>
      <trkpt lat="47.24763" lon="-1.63718">
        <ele>41.5</ele>
        <time>2013-08-18T07:39:08Z</time>
      </trkpt>
      <trkpt lat="47.24772" lon="-1.63721">
        <ele>41.7</ele>
        <time>2013-08-18T07:39:12Z</time>
      </trkpt>
      <trkpt lat="47.24781" lon="-1.63726">
        <ele>42.1</ele>
        <time>2013-08-18T07:39:16Z</time>
      </trkpt>
      <trkpt lat="47.24791" lon="-1.6373">
        <ele>42.5</ele>
        <time>2013-08-18T07:39:20Z</time>
      </trkpt>
      <trkpt lat="47.24802" lon="-1.63734">
        <ele>43</ele>
        <time>2013-08-18T07:39:24Z</time>
      </trkpt>
      <trkpt lat="47.24812" lon="-1.6374">
        <ele>43.2</ele>
        <time>2013-08-18T07:39:28Z</time>
      </trkpt>
      <trkpt lat="47.24821" lon="-1.63744">
        <ele>43.4</ele>
        <time>2013-08-18T07:39:31Z</time>
      </trkpt>
      <trkpt lat="47.24832" lon="-1.63748">
        <ele>43.7</ele>
        <time>2013-08-18T07:39:35Z</time>
      </trkpt>
      <trkpt lat="47.24843" lon="-1.63753">
        <ele>44</ele>
        <time>2013-08-18T07:39:39Z</time>
      </trkpt>
      <trkpt lat="47.24852" lon="-1.63757">
        <ele>44.3</ele>
        <time>2013-08-18T07:39:42Z</time>
      </trkpt>
      <trkpt lat="47.24862" lon="-1.63762">
        <ele>44.5</ele>
        <time>2013-08-18T07:39:45Z</time>
      </trkpt>
      <trkpt lat="47.24873" lon="-1.6377">
        <ele>44.5</ele>
        <time>2013-08-18T07:39:48Z</time>
      </trkpt>
      <trkpt lat="47.24883" lon="-1.63776">
        <ele>44.7</ele>
        <time>2013-08-18T07:39:51Z</time>
      </trkpt>
      <trkpt lat="47.24892" lon="-1.6378">
        <ele>44.9</ele>
        <time>2013-08-18T07:39:53Z</time>
      </trkpt>
      <trkpt lat="47.24901" lon="-1.63785">
        <ele>45.2</ele>
        <time>2013-08-18T07:39:55Z</time>
      </trkpt>
      <trkpt lat="47.24912" lon="-1.6379">
        <ele>45.8</ele>
        <time>2013-08-18T07:39:58Z</time>
      </trkpt>
      <trkpt lat="47.24922" lon="-1.63793">
        <ele>46.4</ele>
        <time>2013-08-18T07:40:01Z</time>
      </trkpt>
      <trkpt lat="47.24932" lon="-1.63796">
        <ele>46.8</ele>
        <time>2013-08-18T07:40:04Z</time>
      </trkpt>
      <trkpt lat="47.24941" lon="-1.63799">
        <ele>47.2</ele>
        <time>2013-08-18T07:40:06Z</time>
      </trkpt>
      <trkpt lat="47.24949" lon="-1.63809">
        <ele>47.6</ele>
        <time>2013-08-18T07:40:09Z</time>
      </trkpt>
      <trkpt lat="47.24955" lon="-1.63825">
        <ele>48.1</ele>
        <time>2013-08-18T07:40:12Z</time>
      </trkpt>
      <trkpt lat="47.2496" lon="-1.63841">
        <ele>50.6</ele>
        <time>2013-08-18T07:40:15Z</time>
      </trkpt>
      <trkpt lat="47.24965" lon="-1.63856">
        <ele>52.9</ele>
        <time>2013-08-18T07:40:18Z</time>
      </trkpt>
      <trkpt lat="47.24971" lon="-1.63871">
        <ele>53.7</ele>
        <time>2013-08-18T07:40:21Z</time>
      </trkpt>
      <trkpt lat="47.24976" lon="-1.63885">
        <ele>54</ele>
        <time>2013-08-18T07:40:24Z</time>
      </trkpt>
      <trkpt lat="47.24982" lon="-1.639">
        <ele>55.1</ele>
        <time>2013-08-18T07:40:27Z</time>
      </trkpt>
      <trkpt lat="47.24988" lon="-1.63918">
        <ele>55.6</ele>
        <time>2013-08-18T07:40:30Z</time>
      </trkpt>
      <trkpt lat="47.24994" lon="-1.63932">
        <ele>53.1</ele>
        <time>2013-08-18T07:40:33Z</time>
      </trkpt>
      <trkpt lat="47.25004" lon="-1.63943">
        <ele>51</ele>
        <time>2013-08-18T07:40:36Z</time>
      </trkpt>
      <trkpt lat="47.25015" lon="-1.63946">
        <ele>51</ele>
        <time>2013-08-18T07:40:39Z</time>
      </trkpt>
      <trkpt lat="47.25027" lon="-1.63941">
        <ele>51.2</ele>
        <time>2013-08-18T07:40:41Z</time>
      </trkpt>
      <trkpt lat="47.25037" lon="-1.63934">
        <ele>51.4</ele>
        <time>2013-08-18T07:40:43Z</time>
      </trkpt>
      <trkpt lat="47.25047" lon="-1.63925">
        <ele>49.7</ele>
        <time>2013-08-18T07:40:45Z</time>
      </trkpt>
      <trkpt lat="47.25056" lon="-1.63918">
        <ele>49.1</ele>
        <time>2013-08-18T07:40:47Z</time>
      </trkpt>
      <trkpt lat="47.25064" lon="-1.63911">
        <ele>49.1</ele>
        <time>2013-08-18T07:40:49Z</time>
      </trkpt>
      <trkpt lat="47.25073" lon="-1.63903">
        <ele>51.4</ele>
        <time>2013-08-18T07:40:51Z</time>
      </trkpt>
      <trkpt lat="47.25084" lon="-1.63893">
        <ele>52.4</ele>
        <time>2013-08-18T07:40:53Z</time>
      </trkpt>
      <trkpt lat="47.25094" lon="-1.63881">
        <ele>52.8</ele>
        <time>2013-08-18T07:40:55Z</time>
      </trkpt>
      <trkpt lat="47.251" lon="-1.6387">
        <ele>53.9</ele>
        <time>2013-08-18T07:40:57Z</time>
      </trkpt>
      <trkpt lat="47.25106" lon="-1.63858">
        <ele>53.8</ele>
        <time>2013-08-18T07:40:59Z</time>
      </trkpt>
      <trkpt lat="47.25112" lon="-1.63846">
        <ele>53.3</ele>
        <time>2013-08-18T07:41:01Z</time>
      </trkpt>
      <trkpt lat="47.25119" lon="-1.63833">
        <ele>51.7</ele>
        <time>2013-08-18T07:41:03Z</time>
      </trkpt>
      <trkpt lat="47.25127" lon="-1.63821">
        <ele>49.5</ele>
        <time>2013-08-18T07:41:05Z</time>
      </trkpt>
      <trkpt lat="47.25137" lon="-1.63809">
        <ele>48</ele>
        <time>2013-08-18T07:41:07Z</time>
      </trkpt>
      <trkpt lat="47.25147" lon="-1.638">
        <ele>47.8</ele>
        <time>2013-08-18T07:41:09Z</time>
      </trkpt>
      <trkpt lat="47.25158" lon="-1.63792">
        <ele>46.5</ele>
        <time>2013-08-18T07:41:11Z</time>
      </trkpt>
      <trkpt lat="47.25168" lon="-1.63787">
        <ele>45.2</ele>
        <time>2013-08-18T07:41:13Z</time>
      </trkpt>
      <trkpt lat="47.25177" lon="-1.63783">
        <ele>44.8</ele>
        <time>2013-08-18T07:41:15Z</time>
      </trkpt>
      <trkpt lat="47.25188" lon="-1.63784">
        <ele>45.2</ele>
        <time>2013-08-18T07:41:17Z</time>
      </trkpt>
      <trkpt lat="47.252" lon="-1.6379">
        <ele>45.6</ele>
        <time>2013-08-18T07:41:19Z</time>
      </trkpt>
      <trkpt lat="47.25215" lon="-1.63799">
        <ele>45.8</ele>
        <time>2013-08-18T07:41:21Z</time>
      </trkpt>
      <trkpt lat="47.25227" lon="-1.63807">
        <ele>45.4</ele>
        <time>2013-08-18T07:41:23Z</time>
      </trkpt>
      <trkpt lat="47.25237" lon="-1.63812">
        <ele>44.5</ele>
        <time>2013-08-18T07:41:25Z</time>
      </trkpt>
      <trkpt lat="47.25246" lon="-1.63813">
        <ele>43.3</ele>
        <time>2013-08-18T07:41:27Z</time>
      </trkpt>
      <trkpt lat="47.25259" lon="-1.6381">
        <ele>43.4</ele>
        <time>2013-08-18T07:41:30Z</time>
      </trkpt>
      <trkpt lat="47.2527" lon="-1.63801">
        <ele>43.6</ele>
        <time>2013-08-18T07:41:33Z</time>
      </trkpt>
      <trkpt lat="47.25277" lon="-1.63793">
        <ele>43.8</ele>
        <time>2013-08-18T07:41:35Z</time>
      </trkpt>
      <trkpt lat="47.25284" lon="-1.63782">
        <ele>44.2</ele>
        <time>2013-08-18T07:41:38Z</time>
      </trkpt>
      <trkpt lat="47.2529" lon="-1.63767">
        <ele>44.6</ele>
        <time>2013-08-18T07:41:42Z</time>
      </trkpt>
      <trkpt lat="47.2529" lon="-1.63751">
        <ele>44.8</ele>
        <time>2013-08-18T07:41:46Z</time>
      </trkpt>
      <trkpt lat="47.25292" lon="-1.63734">
        <ele>44.8</ele>
        <time>2013-08-18T07:41:50Z</time>
      </trkpt>
      <trkpt lat="47.25293" lon="-1.63721">
        <ele>44.6</ele>
        <time>2013-08-18T07:41:53Z</time>
      </trkpt>
      <trkpt lat="47.25284" lon="-1.63715">
        <ele>44.1</ele>
        <time>2013-08-18T07:41:59Z</time>
      </trkpt>
      <trkpt lat="47.25272" lon="-1.63716">
        <ele>44.2</ele>
        <time>2013-08-18T07:42:03Z</time>
      </trkpt>
      <trkpt lat="47.2526" lon="-1.63717">
        <ele>44.4</ele>
        <time>2013-08-18T07:42:06Z</time>
      </trkpt>
      <trkpt lat="47.25252" lon="-1.63711">
        <ele>44.5</ele>
        <time>2013-08-18T07:42:10Z</time>
      </trkpt>
      <trkpt lat="47.25241" lon="-1.63707">
        <ele>44.4</ele>
        <time>2013-08-18T07:42:15Z</time>
      </trkpt>
      <trkpt lat="47.25233" lon="-1.63699">
        <ele>44.6</ele>
        <time>2013-08-18T07:42:19Z</time>
      </trkpt>
      <trkpt lat="47.25224" lon="-1.63692">
        <ele>44.6</ele>
        <time>2013-08-18T07:42:24Z</time>
      </trkpt>
      <trkpt lat="47.25213" lon="-1.63688">
        <ele>44.2</ele>
        <time>2013-08-18T07:42:29Z</time>
      </trkpt>
      <trkpt lat="47.25204" lon="-1.63677">
        <ele>43.7</ele>
        <time>2013-08-18T07:42:33Z</time>
      </trkpt>
      <trkpt lat="47.25193" lon="-1.63671">
        <ele>43.2</ele>
        <time>2013-08-18T07:42:38Z</time>
      </trkpt>
      <trkpt lat="47.25185" lon="-1.63661">
        <ele>42.8</ele>
        <time>2013-08-18T07:42:43Z</time>
      </trkpt>
      <trkpt lat="47.25176" lon="-1.63658">
        <ele>42</ele>
        <time>2013-08-18T07:42:49Z</time>
      </trkpt>
      <trkpt lat="47.25166" lon="-1.63659">
        <ele>41.5</ele>
        <time>2013-08-18T07:42:53Z</time>
      </trkpt>
      <trkpt lat="47.25157" lon="-1.63658">
        <ele>40.7</ele>
        <time>2013-08-18T07:43:02Z</time>
      </trkpt>
      <trkpt lat="47.25153" lon="-1.63645">
        <ele>40</ele>
        <time>2013-08-18T07:43:21Z</time>
      </trkpt>
      <trkpt lat="47.2515" lon="-1.6363">
        <ele>39.1</ele>
        <time>2013-08-18T07:43:27Z</time>
      </trkpt>
      <trkpt lat="47.2515" lon="-1.63616">
        <ele>38.8</ele>
        <time>2013-08-18T07:43:30Z</time>
      </trkpt>
      <trkpt lat="47.25148" lon="-1.63601">
        <ele>38.7</ele>
        <time>2013-08-18T07:43:33Z</time>
      </trkpt>
      <trkpt lat="47.25148" lon="-1.63587">
        <ele>39.1</ele>
        <time>2013-08-18T07:43:37Z</time>
      </trkpt>
      <trkpt lat="47.25149" lon="-1.63571">
        <ele>39.7</ele>
        <time>2013-08-18T07:43:41Z</time>
      </trkpt>
      <trkpt lat="47.25153" lon="-1.63555">
        <ele>40.3</ele>
        <time>2013-08-18T07:43:45Z</time>
      </trkpt>
      <trkpt lat="47.25159" lon="-1.63543">
        <ele>40.8</ele>
        <time>2013-08-18T07:43:48Z</time>
      </trkpt>
      <trkpt lat="47.25167" lon="-1.6353">
        <ele>41.4</ele>
        <time>2013-08-18T07:43:51Z</time>
      </trkpt>
      <trkpt lat="47.25175" lon="-1.63521">
        <ele>42.2</ele>
        <time>2013-08-18T07:43:54Z</time>
      </trkpt>
      <trkpt lat="47.25185" lon="-1.63514">
        <ele>43</ele>
        <time>2013-08-18T07:43:57Z</time>
      </trkpt>
      <trkpt lat="47.25194" lon="-1.63508">
        <ele>43.4</ele>
        <time>2013-08-18T07:44:00Z</time>
      </trkpt>
      <trkpt lat="47.25205" lon="-1.6351">
        <ele>44.1</ele>
        <time>2013-08-18T07:44:05Z</time>
      </trkpt>
      <trkpt lat="47.25213" lon="-1.6352">
        <ele>44.4</ele>
        <time>2013-08-18T07:44:08Z</time>
      </trkpt>
      <trkpt lat="47.2522" lon="-1.6353">
        <ele>44.5</ele>
        <time>2013-08-18T07:44:11Z</time>
      </trkpt>
      <trkpt lat="47.2523" lon="-1.63541">
        <ele>44.8</ele>
        <time>2013-08-18T07:44:15Z</time>
      </trkpt>
      <trkpt lat="47.2524" lon="-1.63553">
        <ele>45.1</ele>
        <time>2013-08-18T07:44:18Z</time>
      </trkpt>
      <trkpt lat="47.25248" lon="-1.63562">
        <ele>45.5</ele>
        <time>2013-08-18T07:44:20Z</time>
      </trkpt>
      <trkpt lat="47.25257" lon="-1.63572">
        <ele>45.9</ele>
        <time>2013-08-18T07:44:22Z</time>
      </trkpt>
      <trkpt lat="47.25265" lon="-1.63581">
        <ele>46.2</ele>
        <time>2013-08-18T07:44:24Z</time>
      </trkpt>
      <trkpt lat="47.25276" lon="-1.6359">
        <ele>46.7</ele>
        <time>2013-08-18T07:44:27Z</time>
      </trkpt>
      <trkpt lat="47.25286" lon="-1.636">
        <ele>47.1</ele>
        <time>2013-08-18T07:44:30Z</time>
      </trkpt>
      <trkpt lat="47.25295" lon="-1.63609">
        <ele>47.3</ele>
        <time>2013-08-18T07:44:33Z</time>
      </trkpt>
      <trkpt lat="47.25304" lon="-1.63619">
        <ele>47.8</ele>
        <time>2013-08-18T07:44:36Z</time>
      </trkpt>
      <trkpt lat="47.25311" lon="-1.63631">
        <ele>48.2</ele>
        <time>2013-08-18T07:44:39Z</time>
      </trkpt>
      <trkpt lat="47.25311" lon="-1.63648">
        <ele>48.6</ele>
        <time>2013-08-18T07:44:42Z</time>
      </trkpt>
      <trkpt lat="47.25309" lon="-1.63661">
        <ele>48.9</ele>
        <time>2013-08-18T07:44:44Z</time>
      </trkpt>
      <trkpt lat="47.25307" lon="-1.63677">
        <ele>50.3</ele>
        <time>2013-08-18T07:44:46Z</time>
      </trkpt>
      <trkpt lat="47.25305" lon="-1.63695">
        <ele>51.3</ele>
        <time>2013-08-18T07:44:49Z</time>
      </trkpt>
      <trkpt lat="47.25303" lon="-1.63711">
        <ele>52.1</ele>
        <time>2013-08-18T07:44:52Z</time>
      </trkpt>
      <trkpt lat="47.25302" lon="-1.63724">
        <ele>51.9</ele>
        <time>2013-08-18T07:44:55Z</time>
      </trkpt>
      <trkpt lat="47.25302" lon="-1.63741">
        <ele>51.7</ele>
        <time>2013-08-18T07:45:00Z</time>
      </trkpt>
      <trkpt lat="47.25309" lon="-1.6375">
        <ele>51.6</ele>
        <time>2013-08-18T07:45:04Z</time>
      </trkpt>
      <trkpt lat="47.25312" lon="-1.63766">
        <ele>50.9</ele>
        <time>2013-08-18T07:45:11Z</time>
      </trkpt>
      <trkpt lat="47.25312" lon="-1.63784">
        <ele>49.9</ele>
        <time>2013-08-18T07:45:15Z</time>
      </trkpt>
      <trkpt lat="47.25312" lon="-1.638">
        <ele>49.3</ele>
        <time>2013-08-18T07:45:18Z</time>
      </trkpt>
      <trkpt lat="47.25313" lon="-1.63817">
        <ele>48.7</ele>
        <time>2013-08-18T07:45:21Z</time>
      </trkpt>
      <trkpt lat="47.25313" lon="-1.63832">
        <ele>48.2</ele>
        <time>2013-08-18T07:45:24Z</time>
      </trkpt>
      <trkpt lat="47.2531" lon="-1.63847">
        <ele>47.9</ele>
        <time>2013-08-18T07:45:27Z</time>
      </trkpt>
      <trkpt lat="47.25304" lon="-1.63858">
        <ele>47.7</ele>
        <time>2013-08-18T07:45:30Z</time>
      </trkpt>
      <trkpt lat="47.25291" lon="-1.63866">
        <ele>45.9</ele>
        <time>2013-08-18T07:45:33Z</time>
      </trkpt>
      <trkpt lat="47.25282" lon="-1.6387">
        <ele>43</ele>
        <time>2013-08-18T07:45:35Z</time>
      </trkpt>
      <trkpt lat="47.2527" lon="-1.63874">
        <ele>40.6</ele>
        <time>2013-08-18T07:45:37Z</time>
      </trkpt>
      <trkpt lat="47.25258" lon="-1.63877">
        <ele>38.3</ele>
        <time>2013-08-18T07:45:39Z</time>
      </trkpt>
      <trkpt lat="47.25248" lon="-1.63886">
        <ele>37.3</ele>
        <time>2013-08-18T07:45:41Z</time>
      </trkpt>
      <trkpt lat="47.2524" lon="-1.63897">
        <ele>36.4</ele>
        <time>2013-08-18T07:45:43Z</time>
      </trkpt>
      <trkpt lat="47.25233" lon="-1.63906">
        <ele>34.6</ele>
        <time>2013-08-18T07:45:45Z</time>
      </trkpt>
      <trkpt lat="47.25227" lon="-1.63915">
        <ele>34.4</ele>
        <time>2013-08-18T07:45:47Z</time>
      </trkpt>
      <trkpt lat="47.25217" lon="-1.63931">
        <ele>30.6</ele>
        <time>2013-08-18T07:45:49Z</time>
      </trkpt>
      <trkpt lat="47.25207" lon="-1.63945">
        <ele>28.9</ele>
        <time>2013-08-18T07:45:51Z</time>
      </trkpt>
      <trkpt lat="47.25198" lon="-1.63958">
        <ele>27.8</ele>
        <time>2013-08-18T07:45:53Z</time>
      </trkpt>
      <trkpt lat="47.2519" lon="-1.63972">
        <ele>26.5</ele>
        <time>2013-08-18T07:45:55Z</time>
      </trkpt>
      <trkpt lat="47.25183" lon="-1.63987">
        <ele>25.5</ele>
        <time>2013-08-18T07:45:57Z</time>
      </trkpt>
      <trkpt lat="47.25175" lon="-1.64001">
        <ele>26.7</ele>
        <time>2013-08-18T07:45:59Z</time>
      </trkpt>
      <trkpt lat="47.25168" lon="-1.64016">
        <ele>28.7</ele>
        <time>2013-08-18T07:46:01Z</time>
      </trkpt>
      <trkpt lat="47.25163" lon="-1.64031">
        <ele>29.7</ele>
        <time>2013-08-18T07:46:03Z</time>
      </trkpt>
      <trkpt lat="47.25158" lon="-1.64047">
        <ele>29.4</ele>
        <time>2013-08-18T07:46:05Z</time>
      </trkpt>
      <trkpt lat="47.25154" lon="-1.64061">
        <ele>29.5</ele>
        <time>2013-08-18T07:46:07Z</time>
      </trkpt>
      <trkpt lat="47.25149" lon="-1.64074">
        <ele>30</ele>
        <time>2013-08-18T07:46:09Z</time>
      </trkpt>
      <trkpt lat="47.25142" lon="-1.64089">
        <ele>30</ele>
        <time>2013-08-18T07:46:12Z</time>
      </trkpt>
      <trkpt lat="47.25133" lon="-1.64099">
        <ele>30.3</ele>
        <time>2013-08-18T07:46:15Z</time>
      </trkpt>
      <trkpt lat="47.25125" lon="-1.64107">
        <ele>32.7</ele>
        <time>2013-08-18T07:46:17Z</time>
      </trkpt>
      <trkpt lat="47.25115" lon="-1.64115">
        <ele>36.2</ele>
        <time>2013-08-18T07:46:19Z</time>
      </trkpt>
      <trkpt lat="47.25106" lon="-1.64123">
        <ele>39.3</ele>
        <time>2013-08-18T07:46:21Z</time>
      </trkpt>
      <trkpt lat="47.25095" lon="-1.64133">
        <ele>40.2</ele>
        <time>2013-08-18T07:46:23Z</time>
      </trkpt>
      <trkpt lat="47.25084" lon="-1.64145">
        <ele>41.2</ele>
        <time>2013-08-18T07:46:25Z</time>
      </trkpt>
      <trkpt lat="47.25074" lon="-1.64157">
        <ele>42.7</ele>
        <time>2013-08-18T07:46:27Z</time>
      </trkpt>
      <trkpt lat="47.25064" lon="-1.64164">
        <ele>42.6</ele>
        <time>2013-08-18T07:46:29Z</time>
      </trkpt>
      <trkpt lat="47.25055" lon="-1.64169">
        <ele>42.7</ele>
        <time>2013-08-18T07:46:31Z</time>
      </trkpt>
      <trkpt lat="47.25045" lon="-1.64172">
        <ele>44.7</ele>
        <time>2013-08-18T07:46:33Z</time>
      </trkpt>
      <trkpt lat="47.25029" lon="-1.64178">
        <ele>46.5</ele>
        <time>2013-08-18T07:46:35Z</time>
      </trkpt>
      <trkpt lat="47.2502" lon="-1.64182">
        <ele>46.4</ele>
        <time>2013-08-18T07:46:36Z</time>
      </trkpt>
      <trkpt lat="47.25006" lon="-1.64187">
        <ele>46.8</ele>
        <time>2013-08-18T07:46:38Z</time>
      </trkpt>
      <trkpt lat="47.24995" lon="-1.64191">
        <ele>47</ele>
        <time>2013-08-18T07:46:40Z</time>
      </trkpt>
      <trkpt lat="47.24983" lon="-1.64195">
        <ele>47</ele>
        <time>2013-08-18T07:46:42Z</time>
      </trkpt>
      <trkpt lat="47.24971" lon="-1.642">
        <ele>46.5</ele>
        <time>2013-08-18T07:46:44Z</time>
      </trkpt>
      <trkpt lat="47.24959" lon="-1.64205">
        <ele>45.6</ele>
        <time>2013-08-18T07:46:46Z</time>
      </trkpt>
      <trkpt lat="47.24949" lon="-1.6421">
        <ele>45.1</ele>
        <time>2013-08-18T07:46:48Z</time>
      </trkpt>
      <trkpt lat="47.24939" lon="-1.64216">
        <ele>44.2</ele>
        <time>2013-08-18T07:46:50Z</time>
      </trkpt>
      <trkpt lat="47.2493" lon="-1.64225">
        <ele>43.2</ele>
        <time>2013-08-18T07:46:52Z</time>
      </trkpt>
      <trkpt lat="47.24927" lon="-1.64243">
        <ele>43.2</ele>
        <time>2013-08-18T07:46:55Z</time>
      </trkpt>
      <trkpt lat="47.24926" lon="-1.64259">
        <ele>43.5</ele>
        <time>2013-08-18T07:46:57Z</time>
      </trkpt>
      <trkpt lat="47.24926" lon="-1.64274">
        <ele>43.5</ele>
        <time>2013-08-18T07:46:59Z</time>
      </trkpt>
      <trkpt lat="47.2493" lon="-1.64289">
        <ele>41.5</ele>
        <time>2013-08-18T07:47:01Z</time>
      </trkpt>
      <trkpt lat="47.24934" lon="-1.64304">
        <ele>40.8</ele>
        <time>2013-08-18T07:47:03Z</time>
      </trkpt>
      <trkpt lat="47.24939" lon="-1.64321">
        <ele>42.1</ele>
        <time>2013-08-18T07:47:05Z</time>
      </trkpt>
      <trkpt lat="47.24943" lon="-1.64335">
        <ele>42.6</ele>
        <time>2013-08-18T07:47:07Z</time>
      </trkpt>
      <trkpt lat="47.24947" lon="-1.64349">
        <ele>42</ele>
        <time>2013-08-18T07:47:09Z</time>
      </trkpt>
      <trkpt lat="47.24952" lon="-1.64362">
        <ele>41.8</ele>
        <time>2013-08-18T07:47:11Z</time>
      </trkpt>
      <trkpt lat="47.24956" lon="-1.64376">
        <ele>41.6</ele>
        <time>2013-08-18T07:47:13Z</time>
      </trkpt>
      <trkpt lat="47.2496" lon="-1.6439">
        <ele>41.5</ele>
        <time>2013-08-18T07:47:15Z</time>
      </trkpt>
      <trkpt lat="47.24964" lon="-1.64403">
        <ele>41.3</ele>
        <time>2013-08-18T07:47:17Z</time>
      </trkpt>
      <trkpt lat="47.24969" lon="-1.64418">
        <ele>42.5</ele>
        <time>2013-08-18T07:47:19Z</time>
      </trkpt>
      <trkpt lat="47.24973" lon="-1.64433">
        <ele>43.3</ele>
        <time>2013-08-18T07:47:21Z</time>
      </trkpt>
      <trkpt lat="47.24977" lon="-1.64447">
        <ele>43.2</ele>
        <time>2013-08-18T07:47:23Z</time>
      </trkpt>
      <trkpt lat="47.24982" lon="-1.64463">
        <ele>43.3</ele>
        <time>2013-08-18T07:47:25Z</time>
      </trkpt>
      <trkpt lat="47.24986" lon="-1.64476">
        <ele>42.5</ele>
        <time>2013-08-18T07:47:27Z</time>
      </trkpt>
      <trkpt lat="47.24991" lon="-1.6449">
        <ele>41.9</ele>
        <time>2013-08-18T07:47:29Z</time>
      </trkpt>
      <trkpt lat="47.24995" lon="-1.64503">
        <ele>41.6</ele>
        <time>2013-08-18T07:47:31Z</time>
      </trkpt>
      <trkpt lat="47.25001" lon="-1.6452">
        <ele>40.3</ele>
        <time>2013-08-18T07:47:34Z</time>
      </trkpt>
      <trkpt lat="47.25006" lon="-1.64535">
        <ele>39.4</ele>
        <time>2013-08-18T07:47:36Z</time>
      </trkpt>
      <trkpt lat="47.2501" lon="-1.6455">
        <ele>39.2</ele>
        <time>2013-08-18T07:47:38Z</time>
      </trkpt>
      <trkpt lat="47.25014" lon="-1.64564">
        <ele>38.9</ele>
        <time>2013-08-18T07:47:40Z</time>
      </trkpt>
      <trkpt lat="47.25018" lon="-1.64576">
        <ele>39.4</ele>
        <time>2013-08-18T07:47:42Z</time>
      </trkpt>
      <trkpt lat="47.25027" lon="-1.64585">
        <ele>39.5</ele>
        <time>2013-08-18T07:47:46Z</time>
      </trkpt>
      <trkpt lat="47.25037" lon="-1.64579">
        <ele>39.2</ele>
        <time>2013-08-18T07:47:49Z</time>
      </trkpt>
      <trkpt lat="47.25048" lon="-1.64567">
        <ele>38.8</ele>
        <time>2013-08-18T07:47:52Z</time>
      </trkpt>
      <trkpt lat="47.25055" lon="-1.64558">
        <ele>38.6</ele>
        <time>2013-08-18T07:47:54Z</time>
      </trkpt>
      <trkpt lat="47.25065" lon="-1.64546">
        <ele>38.6</ele>
        <time>2013-08-18T07:47:57Z</time>
      </trkpt>
      <trkpt lat="47.25074" lon="-1.64535">
        <ele>38.9</ele>
        <time>2013-08-18T07:48:00Z</time>
      </trkpt>
      <trkpt lat="47.25084" lon="-1.64525">
        <ele>39.1</ele>
        <time>2013-08-18T07:48:03Z</time>
      </trkpt>
      <trkpt lat="47.25095" lon="-1.64522">
        <ele>39.5</ele>
        <time>2013-08-18T07:48:06Z</time>
      </trkpt>
      <trkpt lat="47.251" lon="-1.64536">
        <ele>40</ele>
        <time>2013-08-18T07:48:09Z</time>
      </trkpt>
      <trkpt lat="47.25102" lon="-1.64555">
        <ele>41.2</ele>
        <time>2013-08-18T07:48:12Z</time>
      </trkpt>
      <trkpt lat="47.25102" lon="-1.64573">
        <ele>40.6</ele>
        <time>2013-08-18T07:48:15Z</time>
      </trkpt>
      <trkpt lat="47.25103" lon="-1.64591">
        <ele>39.4</ele>
        <time>2013-08-18T07:48:18Z</time>
      </trkpt>
      <trkpt lat="47.25104" lon="-1.6461">
        <ele>41.2</ele>
        <time>2013-08-18T07:48:21Z</time>
      </trkpt>
      <trkpt lat="47.25104" lon="-1.64625">
        <ele>43.1</ele>
        <time>2013-08-18T07:48:23Z</time>
      </trkpt>
      <trkpt lat="47.25102" lon="-1.64644">
        <ele>44.8</ele>
        <time>2013-08-18T07:48:26Z</time>
      </trkpt>
      <trkpt lat="47.25099" lon="-1.64663">
        <ele>45.6</ele>
        <time>2013-08-18T07:48:29Z</time>
      </trkpt>
      <trkpt lat="47.25097" lon="-1.64682">
        <ele>45.1</ele>
        <time>2013-08-18T07:48:32Z</time>
      </trkpt>
      <trkpt lat="47.25096" lon="-1.64696">
        <ele>44.8</ele>
        <time>2013-08-18T07:48:34Z</time>
      </trkpt>
      <trkpt lat="47.25094" lon="-1.64712">
        <ele>44.4</ele>
        <time>2013-08-18T07:48:36Z</time>
      </trkpt>
      <trkpt lat="47.25092" lon="-1.64728">
        <ele>43.8</ele>
        <time>2013-08-18T07:48:38Z</time>
      </trkpt>
      <trkpt lat="47.2509" lon="-1.64742">
        <ele>43.2</ele>
        <time>2013-08-18T07:48:40Z</time>
      </trkpt>
      <trkpt lat="47.25088" lon="-1.64757">
        <ele>42.8</ele>
        <time>2013-08-18T07:48:42Z</time>
      </trkpt>
      <trkpt lat="47.25085" lon="-1.64771">
        <ele>42.9</ele>
        <time>2013-08-18T07:48:44Z</time>
      </trkpt>
      <trkpt lat="47.25082" lon="-1.64786">
        <ele>43</ele>
        <time>2013-08-18T07:48:46Z</time>
      </trkpt>
      <trkpt lat="47.2508" lon="-1.64801">
        <ele>42.6</ele>
        <time>2013-08-18T07:48:48Z</time>
      </trkpt>
      <trkpt lat="47.25081" lon="-1.64816">
        <ele>42.2</ele>
        <time>2013-08-18T07:48:51Z</time>
      </trkpt>
      <trkpt lat="47.2509" lon="-1.64823">
        <ele>42</ele>
        <time>2013-08-18T07:48:54Z</time>
      </trkpt>
      <trkpt lat="47.251" lon="-1.64827">
        <ele>41.9</ele>
        <time>2013-08-18T07:48:57Z</time>
      </trkpt>
      <trkpt lat="47.25112" lon="-1.64833">
        <ele>41.8</ele>
        <time>2013-08-18T07:49:00Z</time>
      </trkpt>
      <trkpt lat="47.25123" lon="-1.6484">
        <ele>41.8</ele>
        <time>2013-08-18T07:49:03Z</time>
      </trkpt>
      <trkpt lat="47.25133" lon="-1.64848">
        <ele>41.6</ele>
        <time>2013-08-18T07:49:06Z</time>
      </trkpt>
      <trkpt lat="47.25142" lon="-1.64855">
        <ele>41.7</ele>
        <time>2013-08-18T07:49:09Z</time>
      </trkpt>
      <trkpt lat="47.25152" lon="-1.64865">
        <ele>41.7</ele>
        <time>2013-08-18T07:49:12Z</time>
      </trkpt>
      <trkpt lat="47.25159" lon="-1.64875">
        <ele>41.9</ele>
        <time>2013-08-18T07:49:15Z</time>
      </trkpt>
      <trkpt lat="47.25165" lon="-1.64886">
        <ele>42</ele>
        <time>2013-08-18T07:49:18Z</time>
      </trkpt>
      <trkpt lat="47.2517" lon="-1.64901">
        <ele>42.1</ele>
        <time>2013-08-18T07:49:22Z</time>
      </trkpt>
      <trkpt lat="47.25174" lon="-1.64916">
        <ele>41.8</ele>
        <time>2013-08-18T07:49:26Z</time>
      </trkpt>
      <trkpt lat="47.25178" lon="-1.64932">
        <ele>41</ele>
        <time>2013-08-18T07:49:30Z</time>
      </trkpt>
      <trkpt lat="47.2518" lon="-1.64948">
        <ele>40.2</ele>
        <time>2013-08-18T07:49:34Z</time>
      </trkpt>
      <trkpt lat="47.25181" lon="-1.64963">
        <ele>39.9</ele>
        <time>2013-08-18T07:49:37Z</time>
      </trkpt>
      <trkpt lat="47.25182" lon="-1.64979">
        <ele>40</ele>
        <time>2013-08-18T07:49:40Z</time>
      </trkpt>
      <trkpt lat="47.25181" lon="-1.64998">
        <ele>40.4</ele>
        <time>2013-08-18T07:49:43Z</time>
      </trkpt>
      <trkpt lat="47.25181" lon="-1.65014">
        <ele>40.8</ele>
        <time>2013-08-18T07:49:46Z</time>
      </trkpt>
      <trkpt lat="47.25181" lon="-1.65031">
        <ele>41.3</ele>
        <time>2013-08-18T07:49:49Z</time>
      </trkpt>
      <trkpt lat="47.2518" lon="-1.6505">
        <ele>41.6</ele>
        <time>2013-08-18T07:49:52Z</time>
      </trkpt>
      <trkpt lat="47.25177" lon="-1.65066">
        <ele>41.9</ele>
        <time>2013-08-18T07:49:55Z</time>
      </trkpt>
      <trkpt lat="47.25176" lon="-1.65085">
        <ele>41.9</ele>
        <time>2013-08-18T07:49:58Z</time>
      </trkpt>
      <trkpt lat="47.25174" lon="-1.65103">
        <ele>42.1</ele>
        <time>2013-08-18T07:50:00Z</time>
      </trkpt>
      <trkpt lat="47.25173" lon="-1.65117">
        <ele>42.1</ele>
        <time>2013-08-18T07:50:02Z</time>
      </trkpt>
      <trkpt lat="47.25173" lon="-1.65131">
        <ele>42.2</ele>
        <time>2013-08-18T07:50:04Z</time>
      </trkpt>
      <trkpt lat="47.2517" lon="-1.65145">
        <ele>42.7</ele>
        <time>2013-08-18T07:50:07Z</time>
      </trkpt>
      <trkpt lat="47.25167" lon="-1.65158">
        <ele>43</ele>
        <time>2013-08-18T07:50:10Z</time>
      </trkpt>
      <trkpt lat="47.25163" lon="-1.65172">
        <ele>43.4</ele>
        <time>2013-08-18T07:50:13Z</time>
      </trkpt>
      <trkpt lat="47.25158" lon="-1.65187">
        <ele>43.4</ele>
        <time>2013-08-18T07:50:16Z</time>
      </trkpt>
      <trkpt lat="47.25153" lon="-1.65203">
        <ele>43.4</ele>
        <time>2013-08-18T07:50:19Z</time>
      </trkpt>
      <trkpt lat="47.25154" lon="-1.65222">
        <ele>42.9</ele>
        <time>2013-08-18T07:50:22Z</time>
      </trkpt>
      <trkpt lat="47.25157" lon="-1.65234">
        <ele>43.1</ele>
        <time>2013-08-18T07:50:24Z</time>
      </trkpt>
      <trkpt lat="47.25161" lon="-1.65251">
        <ele>43.5</ele>
        <time>2013-08-18T07:50:27Z</time>
      </trkpt>
      <trkpt lat="47.25164" lon="-1.65268">
        <ele>43.5</ele>
        <time>2013-08-18T07:50:30Z</time>
      </trkpt>
      <trkpt lat="47.25164" lon="-1.65286">
        <ele>43.3</ele>
        <time>2013-08-18T07:50:33Z</time>
      </trkpt>
      <trkpt lat="47.2516" lon="-1.653">
        <ele>42.2</ele>
        <time>2013-08-18T07:50:35Z</time>
      </trkpt>
      <trkpt lat="47.25155" lon="-1.65315">
        <ele>40.5</ele>
        <time>2013-08-18T07:50:37Z</time>
      </trkpt>
      <trkpt lat="47.25149" lon="-1.65331">
        <ele>39.3</ele>
        <time>2013-08-18T07:50:39Z</time>
      </trkpt>
      <trkpt lat="47.25143" lon="-1.6535">
        <ele>37.5</ele>
        <time>2013-08-18T07:50:41Z</time>
      </trkpt>
      <trkpt lat="47.25138" lon="-1.65368">
        <ele>37.4</ele>
        <time>2013-08-18T07:50:43Z</time>
      </trkpt>
      <trkpt lat="47.25133" lon="-1.65387">
        <ele>38</ele>
        <time>2013-08-18T07:50:45Z</time>
      </trkpt>
      <trkpt lat="47.25127" lon="-1.65403">
        <ele>38.5</ele>
        <time>2013-08-18T07:50:47Z</time>
      </trkpt>
      <trkpt lat="47.25119" lon="-1.65418">
        <ele>39.2</ele>
        <time>2013-08-18T07:50:49Z</time>
      </trkpt>
      <trkpt lat="47.25112" lon="-1.65433">
        <ele>39.1</ele>
        <time>2013-08-18T07:50:51Z</time>
      </trkpt>
      <trkpt lat="47.25107" lon="-1.6545">
        <ele>39</ele>
        <time>2013-08-18T07:50:53Z</time>
      </trkpt>
      <trkpt lat="47.25104" lon="-1.65465">
        <ele>38.6</ele>
        <time>2013-08-18T07:50:55Z</time>
      </trkpt>
      <trkpt lat="47.25103" lon="-1.65484">
        <ele>37.7</ele>
        <time>2013-08-18T07:50:57Z</time>
      </trkpt>
      <trkpt lat="47.25101" lon="-1.65502">
        <ele>36.7</ele>
        <time>2013-08-18T07:50:59Z</time>
      </trkpt>
      <trkpt lat="47.25099" lon="-1.65518">
        <ele>35.7</ele>
        <time>2013-08-18T07:51:01Z</time>
      </trkpt>
      <trkpt lat="47.25095" lon="-1.65538">
        <ele>34.9</ele>
        <time>2013-08-18T07:51:03Z</time>
      </trkpt>
      <trkpt lat="47.25088" lon="-1.65563">
        <ele>34.4</ele>
        <time>2013-08-18T07:51:04Z</time>
      </trkpt>
      <trkpt lat="47.25082" lon="-1.65583">
        <ele>34.4</ele>
        <time>2013-08-18T07:51:06Z</time>
      </trkpt>
      <trkpt lat="47.25078" lon="-1.65599">
        <ele>34.1</ele>
        <time>2013-08-18T07:51:08Z</time>
      </trkpt>
      <trkpt lat="47.25074" lon="-1.65615">
        <ele>33</ele>
        <time>2013-08-18T07:51:10Z</time>
      </trkpt>
      <trkpt lat="47.25071" lon="-1.65629">
        <ele>32.1</ele>
        <time>2013-08-18T07:51:12Z</time>
      </trkpt>
      <trkpt lat="47.25069" lon="-1.65643">
        <ele>31.8</ele>
        <time>2013-08-18T07:51:14Z</time>
      </trkpt>
      <trkpt lat="47.25071" lon="-1.65662">
        <ele>32.3</ele>
        <time>2013-08-18T07:51:17Z</time>
      </trkpt>
      <trkpt lat="47.25078" lon="-1.65671">
        <ele>31.9</ele>
        <time>2013-08-18T07:51:19Z</time>
      </trkpt>
      <trkpt lat="47.25087" lon="-1.65676">
        <ele>30.7</ele>
        <time>2013-08-18T07:51:21Z</time>
      </trkpt>
      <trkpt lat="47.25098" lon="-1.65681">
        <ele>30.2</ele>
        <time>2013-08-18T07:51:23Z</time>
      </trkpt>
      <trkpt lat="47.25109" lon="-1.65683">
        <ele>30.2</ele>
        <time>2013-08-18T07:51:25Z</time>
      </trkpt>
      <trkpt lat="47.25119" lon="-1.65685">
        <ele>30.5</ele>
        <time>2013-08-18T07:51:27Z</time>
      </trkpt>
      <trkpt lat="47.25129" lon="-1.65687">
        <ele>31.6</ele>
        <time>2013-08-18T07:51:29Z</time>
      </trkpt>
      <trkpt lat="47.25139" lon="-1.65689">
        <ele>33</ele>
        <time>2013-08-18T07:51:31Z</time>
      </trkpt>
      <trkpt lat="47.25148" lon="-1.6569">
        <ele>34.5</ele>
        <time>2013-08-18T07:51:33Z</time>
      </trkpt>
      <trkpt lat="47.2516" lon="-1.65692">
        <ele>34.6</ele>
        <time>2013-08-18T07:51:36Z</time>
      </trkpt>
      <trkpt lat="47.25173" lon="-1.65696">
        <ele>35</ele>
        <time>2013-08-18T07:51:39Z</time>
      </trkpt>
      <trkpt lat="47.25181" lon="-1.65703">
        <ele>35.5</ele>
        <time>2013-08-18T07:51:42Z</time>
      </trkpt>
      <trkpt lat="47.25187" lon="-1.65715">
        <ele>38.7</ele>
        <time>2013-08-18T07:51:45Z</time>
      </trkpt>
      <trkpt lat="47.25195" lon="-1.65729">
        <ele>40.1</ele>
        <time>2013-08-18T07:51:48Z</time>
      </trkpt>
      <trkpt lat="47.25201" lon="-1.65741">
        <ele>39.6</ele>
        <time>2013-08-18T07:51:51Z</time>
      </trkpt>
      <trkpt lat="47.25205" lon="-1.65753">
        <ele>39.1</ele>
        <time>2013-08-18T07:51:54Z</time>
      </trkpt>
      <trkpt lat="47.25208" lon="-1.65768">
        <ele>38.5</ele>
        <time>2013-08-18T07:51:57Z</time>
      </trkpt>
      <trkpt lat="47.25211" lon="-1.65785">
        <ele>38.2</ele>
        <time>2013-08-18T07:52:00Z</time>
      </trkpt>
      <trkpt lat="47.25215" lon="-1.65798">
        <ele>38</ele>
        <time>2013-08-18T07:52:02Z</time>
      </trkpt>
      <trkpt lat="47.25219" lon="-1.65817">
        <ele>38.6</ele>
        <time>2013-08-18T07:52:05Z</time>
      </trkpt>
      <trkpt lat="47.25221" lon="-1.65831">
        <ele>38.7</ele>
        <time>2013-08-18T07:52:07Z</time>
      </trkpt>
      <trkpt lat="47.25225" lon="-1.65846">
        <ele>38.7</ele>
        <time>2013-08-18T07:52:09Z</time>
      </trkpt>
      <trkpt lat="47.25228" lon="-1.65859">
        <ele>39</ele>
        <time>2013-08-18T07:52:11Z</time>
      </trkpt>
      <trkpt lat="47.25231" lon="-1.65878">
        <ele>40.6</ele>
        <time>2013-08-18T07:52:14Z</time>
      </trkpt>
      <trkpt lat="47.25235" lon="-1.65893">
        <ele>41</ele>
        <time>2013-08-18T07:52:16Z</time>
      </trkpt>
      <trkpt lat="47.25238" lon="-1.65906">
        <ele>41.2</ele>
        <time>2013-08-18T07:52:18Z</time>
      </trkpt>
      <trkpt lat="47.25243" lon="-1.65921">
        <ele>41</ele>
        <time>2013-08-18T07:52:20Z</time>
      </trkpt>
      <trkpt lat="47.25249" lon="-1.65939">
        <ele>42.5</ele>
        <time>2013-08-18T07:52:23Z</time>
      </trkpt>
      <trkpt lat="47.25254" lon="-1.65952">
        <ele>43.6</ele>
        <time>2013-08-18T07:52:25Z</time>
      </trkpt>
      <trkpt lat="47.25258" lon="-1.65966">
        <ele>43.8</ele>
        <time>2013-08-18T07:52:27Z</time>
      </trkpt>
      <trkpt lat="47.25264" lon="-1.65982">
        <ele>43.6</ele>
        <time>2013-08-18T07:52:30Z</time>
      </trkpt>
      <trkpt lat="47.2527" lon="-1.65993">
        <ele>43.9</ele>
        <time>2013-08-18T07:52:32Z</time>
      </trkpt>
      <trkpt lat="47.25278" lon="-1.66004">
        <ele>43.7</ele>
        <time>2013-08-18T07:52:34Z</time>
      </trkpt>
      <trkpt lat="47.25285" lon="-1.6602">
        <ele>42.6</ele>
        <time>2013-08-18T07:52:37Z</time>
      </trkpt>
      <trkpt lat="47.25293" lon="-1.66034">
        <ele>40.7</ele>
        <time>2013-08-18T07:52:40Z</time>
      </trkpt>
      <trkpt lat="47.25301" lon="-1.66048">
        <ele>38.7</ele>
        <time>2013-08-18T07:52:43Z</time>
      </trkpt>
      <trkpt lat="47.25308" lon="-1.66059">
        <ele>38.9</ele>
        <time>2013-08-18T07:52:45Z</time>
      </trkpt>
      <trkpt lat="47.25316" lon="-1.66074">
        <ele>39.4</ele>
        <time>2013-08-18T07:52:48Z</time>
      </trkpt>
      <trkpt lat="47.25322" lon="-1.66084">
        <ele>40.4</ele>
        <time>2013-08-18T07:52:50Z</time>
      </trkpt>
      <trkpt lat="47.25326" lon="-1.66103">
        <ele>40.8</ele>
        <time>2013-08-18T07:52:53Z</time>
      </trkpt>
      <trkpt lat="47.25326" lon="-1.6612">
        <ele>40.7</ele>
        <time>2013-08-18T07:52:55Z</time>
      </trkpt>
      <trkpt lat="47.25325" lon="-1.66136">
        <ele>40.6</ele>
        <time>2013-08-18T07:52:57Z</time>
      </trkpt>
      <trkpt lat="47.25323" lon="-1.66154">
        <ele>40.6</ele>
        <time>2013-08-18T07:52:59Z</time>
      </trkpt>
      <trkpt lat="47.25322" lon="-1.66171">
        <ele>40.8</ele>
        <time>2013-08-18T07:53:01Z</time>
      </trkpt>
      <trkpt lat="47.25321" lon="-1.66186">
        <ele>40.4</ele>
        <time>2013-08-18T07:53:03Z</time>
      </trkpt>
      <trkpt lat="47.25321" lon="-1.662">
        <ele>40.3</ele>
        <time>2013-08-18T07:53:05Z</time>
      </trkpt>
      <trkpt lat="47.2532" lon="-1.66213">
        <ele>40.5</ele>
        <time>2013-08-18T07:53:07Z</time>
      </trkpt>
      <trkpt lat="47.2532" lon="-1.6623">
        <ele>41.2</ele>
        <time>2013-08-18T07:53:09Z</time>
      </trkpt>
      <trkpt lat="47.2532" lon="-1.66245">
        <ele>41.6</ele>
        <time>2013-08-18T07:53:11Z</time>
      </trkpt>
      <trkpt lat="47.25321" lon="-1.66261">
        <ele>42</ele>
        <time>2013-08-18T07:53:13Z</time>
      </trkpt>
      <trkpt lat="47.25321" lon="-1.66277">
        <ele>42.2</ele>
        <time>2013-08-18T07:53:15Z</time>
      </trkpt>
      <trkpt lat="47.25321" lon="-1.66294">
        <ele>42.7</ele>
        <time>2013-08-18T07:53:17Z</time>
      </trkpt>
      <trkpt lat="47.25322" lon="-1.66312">
        <ele>43</ele>
        <time>2013-08-18T07:53:20Z</time>
      </trkpt>
      <trkpt lat="47.25323" lon="-1.6633">
        <ele>42.4</ele>
        <time>2013-08-18T07:53:23Z</time>
      </trkpt>
      <trkpt lat="47.25324" lon="-1.66348">
        <ele>42.4</ele>
        <time>2013-08-18T07:53:26Z</time>
      </trkpt>
      <trkpt lat="47.25325" lon="-1.66368">
        <ele>42.8</ele>
        <time>2013-08-18T07:53:29Z</time>
      </trkpt>
      <trkpt lat="47.25325" lon="-1.66382">
        <ele>42.9</ele>
        <time>2013-08-18T07:53:31Z</time>
      </trkpt>
      <trkpt lat="47.25326" lon="-1.66397">
        <ele>43.1</ele>
        <time>2013-08-18T07:53:33Z</time>
      </trkpt>
      <trkpt lat="47.25326" lon="-1.66413">
        <ele>43.4</ele>
        <time>2013-08-18T07:53:35Z</time>
      </trkpt>
      <trkpt lat="47.25326" lon="-1.66429">
        <ele>43.5</ele>
        <time>2013-08-18T07:53:37Z</time>
      </trkpt>
      <trkpt lat="47.25326" lon="-1.66444">
        <ele>43.3</ele>
        <time>2013-08-18T07:53:39Z</time>
      </trkpt>
      <trkpt lat="47.25326" lon="-1.6646">
        <ele>42.7</ele>
        <time>2013-08-18T07:53:41Z</time>
      </trkpt>
      <trkpt lat="47.25326" lon="-1.66477">
        <ele>42.4</ele>
        <time>2013-08-18T07:53:43Z</time>
      </trkpt>
      <trkpt lat="47.25325" lon="-1.66493">
        <ele>42</ele>
        <time>2013-08-18T07:53:45Z</time>
      </trkpt>
      <trkpt lat="47.25326" lon="-1.6651">
        <ele>41.5</ele>
        <time>2013-08-18T07:53:48Z</time>
      </trkpt>
      <trkpt lat="47.25335" lon="-1.66505">
        <ele>41</ele>
        <time>2013-08-18T07:53:58Z</time>
      </trkpt>
      <trkpt lat="47.25344" lon="-1.66495">
        <ele>40.5</ele>
        <time>2013-08-18T07:54:02Z</time>
      </trkpt>
      <trkpt lat="47.25352" lon="-1.66488">
        <ele>40.6</ele>
        <time>2013-08-18T07:54:04Z</time>
      </trkpt>
      <trkpt lat="47.25362" lon="-1.66482">
        <ele>40.5</ele>
        <time>2013-08-18T07:54:06Z</time>
      </trkpt>
      <trkpt lat="47.25371" lon="-1.66477">
        <ele>40.3</ele>
        <time>2013-08-18T07:54:08Z</time>
      </trkpt>
      <trkpt lat="47.25382" lon="-1.66472">
        <ele>40.1</ele>
        <time>2013-08-18T07:54:10Z</time>
      </trkpt>
      <trkpt lat="47.25393" lon="-1.66469">
        <ele>39.8</ele>
        <time>2013-08-18T07:54:13Z</time>
      </trkpt>
      <trkpt lat="47.25404" lon="-1.6647">
        <ele>39.3</ele>
        <time>2013-08-18T07:54:17Z</time>
      </trkpt>
      <trkpt lat="47.25413" lon="-1.6647">
        <ele>39.2</ele>
        <time>2013-08-18T07:54:20Z</time>
      </trkpt>
      <trkpt lat="47.25422" lon="-1.66467">
        <ele>39.1</ele>
        <time>2013-08-18T07:54:23Z</time>
      </trkpt>
      <trkpt lat="47.25433" lon="-1.6646">
        <ele>38.9</ele>
        <time>2013-08-18T07:54:27Z</time>
      </trkpt>
      <trkpt lat="47.25441" lon="-1.66452">
        <ele>38.5</ele>
        <time>2013-08-18T07:54:30Z</time>
      </trkpt>
      <trkpt lat="47.25448" lon="-1.66438">
        <ele>37.9</ele>
        <time>2013-08-18T07:54:34Z</time>
      </trkpt>
      <trkpt lat="47.25453" lon="-1.66425">
        <ele>37.6</ele>
        <time>2013-08-18T07:54:37Z</time>
      </trkpt>
      <trkpt lat="47.2546" lon="-1.6641">
        <ele>37.1</ele>
        <time>2013-08-18T07:54:40Z</time>
      </trkpt>
      <trkpt lat="47.25467" lon="-1.66401">
        <ele>36.9</ele>
        <time>2013-08-18T07:54:42Z</time>
      </trkpt>
      <trkpt lat="47.25475" lon="-1.66393">
        <ele>37</ele>
        <time>2013-08-18T07:54:44Z</time>
      </trkpt>
      <trkpt lat="47.25485" lon="-1.66383">
        <ele>37.1</ele>
        <time>2013-08-18T07:54:47Z</time>
      </trkpt>
      <trkpt lat="47.25495" lon="-1.66374">
        <ele>37.6</ele>
        <time>2013-08-18T07:54:50Z</time>
      </trkpt>
      <trkpt lat="47.25507" lon="-1.66365">
        <ele>38.7</ele>
        <time>2013-08-18T07:54:53Z</time>
      </trkpt>
      <trkpt lat="47.25515" lon="-1.66358">
        <ele>39</ele>
        <time>2013-08-18T07:54:56Z</time>
      </trkpt>
      <trkpt lat="47.25523" lon="-1.66345">
        <ele>39.7</ele>
        <time>2013-08-18T07:54:59Z</time>
      </trkpt>
      <trkpt lat="47.25531" lon="-1.6633">
        <ele>40.2</ele>
        <time>2013-08-18T07:55:02Z</time>
      </trkpt>
      <trkpt lat="47.25538" lon="-1.66315">
        <ele>40.4</ele>
        <time>2013-08-18T07:55:05Z</time>
      </trkpt>
      <trkpt lat="47.25543" lon="-1.66301">
        <ele>40.5</ele>
        <time>2013-08-18T07:55:08Z</time>
      </trkpt>
      <trkpt lat="47.25548" lon="-1.66285">
        <ele>40.6</ele>
        <time>2013-08-18T07:55:11Z</time>
      </trkpt>
      <trkpt lat="47.25552" lon="-1.6627">
        <ele>40.7</ele>
        <time>2013-08-18T07:55:14Z</time>
      </trkpt>
      <trkpt lat="47.25556" lon="-1.66254">
        <ele>41</ele>
        <time>2013-08-18T07:55:17Z</time>
      </trkpt>
      <trkpt lat="47.25563" lon="-1.66238">
        <ele>41.5</ele>
        <time>2013-08-18T07:55:20Z</time>
      </trkpt>
      <trkpt lat="47.2557" lon="-1.66222">
        <ele>41.8</ele>
        <time>2013-08-18T07:55:23Z</time>
      </trkpt>
      <trkpt lat="47.25576" lon="-1.66206">
        <ele>41.8</ele>
        <time>2013-08-18T07:55:26Z</time>
      </trkpt>
      <trkpt lat="47.25581" lon="-1.66192">
        <ele>41.8</ele>
        <time>2013-08-18T07:55:28Z</time>
      </trkpt>
      <trkpt lat="47.25586" lon="-1.66181">
        <ele>41.6</ele>
        <time>2013-08-18T07:55:30Z</time>
      </trkpt>
      <trkpt lat="47.25593" lon="-1.66169">
        <ele>41.4</ele>
        <time>2013-08-18T07:55:33Z</time>
      </trkpt>
      <trkpt lat="47.25598" lon="-1.66154">
        <ele>41</ele>
        <time>2013-08-18T07:55:36Z</time>
      </trkpt>
      <trkpt lat="47.25604" lon="-1.66137">
        <ele>40.8</ele>
        <time>2013-08-18T07:55:39Z</time>
      </trkpt>
      <trkpt lat="47.25609" lon="-1.66125">
        <ele>40.4</ele>
        <time>2013-08-18T07:55:41Z</time>
      </trkpt>
      <trkpt lat="47.25615" lon="-1.66114">
        <ele>39.9</ele>
        <time>2013-08-18T07:55:44Z</time>
      </trkpt>
      <trkpt lat="47.25621" lon="-1.66103">
        <ele>39.5</ele>
        <time>2013-08-18T07:55:47Z</time>
      </trkpt>
      <trkpt lat="47.25627" lon="-1.66089">
        <ele>39.3</ele>
        <time>2013-08-18T07:55:51Z</time>
      </trkpt>
      <trkpt lat="47.25631" lon="-1.66076">
        <ele>38.8</ele>
        <time>2013-08-18T07:55:54Z</time>
      </trkpt>
      <trkpt lat="47.25637" lon="-1.66062">
        <ele>38.4</ele>
        <time>2013-08-18T07:55:57Z</time>
      </trkpt>
      <trkpt lat="47.25642" lon="-1.66049">
        <ele>37.4</ele>
        <time>2013-08-18T07:56:01Z</time>
      </trkpt>
      <trkpt lat="47.25647" lon="-1.66035">
        <ele>36.3</ele>
        <time>2013-08-18T07:56:05Z</time>
      </trkpt>
      <trkpt lat="47.25651" lon="-1.66022">
        <ele>35.9</ele>
        <time>2013-08-18T07:56:08Z</time>
      </trkpt>
      <trkpt lat="47.25657" lon="-1.66007">
        <ele>35.4</ele>
        <time>2013-08-18T07:56:11Z</time>
      </trkpt>
      <trkpt lat="47.25663" lon="-1.65994">
        <ele>34.8</ele>
        <time>2013-08-18T07:56:13Z</time>
      </trkpt>
      <trkpt lat="47.2567" lon="-1.65979">
        <ele>33.8</ele>
        <time>2013-08-18T07:56:16Z</time>
      </trkpt>
      <trkpt lat="47.25677" lon="-1.65962">
        <ele>32.9</ele>
        <time>2013-08-18T07:56:19Z</time>
      </trkpt>
      <trkpt lat="47.25683" lon="-1.65952">
        <ele>32.3</ele>
        <time>2013-08-18T07:56:21Z</time>
      </trkpt>
      <trkpt lat="47.25689" lon="-1.6594">
        <ele>31.6</ele>
        <time>2013-08-18T07:56:23Z</time>
      </trkpt>
      <trkpt lat="47.25695" lon="-1.65928">
        <ele>31.1</ele>
        <time>2013-08-18T07:56:25Z</time>
      </trkpt>
      <trkpt lat="47.25702" lon="-1.65914">
        <ele>30.7</ele>
        <time>2013-08-18T07:56:27Z</time>
      </trkpt>
      <trkpt lat="47.25709" lon="-1.65901">
        <ele>30.3</ele>
        <time>2013-08-18T07:56:30Z</time>
      </trkpt>
      <trkpt lat="47.25716" lon="-1.65888">
        <ele>30</ele>
        <time>2013-08-18T07:56:33Z</time>
      </trkpt>
      <trkpt lat="47.25722" lon="-1.65875">
        <ele>29.6</ele>
        <time>2013-08-18T07:56:36Z</time>
      </trkpt>
      <trkpt lat="47.2573" lon="-1.65861">
        <ele>29.2</ele>
        <time>2013-08-18T07:56:39Z</time>
      </trkpt>
      <trkpt lat="47.25736" lon="-1.65851">
        <ele>29</ele>
        <time>2013-08-18T07:56:41Z</time>
      </trkpt>
      <trkpt lat="47.25745" lon="-1.65836">
        <ele>29.1</ele>
        <time>2013-08-18T07:56:43Z</time>
      </trkpt>
      <trkpt lat="47.25756" lon="-1.65825">
        <ele>29.7</ele>
        <time>2013-08-18T07:56:45Z</time>
      </trkpt>
      <trkpt lat="47.25766" lon="-1.65817">
        <ele>30.3</ele>
        <time>2013-08-18T07:56:47Z</time>
      </trkpt>
      <trkpt lat="47.25774" lon="-1.6581">
        <ele>31.1</ele>
        <time>2013-08-18T07:56:49Z</time>
      </trkpt>
      <trkpt lat="47.25783" lon="-1.658">
        <ele>32.2</ele>
        <time>2013-08-18T07:56:52Z</time>
      </trkpt>
      <trkpt lat="47.2579" lon="-1.65786">
        <ele>33.3</ele>
        <time>2013-08-18T07:56:55Z</time>
      </trkpt>
      <trkpt lat="47.25795" lon="-1.65774">
        <ele>34.3</ele>
        <time>2013-08-18T07:56:58Z</time>
      </trkpt>
      <trkpt lat="47.25801" lon="-1.65759">
        <ele>38.9</ele>
        <time>2013-08-18T07:57:02Z</time>
      </trkpt>
      <trkpt lat="47.25807" lon="-1.65744">
        <ele>39.9</ele>
        <time>2013-08-18T07:57:05Z</time>
      </trkpt>
      <trkpt lat="47.25812" lon="-1.65733">
        <ele>40.7</ele>
        <time>2013-08-18T07:57:08Z</time>
      </trkpt>
      <trkpt lat="47.25818" lon="-1.65719">
        <ele>41.6</ele>
        <time>2013-08-18T07:57:11Z</time>
      </trkpt>
      <trkpt lat="47.25825" lon="-1.65704">
        <ele>42.4</ele>
        <time>2013-08-18T07:57:14Z</time>
      </trkpt>
      <trkpt lat="47.25833" lon="-1.6569">
        <ele>43.3</ele>
        <time>2013-08-18T07:57:17Z</time>
      </trkpt>
      <trkpt lat="47.25839" lon="-1.65676">
        <ele>43.9</ele>
        <time>2013-08-18T07:57:20Z</time>
      </trkpt>
      <trkpt lat="47.25844" lon="-1.65658">
        <ele>44.4</ele>
        <time>2013-08-18T07:57:23Z</time>
      </trkpt>
      <trkpt lat="47.25848" lon="-1.65643">
        <ele>44.7</ele>
        <time>2013-08-18T07:57:26Z</time>
      </trkpt>
      <trkpt lat="47.25853" lon="-1.65626">
        <ele>45</ele>
        <time>2013-08-18T07:57:29Z</time>
      </trkpt>
      <trkpt lat="47.25857" lon="-1.65614">
        <ele>45.2</ele>
        <time>2013-08-18T07:57:31Z</time>
      </trkpt>
      <trkpt lat="47.25862" lon="-1.65602">
        <ele>45.3</ele>
        <time>2013-08-18T07:57:34Z</time>
      </trkpt>
      <trkpt lat="47.25868" lon="-1.65591">
        <ele>45.4</ele>
        <time>2013-08-18T07:57:36Z</time>
      </trkpt>
      <trkpt lat="47.25878" lon="-1.65579">
        <ele>47.5</ele>
        <time>2013-08-18T07:57:38Z</time>
      </trkpt>
      <trkpt lat="47.25885" lon="-1.6557">
        <ele>48.6</ele>
        <time>2013-08-18T07:57:40Z</time>
      </trkpt>
      <trkpt lat="47.25895" lon="-1.65556">
        <ele>49.5</ele>
        <time>2013-08-18T07:57:43Z</time>
      </trkpt>
      <trkpt lat="47.25906" lon="-1.65544">
        <ele>49.9</ele>
        <time>2013-08-18T07:57:46Z</time>
      </trkpt>
      <trkpt lat="47.25915" lon="-1.65532">
        <ele>50.4</ele>
        <time>2013-08-18T07:57:49Z</time>
      </trkpt>
      <trkpt lat="47.25923" lon="-1.65522">
        <ele>50.9</ele>
        <time>2013-08-18T07:57:52Z</time>
      </trkpt>
      <trkpt lat="47.25928" lon="-1.65511">
        <ele>52.7</ele>
        <time>2013-08-18T07:57:59Z</time>
      </trkpt>
      <trkpt lat="47.25935" lon="-1.65502">
        <ele>54.5</ele>
        <time>2013-08-18T07:58:14Z</time>
      </trkpt>
      <trkpt lat="47.25939" lon="-1.65488">
        <ele>55.1</ele>
        <time>2013-08-18T07:58:19Z</time>
      </trkpt>
      <trkpt lat="47.25944" lon="-1.65476">
        <ele>55.6</ele>
        <time>2013-08-18T07:58:23Z</time>
      </trkpt>
      <trkpt lat="47.25945" lon="-1.65461">
        <ele>56.4</ele>
        <time>2013-08-18T07:58:27Z</time>
      </trkpt>
      <trkpt lat="47.25945" lon="-1.65447">
        <ele>57.3</ele>
        <time>2013-08-18T07:58:31Z</time>
      </trkpt>
      <trkpt lat="47.25945" lon="-1.65431">
        <ele>57.8</ele>
        <time>2013-08-18T07:58:34Z</time>
      </trkpt>
      <trkpt lat="47.25955" lon="-1.65424">
        <ele>59.2</ele>
        <time>2013-08-18T07:58:42Z</time>
      </trkpt>
      <trkpt lat="47.25966" lon="-1.65431">
        <ele>59.6</ele>
        <time>2013-08-18T07:58:47Z</time>
      </trkpt>
      <trkpt lat="47.25974" lon="-1.65436">
        <ele>59.9</ele>
        <time>2013-08-18T07:58:50Z</time>
      </trkpt>
      <trkpt lat="47.25985" lon="-1.65439">
        <ele>60.3</ele>
        <time>2013-08-18T07:58:53Z</time>
      </trkpt>
      <trkpt lat="47.25997" lon="-1.65438">
        <ele>64</ele>
        <time>2013-08-18T07:58:56Z</time>
      </trkpt>
      <trkpt lat="47.2601" lon="-1.65436">
        <ele>65.3</ele>
        <time>2013-08-18T07:58:59Z</time>
      </trkpt>
      <trkpt lat="47.26021" lon="-1.65436">
        <ele>66.1</ele>
        <time>2013-08-18T07:59:01Z</time>
      </trkpt>
      <trkpt lat="47.26032" lon="-1.65438">
        <ele>66.7</ele>
        <time>2013-08-18T07:59:03Z</time>
      </trkpt>
      <trkpt lat="47.26042" lon="-1.6544">
        <ele>67.9</ele>
        <time>2013-08-18T07:59:05Z</time>
      </trkpt>
      <trkpt lat="47.26052" lon="-1.65441">
        <ele>68.7</ele>
        <time>2013-08-18T07:59:07Z</time>
      </trkpt>
      <trkpt lat="47.26062" lon="-1.6544">
        <ele>69</ele>
        <time>2013-08-18T07:59:09Z</time>
      </trkpt>
      <trkpt lat="47.26072" lon="-1.65439">
        <ele>67.6</ele>
        <time>2013-08-18T07:59:11Z</time>
      </trkpt>
      <trkpt lat="47.26082" lon="-1.65437">
        <ele>65.8</ele>
        <time>2013-08-18T07:59:13Z</time>
      </trkpt>
      <trkpt lat="47.26093" lon="-1.65435">
        <ele>64.7</ele>
        <time>2013-08-18T07:59:15Z</time>
      </trkpt>
      <trkpt lat="47.26102" lon="-1.65433">
        <ele>64.9</ele>
        <time>2013-08-18T07:59:17Z</time>
      </trkpt>
      <trkpt lat="47.26112" lon="-1.6543">
        <ele>65</ele>
        <time>2013-08-18T07:59:19Z</time>
      </trkpt>
      <trkpt lat="47.26121" lon="-1.65427">
        <ele>64.5</ele>
        <time>2013-08-18T07:59:21Z</time>
      </trkpt>
      <trkpt lat="47.26131" lon="-1.65425">
        <ele>64.5</ele>
        <time>2013-08-18T07:59:23Z</time>
      </trkpt>
      <trkpt lat="47.26141" lon="-1.65424">
        <ele>65</ele>
        <time>2013-08-18T07:59:25Z</time>
      </trkpt>
      <trkpt lat="47.26152" lon="-1.65422">
        <ele>65.6</ele>
        <time>2013-08-18T07:59:27Z</time>
      </trkpt>
      <trkpt lat="47.26162" lon="-1.65422">
        <ele>65.7</ele>
        <time>2013-08-18T07:59:29Z</time>
      </trkpt>
      <trkpt lat="47.26172" lon="-1.65422">
        <ele>65.7</ele>
        <time>2013-08-18T07:59:31Z</time>
      </trkpt>
      <trkpt lat="47.26182" lon="-1.65422">
        <ele>65.5</ele>
        <time>2013-08-18T07:59:33Z</time>
      </trkpt>
      <trkpt lat="47.26194" lon="-1.65423">
        <ele>64.8</ele>
        <time>2013-08-18T07:59:35Z</time>
      </trkpt>
      <trkpt lat="47.26206" lon="-1.65423">
        <ele>64.4</ele>
        <time>2013-08-18T07:59:37Z</time>
      </trkpt>
      <trkpt lat="47.26217" lon="-1.65423">
        <ele>63.9</ele>
        <time>2013-08-18T07:59:39Z</time>
      </trkpt>
      <trkpt lat="47.26229" lon="-1.65423">
        <ele>63.5</ele>
        <time>2013-08-18T07:59:41Z</time>
      </trkpt>
      <trkpt lat="47.26242" lon="-1.65423">
        <ele>63.6</ele>
        <time>2013-08-18T07:59:43Z</time>
      </trkpt>
      <trkpt lat="47.26257" lon="-1.65423">
        <ele>63.3</ele>
        <time>2013-08-18T07:59:45Z</time>
      </trkpt>
      <trkpt lat="47.2627" lon="-1.65424">
        <ele>63.3</ele>
        <time>2013-08-18T07:59:47Z</time>
      </trkpt>
      <trkpt lat="47.26284" lon="-1.65424">
        <ele>62.8</ele>
        <time>2013-08-18T07:59:49Z</time>
      </trkpt>
      <trkpt lat="47.26297" lon="-1.65425">
        <ele>61.7</ele>
        <time>2013-08-18T07:59:51Z</time>
      </trkpt>
      <trkpt lat="47.26308" lon="-1.65424">
        <ele>61.7</ele>
        <time>2013-08-18T07:59:53Z</time>
      </trkpt>
      <trkpt lat="47.2632" lon="-1.65426">
        <ele>61.2</ele>
        <time>2013-08-18T07:59:55Z</time>
      </trkpt>
      <trkpt lat="47.2633" lon="-1.65427">
        <ele>59.9</ele>
        <time>2013-08-18T07:59:57Z</time>
      </trkpt>
      <trkpt lat="47.26339" lon="-1.65428">
        <ele>58.4</ele>
        <time>2013-08-18T07:59:59Z</time>
      </trkpt>
      <trkpt lat="47.26351" lon="-1.65431">
        <ele>58</ele>
        <time>2013-08-18T08:00:03Z</time>
      </trkpt>
      <trkpt lat="47.26362" lon="-1.65433">
        <ele>56.2</ele>
        <time>2013-08-18T08:00:06Z</time>
      </trkpt>
      <trkpt lat="47.26373" lon="-1.65432">
        <ele>55</ele>
        <time>2013-08-18T08:00:09Z</time>
      </trkpt>
      <trkpt lat="47.26384" lon="-1.65438">
        <ele>53.1</ele>
        <time>2013-08-18T08:02:03Z</time>
      </trkpt>
      <trkpt lat="47.26396" lon="-1.65441">
        <ele>52.8</ele>
        <time>2013-08-18T08:02:06Z</time>
      </trkpt>
      <trkpt lat="47.26409" lon="-1.65445">
        <ele>52.5</ele>
        <time>2013-08-18T08:02:09Z</time>
      </trkpt>
      <trkpt lat="47.26419" lon="-1.65447">
        <ele>52</ele>
        <time>2013-08-18T08:02:11Z</time>
      </trkpt>
      <trkpt lat="47.2643" lon="-1.65451">
        <ele>51.7</ele>
        <time>2013-08-18T08:02:13Z</time>
      </trkpt>
      <trkpt lat="47.26441" lon="-1.65457">
        <ele>50.8</ele>
        <time>2013-08-18T08:02:15Z</time>
      </trkpt>
      <trkpt lat="47.26453" lon="-1.65465">
        <ele>50.1</ele>
        <time>2013-08-18T08:02:17Z</time>
      </trkpt>
      <trkpt lat="47.26463" lon="-1.65472">
        <ele>49.8</ele>
        <time>2013-08-18T08:02:19Z</time>
      </trkpt>
      <trkpt lat="47.26474" lon="-1.6548">
        <ele>50.2</ele>
        <time>2013-08-18T08:02:21Z</time>
      </trkpt>
      <trkpt lat="47.26484" lon="-1.65488">
        <ele>49.2</ele>
        <time>2013-08-18T08:02:23Z</time>
      </trkpt>
      <trkpt lat="47.26493" lon="-1.65497">
        <ele>48.5</ele>
        <time>2013-08-18T08:02:25Z</time>
      </trkpt>
      <trkpt lat="47.26504" lon="-1.65505">
        <ele>48</ele>
        <time>2013-08-18T08:02:27Z</time>
      </trkpt>
      <trkpt lat="47.26516" lon="-1.65513">
        <ele>48.2</ele>
        <time>2013-08-18T08:02:29Z</time>
      </trkpt>
      <trkpt lat="47.26529" lon="-1.6552">
        <ele>48.6</ele>
        <time>2013-08-18T08:02:31Z</time>
      </trkpt>
      <trkpt lat="47.26542" lon="-1.65524">
        <ele>48.1</ele>
        <time>2013-08-18T08:02:33Z</time>
      </trkpt>
      <trkpt lat="47.26554" lon="-1.65525">
        <ele>47.8</ele>
        <time>2013-08-18T08:02:35Z</time>
      </trkpt>
      <trkpt lat="47.26568" lon="-1.65525">
        <ele>47.2</ele>
        <time>2013-08-18T08:02:37Z</time>
      </trkpt>
      <trkpt lat="47.2658" lon="-1.65523">
        <ele>46.8</ele>
        <time>2013-08-18T08:02:39Z</time>
      </trkpt>
      <trkpt lat="47.26592" lon="-1.65521">
        <ele>46.5</ele>
        <time>2013-08-18T08:02:41Z</time>
      </trkpt>
      <trkpt lat="47.26605" lon="-1.65519">
        <ele>46.1</ele>
        <time>2013-08-18T08:02:43Z</time>
      </trkpt>
      <trkpt lat="47.26617" lon="-1.65519">
        <ele>45.7</ele>
        <time>2013-08-18T08:02:45Z</time>
      </trkpt>
      <trkpt lat="47.26629" lon="-1.65524">
        <ele>45</ele>
        <time>2013-08-18T08:02:47Z</time>
      </trkpt>
      <trkpt lat="47.2664" lon="-1.65531">
        <ele>44.7</ele>
        <time>2013-08-18T08:02:49Z</time>
      </trkpt>
      <trkpt lat="47.26648" lon="-1.65537">
        <ele>44.1</ele>
        <time>2013-08-18T08:02:51Z</time>
      </trkpt>
      <trkpt lat="47.26657" lon="-1.65544">
        <ele>44.1</ele>
        <time>2013-08-18T08:02:55Z</time>
      </trkpt>
      <trkpt lat="47.26664" lon="-1.65553">
        <ele>44.3</ele>
        <time>2013-08-18T08:03:02Z</time>
      </trkpt>
      <trkpt lat="47.26675" lon="-1.65555">
        <ele>44.2</ele>
        <time>2013-08-18T08:03:06Z</time>
      </trkpt>
      <trkpt lat="47.26686" lon="-1.65561">
        <ele>44</ele>
        <time>2013-08-18T08:03:09Z</time>
      </trkpt>
      <trkpt lat="47.26696" lon="-1.65566">
        <ele>42.2</ele>
        <time>2013-08-18T08:03:11Z</time>
      </trkpt>
      <trkpt lat="47.26706" lon="-1.65572">
        <ele>41</ele>
        <time>2013-08-18T08:03:13Z</time>
      </trkpt>
      <trkpt lat="47.26716" lon="-1.65578">
        <ele>40</ele>
        <time>2013-08-18T08:03:15Z</time>
      </trkpt>
      <trkpt lat="47.26726" lon="-1.65582">
        <ele>38.9</ele>
        <time>2013-08-18T08:03:17Z</time>
      </trkpt>
      <trkpt lat="47.26735" lon="-1.65577">
        <ele>37.5</ele>
        <time>2013-08-18T08:03:19Z</time>
      </trkpt>
      <trkpt lat="47.26742" lon="-1.65569">
        <ele>36.8</ele>
        <time>2013-08-18T08:03:21Z</time>
      </trkpt>
      <trkpt lat="47.26748" lon="-1.65555">
        <ele>37.1</ele>
        <time>2013-08-18T08:03:23Z</time>
      </trkpt>
      <trkpt lat="47.26756" lon="-1.65539">
        <ele>35.9</ele>
        <time>2013-08-18T08:03:25Z</time>
      </trkpt>
      <trkpt lat="47.26763" lon="-1.65528">
        <ele>35.3</ele>
        <time>2013-08-18T08:03:27Z</time>
      </trkpt>
      <trkpt lat="47.26773" lon="-1.65526">
        <ele>34.5</ele>
        <time>2013-08-18T08:03:31Z</time>
      </trkpt>
      <trkpt lat="47.26786" lon="-1.65529">
        <ele>30.9</ele>
        <time>2013-08-18T08:03:34Z</time>
      </trkpt>
      <trkpt lat="47.268" lon="-1.65529">
        <ele>29.6</ele>
        <time>2013-08-18T08:03:36Z</time>
      </trkpt>
      <trkpt lat="47.26812" lon="-1.6553">
        <ele>29.1</ele>
        <time>2013-08-18T08:03:39Z</time>
      </trkpt>
      <trkpt lat="47.26822" lon="-1.65531">
        <ele>27.7</ele>
        <time>2013-08-18T08:03:42Z</time>
      </trkpt>
      <trkpt lat="47.26833" lon="-1.65535">
        <ele>26.6</ele>
        <time>2013-08-18T08:03:45Z</time>
      </trkpt>
      <trkpt lat="47.2684" lon="-1.65549">
        <ele>26.5</ele>
        <time>2013-08-18T08:04:08Z</time>
      </trkpt>
      <trkpt lat="47.26844" lon="-1.65565">
        <ele>26.3</ele>
        <time>2013-08-18T08:04:15Z</time>
      </trkpt>
      <trkpt lat="47.26853" lon="-1.65575">
        <ele>26.3</ele>
        <time>2013-08-18T08:04:19Z</time>
      </trkpt>
      <trkpt lat="47.2686" lon="-1.65583">
        <ele>26.3</ele>
        <time>2013-08-18T08:04:22Z</time>
      </trkpt>
      <trkpt lat="47.26863" lon="-1.656">
        <ele>26.4</ele>
        <time>2013-08-18T08:04:25Z</time>
      </trkpt>
      <trkpt lat="47.2686" lon="-1.65615">
        <ele>26.3</ele>
        <time>2013-08-18T08:04:40Z</time>
      </trkpt>
      <trkpt lat="47.26858" lon="-1.6563">
        <ele>26.1</ele>
        <time>2013-08-18T08:04:55Z</time>
      </trkpt>
      <trkpt lat="47.26861" lon="-1.65644">
        <ele>25.9</ele>
        <time>2013-08-18T08:05:00Z</time>
      </trkpt>
      <trkpt lat="47.26863" lon="-1.65658">
        <ele>25.5</ele>
        <time>2013-08-18T08:05:05Z</time>
      </trkpt>
      <trkpt lat="47.26862" lon="-1.65671">
        <ele>24.7</ele>
        <time>2013-08-18T08:05:09Z</time>
      </trkpt>
      <trkpt lat="47.26858" lon="-1.65686">
        <ele>24.5</ele>
        <time>2013-08-18T08:05:14Z</time>
      </trkpt>
      <trkpt lat="47.26851" lon="-1.65696">
        <ele>24.4</ele>
        <time>2013-08-18T08:05:18Z</time>
      </trkpt>
      <trkpt lat="47.26846" lon="-1.65707">
        <ele>24.2</ele>
        <time>2013-08-18T08:05:22Z</time>
      </trkpt>
      <trkpt lat="47.26841" lon="-1.65718">
        <ele>24.1</ele>
        <time>2013-08-18T08:05:25Z</time>
      </trkpt>
      <trkpt lat="47.26839" lon="-1.65732">
        <ele>23.9</ele>
        <time>2013-08-18T08:05:28Z</time>
      </trkpt>
      <trkpt lat="47.26839" lon="-1.65746">
        <ele>23.2</ele>
        <time>2013-08-18T08:05:32Z</time>
      </trkpt>
      <trkpt lat="47.26832" lon="-1.65757">
        <ele>22.3</ele>
        <time>2013-08-18T08:05:37Z</time>
      </trkpt>
      <trkpt lat="47.26822" lon="-1.65759">
        <ele>20.9</ele>
        <time>2013-08-18T08:05:41Z</time>
      </trkpt>
      <trkpt lat="47.26812" lon="-1.65765">
        <ele>19.5</ele>
        <time>2013-08-18T08:05:45Z</time>
      </trkpt>
      <trkpt lat="47.26801" lon="-1.65775">
        <ele>18.2</ele>
        <time>2013-08-18T08:05:49Z</time>
      </trkpt>
      <trkpt lat="47.26795" lon="-1.65784">
        <ele>17.1</ele>
        <time>2013-08-18T08:05:52Z</time>
      </trkpt>
      <trkpt lat="47.2679" lon="-1.65796">
        <ele>16.1</ele>
        <time>2013-08-18T08:05:55Z</time>
      </trkpt>
      <trkpt lat="47.26784" lon="-1.6581">
        <ele>14.9</ele>
        <time>2013-08-18T08:05:59Z</time>
      </trkpt>
      <trkpt lat="47.26778" lon="-1.65821">
        <ele>14.1</ele>
        <time>2013-08-18T08:06:02Z</time>
      </trkpt>
      <trkpt lat="47.26768" lon="-1.65831">
        <ele>12.7</ele>
        <time>2013-08-18T08:06:08Z</time>
      </trkpt>
      <trkpt lat="47.26758" lon="-1.65834">
        <ele>12.2</ele>
        <time>2013-08-18T08:06:11Z</time>
      </trkpt>
      <trkpt lat="47.26748" lon="-1.65839">
        <ele>11.6</ele>
        <time>2013-08-18T08:06:14Z</time>
      </trkpt>
      <trkpt lat="47.26725" lon="-1.65846">
        <ele>14.6</ele>
        <time>2013-08-18T08:06:36Z</time>
      </trkpt>
      <trkpt lat="47.26714" lon="-1.65842">
        <ele>15.8</ele>
        <time>2013-08-18T08:06:40Z</time>
      </trkpt>
      <trkpt lat="47.26702" lon="-1.65841">
        <ele>17.5</ele>
        <time>2013-08-18T08:06:44Z</time>
      </trkpt>
      <trkpt lat="47.26692" lon="-1.65851">
        <ele>18.8</ele>
        <time>2013-08-18T08:06:47Z</time>
      </trkpt>
      <trkpt lat="47.26684" lon="-1.65858">
        <ele>20.1</ele>
        <time>2013-08-18T08:06:52Z</time>
      </trkpt>
      <trkpt lat="47.26674" lon="-1.65862">
        <ele>20.9</ele>
        <time>2013-08-18T08:06:56Z</time>
      </trkpt>
      <trkpt lat="47.26664" lon="-1.65861">
        <ele>21.6</ele>
        <time>2013-08-18T08:06:59Z</time>
      </trkpt>
      <trkpt lat="47.26654" lon="-1.65859">
        <ele>22.1</ele>
        <time>2013-08-18T08:07:03Z</time>
      </trkpt>
      <trkpt lat="47.26643" lon="-1.65861">
        <ele>22.5</ele>
        <time>2013-08-18T08:07:08Z</time>
      </trkpt>
      <trkpt lat="47.26632" lon="-1.65864">
        <ele>23.7</ele>
        <time>2013-08-18T08:07:12Z</time>
      </trkpt>
      <trkpt lat="47.26624" lon="-1.65852">
        <ele>24.1</ele>
        <time>2013-08-18T08:07:17Z</time>
      </trkpt>
      <trkpt lat="47.26616" lon="-1.65845">
        <ele>24.2</ele>
        <time>2013-08-18T08:07:21Z</time>
      </trkpt>
      <trkpt lat="47.26607" lon="-1.6584">
        <ele>24.1</ele>
        <time>2013-08-18T08:07:24Z</time>
      </trkpt>
      <trkpt lat="47.26596" lon="-1.65835">
        <ele>24.4</ele>
        <time>2013-08-18T08:07:29Z</time>
      </trkpt>
      <trkpt lat="47.26587" lon="-1.65838">
        <ele>24.6</ele>
        <time>2013-08-18T08:07:46Z</time>
      </trkpt>
      <trkpt lat="47.26578" lon="-1.65845">
        <ele>24.8</ele>
        <time>2013-08-18T08:07:55Z</time>
      </trkpt>
      <trkpt lat="47.26574" lon="-1.65859">
        <ele>24.3</ele>
        <time>2013-08-18T08:08:00Z</time>
      </trkpt>
      <trkpt lat="47.26574" lon="-1.65874">
        <ele>23.5</ele>
        <time>2013-08-18T08:08:05Z</time>
      </trkpt>
      <trkpt lat="47.2657" lon="-1.65891">
        <ele>22.6</ele>
        <time>2013-08-18T08:08:10Z</time>
      </trkpt>
      <trkpt lat="47.26562" lon="-1.65902">
        <ele>21.8</ele>
        <time>2013-08-18T08:08:14Z</time>
      </trkpt>
      <trkpt lat="47.26551" lon="-1.65902">
        <ele>20.8</ele>
        <time>2013-08-18T08:08:18Z</time>
      </trkpt>
      <trkpt lat="47.26538" lon="-1.659">
        <ele>19.8</ele>
        <time>2013-08-18T08:08:21Z</time>
      </trkpt>
      <trkpt lat="47.26528" lon="-1.65898">
        <ele>19.1</ele>
        <time>2013-08-18T08:08:23Z</time>
      </trkpt>
      <trkpt lat="47.26519" lon="-1.65902">
        <ele>18.7</ele>
        <time>2013-08-18T08:08:26Z</time>
      </trkpt>
      <trkpt lat="47.26513" lon="-1.65912">
        <ele>19.2</ele>
        <time>2013-08-18T08:08:32Z</time>
      </trkpt>
      <trkpt lat="47.26508" lon="-1.65924">
        <ele>23.1</ele>
        <time>2013-08-18T08:09:01Z</time>
      </trkpt>
      <trkpt lat="47.2651" lon="-1.65939">
        <ele>23.7</ele>
        <time>2013-08-18T08:09:10Z</time>
      </trkpt>
      <trkpt lat="47.26517" lon="-1.6595">
        <ele>24.1</ele>
        <time>2013-08-18T08:09:14Z</time>
      </trkpt>
      <trkpt lat="47.26522" lon="-1.65962">
        <ele>24.4</ele>
        <time>2013-08-18T08:09:18Z</time>
      </trkpt>
      <trkpt lat="47.26525" lon="-1.65976">
        <ele>24.7</ele>
        <time>2013-08-18T08:09:21Z</time>
      </trkpt>
      <trkpt lat="47.26527" lon="-1.65991">
        <ele>25</ele>
        <time>2013-08-18T08:09:25Z</time>
      </trkpt>
      <trkpt lat="47.26528" lon="-1.66007">
        <ele>25.4</ele>
        <time>2013-08-18T08:09:29Z</time>
      </trkpt>
      <trkpt lat="47.26531" lon="-1.66022">
        <ele>25.5</ele>
        <time>2013-08-18T08:09:33Z</time>
      </trkpt>
      <trkpt lat="47.26541" lon="-1.66035">
        <ele>25.3</ele>
        <time>2013-08-18T08:09:37Z</time>
      </trkpt>
      <trkpt lat="47.26548" lon="-1.66042">
        <ele>25.3</ele>
        <time>2013-08-18T08:09:39Z</time>
      </trkpt>
      <trkpt lat="47.26559" lon="-1.66045">
        <ele>25.9</ele>
        <time>2013-08-18T08:09:41Z</time>
      </trkpt>
      <trkpt lat="47.26568" lon="-1.66046">
        <ele>26.9</ele>
        <time>2013-08-18T08:09:43Z</time>
      </trkpt>
      <trkpt lat="47.26579" lon="-1.66048">
        <ele>26.5</ele>
        <time>2013-08-18T08:09:45Z</time>
      </trkpt>
      <trkpt lat="47.2659" lon="-1.66052">
        <ele>27.3</ele>
        <time>2013-08-18T08:09:47Z</time>
      </trkpt>
      <trkpt lat="47.266" lon="-1.66058">
        <ele>27.4</ele>
        <time>2013-08-18T08:09:49Z</time>
      </trkpt>
      <trkpt lat="47.2661" lon="-1.66063">
        <ele>27</ele>
        <time>2013-08-18T08:09:51Z</time>
      </trkpt>
      <trkpt lat="47.26618" lon="-1.66069">
        <ele>25.8</ele>
        <time>2013-08-18T08:09:53Z</time>
      </trkpt>
      <trkpt lat="47.26627" lon="-1.66076">
        <ele>25</ele>
        <time>2013-08-18T08:09:55Z</time>
      </trkpt>
      <trkpt lat="47.26637" lon="-1.66085">
        <ele>26.1</ele>
        <time>2013-08-18T08:09:57Z</time>
      </trkpt>
      <trkpt lat="47.26643" lon="-1.66099">
        <ele>27.7</ele>
        <time>2013-08-18T08:09:59Z</time>
      </trkpt>
      <trkpt lat="47.26645" lon="-1.66114">
        <ele>28.8</ele>
        <time>2013-08-18T08:10:01Z</time>
      </trkpt>
      <trkpt lat="47.26645" lon="-1.66131">
        <ele>29.1</ele>
        <time>2013-08-18T08:10:03Z</time>
      </trkpt>
      <trkpt lat="47.26647" lon="-1.66146">
        <ele>29</ele>
        <time>2013-08-18T08:10:06Z</time>
      </trkpt>
      <trkpt lat="47.2664" lon="-1.66156">
        <ele>29</ele>
        <time>2013-08-18T08:10:23Z</time>
      </trkpt>
      <trkpt lat="47.26641" lon="-1.66173">
        <ele>29.1</ele>
        <time>2013-08-18T08:10:32Z</time>
      </trkpt>
      <trkpt lat="47.26644" lon="-1.66187">
        <ele>28.9</ele>
        <time>2013-08-18T08:10:35Z</time>
      </trkpt>
      <trkpt lat="47.26647" lon="-1.66201">
        <ele>28.6</ele>
        <time>2013-08-18T08:10:38Z</time>
      </trkpt>
      <trkpt lat="47.26649" lon="-1.6622">
        <ele>28.2</ele>
        <time>2013-08-18T08:10:41Z</time>
      </trkpt>
      <trkpt lat="47.2665" lon="-1.66238">
        <ele>28</ele>
        <time>2013-08-18T08:10:44Z</time>
      </trkpt>
      <trkpt lat="47.26653" lon="-1.66253">
        <ele>27.6</ele>
        <time>2013-08-18T08:10:47Z</time>
      </trkpt>
      <trkpt lat="47.26655" lon="-1.66269">
        <ele>27.3</ele>
        <time>2013-08-18T08:10:51Z</time>
      </trkpt>
      <trkpt lat="47.26658" lon="-1.66281">
        <ele>27</ele>
        <time>2013-08-18T08:10:55Z</time>
      </trkpt>
      <trkpt lat="47.26656" lon="-1.66267">
        <ele>26.1</ele>
        <time>2013-08-18T08:11:18Z</time>
      </trkpt>
      <trkpt lat="47.26655" lon="-1.66253">
        <ele>26.2</ele>
        <time>2013-08-18T08:11:22Z</time>
      </trkpt>
      <trkpt lat="47.26652" lon="-1.66239">
        <ele>26.3</ele>
        <time>2013-08-18T08:11:26Z</time>
      </trkpt>
      <trkpt lat="47.26649" lon="-1.66222">
        <ele>26.4</ele>
        <time>2013-08-18T08:11:30Z</time>
      </trkpt>
      <trkpt lat="47.26647" lon="-1.66206">
        <ele>26.4</ele>
        <time>2013-08-18T08:11:34Z</time>
      </trkpt>
      <trkpt lat="47.26644" lon="-1.6619">
        <ele>26.5</ele>
        <time>2013-08-18T08:11:39Z</time>
      </trkpt>
      <trkpt lat="47.26644" lon="-1.66176">
        <ele>26.6</ele>
        <time>2013-08-18T08:11:44Z</time>
      </trkpt>
      <trkpt lat="47.26642" lon="-1.66162">
        <ele>26.6</ele>
        <time>2013-08-18T08:11:49Z</time>
      </trkpt>
      <trkpt lat="47.26651" lon="-1.66156">
        <ele>25.2</ele>
        <time>2013-08-18T08:12:01Z</time>
      </trkpt>
      <trkpt lat="47.26659" lon="-1.66162">
        <ele>28.9</ele>
        <time>2013-08-18T08:12:34Z</time>
      </trkpt>
      <trkpt lat="47.26666" lon="-1.66172">
        <ele>30.6</ele>
        <time>2013-08-18T08:12:41Z</time>
      </trkpt>
      <trkpt lat="47.26668" lon="-1.66187">
        <ele>31.5</ele>
        <time>2013-08-18T08:12:45Z</time>
      </trkpt>
      <trkpt lat="47.26671" lon="-1.662">
        <ele>32.7</ele>
        <time>2013-08-18T08:12:49Z</time>
      </trkpt>
      <trkpt lat="47.26675" lon="-1.66212">
        <ele>34.1</ele>
        <time>2013-08-18T08:12:54Z</time>
      </trkpt>
      <trkpt lat="47.26676" lon="-1.66227">
        <ele>35.5</ele>
        <time>2013-08-18T08:13:00Z</time>
      </trkpt>
      <trkpt lat="47.26681" lon="-1.66239">
        <ele>36.8</ele>
        <time>2013-08-18T08:13:06Z</time>
      </trkpt>
      <trkpt lat="47.26685" lon="-1.66251">
        <ele>37.9</ele>
        <time>2013-08-18T08:13:11Z</time>
      </trkpt>
      <trkpt lat="47.26693" lon="-1.66259">
        <ele>39.8</ele>
        <time>2013-08-18T08:13:22Z</time>
      </trkpt>
      <trkpt lat="47.26702" lon="-1.66264">
        <ele>41.4</ele>
        <time>2013-08-18T08:13:32Z</time>
      </trkpt>
      <trkpt lat="47.26711" lon="-1.6627">
        <ele>41.8</ele>
        <time>2013-08-18T08:13:45Z</time>
      </trkpt>
      <trkpt lat="47.26721" lon="-1.66276">
        <ele>41.8</ele>
        <time>2013-08-18T08:13:50Z</time>
      </trkpt>
      <trkpt lat="47.26729" lon="-1.66283">
        <ele>41.7</ele>
        <time>2013-08-18T08:13:54Z</time>
      </trkpt>
      <trkpt lat="47.26736" lon="-1.66293">
        <ele>42.4</ele>
        <time>2013-08-18T08:14:00Z</time>
      </trkpt>
      <trkpt lat="47.26742" lon="-1.66303">
        <ele>43.5</ele>
        <time>2013-08-18T08:14:07Z</time>
      </trkpt>
      <trkpt lat="47.26749" lon="-1.66312">
        <ele>44.1</ele>
        <time>2013-08-18T08:14:12Z</time>
      </trkpt>
      <trkpt lat="47.26758" lon="-1.6632">
        <ele>44.1</ele>
        <time>2013-08-18T08:14:18Z</time>
      </trkpt>
      <trkpt lat="47.26766" lon="-1.66326">
        <ele>44.3</ele>
        <time>2013-08-18T08:14:23Z</time>
      </trkpt>
      <trkpt lat="47.26777" lon="-1.66332">
        <ele>44</ele>
        <time>2013-08-18T08:14:28Z</time>
      </trkpt>
      <trkpt lat="47.26785" lon="-1.66336">
        <ele>43.9</ele>
        <time>2013-08-18T08:14:31Z</time>
      </trkpt>
      <trkpt lat="47.26796" lon="-1.66342">
        <ele>44</ele>
        <time>2013-08-18T08:14:35Z</time>
      </trkpt>
      <trkpt lat="47.26807" lon="-1.66346">
        <ele>44.2</ele>
        <time>2013-08-18T08:14:39Z</time>
      </trkpt>
      <trkpt lat="47.26816" lon="-1.6635">
        <ele>44.4</ele>
        <time>2013-08-18T08:15:12Z</time>
      </trkpt>
      <trkpt lat="47.26827" lon="-1.66354">
        <ele>44.4</ele>
        <time>2013-08-18T08:15:16Z</time>
      </trkpt>
      <trkpt lat="47.26836" lon="-1.66358">
        <ele>44.6</ele>
        <time>2013-08-18T08:15:19Z</time>
      </trkpt>
      <trkpt lat="47.26847" lon="-1.66361">
        <ele>44.5</ele>
        <time>2013-08-18T08:15:23Z</time>
      </trkpt>
      <trkpt lat="47.26857" lon="-1.66364">
        <ele>44.6</ele>
        <time>2013-08-18T08:15:27Z</time>
      </trkpt>
      <trkpt lat="47.26867" lon="-1.66369">
        <ele>44.3</ele>
        <time>2013-08-18T08:15:30Z</time>
      </trkpt>
      <trkpt lat="47.26876" lon="-1.66379">
        <ele>44</ele>
        <time>2013-08-18T08:15:33Z</time>
      </trkpt>
      <trkpt lat="47.26886" lon="-1.66391">
        <ele>43.8</ele>
        <time>2013-08-18T08:15:36Z</time>
      </trkpt>
      <trkpt lat="47.26894" lon="-1.66405">
        <ele>43.9</ele>
        <time>2013-08-18T08:15:39Z</time>
      </trkpt>
      <trkpt lat="47.26899" lon="-1.66418">
        <ele>43.8</ele>
        <time>2013-08-18T08:15:41Z</time>
      </trkpt>
      <trkpt lat="47.26902" lon="-1.66432">
        <ele>43.9</ele>
        <time>2013-08-18T08:15:43Z</time>
      </trkpt>
      <trkpt lat="47.26904" lon="-1.66448">
        <ele>45.7</ele>
        <time>2013-08-18T08:15:45Z</time>
      </trkpt>
      <trkpt lat="47.26906" lon="-1.66464">
        <ele>46.9</ele>
        <time>2013-08-18T08:15:47Z</time>
      </trkpt>
      <trkpt lat="47.2691" lon="-1.66481">
        <ele>48</ele>
        <time>2013-08-18T08:15:49Z</time>
      </trkpt>
      <trkpt lat="47.26916" lon="-1.66496">
        <ele>49.5</ele>
        <time>2013-08-18T08:15:51Z</time>
      </trkpt>
      <trkpt lat="47.26923" lon="-1.66506">
        <ele>50.1</ele>
        <time>2013-08-18T08:15:53Z</time>
      </trkpt>
      <trkpt lat="47.26936" lon="-1.6651">
        <ele>52.3</ele>
        <time>2013-08-18T08:15:56Z</time>
      </trkpt>
      <trkpt lat="47.26947" lon="-1.66511">
        <ele>53.8</ele>
        <time>2013-08-18T08:15:58Z</time>
      </trkpt>
      <trkpt lat="47.26957" lon="-1.66511">
        <ele>54.7</ele>
        <time>2013-08-18T08:16:00Z</time>
      </trkpt>
      <trkpt lat="47.26967" lon="-1.66511">
        <ele>54.9</ele>
        <time>2013-08-18T08:16:02Z</time>
      </trkpt>
      <trkpt lat="47.26976" lon="-1.66511">
        <ele>55.5</ele>
        <time>2013-08-18T08:16:04Z</time>
      </trkpt>
      <trkpt lat="47.26986" lon="-1.66511">
        <ele>55.3</ele>
        <time>2013-08-18T08:16:06Z</time>
      </trkpt>
      <trkpt lat="47.26999" lon="-1.66509">
        <ele>55.1</ele>
        <time>2013-08-18T08:16:09Z</time>
      </trkpt>
      <trkpt lat="47.27009" lon="-1.66509">
        <ele>55.5</ele>
        <time>2013-08-18T08:16:11Z</time>
      </trkpt>
      <trkpt lat="47.2702" lon="-1.66509">
        <ele>55.6</ele>
        <time>2013-08-18T08:16:14Z</time>
      </trkpt>
      <trkpt lat="47.27029" lon="-1.66512">
        <ele>55.6</ele>
        <time>2013-08-18T08:16:18Z</time>
      </trkpt>
      <trkpt lat="47.27039" lon="-1.66517">
        <ele>55.4</ele>
        <time>2013-08-18T08:16:23Z</time>
      </trkpt>
      <trkpt lat="47.27051" lon="-1.66524">
        <ele>55.5</ele>
        <time>2013-08-18T08:16:27Z</time>
      </trkpt>
      <trkpt lat="47.27062" lon="-1.66531">
        <ele>55.9</ele>
        <time>2013-08-18T08:16:30Z</time>
      </trkpt>
      <trkpt lat="47.27075" lon="-1.66536">
        <ele>57.3</ele>
        <time>2013-08-18T08:16:33Z</time>
      </trkpt>
      <trkpt lat="47.27084" lon="-1.6654">
        <ele>57.4</ele>
        <time>2013-08-18T08:16:35Z</time>
      </trkpt>
      <trkpt lat="47.27093" lon="-1.66546">
        <ele>57.7</ele>
        <time>2013-08-18T08:16:37Z</time>
      </trkpt>
      <trkpt lat="47.27105" lon="-1.66553">
        <ele>57.9</ele>
        <time>2013-08-18T08:16:40Z</time>
      </trkpt>
      <trkpt lat="47.27114" lon="-1.66561">
        <ele>57.7</ele>
        <time>2013-08-18T08:16:43Z</time>
      </trkpt>
      <trkpt lat="47.27124" lon="-1.66569">
        <ele>57.5</ele>
        <time>2013-08-18T08:16:47Z</time>
      </trkpt>
      <trkpt lat="47.27132" lon="-1.66577">
        <ele>57.4</ele>
        <time>2013-08-18T08:16:50Z</time>
      </trkpt>
      <trkpt lat="47.27141" lon="-1.66583">
        <ele>57.3</ele>
        <time>2013-08-18T08:16:54Z</time>
      </trkpt>
      <trkpt lat="47.2715" lon="-1.66591">
        <ele>57.5</ele>
        <time>2013-08-18T08:16:58Z</time>
      </trkpt>
      <trkpt lat="47.27158" lon="-1.66598">
        <ele>57.6</ele>
        <time>2013-08-18T08:17:01Z</time>
      </trkpt>
      <trkpt lat="47.27169" lon="-1.66606">
        <ele>57.5</ele>
        <time>2013-08-18T08:17:05Z</time>
      </trkpt>
      <trkpt lat="47.2718" lon="-1.66611">
        <ele>57.5</ele>
        <time>2013-08-18T08:17:08Z</time>
      </trkpt>
      <trkpt lat="47.27189" lon="-1.66615">
        <ele>57.4</ele>
        <time>2013-08-18T08:17:10Z</time>
      </trkpt>
      <trkpt lat="47.272" lon="-1.66619">
        <ele>57.4</ele>
        <time>2013-08-18T08:17:13Z</time>
      </trkpt>
      <trkpt lat="47.27211" lon="-1.66624">
        <ele>57.3</ele>
        <time>2013-08-18T08:17:17Z</time>
      </trkpt>
      <trkpt lat="47.27221" lon="-1.66626">
        <ele>57.1</ele>
        <time>2013-08-18T08:17:20Z</time>
      </trkpt>
      <trkpt lat="47.27232" lon="-1.66628">
        <ele>56.9</ele>
        <time>2013-08-18T08:17:23Z</time>
      </trkpt>
      <trkpt lat="47.27244" lon="-1.6663">
        <ele>56.4</ele>
        <time>2013-08-18T08:17:26Z</time>
      </trkpt>
      <trkpt lat="47.27255" lon="-1.66632">
        <ele>55.5</ele>
        <time>2013-08-18T08:17:28Z</time>
      </trkpt>
      <trkpt lat="47.27266" lon="-1.66634">
        <ele>56.1</ele>
        <time>2013-08-18T08:17:30Z</time>
      </trkpt>
      <trkpt lat="47.27276" lon="-1.66636">
        <ele>56.1</ele>
        <time>2013-08-18T08:17:32Z</time>
      </trkpt>
      <trkpt lat="47.27289" lon="-1.66636">
        <ele>56.1</ele>
        <time>2013-08-18T08:17:35Z</time>
      </trkpt>
      <trkpt lat="47.273" lon="-1.66634">
        <ele>56</ele>
        <time>2013-08-18T08:17:38Z</time>
      </trkpt>
      <trkpt lat="47.2731" lon="-1.66636">
        <ele>56.2</ele>
        <time>2013-08-18T08:17:41Z</time>
      </trkpt>
      <trkpt lat="47.2732" lon="-1.66644">
        <ele>56.6</ele>
        <time>2013-08-18T08:17:45Z</time>
      </trkpt>
      <trkpt lat="47.27331" lon="-1.66648">
        <ele>56.8</ele>
        <time>2013-08-18T08:17:48Z</time>
      </trkpt>
      <trkpt lat="47.27343" lon="-1.6665">
        <ele>57</ele>
        <time>2013-08-18T08:17:51Z</time>
      </trkpt>
      <trkpt lat="47.27355" lon="-1.6665">
        <ele>57.9</ele>
        <time>2013-08-18T08:17:54Z</time>
      </trkpt>
      <trkpt lat="47.27369" lon="-1.66651">
        <ele>58.5</ele>
        <time>2013-08-18T08:17:57Z</time>
      </trkpt>
      <trkpt lat="47.27378" lon="-1.6665">
        <ele>59.9</ele>
        <time>2013-08-18T08:17:59Z</time>
      </trkpt>
      <trkpt lat="47.27389" lon="-1.66649">
        <ele>60.7</ele>
        <time>2013-08-18T08:18:01Z</time>
      </trkpt>
      <trkpt lat="47.27399" lon="-1.66649">
        <ele>61.4</ele>
        <time>2013-08-18T08:18:03Z</time>
      </trkpt>
      <trkpt lat="47.2741" lon="-1.66651">
        <ele>61.8</ele>
        <time>2013-08-18T08:18:05Z</time>
      </trkpt>
      <trkpt lat="47.27418" lon="-1.66656">
        <ele>63</ele>
        <time>2013-08-18T08:18:07Z</time>
      </trkpt>
      <trkpt lat="47.27427" lon="-1.66667">
        <ele>63.5</ele>
        <time>2013-08-18T08:18:10Z</time>
      </trkpt>
      <trkpt lat="47.27436" lon="-1.6668">
        <ele>63.1</ele>
        <time>2013-08-18T08:18:13Z</time>
      </trkpt>
      <trkpt lat="47.27444" lon="-1.66686">
        <ele>62.8</ele>
        <time>2013-08-18T08:18:15Z</time>
      </trkpt>
      <trkpt lat="47.27457" lon="-1.6669">
        <ele>63.2</ele>
        <time>2013-08-18T08:18:18Z</time>
      </trkpt>
      <trkpt lat="47.27468" lon="-1.66692">
        <ele>63.2</ele>
        <time>2013-08-18T08:18:21Z</time>
      </trkpt>
      <trkpt lat="47.27479" lon="-1.66693">
        <ele>63.2</ele>
        <time>2013-08-18T08:18:24Z</time>
      </trkpt>
      <trkpt lat="47.2749" lon="-1.66693">
        <ele>63.1</ele>
        <time>2013-08-18T08:18:27Z</time>
      </trkpt>
      <trkpt lat="47.27502" lon="-1.66692">
        <ele>62.9</ele>
        <time>2013-08-18T08:18:30Z</time>
      </trkpt>
      <trkpt lat="47.27514" lon="-1.66691">
        <ele>62.9</ele>
        <time>2013-08-18T08:18:33Z</time>
      </trkpt>
      <trkpt lat="47.27526" lon="-1.66692">
        <ele>62.9</ele>
        <time>2013-08-18T08:18:36Z</time>
      </trkpt>
      <trkpt lat="47.27536" lon="-1.66692">
        <ele>62.6</ele>
        <time>2013-08-18T08:18:38Z</time>
      </trkpt>
      <trkpt lat="47.27546" lon="-1.66692">
        <ele>63.2</ele>
        <time>2013-08-18T08:18:40Z</time>
      </trkpt>
      <trkpt lat="47.27557" lon="-1.66693">
        <ele>63.4</ele>
        <time>2013-08-18T08:18:42Z</time>
      </trkpt>
      <trkpt lat="47.27566" lon="-1.66693">
        <ele>63.8</ele>
        <time>2013-08-18T08:18:44Z</time>
      </trkpt>
      <trkpt lat="47.2758" lon="-1.66693">
        <ele>64.7</ele>
        <time>2013-08-18T08:18:47Z</time>
      </trkpt>
      <trkpt lat="47.27594" lon="-1.66692">
        <ele>64.8</ele>
        <time>2013-08-18T08:18:50Z</time>
      </trkpt>
      <trkpt lat="47.27607" lon="-1.66689">
        <ele>65.1</ele>
        <time>2013-08-18T08:18:53Z</time>
      </trkpt>
      <trkpt lat="47.27616" lon="-1.66687">
        <ele>65.2</ele>
        <time>2013-08-18T08:18:55Z</time>
      </trkpt>
      <trkpt lat="47.27627" lon="-1.66684">
        <ele>64.9</ele>
        <time>2013-08-18T08:18:57Z</time>
      </trkpt>
      <trkpt lat="47.27638" lon="-1.66681">
        <ele>65.7</ele>
        <time>2013-08-18T08:19:00Z</time>
      </trkpt>
      <trkpt lat="47.27652" lon="-1.66677">
        <ele>66.3</ele>
        <time>2013-08-18T08:19:03Z</time>
      </trkpt>
      <trkpt lat="47.27661" lon="-1.66672">
        <ele>67.4</ele>
        <time>2013-08-18T08:19:05Z</time>
      </trkpt>
      <trkpt lat="47.27671" lon="-1.66668">
        <ele>67.9</ele>
        <time>2013-08-18T08:19:07Z</time>
      </trkpt>
      <trkpt lat="47.27684" lon="-1.66664">
        <ele>67.1</ele>
        <time>2013-08-18T08:19:10Z</time>
      </trkpt>
      <trkpt lat="47.27693" lon="-1.66663">
        <ele>67.5</ele>
        <time>2013-08-18T08:19:12Z</time>
      </trkpt>
      <trkpt lat="47.27704" lon="-1.66657">
        <ele>67.6</ele>
        <time>2013-08-18T08:19:15Z</time>
      </trkpt>
      <trkpt lat="47.27713" lon="-1.6665">
        <ele>68.5</ele>
        <time>2013-08-18T08:19:17Z</time>
      </trkpt>
      <trkpt lat="47.27724" lon="-1.6664">
        <ele>68.9</ele>
        <time>2013-08-18T08:19:19Z</time>
      </trkpt>
      <trkpt lat="47.27736" lon="-1.66631">
        <ele>68.6</ele>
        <time>2013-08-18T08:19:21Z</time>
      </trkpt>
      <trkpt lat="47.27748" lon="-1.66622">
        <ele>67.8</ele>
        <time>2013-08-18T08:19:23Z</time>
      </trkpt>
      <trkpt lat="47.2776" lon="-1.66611">
        <ele>67.1</ele>
        <time>2013-08-18T08:19:25Z</time>
      </trkpt>
      <trkpt lat="47.27774" lon="-1.66599">
        <ele>66.9</ele>
        <time>2013-08-18T08:19:27Z</time>
      </trkpt>
      <trkpt lat="47.27787" lon="-1.66588">
        <ele>66</ele>
        <time>2013-08-18T08:19:29Z</time>
      </trkpt>
      <trkpt lat="47.278" lon="-1.66577">
        <ele>65</ele>
        <time>2013-08-18T08:19:31Z</time>
      </trkpt>
      <trkpt lat="47.27812" lon="-1.66568">
        <ele>64.2</ele>
        <time>2013-08-18T08:19:33Z</time>
      </trkpt>
      <trkpt lat="47.27825" lon="-1.66559">
        <ele>64.2</ele>
        <time>2013-08-18T08:19:35Z</time>
      </trkpt>
      <trkpt lat="47.27838" lon="-1.66552">
        <ele>64.4</ele>
        <time>2013-08-18T08:19:37Z</time>
      </trkpt>
      <trkpt lat="47.27852" lon="-1.66544">
        <ele>64.4</ele>
        <time>2013-08-18T08:19:39Z</time>
      </trkpt>
      <trkpt lat="47.27866" lon="-1.66537">
        <ele>64.1</ele>
        <time>2013-08-18T08:19:41Z</time>
      </trkpt>
      <trkpt lat="47.27881" lon="-1.66532">
        <ele>63.4</ele>
        <time>2013-08-18T08:19:43Z</time>
      </trkpt>
      <trkpt lat="47.27895" lon="-1.66527">
        <ele>63.5</ele>
        <time>2013-08-18T08:19:45Z</time>
      </trkpt>
      <trkpt lat="47.27908" lon="-1.66522">
        <ele>64</ele>
        <time>2013-08-18T08:19:47Z</time>
      </trkpt>
      <trkpt lat="47.27923" lon="-1.66518">
        <ele>64.3</ele>
        <time>2013-08-18T08:19:49Z</time>
      </trkpt>
      <trkpt lat="47.27938" lon="-1.66512">
        <ele>64.7</ele>
        <time>2013-08-18T08:19:51Z</time>
      </trkpt>
      <trkpt lat="47.27952" lon="-1.66507">
        <ele>64.6</ele>
        <time>2013-08-18T08:19:53Z</time>
      </trkpt>
      <trkpt lat="47.27966" lon="-1.66502">
        <ele>64.7</ele>
        <time>2013-08-18T08:19:55Z</time>
      </trkpt>
      <trkpt lat="47.27978" lon="-1.66497">
        <ele>64.4</ele>
        <time>2013-08-18T08:19:57Z</time>
      </trkpt>
      <trkpt lat="47.27987" lon="-1.66494">
        <ele>64.8</ele>
        <time>2013-08-18T08:19:59Z</time>
      </trkpt>
      <trkpt lat="47.27996" lon="-1.66496">
        <ele>62.6</ele>
        <time>2013-08-18T08:20:38Z</time>
      </trkpt>
      <trkpt lat="47.28004" lon="-1.66488">
        <ele>62.1</ele>
        <time>2013-08-18T08:20:44Z</time>
      </trkpt>
      <trkpt lat="47.28013" lon="-1.66481">
        <ele>62.1</ele>
        <time>2013-08-18T08:20:48Z</time>
      </trkpt>
      <trkpt lat="47.28024" lon="-1.66476">
        <ele>61.9</ele>
        <time>2013-08-18T08:20:52Z</time>
      </trkpt>
      <trkpt lat="47.28034" lon="-1.6647">
        <ele>61.8</ele>
        <time>2013-08-18T08:20:55Z</time>
      </trkpt>
      <trkpt lat="47.28046" lon="-1.66463">
        <ele>61.9</ele>
        <time>2013-08-18T08:20:58Z</time>
      </trkpt>
      <trkpt lat="47.28056" lon="-1.66457">
        <ele>61.7</ele>
        <time>2013-08-18T08:21:01Z</time>
      </trkpt>
      <trkpt lat="47.28068" lon="-1.66452">
        <ele>61.4</ele>
        <time>2013-08-18T08:21:04Z</time>
      </trkpt>
      <trkpt lat="47.28077" lon="-1.66446">
        <ele>61.2</ele>
        <time>2013-08-18T08:21:06Z</time>
      </trkpt>
      <trkpt lat="47.28088" lon="-1.66438">
        <ele>60.6</ele>
        <time>2013-08-18T08:21:09Z</time>
      </trkpt>
      <trkpt lat="47.28101" lon="-1.66429">
        <ele>59.5</ele>
        <time>2013-08-18T08:21:12Z</time>
      </trkpt>
      <trkpt lat="47.28109" lon="-1.66423">
        <ele>59.5</ele>
        <time>2013-08-18T08:21:14Z</time>
      </trkpt>
      <trkpt lat="47.28121" lon="-1.66413">
        <ele>59.5</ele>
        <time>2013-08-18T08:21:17Z</time>
      </trkpt>
      <trkpt lat="47.2813" lon="-1.66406">
        <ele>59.6</ele>
        <time>2013-08-18T08:21:19Z</time>
      </trkpt>
      <trkpt lat="47.28141" lon="-1.66397">
        <ele>59</ele>
        <time>2013-08-18T08:21:22Z</time>
      </trkpt>
      <trkpt lat="47.28149" lon="-1.6639">
        <ele>58.9</ele>
        <time>2013-08-18T08:21:24Z</time>
      </trkpt>
      <trkpt lat="47.28158" lon="-1.66383">
        <ele>59.9</ele>
        <time>2013-08-18T08:21:26Z</time>
      </trkpt>
      <trkpt lat="47.28166" lon="-1.66376">
        <ele>61.4</ele>
        <time>2013-08-18T08:21:28Z</time>
      </trkpt>
      <trkpt lat="47.28175" lon="-1.66368">
        <ele>62.8</ele>
        <time>2013-08-18T08:21:30Z</time>
      </trkpt>
      <trkpt lat="47.2818" lon="-1.66352">
        <ele>63</ele>
        <time>2013-08-18T08:21:33Z</time>
      </trkpt>
      <trkpt lat="47.28178" lon="-1.66334">
        <ele>62.7</ele>
        <time>2013-08-18T08:21:36Z</time>
      </trkpt>
      <trkpt lat="47.28174" lon="-1.66318">
        <ele>61.3</ele>
        <time>2013-08-18T08:21:38Z</time>
      </trkpt>
      <trkpt lat="47.28169" lon="-1.663">
        <ele>59.2</ele>
        <time>2013-08-18T08:21:40Z</time>
      </trkpt>
      <trkpt lat="47.28164" lon="-1.66282">
        <ele>57.3</ele>
        <time>2013-08-18T08:21:42Z</time>
      </trkpt>
      <trkpt lat="47.2816" lon="-1.66264">
        <ele>57.9</ele>
        <time>2013-08-18T08:21:44Z</time>
      </trkpt>
      <trkpt lat="47.28156" lon="-1.66243">
        <ele>59.7</ele>
        <time>2013-08-18T08:21:46Z</time>
      </trkpt>
      <trkpt lat="47.28151" lon="-1.66222">
        <ele>60.8</ele>
        <time>2013-08-18T08:21:48Z</time>
      </trkpt>
      <trkpt lat="47.28147" lon="-1.66202">
        <ele>60.5</ele>
        <time>2013-08-18T08:21:50Z</time>
      </trkpt>
      <trkpt lat="47.28143" lon="-1.66183">
        <ele>60.1</ele>
        <time>2013-08-18T08:21:52Z</time>
      </trkpt>
      <trkpt lat="47.2814" lon="-1.66168">
        <ele>60.9</ele>
        <time>2013-08-18T08:21:54Z</time>
      </trkpt>
      <trkpt lat="47.28136" lon="-1.66151">
        <ele>60.7</ele>
        <time>2013-08-18T08:21:56Z</time>
      </trkpt>
      <trkpt lat="47.28132" lon="-1.66135">
        <ele>61</ele>
        <time>2013-08-18T08:21:58Z</time>
      </trkpt>
      <trkpt lat="47.28128" lon="-1.66119">
        <ele>61.4</ele>
        <time>2013-08-18T08:22:00Z</time>
      </trkpt>
      <trkpt lat="47.28125" lon="-1.66105">
        <ele>61.6</ele>
        <time>2013-08-18T08:22:02Z</time>
      </trkpt>
      <trkpt lat="47.28122" lon="-1.66085">
        <ele>61.9</ele>
        <time>2013-08-18T08:22:11Z</time>
      </trkpt>
      <trkpt lat="47.28113" lon="-1.6608">
        <ele>62.2</ele>
        <time>2013-08-18T08:22:16Z</time>
      </trkpt>
      <trkpt lat="47.28104" lon="-1.66081">
        <ele>62.2</ele>
        <time>2013-08-18T08:22:18Z</time>
      </trkpt>
      <trkpt lat="47.28092" lon="-1.66081">
        <ele>62.1</ele>
        <time>2013-08-18T08:22:20Z</time>
      </trkpt>
      <trkpt lat="47.28083" lon="-1.66082">
        <ele>62</ele>
        <time>2013-08-18T08:22:22Z</time>
      </trkpt>
      <trkpt lat="47.28072" lon="-1.66085">
        <ele>61.6</ele>
        <time>2013-08-18T08:22:24Z</time>
      </trkpt>
      <trkpt lat="47.28062" lon="-1.66086">
        <ele>60.7</ele>
        <time>2013-08-18T08:22:26Z</time>
      </trkpt>
      <trkpt lat="47.28053" lon="-1.66087">
        <ele>59.8</ele>
        <time>2013-08-18T08:22:28Z</time>
      </trkpt>
      <trkpt lat="47.28043" lon="-1.66086">
        <ele>60</ele>
        <time>2013-08-18T08:22:30Z</time>
      </trkpt>
      <trkpt lat="47.28031" lon="-1.66086">
        <ele>60.7</ele>
        <time>2013-08-18T08:22:32Z</time>
      </trkpt>
      <trkpt lat="47.28019" lon="-1.66087">
        <ele>60.8</ele>
        <time>2013-08-18T08:22:34Z</time>
      </trkpt>
      <trkpt lat="47.28007" lon="-1.66089">
        <ele>61</ele>
        <time>2013-08-18T08:22:36Z</time>
      </trkpt>
      <trkpt lat="47.27995" lon="-1.6609">
        <ele>61.3</ele>
        <time>2013-08-18T08:22:38Z</time>
      </trkpt>
      <trkpt lat="47.27983" lon="-1.66091">
        <ele>62.3</ele>
        <time>2013-08-18T08:22:40Z</time>
      </trkpt>
      <trkpt lat="47.27973" lon="-1.66092">
        <ele>62.5</ele>
        <time>2013-08-18T08:22:42Z</time>
      </trkpt>
      <trkpt lat="47.27963" lon="-1.66093">
        <ele>62.7</ele>
        <time>2013-08-18T08:22:44Z</time>
      </trkpt>
      <trkpt lat="47.2795" lon="-1.6609">
        <ele>63</ele>
        <time>2013-08-18T08:22:47Z</time>
      </trkpt>
      <trkpt lat="47.27961" lon="-1.66094">
        <ele>63.1</ele>
        <time>2013-08-18T08:23:05Z</time>
      </trkpt>
      <trkpt lat="47.27972" lon="-1.66098">
        <ele>63.5</ele>
        <time>2013-08-18T08:23:08Z</time>
      </trkpt>
      <trkpt lat="47.27985" lon="-1.66098">
        <ele>63.7</ele>
        <time>2013-08-18T08:23:11Z</time>
      </trkpt>
      <trkpt lat="47.27994" lon="-1.66093">
        <ele>63</ele>
        <time>2013-08-18T08:26:56Z</time>
      </trkpt>
      <trkpt lat="47.27987" lon="-1.66084">
        <ele>64.3</ele>
        <time>2013-08-18T08:28:20Z</time>
      </trkpt>
      <trkpt lat="47.27992" lon="-1.66097">
        <ele>64.3</ele>
        <time>2013-08-18T08:29:02Z</time>
      </trkpt>
      <trkpt lat="47.27986" lon="-1.66085">
        <ele>64.5</ele>
        <time>2013-08-18T08:34:18Z</time>
      </trkpt>
      <trkpt lat="47.27975" lon="-1.66088">
        <ele>66.3</ele>
        <time>2013-08-18T08:36:05Z</time>
      </trkpt>
      <trkpt lat="47.27965" lon="-1.6609">
        <ele>66</ele>
        <time>2013-08-18T08:36:08Z</time>
      </trkpt>
      <trkpt lat="47.27955" lon="-1.66088">
        <ele>65.7</ele>
        <time>2013-08-18T08:36:12Z</time>
      </trkpt>
      <trkpt lat="47.27945" lon="-1.66085">
        <ele>65.1</ele>
        <time>2013-08-18T08:36:17Z</time>
      </trkpt>
      <trkpt lat="47.27937" lon="-1.66074">
        <ele>64.8</ele>
        <time>2013-08-18T08:36:22Z</time>
      </trkpt>
      <trkpt lat="47.27934" lon="-1.66058">
        <ele>64.6</ele>
        <time>2013-08-18T08:36:27Z</time>
      </trkpt>
      <trkpt lat="47.27933" lon="-1.66044">
        <ele>64.1</ele>
        <time>2013-08-18T08:36:31Z</time>
      </trkpt>
      <trkpt lat="47.2793" lon="-1.66028">
        <ele>63.6</ele>
        <time>2013-08-18T08:36:35Z</time>
      </trkpt>
      <trkpt lat="47.27926" lon="-1.66012">
        <ele>63.2</ele>
        <time>2013-08-18T08:36:39Z</time>
      </trkpt>
      <trkpt lat="47.27924" lon="-1.65999">
        <ele>62.6</ele>
        <time>2013-08-18T08:36:42Z</time>
      </trkpt>
      <trkpt lat="47.27926" lon="-1.65985">
        <ele>62.6</ele>
        <time>2013-08-18T08:36:45Z</time>
      </trkpt>
      <trkpt lat="47.27927" lon="-1.65968">
        <ele>62.5</ele>
        <time>2013-08-18T08:36:49Z</time>
      </trkpt>
      <trkpt lat="47.27926" lon="-1.65955">
        <ele>62.2</ele>
        <time>2013-08-18T08:36:52Z</time>
      </trkpt>
      <trkpt lat="47.27924" lon="-1.6594">
        <ele>62.1</ele>
        <time>2013-08-18T08:36:55Z</time>
      </trkpt>
      <trkpt lat="47.27921" lon="-1.65925">
        <ele>61.8</ele>
        <time>2013-08-18T08:36:58Z</time>
      </trkpt>
      <trkpt lat="47.27919" lon="-1.65909">
        <ele>61.6</ele>
        <time>2013-08-18T08:37:01Z</time>
      </trkpt>
      <trkpt lat="47.27917" lon="-1.6589">
        <ele>60.5</ele>
        <time>2013-08-18T08:37:04Z</time>
      </trkpt>
      <trkpt lat="47.27916" lon="-1.65874">
        <ele>58.8</ele>
        <time>2013-08-18T08:37:06Z</time>
      </trkpt>
      <trkpt lat="47.27916" lon="-1.65853">
        <ele>58.5</ele>
        <time>2013-08-18T08:37:08Z</time>
      </trkpt>
      <trkpt lat="47.27917" lon="-1.65832">
        <ele>58.2</ele>
        <time>2013-08-18T08:37:10Z</time>
      </trkpt>
      <trkpt lat="47.27917" lon="-1.65812">
        <ele>59.2</ele>
        <time>2013-08-18T08:37:12Z</time>
      </trkpt>
      <trkpt lat="47.27917" lon="-1.6579">
        <ele>60.2</ele>
        <time>2013-08-18T08:37:14Z</time>
      </trkpt>
      <trkpt lat="47.27916" lon="-1.6577">
        <ele>61.6</ele>
        <time>2013-08-18T08:37:16Z</time>
      </trkpt>
      <trkpt lat="47.27914" lon="-1.6575">
        <ele>61.9</ele>
        <time>2013-08-18T08:37:18Z</time>
      </trkpt>
      <trkpt lat="47.27913" lon="-1.65731">
        <ele>60.6</ele>
        <time>2013-08-18T08:37:20Z</time>
      </trkpt>
      <trkpt lat="47.27913" lon="-1.65709">
        <ele>59</ele>
        <time>2013-08-18T08:37:22Z</time>
      </trkpt>
      <trkpt lat="47.27914" lon="-1.65688">
        <ele>58.3</ele>
        <time>2013-08-18T08:37:24Z</time>
      </trkpt>
      <trkpt lat="47.27915" lon="-1.65666">
        <ele>58.8</ele>
        <time>2013-08-18T08:37:26Z</time>
      </trkpt>
      <trkpt lat="47.27915" lon="-1.65647">
        <ele>58.7</ele>
        <time>2013-08-18T08:37:28Z</time>
      </trkpt>
      <trkpt lat="47.27915" lon="-1.65628">
        <ele>57.8</ele>
        <time>2013-08-18T08:37:30Z</time>
      </trkpt>
      <trkpt lat="47.27913" lon="-1.65612">
        <ele>57.1</ele>
        <time>2013-08-18T08:37:32Z</time>
      </trkpt>
      <trkpt lat="47.27912" lon="-1.65596">
        <ele>56.7</ele>
        <time>2013-08-18T08:37:34Z</time>
      </trkpt>
      <trkpt lat="47.2791" lon="-1.65582">
        <ele>56.7</ele>
        <time>2013-08-18T08:37:36Z</time>
      </trkpt>
      <trkpt lat="47.27909" lon="-1.65569">
        <ele>56.5</ele>
        <time>2013-08-18T08:37:38Z</time>
      </trkpt>
      <trkpt lat="47.27909" lon="-1.6555">
        <ele>56.4</ele>
        <time>2013-08-18T08:37:41Z</time>
      </trkpt>
      <trkpt lat="47.27907" lon="-1.65536">
        <ele>55.9</ele>
        <time>2013-08-18T08:37:43Z</time>
      </trkpt>
      <trkpt lat="47.27902" lon="-1.65519">
        <ele>55.4</ele>
        <time>2013-08-18T08:37:45Z</time>
      </trkpt>
      <trkpt lat="47.27895" lon="-1.65503">
        <ele>55.5</ele>
        <time>2013-08-18T08:37:47Z</time>
      </trkpt>
      <trkpt lat="47.27888" lon="-1.65488">
        <ele>55.9</ele>
        <time>2013-08-18T08:37:49Z</time>
      </trkpt>
      <trkpt lat="47.27881" lon="-1.65478">
        <ele>56.1</ele>
        <time>2013-08-18T08:37:51Z</time>
      </trkpt>
      <trkpt lat="47.27869" lon="-1.6547">
        <ele>56.1</ele>
        <time>2013-08-18T08:37:54Z</time>
      </trkpt>
      <trkpt lat="47.27856" lon="-1.65466">
        <ele>56.2</ele>
        <time>2013-08-18T08:37:57Z</time>
      </trkpt>
      <trkpt lat="47.27844" lon="-1.65464">
        <ele>56.1</ele>
        <time>2013-08-18T08:38:00Z</time>
      </trkpt>
      <trkpt lat="47.27833" lon="-1.65462">
        <ele>56.1</ele>
        <time>2013-08-18T08:38:03Z</time>
      </trkpt>
      <trkpt lat="47.27823" lon="-1.65461">
        <ele>56.1</ele>
        <time>2013-08-18T08:38:06Z</time>
      </trkpt>
      <trkpt lat="47.27811" lon="-1.6546">
        <ele>56.3</ele>
        <time>2013-08-18T08:38:09Z</time>
      </trkpt>
      <trkpt lat="47.278" lon="-1.65457">
        <ele>56.4</ele>
        <time>2013-08-18T08:38:12Z</time>
      </trkpt>
      <trkpt lat="47.27788" lon="-1.65454">
        <ele>56.6</ele>
        <time>2013-08-18T08:38:15Z</time>
      </trkpt>
      <trkpt lat="47.27777" lon="-1.65452">
        <ele>56.6</ele>
        <time>2013-08-18T08:38:18Z</time>
      </trkpt>
      <trkpt lat="47.27766" lon="-1.65449">
        <ele>56.8</ele>
        <time>2013-08-18T08:38:21Z</time>
      </trkpt>
      <trkpt lat="47.27756" lon="-1.65444">
        <ele>57.1</ele>
        <time>2013-08-18T08:38:25Z</time>
      </trkpt>
      <trkpt lat="47.27745" lon="-1.65445">
        <ele>57.3</ele>
        <time>2013-08-18T08:38:29Z</time>
      </trkpt>
      <trkpt lat="47.27736" lon="-1.65445">
        <ele>57.4</ele>
        <time>2013-08-18T08:38:33Z</time>
      </trkpt>
      <trkpt lat="47.27724" lon="-1.65446">
        <ele>57.8</ele>
        <time>2013-08-18T08:38:37Z</time>
      </trkpt>
      <trkpt lat="47.27715" lon="-1.6544">
        <ele>57.8</ele>
        <time>2013-08-18T08:38:40Z</time>
      </trkpt>
      <trkpt lat="47.27705" lon="-1.65431">
        <ele>57.9</ele>
        <time>2013-08-18T08:38:43Z</time>
      </trkpt>
      <trkpt lat="47.27701" lon="-1.65415">
        <ele>58</ele>
        <time>2013-08-18T08:38:46Z</time>
      </trkpt>
      <trkpt lat="47.27698" lon="-1.65398">
        <ele>57.9</ele>
        <time>2013-08-18T08:38:49Z</time>
      </trkpt>
      <trkpt lat="47.27693" lon="-1.65384">
        <ele>57.9</ele>
        <time>2013-08-18T08:38:52Z</time>
      </trkpt>
      <trkpt lat="47.27689" lon="-1.65368">
        <ele>58</ele>
        <time>2013-08-18T08:38:55Z</time>
      </trkpt>
      <trkpt lat="47.27683" lon="-1.65356">
        <ele>57.8</ele>
        <time>2013-08-18T08:38:59Z</time>
      </trkpt>
      <trkpt lat="47.27674" lon="-1.6535">
        <ele>57.7</ele>
        <time>2013-08-18T08:39:03Z</time>
      </trkpt>
      <trkpt lat="47.27664" lon="-1.65348">
        <ele>57.1</ele>
        <time>2013-08-18T08:39:07Z</time>
      </trkpt>
      <trkpt lat="47.27655" lon="-1.65343">
        <ele>56.1</ele>
        <time>2013-08-18T08:39:11Z</time>
      </trkpt>
      <trkpt lat="47.27642" lon="-1.65337">
        <ele>55.7</ele>
        <time>2013-08-18T08:39:14Z</time>
      </trkpt>
      <trkpt lat="47.27635" lon="-1.65325">
        <ele>55.4</ele>
        <time>2013-08-18T08:39:18Z</time>
      </trkpt>
      <trkpt lat="47.2763" lon="-1.65311">
        <ele>55.2</ele>
        <time>2013-08-18T08:39:22Z</time>
      </trkpt>
      <trkpt lat="47.27627" lon="-1.65296">
        <ele>54.8</ele>
        <time>2013-08-18T08:39:26Z</time>
      </trkpt>
      <trkpt lat="47.27624" lon="-1.6528">
        <ele>55</ele>
        <time>2013-08-18T08:39:30Z</time>
      </trkpt>
      <trkpt lat="47.27621" lon="-1.65264">
        <ele>55.4</ele>
        <time>2013-08-18T08:39:35Z</time>
      </trkpt>
      <trkpt lat="47.27615" lon="-1.65252">
        <ele>55.6</ele>
        <time>2013-08-18T08:39:38Z</time>
      </trkpt>
      <trkpt lat="47.27608" lon="-1.65239">
        <ele>56</ele>
        <time>2013-08-18T08:39:43Z</time>
      </trkpt>
      <trkpt lat="47.27602" lon="-1.65226">
        <ele>56.3</ele>
        <time>2013-08-18T08:39:47Z</time>
      </trkpt>
      <trkpt lat="47.27595" lon="-1.65212">
        <ele>56.4</ele>
        <time>2013-08-18T08:39:51Z</time>
      </trkpt>
      <trkpt lat="47.27589" lon="-1.65199">
        <ele>56.4</ele>
        <time>2013-08-18T08:39:54Z</time>
      </trkpt>
      <trkpt lat="47.27583" lon="-1.65186">
        <ele>56.2</ele>
        <time>2013-08-18T08:39:57Z</time>
      </trkpt>
      <trkpt lat="47.27576" lon="-1.6517">
        <ele>56.5</ele>
        <time>2013-08-18T08:40:01Z</time>
      </trkpt>
      <trkpt lat="47.27572" lon="-1.65158">
        <ele>56.9</ele>
        <time>2013-08-18T08:40:04Z</time>
      </trkpt>
      <trkpt lat="47.27569" lon="-1.65142">
        <ele>57.1</ele>
        <time>2013-08-18T08:40:08Z</time>
      </trkpt>
      <trkpt lat="47.27565" lon="-1.65129">
        <ele>57.2</ele>
        <time>2013-08-18T08:40:12Z</time>
      </trkpt>
      <trkpt lat="47.27559" lon="-1.65117">
        <ele>57.5</ele>
        <time>2013-08-18T08:40:16Z</time>
      </trkpt>
      <trkpt lat="47.27553" lon="-1.65104">
        <ele>57.6</ele>
        <time>2013-08-18T08:40:19Z</time>
      </trkpt>
      <trkpt lat="47.27549" lon="-1.65087">
        <ele>57.6</ele>
        <time>2013-08-18T08:40:22Z</time>
      </trkpt>
      <trkpt lat="47.27545" lon="-1.65068">
        <ele>56.6</ele>
        <time>2013-08-18T08:40:25Z</time>
      </trkpt>
      <trkpt lat="47.27543" lon="-1.65054">
        <ele>57</ele>
        <time>2013-08-18T08:40:27Z</time>
      </trkpt>
      <trkpt lat="47.27539" lon="-1.65037">
        <ele>57.5</ele>
        <time>2013-08-18T08:40:29Z</time>
      </trkpt>
      <trkpt lat="47.27535" lon="-1.65018">
        <ele>58.6</ele>
        <time>2013-08-18T08:40:31Z</time>
      </trkpt>
      <trkpt lat="47.27531" lon="-1.64999">
        <ele>59.5</ele>
        <time>2013-08-18T08:40:33Z</time>
      </trkpt>
      <trkpt lat="47.27528" lon="-1.64979">
        <ele>60.5</ele>
        <time>2013-08-18T08:40:35Z</time>
      </trkpt>
      <trkpt lat="47.27526" lon="-1.6496">
        <ele>62.3</ele>
        <time>2013-08-18T08:40:37Z</time>
      </trkpt>
      <trkpt lat="47.27525" lon="-1.64942">
        <ele>63.4</ele>
        <time>2013-08-18T08:40:39Z</time>
      </trkpt>
      <trkpt lat="47.27524" lon="-1.64924">
        <ele>63.6</ele>
        <time>2013-08-18T08:40:41Z</time>
      </trkpt>
      <trkpt lat="47.27524" lon="-1.64906">
        <ele>63.7</ele>
        <time>2013-08-18T08:40:43Z</time>
      </trkpt>
      <trkpt lat="47.27523" lon="-1.64887">
        <ele>63.7</ele>
        <time>2013-08-18T08:40:45Z</time>
      </trkpt>
      <trkpt lat="47.27521" lon="-1.64869">
        <ele>64.5</ele>
        <time>2013-08-18T08:40:47Z</time>
      </trkpt>
      <trkpt lat="47.27519" lon="-1.64851">
        <ele>64.2</ele>
        <time>2013-08-18T08:40:49Z</time>
      </trkpt>
      <trkpt lat="47.27518" lon="-1.64833">
        <ele>63.5</ele>
        <time>2013-08-18T08:40:51Z</time>
      </trkpt>
      <trkpt lat="47.27518" lon="-1.64817">
        <ele>63.3</ele>
        <time>2013-08-18T08:40:53Z</time>
      </trkpt>
      <trkpt lat="47.27519" lon="-1.648">
        <ele>63.2</ele>
        <time>2013-08-18T08:40:55Z</time>
      </trkpt>
      <trkpt lat="47.27523" lon="-1.64786">
        <ele>63.4</ele>
        <time>2013-08-18T08:40:57Z</time>
      </trkpt>
      <trkpt lat="47.27528" lon="-1.64767">
        <ele>63.5</ele>
        <time>2013-08-18T08:40:59Z</time>
      </trkpt>
      <trkpt lat="47.27534" lon="-1.64748">
        <ele>63.4</ele>
        <time>2013-08-18T08:41:01Z</time>
      </trkpt>
      <trkpt lat="47.27538" lon="-1.6473">
        <ele>62.8</ele>
        <time>2013-08-18T08:41:03Z</time>
      </trkpt>
      <trkpt lat="47.27541" lon="-1.64711">
        <ele>62.3</ele>
        <time>2013-08-18T08:41:05Z</time>
      </trkpt>
      <trkpt lat="47.27543" lon="-1.64691">
        <ele>61.8</ele>
        <time>2013-08-18T08:41:07Z</time>
      </trkpt>
      <trkpt lat="47.27545" lon="-1.6467">
        <ele>60.9</ele>
        <time>2013-08-18T08:41:09Z</time>
      </trkpt>
      <trkpt lat="47.27547" lon="-1.64647">
        <ele>59.9</ele>
        <time>2013-08-18T08:41:11Z</time>
      </trkpt>
      <trkpt lat="47.2755" lon="-1.64623">
        <ele>59</ele>
        <time>2013-08-18T08:41:13Z</time>
      </trkpt>
      <trkpt lat="47.27554" lon="-1.64599">
        <ele>57.9</ele>
        <time>2013-08-18T08:41:15Z</time>
      </trkpt>
      <trkpt lat="47.27558" lon="-1.64574">
        <ele>57.4</ele>
        <time>2013-08-18T08:41:17Z</time>
      </trkpt>
      <trkpt lat="47.27562" lon="-1.64553">
        <ele>56.7</ele>
        <time>2013-08-18T08:41:19Z</time>
      </trkpt>
      <trkpt lat="47.27564" lon="-1.64535">
        <ele>56.5</ele>
        <time>2013-08-18T08:41:21Z</time>
      </trkpt>
      <trkpt lat="47.27563" lon="-1.64518">
        <ele>56.5</ele>
        <time>2013-08-18T08:41:23Z</time>
      </trkpt>
      <trkpt lat="47.2756" lon="-1.64502">
        <ele>56.9</ele>
        <time>2013-08-18T08:41:25Z</time>
      </trkpt>
      <trkpt lat="47.27558" lon="-1.64487">
        <ele>57.7</ele>
        <time>2013-08-18T08:41:27Z</time>
      </trkpt>
      <trkpt lat="47.27555" lon="-1.64469">
        <ele>59.3</ele>
        <time>2013-08-18T08:41:30Z</time>
      </trkpt>
      <trkpt lat="47.27552" lon="-1.64454">
        <ele>59.6</ele>
        <time>2013-08-18T08:41:33Z</time>
      </trkpt>
      <trkpt lat="47.2754" lon="-1.64456">
        <ele>59.4</ele>
        <time>2013-08-18T08:41:36Z</time>
      </trkpt>
      <trkpt lat="47.27528" lon="-1.64464">
        <ele>57.2</ele>
        <time>2013-08-18T08:41:39Z</time>
      </trkpt>
      <trkpt lat="47.27517" lon="-1.64472">
        <ele>55.3</ele>
        <time>2013-08-18T08:41:41Z</time>
      </trkpt>
      <trkpt lat="47.27507" lon="-1.64478">
        <ele>54.1</ele>
        <time>2013-08-18T08:41:43Z</time>
      </trkpt>
      <trkpt lat="47.27498" lon="-1.64484">
        <ele>53.6</ele>
        <time>2013-08-18T08:41:45Z</time>
      </trkpt>
      <trkpt lat="47.27486" lon="-1.64492">
        <ele>53.5</ele>
        <time>2013-08-18T08:41:48Z</time>
      </trkpt>
      <trkpt lat="47.27477" lon="-1.64497">
        <ele>53.2</ele>
        <time>2013-08-18T08:41:50Z</time>
      </trkpt>
      <trkpt lat="47.27464" lon="-1.64497">
        <ele>53</ele>
        <time>2013-08-18T08:41:53Z</time>
      </trkpt>
      <trkpt lat="47.27454" lon="-1.64498">
        <ele>52.2</ele>
        <time>2013-08-18T08:41:55Z</time>
      </trkpt>
      <trkpt lat="47.27444" lon="-1.64498">
        <ele>52.2</ele>
        <time>2013-08-18T08:41:57Z</time>
      </trkpt>
      <trkpt lat="47.27433" lon="-1.64499">
        <ele>52.1</ele>
        <time>2013-08-18T08:41:59Z</time>
      </trkpt>
      <trkpt lat="47.27422" lon="-1.64498">
        <ele>52</ele>
        <time>2013-08-18T08:42:01Z</time>
      </trkpt>
      <trkpt lat="47.27412" lon="-1.64498">
        <ele>51.9</ele>
        <time>2013-08-18T08:42:03Z</time>
      </trkpt>
      <trkpt lat="47.27396" lon="-1.64486">
        <ele>51.9</ele>
        <time>2013-08-18T08:42:10Z</time>
      </trkpt>
      <trkpt lat="47.27389" lon="-1.64476">
        <ele>51.4</ele>
        <time>2013-08-18T08:42:14Z</time>
      </trkpt>
      <trkpt lat="47.27382" lon="-1.64465">
        <ele>50.5</ele>
        <time>2013-08-18T08:42:19Z</time>
      </trkpt>
      <trkpt lat="47.27374" lon="-1.64455">
        <ele>49.5</ele>
        <time>2013-08-18T08:42:23Z</time>
      </trkpt>
      <trkpt lat="47.27363" lon="-1.64447">
        <ele>48.5</ele>
        <time>2013-08-18T08:42:27Z</time>
      </trkpt>
      <trkpt lat="47.27351" lon="-1.64435">
        <ele>48</ele>
        <time>2013-08-18T08:42:31Z</time>
      </trkpt>
      <trkpt lat="47.27338" lon="-1.64418">
        <ele>46.8</ele>
        <time>2013-08-18T08:42:34Z</time>
      </trkpt>
      <trkpt lat="47.27332" lon="-1.64406">
        <ele>45.9</ele>
        <time>2013-08-18T08:42:36Z</time>
      </trkpt>
      <trkpt lat="47.27325" lon="-1.64392">
        <ele>40.7</ele>
        <time>2013-08-18T08:42:38Z</time>
      </trkpt>
      <trkpt lat="47.27318" lon="-1.64375">
        <ele>34.9</ele>
        <time>2013-08-18T08:42:40Z</time>
      </trkpt>
      <trkpt lat="47.27312" lon="-1.64359">
        <ele>25.9</ele>
        <time>2013-08-18T08:42:42Z</time>
      </trkpt>
      <trkpt lat="47.27306" lon="-1.64342">
        <ele>19.6</ele>
        <time>2013-08-18T08:42:44Z</time>
      </trkpt>
      <trkpt lat="47.27301" lon="-1.64327">
        <ele>17.2</ele>
        <time>2013-08-18T08:42:46Z</time>
      </trkpt>
      <trkpt lat="47.27295" lon="-1.64311">
        <ele>12.7</ele>
        <time>2013-08-18T08:42:48Z</time>
      </trkpt>
      <trkpt lat="47.2729" lon="-1.64296">
        <ele>12.3</ele>
        <time>2013-08-18T08:42:50Z</time>
      </trkpt>
      <trkpt lat="47.27286" lon="-1.64283">
        <ele>10.1</ele>
        <time>2013-08-18T08:42:52Z</time>
      </trkpt>
      <trkpt lat="47.27278" lon="-1.64267">
        <ele>9.9</ele>
        <time>2013-08-18T08:42:55Z</time>
      </trkpt>
      <trkpt lat="47.27267" lon="-1.64253">
        <ele>12.3</ele>
        <time>2013-08-18T08:42:57Z</time>
      </trkpt>
      <trkpt lat="47.27253" lon="-1.64241">
        <ele>13.1</ele>
        <time>2013-08-18T08:42:59Z</time>
      </trkpt>
      <trkpt lat="47.27242" lon="-1.6423">
        <ele>14</ele>
        <time>2013-08-18T08:43:01Z</time>
      </trkpt>
      <trkpt lat="47.27233" lon="-1.64218">
        <ele>15.5</ele>
        <time>2013-08-18T08:43:04Z</time>
      </trkpt>
      <trkpt lat="47.27224" lon="-1.64206">
        <ele>17.2</ele>
        <time>2013-08-18T08:43:08Z</time>
      </trkpt>
      <trkpt lat="47.27218" lon="-1.64195">
        <ele>19.9</ele>
        <time>2013-08-18T08:43:13Z</time>
      </trkpt>
      <trkpt lat="47.27212" lon="-1.64182">
        <ele>22.3</ele>
        <time>2013-08-18T08:43:18Z</time>
      </trkpt>
      <trkpt lat="47.27208" lon="-1.64168">
        <ele>24.5</ele>
        <time>2013-08-18T08:43:23Z</time>
      </trkpt>
      <trkpt lat="47.27204" lon="-1.64154">
        <ele>26.1</ele>
        <time>2013-08-18T08:43:27Z</time>
      </trkpt>
      <trkpt lat="47.27198" lon="-1.6414">
        <ele>27.5</ele>
        <time>2013-08-18T08:43:31Z</time>
      </trkpt>
      <trkpt lat="47.27192" lon="-1.64127">
        <ele>28.5</ele>
        <time>2013-08-18T08:43:34Z</time>
      </trkpt>
      <trkpt lat="47.27185" lon="-1.6411">
        <ele>29.3</ele>
        <time>2013-08-18T08:43:37Z</time>
      </trkpt>
      <trkpt lat="47.27179" lon="-1.64096">
        <ele>30.1</ele>
        <time>2013-08-18T08:43:40Z</time>
      </trkpt>
      <trkpt lat="47.27174" lon="-1.64084">
        <ele>31</ele>
        <time>2013-08-18T08:43:43Z</time>
      </trkpt>
      <trkpt lat="47.27165" lon="-1.64069">
        <ele>32.1</ele>
        <time>2013-08-18T08:43:46Z</time>
      </trkpt>
      <trkpt lat="47.27158" lon="-1.64056">
        <ele>36.2</ele>
        <time>2013-08-18T08:43:49Z</time>
      </trkpt>
      <trkpt lat="47.27152" lon="-1.64045">
        <ele>41</ele>
        <time>2013-08-18T08:43:51Z</time>
      </trkpt>
      <trkpt lat="47.27146" lon="-1.64033">
        <ele>43.4</ele>
        <time>2013-08-18T08:43:53Z</time>
      </trkpt>
      <trkpt lat="47.27141" lon="-1.64022">
        <ele>44.5</ele>
        <time>2013-08-18T08:43:55Z</time>
      </trkpt>
      <trkpt lat="47.27131" lon="-1.64009">
        <ele>44.7</ele>
        <time>2013-08-18T08:43:58Z</time>
      </trkpt>
      <trkpt lat="47.27122" lon="-1.63996">
        <ele>45.4</ele>
        <time>2013-08-18T08:44:01Z</time>
      </trkpt>
      <trkpt lat="47.27115" lon="-1.63986">
        <ele>47.1</ele>
        <time>2013-08-18T08:44:03Z</time>
      </trkpt>
      <trkpt lat="47.27109" lon="-1.63975">
        <ele>49.2</ele>
        <time>2013-08-18T08:44:05Z</time>
      </trkpt>
      <trkpt lat="47.27103" lon="-1.63965">
        <ele>49.8</ele>
        <time>2013-08-18T08:44:07Z</time>
      </trkpt>
      <trkpt lat="47.27097" lon="-1.63953">
        <ele>48.8</ele>
        <time>2013-08-18T08:44:09Z</time>
      </trkpt>
      <trkpt lat="47.27091" lon="-1.63941">
        <ele>48.2</ele>
        <time>2013-08-18T08:44:11Z</time>
      </trkpt>
      <trkpt lat="47.27084" lon="-1.63925">
        <ele>48.2</ele>
        <time>2013-08-18T08:44:14Z</time>
      </trkpt>
      <trkpt lat="47.27078" lon="-1.6391">
        <ele>48.3</ele>
        <time>2013-08-18T08:44:17Z</time>
      </trkpt>
      <trkpt lat="47.2707" lon="-1.63901">
        <ele>48.4</ele>
        <time>2013-08-18T08:44:20Z</time>
      </trkpt>
      <trkpt lat="47.2706" lon="-1.63901">
        <ele>48.5</ele>
        <time>2013-08-18T08:44:23Z</time>
      </trkpt>
      <trkpt lat="47.2705" lon="-1.63902">
        <ele>48.8</ele>
        <time>2013-08-18T08:44:28Z</time>
      </trkpt>
      <trkpt lat="47.27038" lon="-1.63896">
        <ele>49.5</ele>
        <time>2013-08-18T08:44:32Z</time>
      </trkpt>
      <trkpt lat="47.27026" lon="-1.6389">
        <ele>49.8</ele>
        <time>2013-08-18T08:44:35Z</time>
      </trkpt>
      <trkpt lat="47.27017" lon="-1.63885">
        <ele>49.9</ele>
        <time>2013-08-18T08:44:38Z</time>
      </trkpt>
      <trkpt lat="47.27006" lon="-1.6388">
        <ele>49.9</ele>
        <time>2013-08-18T08:44:42Z</time>
      </trkpt>
      <trkpt lat="47.26995" lon="-1.63878">
        <ele>49.7</ele>
        <time>2013-08-18T08:44:45Z</time>
      </trkpt>
      <trkpt lat="47.26984" lon="-1.63879">
        <ele>49.2</ele>
        <time>2013-08-18T08:44:49Z</time>
      </trkpt>
      <trkpt lat="47.26972" lon="-1.63877">
        <ele>48.3</ele>
        <time>2013-08-18T08:44:53Z</time>
      </trkpt>
      <trkpt lat="47.26963" lon="-1.63875">
        <ele>47.6</ele>
        <time>2013-08-18T08:44:55Z</time>
      </trkpt>
      <trkpt lat="47.26952" lon="-1.63873">
        <ele>46.5</ele>
        <time>2013-08-18T08:44:57Z</time>
      </trkpt>
      <trkpt lat="47.26942" lon="-1.63871">
        <ele>36.4</ele>
        <time>2013-08-18T08:44:59Z</time>
      </trkpt>
      <trkpt lat="47.26933" lon="-1.63869">
        <ele>35.7</ele>
        <time>2013-08-18T08:45:01Z</time>
      </trkpt>
      <trkpt lat="47.2692" lon="-1.63866">
        <ele>30.6</ele>
        <time>2013-08-18T08:45:03Z</time>
      </trkpt>
      <trkpt lat="47.26908" lon="-1.63862">
        <ele>24</ele>
        <time>2013-08-18T08:45:05Z</time>
      </trkpt>
      <trkpt lat="47.269" lon="-1.63854">
        <ele>21.1</ele>
        <time>2013-08-18T08:45:07Z</time>
      </trkpt>
      <trkpt lat="47.26894" lon="-1.63844">
        <ele>20.9</ele>
        <time>2013-08-18T08:45:09Z</time>
      </trkpt>
      <trkpt lat="47.26875" lon="-1.63838">
        <ele>19.8</ele>
        <time>2013-08-18T08:45:20Z</time>
      </trkpt>
      <trkpt lat="47.26869" lon="-1.63848">
        <ele>19.6</ele>
        <time>2013-08-18T08:45:23Z</time>
      </trkpt>
      <trkpt lat="47.26863" lon="-1.63863">
        <ele>19</ele>
        <time>2013-08-18T08:45:26Z</time>
      </trkpt>
      <trkpt lat="47.26856" lon="-1.63877">
        <ele>18.2</ele>
        <time>2013-08-18T08:45:29Z</time>
      </trkpt>
      <trkpt lat="47.26849" lon="-1.6389">
        <ele>17.3</ele>
        <time>2013-08-18T08:45:32Z</time>
      </trkpt>
      <trkpt lat="47.26841" lon="-1.63908">
        <ele>16.2</ele>
        <time>2013-08-18T08:45:35Z</time>
      </trkpt>
      <trkpt lat="47.26832" lon="-1.63918">
        <ele>15.2</ele>
        <time>2013-08-18T08:45:37Z</time>
      </trkpt>
      <trkpt lat="47.26824" lon="-1.63928">
        <ele>14</ele>
        <time>2013-08-18T08:45:39Z</time>
      </trkpt>
      <trkpt lat="47.26814" lon="-1.63936">
        <ele>12.4</ele>
        <time>2013-08-18T08:45:41Z</time>
      </trkpt>
      <trkpt lat="47.26805" lon="-1.6394">
        <ele>10.7</ele>
        <time>2013-08-18T08:45:43Z</time>
      </trkpt>
      <trkpt lat="47.26794" lon="-1.63939">
        <ele>8.9</ele>
        <time>2013-08-18T08:45:45Z</time>
      </trkpt>
      <trkpt lat="47.26784" lon="-1.6393">
        <ele>5.4</ele>
        <time>2013-08-18T08:45:49Z</time>
      </trkpt>
      <trkpt lat="47.26777" lon="-1.6392">
        <ele>3.2</ele>
        <time>2013-08-18T08:45:52Z</time>
      </trkpt>
      <trkpt lat="47.26762" lon="-1.63904">
        <ele>2</ele>
        <time>2013-08-18T08:45:58Z</time>
      </trkpt>
      <trkpt lat="47.26746" lon="-1.63886">
        <ele>2.8</ele>
        <time>2013-08-18T08:46:01Z</time>
      </trkpt>
      <trkpt lat="47.26743" lon="-1.63871">
        <ele>3.9</ele>
        <time>2013-08-18T08:46:04Z</time>
      </trkpt>
      <trkpt lat="47.26743" lon="-1.63857">
        <ele>4.7</ele>
        <time>2013-08-18T08:46:06Z</time>
      </trkpt>
      <trkpt lat="47.26745" lon="-1.63837">
        <ele>8.9</ele>
        <time>2013-08-18T08:46:09Z</time>
      </trkpt>
      <trkpt lat="47.26744" lon="-1.63821">
        <ele>9.5</ele>
        <time>2013-08-18T08:46:12Z</time>
      </trkpt>
      <trkpt lat="47.26742" lon="-1.63804">
        <ele>11.2</ele>
        <time>2013-08-18T08:46:15Z</time>
      </trkpt>
      <trkpt lat="47.2674" lon="-1.63788">
        <ele>11.4</ele>
        <time>2013-08-18T08:46:19Z</time>
      </trkpt>
      <trkpt lat="47.2674" lon="-1.63768">
        <ele>11.6</ele>
        <time>2013-08-18T08:46:22Z</time>
      </trkpt>
      <trkpt lat="47.26741" lon="-1.63754">
        <ele>12.1</ele>
        <time>2013-08-18T08:46:25Z</time>
      </trkpt>
      <trkpt lat="47.26742" lon="-1.63739">
        <ele>12.1</ele>
        <time>2013-08-18T08:46:29Z</time>
      </trkpt>
      <trkpt lat="47.26745" lon="-1.63725">
        <ele>12.4</ele>
        <time>2013-08-18T08:46:33Z</time>
      </trkpt>
      <trkpt lat="47.26747" lon="-1.63711">
        <ele>12.3</ele>
        <time>2013-08-18T08:46:36Z</time>
      </trkpt>
      <trkpt lat="47.26755" lon="-1.63694">
        <ele>12.2</ele>
        <time>2013-08-18T08:46:39Z</time>
      </trkpt>
      <trkpt lat="47.2676" lon="-1.6368">
        <ele>12.2</ele>
        <time>2013-08-18T08:46:41Z</time>
      </trkpt>
      <trkpt lat="47.26766" lon="-1.63666">
        <ele>12.3</ele>
        <time>2013-08-18T08:46:43Z</time>
      </trkpt>
      <trkpt lat="47.26769" lon="-1.63649">
        <ele>12.7</ele>
        <time>2013-08-18T08:46:46Z</time>
      </trkpt>
      <trkpt lat="47.26771" lon="-1.63633">
        <ele>13.4</ele>
        <time>2013-08-18T08:46:49Z</time>
      </trkpt>
      <trkpt lat="47.26775" lon="-1.63622">
        <ele>13.9</ele>
        <time>2013-08-18T08:46:51Z</time>
      </trkpt>
      <trkpt lat="47.26785" lon="-1.63611">
        <ele>17.5</ele>
        <time>2013-08-18T08:46:53Z</time>
      </trkpt>
      <trkpt lat="47.26797" lon="-1.63605">
        <ele>19.4</ele>
        <time>2013-08-18T08:46:55Z</time>
      </trkpt>
      <trkpt lat="47.26807" lon="-1.63598">
        <ele>20.7</ele>
        <time>2013-08-18T08:46:57Z</time>
      </trkpt>
      <trkpt lat="47.26815" lon="-1.63583">
        <ele>22.2</ele>
        <time>2013-08-18T08:47:00Z</time>
      </trkpt>
      <trkpt lat="47.26822" lon="-1.63569">
        <ele>22.6</ele>
        <time>2013-08-18T08:47:02Z</time>
      </trkpt>
      <trkpt lat="47.26827" lon="-1.63554">
        <ele>21.6</ele>
        <time>2013-08-18T08:47:04Z</time>
      </trkpt>
      <trkpt lat="47.26833" lon="-1.63539">
        <ele>22.5</ele>
        <time>2013-08-18T08:47:06Z</time>
      </trkpt>
      <trkpt lat="47.26839" lon="-1.63523">
        <ele>24.2</ele>
        <time>2013-08-18T08:47:08Z</time>
      </trkpt>
      <trkpt lat="47.26846" lon="-1.63507">
        <ele>24.6</ele>
        <time>2013-08-18T08:47:10Z</time>
      </trkpt>
      <trkpt lat="47.26852" lon="-1.63491">
        <ele>25</ele>
        <time>2013-08-18T08:47:12Z</time>
      </trkpt>
      <trkpt lat="47.26859" lon="-1.63475">
        <ele>25.3</ele>
        <time>2013-08-18T08:47:14Z</time>
      </trkpt>
      <trkpt lat="47.26862" lon="-1.63458">
        <ele>25.3</ele>
        <time>2013-08-18T08:47:16Z</time>
      </trkpt>
      <trkpt lat="47.26866" lon="-1.63443">
        <ele>25</ele>
        <time>2013-08-18T08:47:18Z</time>
      </trkpt>
      <trkpt lat="47.26871" lon="-1.63428">
        <ele>24.5</ele>
        <time>2013-08-18T08:47:20Z</time>
      </trkpt>
      <trkpt lat="47.26876" lon="-1.6341">
        <ele>24.1</ele>
        <time>2013-08-18T08:47:22Z</time>
      </trkpt>
      <trkpt lat="47.26878" lon="-1.63394">
        <ele>23.1</ele>
        <time>2013-08-18T08:47:24Z</time>
      </trkpt>
      <trkpt lat="47.26877" lon="-1.6338">
        <ele>22.2</ele>
        <time>2013-08-18T08:47:26Z</time>
      </trkpt>
      <trkpt lat="47.26878" lon="-1.63366">
        <ele>20.7</ele>
        <time>2013-08-18T08:47:28Z</time>
      </trkpt>
      <trkpt lat="47.26887" lon="-1.63359">
        <ele>20.5</ele>
        <time>2013-08-18T08:47:32Z</time>
      </trkpt>
      <trkpt lat="47.26888" lon="-1.63342">
        <ele>20.1</ele>
        <time>2013-08-18T08:47:37Z</time>
      </trkpt>
      <trkpt lat="47.26886" lon="-1.63325">
        <ele>18.3</ele>
        <time>2013-08-18T08:47:40Z</time>
      </trkpt>
      <trkpt lat="47.26889" lon="-1.63307">
        <ele>17.5</ele>
        <time>2013-08-18T08:47:42Z</time>
      </trkpt>
      <trkpt lat="47.26891" lon="-1.63292">
        <ele>17.9</ele>
        <time>2013-08-18T08:47:44Z</time>
      </trkpt>
      <trkpt lat="47.26893" lon="-1.63278">
        <ele>18.3</ele>
        <time>2013-08-18T08:47:46Z</time>
      </trkpt>
      <trkpt lat="47.26895" lon="-1.63264">
        <ele>17.2</ele>
        <time>2013-08-18T08:47:48Z</time>
      </trkpt>
      <trkpt lat="47.26893" lon="-1.6325">
        <ele>17.2</ele>
        <time>2013-08-18T08:47:51Z</time>
      </trkpt>
      <trkpt lat="47.26892" lon="-1.63234">
        <ele>16.9</ele>
        <time>2013-08-18T08:47:55Z</time>
      </trkpt>
      <trkpt lat="47.26881" lon="-1.63227">
        <ele>16.9</ele>
        <time>2013-08-18T08:48:25Z</time>
      </trkpt>
      <trkpt lat="47.26871" lon="-1.63223">
        <ele>16.4</ele>
        <time>2013-08-18T08:48:29Z</time>
      </trkpt>
      <trkpt lat="47.26866" lon="-1.63208">
        <ele>15.5</ele>
        <time>2013-08-18T08:48:40Z</time>
      </trkpt>
      <trkpt lat="47.26855" lon="-1.63197">
        <ele>15.4</ele>
        <time>2013-08-18T08:49:11Z</time>
      </trkpt>
      <trkpt lat="47.26844" lon="-1.63195">
        <ele>14.9</ele>
        <time>2013-08-18T08:49:15Z</time>
      </trkpt>
      <trkpt lat="47.26833" lon="-1.63189">
        <ele>14.7</ele>
        <time>2013-08-18T08:49:19Z</time>
      </trkpt>
      <trkpt lat="47.26821" lon="-1.63177">
        <ele>14.5</ele>
        <time>2013-08-18T08:49:25Z</time>
      </trkpt>
      <trkpt lat="47.26812" lon="-1.63171">
        <ele>14.1</ele>
        <time>2013-08-18T08:49:28Z</time>
      </trkpt>
      <trkpt lat="47.26803" lon="-1.63164">
        <ele>13</ele>
        <time>2013-08-18T08:49:32Z</time>
      </trkpt>
      <trkpt lat="47.2679" lon="-1.63156">
        <ele>11.3</ele>
        <time>2013-08-18T08:49:38Z</time>
      </trkpt>
      <trkpt lat="47.26781" lon="-1.63149">
        <ele>9.7</ele>
        <time>2013-08-18T08:49:42Z</time>
      </trkpt>
      <trkpt lat="47.26773" lon="-1.63141">
        <ele>7.7</ele>
        <time>2013-08-18T08:49:46Z</time>
      </trkpt>
      <trkpt lat="47.26765" lon="-1.63132">
        <ele>5.1</ele>
        <time>2013-08-18T08:49:51Z</time>
      </trkpt>
      <trkpt lat="47.26756" lon="-1.63124">
        <ele>2.5</ele>
        <time>2013-08-18T08:49:56Z</time>
      </trkpt>
      <trkpt lat="47.2675" lon="-1.63111">
        <ele>24.1</ele>
        <time>2013-08-18T08:50:01Z</time>
      </trkpt>
      <trkpt lat="47.26743" lon="-1.631">
        <ele>-1.2</ele>
        <time>2013-08-18T08:50:05Z</time>
      </trkpt>
      <trkpt lat="47.26734" lon="-1.63089">
        <ele>-1.1</ele>
        <time>2013-08-18T08:50:07Z</time>
      </trkpt>
      <trkpt lat="47.26723" lon="-1.63081">
        <ele>-0.4</ele>
        <time>2013-08-18T08:50:09Z</time>
      </trkpt>
      <trkpt lat="47.2671" lon="-1.63071">
        <ele>0.5</ele>
        <time>2013-08-18T08:50:13Z</time>
      </trkpt>
      <trkpt lat="47.26703" lon="-1.63059">
        <ele>2</ele>
        <time>2013-08-18T08:50:16Z</time>
      </trkpt>
      <trkpt lat="47.26697" lon="-1.63048">
        <ele>3.8</ele>
        <time>2013-08-18T08:50:20Z</time>
      </trkpt>
      <trkpt lat="47.26692" lon="-1.63035">
        <ele>4.8</ele>
        <time>2013-08-18T08:50:24Z</time>
      </trkpt>
      <trkpt lat="47.26689" lon="-1.63021">
        <ele>6.5</ele>
        <time>2013-08-18T08:50:30Z</time>
      </trkpt>
      <trkpt lat="47.26681" lon="-1.63015">
        <ele>7.9</ele>
        <time>2013-08-18T08:50:35Z</time>
      </trkpt>
      <trkpt lat="47.26673" lon="-1.63011">
        <ele>9.1</ele>
        <time>2013-08-18T08:50:40Z</time>
      </trkpt>
      <trkpt lat="47.26679" lon="-1.62993">
        <ele>16.2</ele>
        <time>2013-08-18T08:51:11Z</time>
      </trkpt>
      <trkpt lat="47.26687" lon="-1.63001">
        <ele>16.7</ele>
        <time>2013-08-18T08:51:14Z</time>
      </trkpt>
      <trkpt lat="47.26692" lon="-1.63013">
        <ele>17</ele>
        <time>2013-08-18T08:51:17Z</time>
      </trkpt>
      <trkpt lat="47.26701" lon="-1.63023">
        <ele>17.2</ele>
        <time>2013-08-18T08:51:21Z</time>
      </trkpt>
      <trkpt lat="47.26709" lon="-1.63032">
        <ele>16.8</ele>
        <time>2013-08-18T08:51:26Z</time>
      </trkpt>
      <trkpt lat="47.26716" lon="-1.63046">
        <ele>16.3</ele>
        <time>2013-08-18T08:51:31Z</time>
      </trkpt>
      <trkpt lat="47.26721" lon="-1.63059">
        <ele>16.4</ele>
        <time>2013-08-18T08:51:35Z</time>
      </trkpt>
      <trkpt lat="47.26723" lon="-1.63081">
        <ele>15.2</ele>
        <time>2013-08-18T08:51:46Z</time>
      </trkpt>
      <trkpt lat="47.26729" lon="-1.63094">
        <ele>13.9</ele>
        <time>2013-08-18T08:51:51Z</time>
      </trkpt>
      <trkpt lat="47.26738" lon="-1.631">
        <ele>12.6</ele>
        <time>2013-08-18T08:51:54Z</time>
      </trkpt>
      <trkpt lat="47.26749" lon="-1.63103">
        <ele>11.2</ele>
        <time>2013-08-18T08:51:57Z</time>
      </trkpt>
      <trkpt lat="47.26758" lon="-1.63105">
        <ele>9.9</ele>
        <time>2013-08-18T08:52:00Z</time>
      </trkpt>
      <trkpt lat="47.26769" lon="-1.63108">
        <ele>8.8</ele>
        <time>2013-08-18T08:52:03Z</time>
      </trkpt>
      <trkpt lat="47.26779" lon="-1.63109">
        <ele>8.1</ele>
        <time>2013-08-18T08:52:06Z</time>
      </trkpt>
      <trkpt lat="47.2679" lon="-1.63116">
        <ele>7.4</ele>
        <time>2013-08-18T08:52:09Z</time>
      </trkpt>
      <trkpt lat="47.26799" lon="-1.63124">
        <ele>7</ele>
        <time>2013-08-18T08:52:11Z</time>
      </trkpt>
      <trkpt lat="47.26818" lon="-1.63122">
        <ele>7.5</ele>
        <time>2013-08-18T08:52:20Z</time>
      </trkpt>
      <trkpt lat="47.26817" lon="-1.63108">
        <ele>8.6</ele>
        <time>2013-08-18T08:52:27Z</time>
      </trkpt>
      <trkpt lat="47.26811" lon="-1.63098">
        <ele>8.7</ele>
        <time>2013-08-18T08:52:33Z</time>
      </trkpt>
      <trkpt lat="47.26804" lon="-1.63087">
        <ele>7</ele>
        <time>2013-08-18T08:52:41Z</time>
      </trkpt>
      <trkpt lat="47.26797" lon="-1.63077">
        <ele>6.8</ele>
        <time>2013-08-18T08:52:50Z</time>
      </trkpt>
      <trkpt lat="47.26788" lon="-1.63076">
        <ele>7.5</ele>
        <time>2013-08-18T08:52:55Z</time>
      </trkpt>
      <trkpt lat="47.26777" lon="-1.63069">
        <ele>8.6</ele>
        <time>2013-08-18T08:52:58Z</time>
      </trkpt>
      <trkpt lat="47.26768" lon="-1.63061">
        <ele>9.3</ele>
        <time>2013-08-18T08:53:00Z</time>
      </trkpt>
      <trkpt lat="47.26762" lon="-1.6305">
        <ele>11.3</ele>
        <time>2013-08-18T08:53:06Z</time>
      </trkpt>
      <trkpt lat="47.26756" lon="-1.63037">
        <ele>13.4</ele>
        <time>2013-08-18T08:53:10Z</time>
      </trkpt>
      <trkpt lat="47.26753" lon="-1.63023">
        <ele>13.8</ele>
        <time>2013-08-18T08:53:11Z</time>
      </trkpt>
      <trkpt lat="47.26751" lon="-1.63005">
        <ele>14.6</ele>
        <time>2013-08-18T08:53:13Z</time>
      </trkpt>
      <trkpt lat="47.26753" lon="-1.62986">
        <ele>15.5</ele>
        <time>2013-08-18T08:53:16Z</time>
      </trkpt>
      <trkpt lat="47.2675" lon="-1.6297">
        <ele>16.3</ele>
        <time>2013-08-18T08:53:19Z</time>
      </trkpt>
      <trkpt lat="47.26746" lon="-1.62954">
        <ele>17</ele>
        <time>2013-08-18T08:53:22Z</time>
      </trkpt>
      <trkpt lat="47.26743" lon="-1.62937">
        <ele>17.5</ele>
        <time>2013-08-18T08:53:26Z</time>
      </trkpt>
      <trkpt lat="47.26743" lon="-1.62922">
        <ele>17.4</ele>
        <time>2013-08-18T08:53:30Z</time>
      </trkpt>
      <trkpt lat="47.26746" lon="-1.62906">
        <ele>17.1</ele>
        <time>2013-08-18T08:53:33Z</time>
      </trkpt>
      <trkpt lat="47.26748" lon="-1.62891">
        <ele>16.9</ele>
        <time>2013-08-18T08:53:37Z</time>
      </trkpt>
      <trkpt lat="47.26751" lon="-1.62877">
        <ele>16</ele>
        <time>2013-08-18T08:53:42Z</time>
      </trkpt>
      <trkpt lat="47.26749" lon="-1.6286">
        <ele>15.4</ele>
        <time>2013-08-18T08:53:46Z</time>
      </trkpt>
      <trkpt lat="47.26745" lon="-1.62845">
        <ele>14.6</ele>
        <time>2013-08-18T08:53:50Z</time>
      </trkpt>
      <trkpt lat="47.26748" lon="-1.6283">
        <ele>14.6</ele>
        <time>2013-08-18T08:53:53Z</time>
      </trkpt>
      <trkpt lat="47.26746" lon="-1.62814">
        <ele>14.6</ele>
        <time>2013-08-18T08:53:56Z</time>
      </trkpt>
      <trkpt lat="47.26743" lon="-1.62801">
        <ele>14.9</ele>
        <time>2013-08-18T08:53:58Z</time>
      </trkpt>
      <trkpt lat="47.2674" lon="-1.62788">
        <ele>14.9</ele>
        <time>2013-08-18T08:54:00Z</time>
      </trkpt>
      <trkpt lat="47.26738" lon="-1.62768">
        <ele>14.9</ele>
        <time>2013-08-18T08:54:02Z</time>
      </trkpt>
      <trkpt lat="47.26739" lon="-1.62754">
        <ele>14.7</ele>
        <time>2013-08-18T08:54:04Z</time>
      </trkpt>
      <trkpt lat="47.26738" lon="-1.62738">
        <ele>14.2</ele>
        <time>2013-08-18T08:54:07Z</time>
      </trkpt>
      <trkpt lat="47.26736" lon="-1.62724">
        <ele>13.4</ele>
        <time>2013-08-18T08:54:11Z</time>
      </trkpt>
      <trkpt lat="47.26734" lon="-1.62708">
        <ele>12.3</ele>
        <time>2013-08-18T08:54:17Z</time>
      </trkpt>
      <trkpt lat="47.26737" lon="-1.62693">
        <ele>11.7</ele>
        <time>2013-08-18T08:54:21Z</time>
      </trkpt>
      <trkpt lat="47.26738" lon="-1.6268">
        <ele>12.1</ele>
        <time>2013-08-18T08:54:24Z</time>
      </trkpt>
      <trkpt lat="47.2674" lon="-1.62664">
        <ele>12.6</ele>
        <time>2013-08-18T08:54:27Z</time>
      </trkpt>
      <trkpt lat="47.26741" lon="-1.62647">
        <ele>12.9</ele>
        <time>2013-08-18T08:54:30Z</time>
      </trkpt>
      <trkpt lat="47.26739" lon="-1.62631">
        <ele>13.1</ele>
        <time>2013-08-18T08:54:33Z</time>
      </trkpt>
      <trkpt lat="47.26738" lon="-1.62616">
        <ele>13.4</ele>
        <time>2013-08-18T08:54:36Z</time>
      </trkpt>
      <trkpt lat="47.26739" lon="-1.62602">
        <ele>14</ele>
        <time>2013-08-18T08:54:40Z</time>
      </trkpt>
      <trkpt lat="47.26741" lon="-1.62589">
        <ele>14.6</ele>
        <time>2013-08-18T08:54:43Z</time>
      </trkpt>
      <trkpt lat="47.2674" lon="-1.62575">
        <ele>15.4</ele>
        <time>2013-08-18T08:54:46Z</time>
      </trkpt>
      <trkpt lat="47.26738" lon="-1.62556">
        <ele>16.3</ele>
        <time>2013-08-18T08:54:49Z</time>
      </trkpt>
      <trkpt lat="47.26736" lon="-1.62539">
        <ele>17.2</ele>
        <time>2013-08-18T08:54:52Z</time>
      </trkpt>
      <trkpt lat="47.26737" lon="-1.62524">
        <ele>17.6</ele>
        <time>2013-08-18T08:54:56Z</time>
      </trkpt>
      <trkpt lat="47.26738" lon="-1.62506">
        <ele>17.9</ele>
        <time>2013-08-18T08:54:59Z</time>
      </trkpt>
      <trkpt lat="47.2674" lon="-1.62493">
        <ele>18.1</ele>
        <time>2013-08-18T08:55:01Z</time>
      </trkpt>
      <trkpt lat="47.26741" lon="-1.6248">
        <ele>18.3</ele>
        <time>2013-08-18T08:55:03Z</time>
      </trkpt>
      <trkpt lat="47.26744" lon="-1.62465">
        <ele>18.6</ele>
        <time>2013-08-18T08:55:05Z</time>
      </trkpt>
      <trkpt lat="47.26747" lon="-1.62453">
        <ele>18.7</ele>
        <time>2013-08-18T08:55:07Z</time>
      </trkpt>
      <trkpt lat="47.2675" lon="-1.62439">
        <ele>19</ele>
        <time>2013-08-18T08:55:14Z</time>
      </trkpt>
      <trkpt lat="47.2675" lon="-1.62425">
        <ele>20.8</ele>
        <time>2013-08-18T08:55:30Z</time>
      </trkpt>
      <trkpt lat="47.26745" lon="-1.62412">
        <ele>22</ele>
        <time>2013-08-18T08:55:37Z</time>
      </trkpt>
      <trkpt lat="47.26735" lon="-1.62411">
        <ele>24.5</ele>
        <time>2013-08-18T08:55:57Z</time>
      </trkpt>
      <trkpt lat="47.26726" lon="-1.62415">
        <ele>26.9</ele>
        <time>2013-08-18T08:56:04Z</time>
      </trkpt>
      <trkpt lat="47.26716" lon="-1.62417">
        <ele>30</ele>
        <time>2013-08-18T08:56:12Z</time>
      </trkpt>
      <trkpt lat="47.26707" lon="-1.62415">
        <ele>32.2</ele>
        <time>2013-08-18T08:56:23Z</time>
      </trkpt>
      <trkpt lat="47.26698" lon="-1.62409">
        <ele>33.7</ele>
        <time>2013-08-18T08:56:31Z</time>
      </trkpt>
      <trkpt lat="47.26689" lon="-1.62408">
        <ele>34.5</ele>
        <time>2013-08-18T08:56:40Z</time>
      </trkpt>
      <trkpt lat="47.26678" lon="-1.62406">
        <ele>34.9</ele>
        <time>2013-08-18T08:56:51Z</time>
      </trkpt>
      <trkpt lat="47.26669" lon="-1.624">
        <ele>34.8</ele>
        <time>2013-08-18T08:56:56Z</time>
      </trkpt>
      <trkpt lat="47.26661" lon="-1.62392">
        <ele>34.4</ele>
        <time>2013-08-18T08:57:03Z</time>
      </trkpt>
      <trkpt lat="47.26655" lon="-1.62382">
        <ele>33.8</ele>
        <time>2013-08-18T08:57:12Z</time>
      </trkpt>
      <trkpt lat="47.26647" lon="-1.62375">
        <ele>32.6</ele>
        <time>2013-08-18T08:57:18Z</time>
      </trkpt>
      <trkpt lat="47.26637" lon="-1.62373">
        <ele>30.8</ele>
        <time>2013-08-18T08:57:25Z</time>
      </trkpt>
      <trkpt lat="47.26629" lon="-1.62377">
        <ele>27.5</ele>
        <time>2013-08-18T08:57:36Z</time>
      </trkpt>
      <trkpt lat="47.2662" lon="-1.62382">
        <ele>25.3</ele>
        <time>2013-08-18T08:57:44Z</time>
      </trkpt>
      <trkpt lat="47.26609" lon="-1.62385">
        <ele>23.1</ele>
        <time>2013-08-18T08:58:06Z</time>
      </trkpt>
      <trkpt lat="47.26599" lon="-1.62385">
        <ele>24.5</ele>
        <time>2013-08-18T08:58:09Z</time>
      </trkpt>
      <trkpt lat="47.26588" lon="-1.62388">
        <ele>26.5</ele>
        <time>2013-08-18T08:58:14Z</time>
      </trkpt>
      <trkpt lat="47.26579" lon="-1.62393">
        <ele>29.5</ele>
        <time>2013-08-18T08:58:21Z</time>
      </trkpt>
      <trkpt lat="47.26567" lon="-1.62395">
        <ele>31.2</ele>
        <time>2013-08-18T08:58:26Z</time>
      </trkpt>
      <trkpt lat="47.26558" lon="-1.624">
        <ele>32.1</ele>
        <time>2013-08-18T08:58:29Z</time>
      </trkpt>
      <trkpt lat="47.26548" lon="-1.62404">
        <ele>33.6</ele>
        <time>2013-08-18T08:58:39Z</time>
      </trkpt>
      <trkpt lat="47.26539" lon="-1.62408">
        <ele>32.4</ele>
        <time>2013-08-18T08:58:46Z</time>
      </trkpt>
      <trkpt lat="47.26531" lon="-1.62414">
        <ele>30.6</ele>
        <time>2013-08-18T08:58:55Z</time>
      </trkpt>
      <trkpt lat="47.26527" lon="-1.62427">
        <ele>28.5</ele>
        <time>2013-08-18T08:59:02Z</time>
      </trkpt>
      <trkpt lat="47.26517" lon="-1.62427">
        <ele>31.8</ele>
        <time>2013-08-18T08:59:34Z</time>
      </trkpt>
      <trkpt lat="47.26505" lon="-1.62421">
        <ele>33.1</ele>
        <time>2013-08-18T08:59:38Z</time>
      </trkpt>
      <trkpt lat="47.265" lon="-1.6241">
        <ele>34.9</ele>
        <time>2013-08-18T08:59:43Z</time>
      </trkpt>
      <trkpt lat="47.26489" lon="-1.62404">
        <ele>36</ele>
        <time>2013-08-18T08:59:48Z</time>
      </trkpt>
      <trkpt lat="47.26483" lon="-1.62395">
        <ele>36.6</ele>
        <time>2013-08-18T08:59:52Z</time>
      </trkpt>
      <trkpt lat="47.26479" lon="-1.62382">
        <ele>37</ele>
        <time>2013-08-18T08:59:56Z</time>
      </trkpt>
      <trkpt lat="47.26476" lon="-1.62366">
        <ele>37.7</ele>
        <time>2013-08-18T09:00:00Z</time>
      </trkpt>
      <trkpt lat="47.26471" lon="-1.62354">
        <ele>38.1</ele>
        <time>2013-08-18T09:00:06Z</time>
      </trkpt>
      <trkpt lat="47.26469" lon="-1.62339">
        <ele>38.2</ele>
        <time>2013-08-18T09:00:11Z</time>
      </trkpt>
      <trkpt lat="47.26471" lon="-1.62325">
        <ele>37.8</ele>
        <time>2013-08-18T09:00:18Z</time>
      </trkpt>
      <trkpt lat="47.26469" lon="-1.62312">
        <ele>37.1</ele>
        <time>2013-08-18T09:00:25Z</time>
      </trkpt>
      <trkpt lat="47.26462" lon="-1.62302">
        <ele>36.3</ele>
        <time>2013-08-18T09:00:31Z</time>
      </trkpt>
      <trkpt lat="47.26456" lon="-1.62291">
        <ele>34.9</ele>
        <time>2013-08-18T09:00:48Z</time>
      </trkpt>
      <trkpt lat="47.26451" lon="-1.62279">
        <ele>36.4</ele>
        <time>2013-08-18T09:00:53Z</time>
      </trkpt>
      <trkpt lat="47.26448" lon="-1.62266">
        <ele>37.6</ele>
        <time>2013-08-18T09:00:56Z</time>
      </trkpt>
      <trkpt lat="47.26445" lon="-1.6225">
        <ele>38.8</ele>
        <time>2013-08-18T09:00:59Z</time>
      </trkpt>
      <trkpt lat="47.2644" lon="-1.62234">
        <ele>39.5</ele>
        <time>2013-08-18T09:01:01Z</time>
      </trkpt>
      <trkpt lat="47.26437" lon="-1.6222">
        <ele>40.5</ele>
        <time>2013-08-18T09:01:04Z</time>
      </trkpt>
      <trkpt lat="47.26438" lon="-1.62203">
        <ele>41.4</ele>
        <time>2013-08-18T09:01:08Z</time>
      </trkpt>
      <trkpt lat="47.26446" lon="-1.62189">
        <ele>41.6</ele>
        <time>2013-08-18T09:01:12Z</time>
      </trkpt>
      <trkpt lat="47.26456" lon="-1.62184">
        <ele>41.6</ele>
        <time>2013-08-18T09:01:15Z</time>
      </trkpt>
      <trkpt lat="47.26466" lon="-1.62179">
        <ele>41.5</ele>
        <time>2013-08-18T09:01:18Z</time>
      </trkpt>
      <trkpt lat="47.26475" lon="-1.62174">
        <ele>38.7</ele>
        <time>2013-08-18T09:01:20Z</time>
      </trkpt>
      <trkpt lat="47.26486" lon="-1.6217">
        <ele>35.7</ele>
        <time>2013-08-18T09:01:22Z</time>
      </trkpt>
      <trkpt lat="47.265" lon="-1.62167">
        <ele>32.6</ele>
        <time>2013-08-18T09:01:25Z</time>
      </trkpt>
      <trkpt lat="47.26509" lon="-1.62165">
        <ele>32.5</ele>
        <time>2013-08-18T09:01:27Z</time>
      </trkpt>
      <trkpt lat="47.26519" lon="-1.62163">
        <ele>32.3</ele>
        <time>2013-08-18T09:01:29Z</time>
      </trkpt>
      <trkpt lat="47.2653" lon="-1.6216">
        <ele>32.1</ele>
        <time>2013-08-18T09:01:31Z</time>
      </trkpt>
      <trkpt lat="47.26542" lon="-1.62157">
        <ele>32.1</ele>
        <time>2013-08-18T09:01:33Z</time>
      </trkpt>
      <trkpt lat="47.26553" lon="-1.62153">
        <ele>31.9</ele>
        <time>2013-08-18T09:01:35Z</time>
      </trkpt>
      <trkpt lat="47.26564" lon="-1.6215">
        <ele>32.1</ele>
        <time>2013-08-18T09:01:37Z</time>
      </trkpt>
      <trkpt lat="47.26577" lon="-1.62147">
        <ele>31.3</ele>
        <time>2013-08-18T09:01:39Z</time>
      </trkpt>
      <trkpt lat="47.26588" lon="-1.62148">
        <ele>31</ele>
        <time>2013-08-18T09:01:41Z</time>
      </trkpt>
      <trkpt lat="47.266" lon="-1.62151">
        <ele>30.8</ele>
        <time>2013-08-18T09:01:43Z</time>
      </trkpt>
      <trkpt lat="47.2661" lon="-1.62155">
        <ele>30.6</ele>
        <time>2013-08-18T09:01:45Z</time>
      </trkpt>
      <trkpt lat="47.2662" lon="-1.6216">
        <ele>30.3</ele>
        <time>2013-08-18T09:01:47Z</time>
      </trkpt>
      <trkpt lat="47.26631" lon="-1.62165">
        <ele>29.8</ele>
        <time>2013-08-18T09:01:49Z</time>
      </trkpt>
      <trkpt lat="47.26641" lon="-1.6217">
        <ele>29</ele>
        <time>2013-08-18T09:01:51Z</time>
      </trkpt>
      <trkpt lat="47.2665" lon="-1.62176">
        <ele>28.2</ele>
        <time>2013-08-18T09:01:53Z</time>
      </trkpt>
      <trkpt lat="47.26658" lon="-1.62181">
        <ele>27.3</ele>
        <time>2013-08-18T09:01:55Z</time>
      </trkpt>
      <trkpt lat="47.26667" lon="-1.6219">
        <ele>26.2</ele>
        <time>2013-08-18T09:01:58Z</time>
      </trkpt>
      <trkpt lat="47.26666" lon="-1.62205">
        <ele>23.5</ele>
        <time>2013-08-18T09:02:04Z</time>
      </trkpt>
      <trkpt lat="47.26669" lon="-1.6222">
        <ele>21.4</ele>
        <time>2013-08-18T09:02:09Z</time>
      </trkpt>
      <trkpt lat="47.26675" lon="-1.62237">
        <ele>19.6</ele>
        <time>2013-08-18T09:02:13Z</time>
      </trkpt>
      <trkpt lat="47.26681" lon="-1.62249">
        <ele>18.6</ele>
        <time>2013-08-18T09:02:15Z</time>
      </trkpt>
      <trkpt lat="47.26688" lon="-1.62264">
        <ele>18.1</ele>
        <time>2013-08-18T09:02:17Z</time>
      </trkpt>
      <trkpt lat="47.26696" lon="-1.62277">
        <ele>17.7</ele>
        <time>2013-08-18T09:02:19Z</time>
      </trkpt>
      <trkpt lat="47.26701" lon="-1.62262">
        <ele>18.4</ele>
        <time>2013-08-18T09:02:29Z</time>
      </trkpt>
      <trkpt lat="47.26702" lon="-1.62249">
        <ele>18.6</ele>
        <time>2013-08-18T09:02:32Z</time>
      </trkpt>
      <trkpt lat="47.26703" lon="-1.62233">
        <ele>19.1</ele>
        <time>2013-08-18T09:02:36Z</time>
      </trkpt>
      <trkpt lat="47.26703" lon="-1.62218">
        <ele>19.9</ele>
        <time>2013-08-18T09:02:40Z</time>
      </trkpt>
      <trkpt lat="47.26705" lon="-1.62203">
        <ele>20.4</ele>
        <time>2013-08-18T09:02:45Z</time>
      </trkpt>
      <trkpt lat="47.26705" lon="-1.62187">
        <ele>20.6</ele>
        <time>2013-08-18T09:02:49Z</time>
      </trkpt>
      <trkpt lat="47.26694" lon="-1.62181">
        <ele>20.7</ele>
        <time>2013-08-18T09:02:54Z</time>
      </trkpt>
      <trkpt lat="47.26685" lon="-1.62178">
        <ele>20.7</ele>
        <time>2013-08-18T09:02:57Z</time>
      </trkpt>
      <trkpt lat="47.26675" lon="-1.62172">
        <ele>20.8</ele>
        <time>2013-08-18T09:03:01Z</time>
      </trkpt>
      <trkpt lat="47.26665" lon="-1.62167">
        <ele>20.4</ele>
        <time>2013-08-18T09:03:05Z</time>
      </trkpt>
      <trkpt lat="47.26656" lon="-1.62158">
        <ele>20.2</ele>
        <time>2013-08-18T09:03:11Z</time>
      </trkpt>
      <trkpt lat="47.26648" lon="-1.62154">
        <ele>20.5</ele>
        <time>2013-08-18T09:03:15Z</time>
      </trkpt>
      <trkpt lat="47.26638" lon="-1.62149">
        <ele>20.6</ele>
        <time>2013-08-18T09:03:19Z</time>
      </trkpt>
      <trkpt lat="47.26629" lon="-1.62148">
        <ele>20.8</ele>
        <time>2013-08-18T09:03:22Z</time>
      </trkpt>
      <trkpt lat="47.26618" lon="-1.62149">
        <ele>21.1</ele>
        <time>2013-08-18T09:03:27Z</time>
      </trkpt>
      <trkpt lat="47.26608" lon="-1.62154">
        <ele>21.6</ele>
        <time>2013-08-18T09:03:31Z</time>
      </trkpt>
      <trkpt lat="47.26597" lon="-1.62156">
        <ele>23.1</ele>
        <time>2013-08-18T09:03:35Z</time>
      </trkpt>
      <trkpt lat="47.26587" lon="-1.62162">
        <ele>24.8</ele>
        <time>2013-08-18T09:03:39Z</time>
      </trkpt>
      <trkpt lat="47.26578" lon="-1.62165">
        <ele>26.1</ele>
        <time>2013-08-18T09:03:42Z</time>
      </trkpt>
      <trkpt lat="47.26569" lon="-1.62166">
        <ele>27</ele>
        <time>2013-08-18T09:03:45Z</time>
      </trkpt>
      <trkpt lat="47.2656" lon="-1.62168">
        <ele>28.1</ele>
        <time>2013-08-18T09:03:48Z</time>
      </trkpt>
      <trkpt lat="47.26548" lon="-1.6217">
        <ele>29.4</ele>
        <time>2013-08-18T09:03:52Z</time>
      </trkpt>
      <trkpt lat="47.26539" lon="-1.62172">
        <ele>30.3</ele>
        <time>2013-08-18T09:03:55Z</time>
      </trkpt>
      <trkpt lat="47.26529" lon="-1.62175">
        <ele>32</ele>
        <time>2013-08-18T09:04:00Z</time>
      </trkpt>
      <trkpt lat="47.26518" lon="-1.62181">
        <ele>33.6</ele>
        <time>2013-08-18T09:04:05Z</time>
      </trkpt>
      <trkpt lat="47.2651" lon="-1.62187">
        <ele>34.6</ele>
        <time>2013-08-18T09:04:09Z</time>
      </trkpt>
      <trkpt lat="47.26499" lon="-1.62189">
        <ele>35.2</ele>
        <time>2013-08-18T09:04:14Z</time>
      </trkpt>
      <trkpt lat="47.26489" lon="-1.62186">
        <ele>35</ele>
        <time>2013-08-18T09:04:18Z</time>
      </trkpt>
      <trkpt lat="47.26481" lon="-1.6218">
        <ele>35.2</ele>
        <time>2013-08-18T09:04:21Z</time>
      </trkpt>
      <trkpt lat="47.26471" lon="-1.62177">
        <ele>35.5</ele>
        <time>2013-08-18T09:04:25Z</time>
      </trkpt>
      <trkpt lat="47.26461" lon="-1.62177">
        <ele>35.9</ele>
        <time>2013-08-18T09:04:29Z</time>
      </trkpt>
      <trkpt lat="47.26451" lon="-1.62176">
        <ele>36.2</ele>
        <time>2013-08-18T09:04:32Z</time>
      </trkpt>
      <trkpt lat="47.26442" lon="-1.62178">
        <ele>36.9</ele>
        <time>2013-08-18T09:04:36Z</time>
      </trkpt>
      <trkpt lat="47.26452" lon="-1.6218">
        <ele>38.4</ele>
        <time>2013-08-18T09:04:50Z</time>
      </trkpt>
      <trkpt lat="47.26463" lon="-1.62177">
        <ele>38.8</ele>
        <time>2013-08-18T09:04:55Z</time>
      </trkpt>
      <trkpt lat="47.26474" lon="-1.62173">
        <ele>39.3</ele>
        <time>2013-08-18T09:04:59Z</time>
      </trkpt>
      <trkpt lat="47.26483" lon="-1.62168">
        <ele>39.5</ele>
        <time>2013-08-18T09:05:02Z</time>
      </trkpt>
      <trkpt lat="47.26493" lon="-1.62162">
        <ele>39.3</ele>
        <time>2013-08-18T09:05:07Z</time>
      </trkpt>
      <trkpt lat="47.26505" lon="-1.6216">
        <ele>39.3</ele>
        <time>2013-08-18T09:05:11Z</time>
      </trkpt>
      <trkpt lat="47.26515" lon="-1.62157">
        <ele>37.8</ele>
        <time>2013-08-18T09:05:13Z</time>
      </trkpt>
      <trkpt lat="47.26524" lon="-1.62154">
        <ele>35.5</ele>
        <time>2013-08-18T09:05:15Z</time>
      </trkpt>
      <trkpt lat="47.26535" lon="-1.62151">
        <ele>35.3</ele>
        <time>2013-08-18T09:05:17Z</time>
      </trkpt>
      <trkpt lat="47.26549" lon="-1.62148">
        <ele>33.7</ele>
        <time>2013-08-18T09:05:19Z</time>
      </trkpt>
      <trkpt lat="47.26565" lon="-1.62145">
        <ele>33.5</ele>
        <time>2013-08-18T09:05:21Z</time>
      </trkpt>
      <trkpt lat="47.2658" lon="-1.62148">
        <ele>32.9</ele>
        <time>2013-08-18T09:05:23Z</time>
      </trkpt>
      <trkpt lat="47.2659" lon="-1.62155">
        <ele>32.7</ele>
        <time>2013-08-18T09:05:25Z</time>
      </trkpt>
      <trkpt lat="47.26602" lon="-1.62161">
        <ele>32.5</ele>
        <time>2013-08-18T09:05:28Z</time>
      </trkpt>
      <trkpt lat="47.26613" lon="-1.62164">
        <ele>32.5</ele>
        <time>2013-08-18T09:05:30Z</time>
      </trkpt>
      <trkpt lat="47.26623" lon="-1.62167">
        <ele>32.4</ele>
        <time>2013-08-18T09:05:32Z</time>
      </trkpt>
      <trkpt lat="47.26636" lon="-1.62176">
        <ele>32.2</ele>
        <time>2013-08-18T09:05:34Z</time>
      </trkpt>
      <trkpt lat="47.26646" lon="-1.62182">
        <ele>32</ele>
        <time>2013-08-18T09:05:35Z</time>
      </trkpt>
      <trkpt lat="47.26656" lon="-1.62188">
        <ele>31.8</ele>
        <time>2013-08-18T09:05:36Z</time>
      </trkpt>
      <trkpt lat="47.26665" lon="-1.62196">
        <ele>31.5</ele>
        <time>2013-08-18T09:05:37Z</time>
      </trkpt>
      <trkpt lat="47.26675" lon="-1.62208">
        <ele>31</ele>
        <time>2013-08-18T09:05:39Z</time>
      </trkpt>
      <trkpt lat="47.2668" lon="-1.62224">
        <ele>30.1</ele>
        <time>2013-08-18T09:05:42Z</time>
      </trkpt>
      <trkpt lat="47.26682" lon="-1.62237">
        <ele>28.7</ele>
        <time>2013-08-18T09:05:47Z</time>
      </trkpt>
      <trkpt lat="47.26687" lon="-1.62251">
        <ele>27.5</ele>
        <time>2013-08-18T09:05:51Z</time>
      </trkpt>
      <trkpt lat="47.26693" lon="-1.62263">
        <ele>26</ele>
        <time>2013-08-18T09:05:56Z</time>
      </trkpt>
      <trkpt lat="47.267" lon="-1.62273">
        <ele>25.6</ele>
        <time>2013-08-18T09:05:59Z</time>
      </trkpt>
      <trkpt lat="47.26704" lon="-1.6226">
        <ele>25.7</ele>
        <time>2013-08-18T09:06:07Z</time>
      </trkpt>
      <trkpt lat="47.26705" lon="-1.62247">
        <ele>25.6</ele>
        <time>2013-08-18T09:06:11Z</time>
      </trkpt>
      <trkpt lat="47.26703" lon="-1.62232">
        <ele>25.7</ele>
        <time>2013-08-18T09:06:15Z</time>
      </trkpt>
      <trkpt lat="47.26701" lon="-1.62216">
        <ele>25.7</ele>
        <time>2013-08-18T09:06:19Z</time>
      </trkpt>
      <trkpt lat="47.26708" lon="-1.62206">
        <ele>25.6</ele>
        <time>2013-08-18T09:06:29Z</time>
      </trkpt>
      <trkpt lat="47.26714" lon="-1.62217">
        <ele>24.4</ele>
        <time>2013-08-18T09:06:47Z</time>
      </trkpt>
      <trkpt lat="47.26715" lon="-1.62231">
        <ele>23.6</ele>
        <time>2013-08-18T09:06:51Z</time>
      </trkpt>
      <trkpt lat="47.26723" lon="-1.62236">
        <ele>22.4</ele>
        <time>2013-08-18T09:06:57Z</time>
      </trkpt>
      <trkpt lat="47.26726" lon="-1.62223">
        <ele>21.2</ele>
        <time>2013-08-18T09:07:02Z</time>
      </trkpt>
      <trkpt lat="47.26726" lon="-1.62205">
        <ele>20.1</ele>
        <time>2013-08-18T09:07:06Z</time>
      </trkpt>
      <trkpt lat="47.26725" lon="-1.62191">
        <ele>18.9</ele>
        <time>2013-08-18T09:07:09Z</time>
      </trkpt>
      <trkpt lat="47.26726" lon="-1.62173">
        <ele>17.7</ele>
        <time>2013-08-18T09:07:12Z</time>
      </trkpt>
      <trkpt lat="47.2673" lon="-1.62152">
        <ele>13.7</ele>
        <time>2013-08-18T09:07:14Z</time>
      </trkpt>
      <trkpt lat="47.26732" lon="-1.6213">
        <ele>11.3</ele>
        <time>2013-08-18T09:07:16Z</time>
      </trkpt>
      <trkpt lat="47.26734" lon="-1.62114">
        <ele>10.2</ele>
        <time>2013-08-18T09:07:18Z</time>
      </trkpt>
      <trkpt lat="47.26737" lon="-1.62097">
        <ele>9.2</ele>
        <time>2013-08-18T09:07:20Z</time>
      </trkpt>
      <trkpt lat="47.2674" lon="-1.62083">
        <ele>9.2</ele>
        <time>2013-08-18T09:07:22Z</time>
      </trkpt>
      <trkpt lat="47.26751" lon="-1.62077">
        <ele>9.4</ele>
        <time>2013-08-18T09:07:25Z</time>
      </trkpt>
      <trkpt lat="47.26761" lon="-1.62081">
        <ele>9.7</ele>
        <time>2013-08-18T09:07:28Z</time>
      </trkpt>
      <trkpt lat="47.2677" lon="-1.62088">
        <ele>10.1</ele>
        <time>2013-08-18T09:07:32Z</time>
      </trkpt>
      <trkpt lat="47.26781" lon="-1.62096">
        <ele>10.8</ele>
        <time>2013-08-18T09:07:36Z</time>
      </trkpt>
      <trkpt lat="47.26791" lon="-1.62104">
        <ele>11.3</ele>
        <time>2013-08-18T09:07:39Z</time>
      </trkpt>
      <trkpt lat="47.26801" lon="-1.62112">
        <ele>11.9</ele>
        <time>2013-08-18T09:07:42Z</time>
      </trkpt>
      <trkpt lat="47.2681" lon="-1.62117">
        <ele>12.2</ele>
        <time>2013-08-18T09:07:45Z</time>
      </trkpt>
      <trkpt lat="47.26819" lon="-1.62119">
        <ele>12.5</ele>
        <time>2013-08-18T09:07:48Z</time>
      </trkpt>
      <trkpt lat="47.26831" lon="-1.62115">
        <ele>12.8</ele>
        <time>2013-08-18T09:07:52Z</time>
      </trkpt>
      <trkpt lat="47.2684" lon="-1.62109">
        <ele>13.2</ele>
        <time>2013-08-18T09:07:56Z</time>
      </trkpt>
      <trkpt lat="47.26848" lon="-1.62104">
        <ele>13.5</ele>
        <time>2013-08-18T09:08:02Z</time>
      </trkpt>
      <trkpt lat="47.26859" lon="-1.62103">
        <ele>14.2</ele>
        <time>2013-08-18T09:08:09Z</time>
      </trkpt>
      <trkpt lat="47.26868" lon="-1.62102">
        <ele>15</ele>
        <time>2013-08-18T09:08:16Z</time>
      </trkpt>
      <trkpt lat="47.26872" lon="-1.62089">
        <ele>15.9</ele>
        <time>2013-08-18T09:08:24Z</time>
      </trkpt>
      <trkpt lat="47.26881" lon="-1.62082">
        <ele>16.5</ele>
        <time>2013-08-18T09:08:30Z</time>
      </trkpt>
      <trkpt lat="47.2688" lon="-1.62068">
        <ele>16.5</ele>
        <time>2013-08-18T09:08:36Z</time>
      </trkpt>
      <trkpt lat="47.26877" lon="-1.62054">
        <ele>16.8</ele>
        <time>2013-08-18T09:08:43Z</time>
      </trkpt>
      <trkpt lat="47.26881" lon="-1.62042">
        <ele>16.9</ele>
        <time>2013-08-18T09:08:48Z</time>
      </trkpt>
      <trkpt lat="47.26888" lon="-1.62033">
        <ele>17.2</ele>
        <time>2013-08-18T09:08:52Z</time>
      </trkpt>
      <trkpt lat="47.26893" lon="-1.62022">
        <ele>17.5</ele>
        <time>2013-08-18T09:08:56Z</time>
      </trkpt>
      <trkpt lat="47.269" lon="-1.6201">
        <ele>17.9</ele>
        <time>2013-08-18T09:09:01Z</time>
      </trkpt>
      <trkpt lat="47.26907" lon="-1.62001">
        <ele>18</ele>
        <time>2013-08-18T09:09:06Z</time>
      </trkpt>
      <trkpt lat="47.26914" lon="-1.6199">
        <ele>17.7</ele>
        <time>2013-08-18T09:09:12Z</time>
      </trkpt>
      <trkpt lat="47.26918" lon="-1.61977">
        <ele>17.6</ele>
        <time>2013-08-18T09:09:19Z</time>
      </trkpt>
      <trkpt lat="47.26921" lon="-1.61963">
        <ele>18</ele>
        <time>2013-08-18T09:09:29Z</time>
      </trkpt>
      <trkpt lat="47.26913" lon="-1.61955">
        <ele>21.4</ele>
        <time>2013-08-18T09:09:44Z</time>
      </trkpt>
      <trkpt lat="47.26904" lon="-1.61952">
        <ele>21.4</ele>
        <time>2013-08-18T09:09:51Z</time>
      </trkpt>
      <trkpt lat="47.26895" lon="-1.61947">
        <ele>20.6</ele>
        <time>2013-08-18T09:09:57Z</time>
      </trkpt>
      <trkpt lat="47.26887" lon="-1.61941">
        <ele>20.3</ele>
        <time>2013-08-18T09:10:02Z</time>
      </trkpt>
      <trkpt lat="47.26878" lon="-1.6194">
        <ele>18.9</ele>
        <time>2013-08-18T09:10:10Z</time>
      </trkpt>
      <trkpt lat="47.26869" lon="-1.61937">
        <ele>16.8</ele>
        <time>2013-08-18T09:10:17Z</time>
      </trkpt>
      <trkpt lat="47.26872" lon="-1.61924">
        <ele>14.9</ele>
        <time>2013-08-18T09:10:23Z</time>
      </trkpt>
      <trkpt lat="47.26873" lon="-1.61908">
        <ele>13.1</ele>
        <time>2013-08-18T09:10:29Z</time>
      </trkpt>
      <trkpt lat="47.26873" lon="-1.61893">
        <ele>12.1</ele>
        <time>2013-08-18T09:10:33Z</time>
      </trkpt>
      <trkpt lat="47.26874" lon="-1.61878">
        <ele>11.3</ele>
        <time>2013-08-18T09:10:37Z</time>
      </trkpt>
      <trkpt lat="47.26876" lon="-1.61863">
        <ele>10.4</ele>
        <time>2013-08-18T09:10:43Z</time>
      </trkpt>
      <trkpt lat="47.26881" lon="-1.61849">
        <ele>10</ele>
        <time>2013-08-18T09:10:48Z</time>
      </trkpt>
      <trkpt lat="47.2688" lon="-1.61835">
        <ele>10.1</ele>
        <time>2013-08-18T09:10:53Z</time>
      </trkpt>
      <trkpt lat="47.2688" lon="-1.61819">
        <ele>10</ele>
        <time>2013-08-18T09:10:59Z</time>
      </trkpt>
      <trkpt lat="47.26878" lon="-1.61806">
        <ele>10.2</ele>
        <time>2013-08-18T09:11:09Z</time>
      </trkpt>
      <trkpt lat="47.26873" lon="-1.61793">
        <ele>10.5</ele>
        <time>2013-08-18T09:11:17Z</time>
      </trkpt>
      <trkpt lat="47.26865" lon="-1.61784">
        <ele>9.8</ele>
        <time>2013-08-18T09:11:29Z</time>
      </trkpt>
      <trkpt lat="47.26857" lon="-1.6178">
        <ele>8.5</ele>
        <time>2013-08-18T09:11:34Z</time>
      </trkpt>
      <trkpt lat="47.26851" lon="-1.61764">
        <ele>8.3</ele>
        <time>2013-08-18T09:11:39Z</time>
      </trkpt>
      <trkpt lat="47.26848" lon="-1.61749">
        <ele>8</ele>
        <time>2013-08-18T09:11:44Z</time>
      </trkpt>
      <trkpt lat="47.26841" lon="-1.61736">
        <ele>8.5</ele>
        <time>2013-08-18T09:11:49Z</time>
      </trkpt>
      <trkpt lat="47.26832" lon="-1.61729">
        <ele>10.8</ele>
        <time>2013-08-18T09:11:53Z</time>
      </trkpt>
      <trkpt lat="47.26823" lon="-1.61722">
        <ele>12.5</ele>
        <time>2013-08-18T09:11:56Z</time>
      </trkpt>
      <trkpt lat="47.26812" lon="-1.61714">
        <ele>14</ele>
        <time>2013-08-18T09:11:59Z</time>
      </trkpt>
      <trkpt lat="47.26803" lon="-1.61721">
        <ele>18.2</ele>
        <time>2013-08-18T09:12:06Z</time>
      </trkpt>
      <trkpt lat="47.26793" lon="-1.61723">
        <ele>20.1</ele>
        <time>2013-08-18T09:12:10Z</time>
      </trkpt>
      <trkpt lat="47.26782" lon="-1.61724">
        <ele>21.6</ele>
        <time>2013-08-18T09:12:13Z</time>
      </trkpt>
      <trkpt lat="47.26772" lon="-1.61722">
        <ele>23.5</ele>
        <time>2013-08-18T09:12:17Z</time>
      </trkpt>
      <trkpt lat="47.2676" lon="-1.61721">
        <ele>24.7</ele>
        <time>2013-08-18T09:12:21Z</time>
      </trkpt>
      <trkpt lat="47.26751" lon="-1.61714">
        <ele>26.1</ele>
        <time>2013-08-18T09:12:27Z</time>
      </trkpt>
      <trkpt lat="47.26742" lon="-1.61704">
        <ele>27.7</ele>
        <time>2013-08-18T09:12:42Z</time>
      </trkpt>
      <trkpt lat="47.26733" lon="-1.61704">
        <ele>28.1</ele>
        <time>2013-08-18T09:12:45Z</time>
      </trkpt>
      <trkpt lat="47.26721" lon="-1.61699">
        <ele>28.2</ele>
        <time>2013-08-18T09:12:48Z</time>
      </trkpt>
      <trkpt lat="47.26711" lon="-1.61691">
        <ele>28.4</ele>
        <time>2013-08-18T09:12:50Z</time>
      </trkpt>
      <trkpt lat="47.26702" lon="-1.61683">
        <ele>28.7</ele>
        <time>2013-08-18T09:12:52Z</time>
      </trkpt>
      <trkpt lat="47.26693" lon="-1.61677">
        <ele>28.6</ele>
        <time>2013-08-18T09:12:55Z</time>
      </trkpt>
      <trkpt lat="47.26682" lon="-1.61672">
        <ele>28.5</ele>
        <time>2013-08-18T09:12:59Z</time>
      </trkpt>
      <trkpt lat="47.2667" lon="-1.61667">
        <ele>28.5</ele>
        <time>2013-08-18T09:13:02Z</time>
      </trkpt>
      <trkpt lat="47.26661" lon="-1.61663">
        <ele>28.4</ele>
        <time>2013-08-18T09:13:04Z</time>
      </trkpt>
      <trkpt lat="47.26653" lon="-1.61649">
        <ele>28.2</ele>
        <time>2013-08-18T09:13:07Z</time>
      </trkpt>
      <trkpt lat="47.26654" lon="-1.61635">
        <ele>28.4</ele>
        <time>2013-08-18T09:13:12Z</time>
      </trkpt>
      <trkpt lat="47.26649" lon="-1.61623">
        <ele>28.8</ele>
        <time>2013-08-18T09:13:19Z</time>
      </trkpt>
      <trkpt lat="47.26644" lon="-1.61612">
        <ele>28.7</ele>
        <time>2013-08-18T09:13:26Z</time>
      </trkpt>
      <trkpt lat="47.2664" lon="-1.61597">
        <ele>28.9</ele>
        <time>2013-08-18T09:13:31Z</time>
      </trkpt>
      <trkpt lat="47.26635" lon="-1.61583">
        <ele>29</ele>
        <time>2013-08-18T09:13:35Z</time>
      </trkpt>
      <trkpt lat="47.26631" lon="-1.6157">
        <ele>28.9</ele>
        <time>2013-08-18T09:13:40Z</time>
      </trkpt>
      <trkpt lat="47.26628" lon="-1.61555">
        <ele>29.2</ele>
        <time>2013-08-18T09:13:43Z</time>
      </trkpt>
      <trkpt lat="47.26625" lon="-1.61542">
        <ele>29.8</ele>
        <time>2013-08-18T09:13:47Z</time>
      </trkpt>
      <trkpt lat="47.26617" lon="-1.61535">
        <ele>30.2</ele>
        <time>2013-08-18T09:13:53Z</time>
      </trkpt>
      <trkpt lat="47.26608" lon="-1.61535">
        <ele>30.3</ele>
        <time>2013-08-18T09:13:58Z</time>
      </trkpt>
      <trkpt lat="47.26598" lon="-1.61535">
        <ele>30.4</ele>
        <time>2013-08-18T09:14:02Z</time>
      </trkpt>
      <trkpt lat="47.26589" lon="-1.61532">
        <ele>30.6</ele>
        <time>2013-08-18T09:14:06Z</time>
      </trkpt>
      <trkpt lat="47.2658" lon="-1.61536">
        <ele>30.9</ele>
        <time>2013-08-18T09:14:11Z</time>
      </trkpt>
      <trkpt lat="47.26571" lon="-1.61529">
        <ele>29.7</ele>
        <time>2013-08-18T09:14:18Z</time>
      </trkpt>
      <trkpt lat="47.26563" lon="-1.61523">
        <ele>29.4</ele>
        <time>2013-08-18T09:14:31Z</time>
      </trkpt>
      <trkpt lat="47.26562" lon="-1.61509">
        <ele>29.8</ele>
        <time>2013-08-18T09:15:06Z</time>
      </trkpt>
      <trkpt lat="47.26565" lon="-1.61494">
        <ele>29.1</ele>
        <time>2013-08-18T09:15:14Z</time>
      </trkpt>
      <trkpt lat="47.26559" lon="-1.61505">
        <ele>28.4</ele>
        <time>2013-08-18T09:15:56Z</time>
      </trkpt>
      <trkpt lat="47.26557" lon="-1.61518">
        <ele>29</ele>
        <time>2013-08-18T09:16:16Z</time>
      </trkpt>
      <trkpt lat="47.26554" lon="-1.61505">
        <ele>29.2</ele>
        <time>2013-08-18T09:16:57Z</time>
      </trkpt>
      <trkpt lat="47.26547" lon="-1.61495">
        <ele>29.2</ele>
        <time>2013-08-18T09:17:04Z</time>
      </trkpt>
      <trkpt lat="47.26538" lon="-1.61494">
        <ele>27.9</ele>
        <time>2013-08-18T09:17:13Z</time>
      </trkpt>
      <trkpt lat="47.2653" lon="-1.61486">
        <ele>27.2</ele>
        <time>2013-08-18T09:17:24Z</time>
      </trkpt>
      <trkpt lat="47.26522" lon="-1.6149">
        <ele>25.8</ele>
        <time>2013-08-18T09:18:02Z</time>
      </trkpt>
      <trkpt lat="47.26511" lon="-1.61486">
        <ele>24.5</ele>
        <time>2013-08-18T09:18:08Z</time>
      </trkpt>
      <trkpt lat="47.26501" lon="-1.61481">
        <ele>23.6</ele>
        <time>2013-08-18T09:18:12Z</time>
      </trkpt>
      <trkpt lat="47.26492" lon="-1.61476">
        <ele>22.8</ele>
        <time>2013-08-18T09:18:15Z</time>
      </trkpt>
      <trkpt lat="47.26483" lon="-1.61469">
        <ele>22.1</ele>
        <time>2013-08-18T09:18:18Z</time>
      </trkpt>
      <trkpt lat="47.26474" lon="-1.61465">
        <ele>21.1</ele>
        <time>2013-08-18T09:18:21Z</time>
      </trkpt>
      <trkpt lat="47.26463" lon="-1.61461">
        <ele>19</ele>
        <time>2013-08-18T09:18:26Z</time>
      </trkpt>
      <trkpt lat="47.26453" lon="-1.61459">
        <ele>17.5</ele>
        <time>2013-08-18T09:18:29Z</time>
      </trkpt>
      <trkpt lat="47.26444" lon="-1.61452">
        <ele>16.2</ele>
        <time>2013-08-18T09:18:32Z</time>
      </trkpt>
      <trkpt lat="47.26433" lon="-1.61441">
        <ele>15</ele>
        <time>2013-08-18T09:18:35Z</time>
      </trkpt>
      <trkpt lat="47.26426" lon="-1.61432">
        <ele>14.1</ele>
        <time>2013-08-18T09:18:38Z</time>
      </trkpt>
      <trkpt lat="47.26416" lon="-1.61433">
        <ele>12.6</ele>
        <time>2013-08-18T09:18:42Z</time>
      </trkpt>
      <trkpt lat="47.26407" lon="-1.61429">
        <ele>11.3</ele>
        <time>2013-08-18T09:18:45Z</time>
      </trkpt>
      <trkpt lat="47.26398" lon="-1.61421">
        <ele>10</ele>
        <time>2013-08-18T09:18:48Z</time>
      </trkpt>
      <trkpt lat="47.26393" lon="-1.61409">
        <ele>8.3</ele>
        <time>2013-08-18T09:18:52Z</time>
      </trkpt>
      <trkpt lat="47.26386" lon="-1.61398">
        <ele>6.5</ele>
        <time>2013-08-18T09:18:58Z</time>
      </trkpt>
      <trkpt lat="47.26378" lon="-1.61391">
        <ele>6.6</ele>
        <time>2013-08-18T09:19:02Z</time>
      </trkpt>
      <trkpt lat="47.26371" lon="-1.6138">
        <ele>6.8</ele>
        <time>2013-08-18T09:19:08Z</time>
      </trkpt>
      <trkpt lat="47.26368" lon="-1.61367">
        <ele>6.9</ele>
        <time>2013-08-18T09:19:14Z</time>
      </trkpt>
      <trkpt lat="47.2637" lon="-1.61354">
        <ele>7.1</ele>
        <time>2013-08-18T09:19:19Z</time>
      </trkpt>
      <trkpt lat="47.26373" lon="-1.61341">
        <ele>7.3</ele>
        <time>2013-08-18T09:19:23Z</time>
      </trkpt>
      <trkpt lat="47.26375" lon="-1.61328">
        <ele>7.5</ele>
        <time>2013-08-18T09:19:27Z</time>
      </trkpt>
      <trkpt lat="47.26377" lon="-1.61313">
        <ele>7.6</ele>
        <time>2013-08-18T09:19:31Z</time>
      </trkpt>
      <trkpt lat="47.2638" lon="-1.61299">
        <ele>7.7</ele>
        <time>2013-08-18T09:19:35Z</time>
      </trkpt>
      <trkpt lat="47.26384" lon="-1.61279">
        <ele>8.8</ele>
        <time>2013-08-18T09:19:38Z</time>
      </trkpt>
      <trkpt lat="47.26388" lon="-1.61266">
        <ele>8.6</ele>
        <time>2013-08-18T09:19:40Z</time>
      </trkpt>
      <trkpt lat="47.26396" lon="-1.61252">
        <ele>8.2</ele>
        <time>2013-08-18T09:19:42Z</time>
      </trkpt>
      <trkpt lat="47.26405" lon="-1.61239">
        <ele>8.6</ele>
        <time>2013-08-18T09:19:44Z</time>
      </trkpt>
      <trkpt lat="47.26414" lon="-1.61228">
        <ele>8.9</ele>
        <time>2013-08-18T09:19:46Z</time>
      </trkpt>
      <trkpt lat="47.26424" lon="-1.61216">
        <ele>8.7</ele>
        <time>2013-08-18T09:19:48Z</time>
      </trkpt>
      <trkpt lat="47.26433" lon="-1.61201">
        <ele>8.8</ele>
        <time>2013-08-18T09:19:50Z</time>
      </trkpt>
      <trkpt lat="47.26443" lon="-1.61182">
        <ele>9.3</ele>
        <time>2013-08-18T09:19:52Z</time>
      </trkpt>
      <trkpt lat="47.26454" lon="-1.61161">
        <ele>8.9</ele>
        <time>2013-08-18T09:19:54Z</time>
      </trkpt>
      <trkpt lat="47.26461" lon="-1.61147">
        <ele>8.4</ele>
        <time>2013-08-18T09:19:56Z</time>
      </trkpt>
      <trkpt lat="47.26467" lon="-1.61132">
        <ele>7.6</ele>
        <time>2013-08-18T09:19:58Z</time>
      </trkpt>
      <trkpt lat="47.26472" lon="-1.61117">
        <ele>6</ele>
        <time>2013-08-18T09:20:00Z</time>
      </trkpt>
      <trkpt lat="47.26476" lon="-1.61102">
        <ele>5</ele>
        <time>2013-08-18T09:20:02Z</time>
      </trkpt>
      <trkpt lat="47.26478" lon="-1.61087">
        <ele>4.8</ele>
        <time>2013-08-18T09:20:04Z</time>
      </trkpt>
      <trkpt lat="47.26478" lon="-1.61071">
        <ele>5.5</ele>
        <time>2013-08-18T09:20:06Z</time>
      </trkpt>
      <trkpt lat="47.26479" lon="-1.61056">
        <ele>7.8</ele>
        <time>2013-08-18T09:20:08Z</time>
      </trkpt>
      <trkpt lat="47.26478" lon="-1.61043">
        <ele>10.4</ele>
        <time>2013-08-18T09:20:10Z</time>
      </trkpt>
      <trkpt lat="47.26478" lon="-1.61029">
        <ele>12.6</ele>
        <time>2013-08-18T09:20:12Z</time>
      </trkpt>
      <trkpt lat="47.26478" lon="-1.61014">
        <ele>13</ele>
        <time>2013-08-18T09:20:14Z</time>
      </trkpt>
      <trkpt lat="47.26477" lon="-1.61">
        <ele>13.1</ele>
        <time>2013-08-18T09:20:16Z</time>
      </trkpt>
      <trkpt lat="47.26475" lon="-1.60986">
        <ele>12.9</ele>
        <time>2013-08-18T09:20:18Z</time>
      </trkpt>
      <trkpt lat="47.2647" lon="-1.60975">
        <ele>13.1</ele>
        <time>2013-08-18T09:20:20Z</time>
      </trkpt>
      <trkpt lat="47.26461" lon="-1.6096">
        <ele>11.6</ele>
        <time>2013-08-18T09:20:23Z</time>
      </trkpt>
      <trkpt lat="47.26453" lon="-1.60945">
        <ele>9.6</ele>
        <time>2013-08-18T09:20:26Z</time>
      </trkpt>
      <trkpt lat="47.26446" lon="-1.60934">
        <ele>9.2</ele>
        <time>2013-08-18T09:20:28Z</time>
      </trkpt>
      <trkpt lat="47.26439" lon="-1.60922">
        <ele>8.9</ele>
        <time>2013-08-18T09:20:30Z</time>
      </trkpt>
      <trkpt lat="47.26432" lon="-1.60911">
        <ele>9</ele>
        <time>2013-08-18T09:20:32Z</time>
      </trkpt>
      <trkpt lat="47.26424" lon="-1.60897">
        <ele>7.8</ele>
        <time>2013-08-18T09:20:35Z</time>
      </trkpt>
      <trkpt lat="47.26415" lon="-1.60882">
        <ele>8</ele>
        <time>2013-08-18T09:20:38Z</time>
      </trkpt>
      <trkpt lat="47.26407" lon="-1.60867">
        <ele>8.3</ele>
        <time>2013-08-18T09:20:41Z</time>
      </trkpt>
      <trkpt lat="47.26402" lon="-1.60853">
        <ele>8.3</ele>
        <time>2013-08-18T09:20:44Z</time>
      </trkpt>
      <trkpt lat="47.26397" lon="-1.60837">
        <ele>8.1</ele>
        <time>2013-08-18T09:20:47Z</time>
      </trkpt>
      <trkpt lat="47.26392" lon="-1.6082">
        <ele>6.5</ele>
        <time>2013-08-18T09:20:50Z</time>
      </trkpt>
      <trkpt lat="47.26386" lon="-1.60806">
        <ele>6.3</ele>
        <time>2013-08-18T09:20:53Z</time>
      </trkpt>
      <trkpt lat="47.26378" lon="-1.60804">
        <ele>6.6</ele>
        <time>2013-08-18T09:20:56Z</time>
      </trkpt>
      <trkpt lat="47.26368" lon="-1.60812">
        <ele>7</ele>
        <time>2013-08-18T09:21:00Z</time>
      </trkpt>
      <trkpt lat="47.26361" lon="-1.6082">
        <ele>7.3</ele>
        <time>2013-08-18T09:21:03Z</time>
      </trkpt>
      <trkpt lat="47.26353" lon="-1.60829">
        <ele>7.6</ele>
        <time>2013-08-18T09:21:07Z</time>
      </trkpt>
      <trkpt lat="47.26344" lon="-1.60839">
        <ele>7.7</ele>
        <time>2013-08-18T09:21:11Z</time>
      </trkpt>
      <trkpt lat="47.26336" lon="-1.60851">
        <ele>8.1</ele>
        <time>2013-08-18T09:21:15Z</time>
      </trkpt>
      <trkpt lat="47.26329" lon="-1.6086">
        <ele>8.6</ele>
        <time>2013-08-18T09:21:19Z</time>
      </trkpt>
      <trkpt lat="47.26326" lon="-1.60846">
        <ele>10.9</ele>
        <time>2013-08-18T09:21:47Z</time>
      </trkpt>
      <trkpt lat="47.2633" lon="-1.60833">
        <ele>11.3</ele>
        <time>2013-08-18T09:21:51Z</time>
      </trkpt>
      <trkpt lat="47.26334" lon="-1.60821">
        <ele>11.5</ele>
        <time>2013-08-18T09:21:55Z</time>
      </trkpt>
      <trkpt lat="47.26341" lon="-1.60806">
        <ele>11.8</ele>
        <time>2013-08-18T09:21:59Z</time>
      </trkpt>
      <trkpt lat="47.26345" lon="-1.60792">
        <ele>12</ele>
        <time>2013-08-18T09:22:02Z</time>
      </trkpt>
      <trkpt lat="47.26349" lon="-1.60776">
        <ele>12.1</ele>
        <time>2013-08-18T09:22:05Z</time>
      </trkpt>
      <trkpt lat="47.26352" lon="-1.60761">
        <ele>12.9</ele>
        <time>2013-08-18T09:22:08Z</time>
      </trkpt>
      <trkpt lat="47.26357" lon="-1.60744">
        <ele>13</ele>
        <time>2013-08-18T09:22:11Z</time>
      </trkpt>
      <trkpt lat="47.2636" lon="-1.60728">
        <ele>13.1</ele>
        <time>2013-08-18T09:22:14Z</time>
      </trkpt>
      <trkpt lat="47.26363" lon="-1.60713">
        <ele>13.1</ele>
        <time>2013-08-18T09:22:17Z</time>
      </trkpt>
      <trkpt lat="47.26366" lon="-1.60698">
        <ele>13.1</ele>
        <time>2013-08-18T09:22:20Z</time>
      </trkpt>
      <trkpt lat="47.26365" lon="-1.60683">
        <ele>13.2</ele>
        <time>2013-08-18T09:22:23Z</time>
      </trkpt>
      <trkpt lat="47.26359" lon="-1.60673">
        <ele>13.3</ele>
        <time>2013-08-18T09:22:26Z</time>
      </trkpt>
      <trkpt lat="47.26353" lon="-1.60662">
        <ele>13.3</ele>
        <time>2013-08-18T09:22:29Z</time>
      </trkpt>
      <trkpt lat="47.26345" lon="-1.6065">
        <ele>13.7</ele>
        <time>2013-08-18T09:22:32Z</time>
      </trkpt>
      <trkpt lat="47.26335" lon="-1.60644">
        <ele>13.7</ele>
        <time>2013-08-18T09:22:36Z</time>
      </trkpt>
      <trkpt lat="47.26325" lon="-1.60647">
        <ele>13.5</ele>
        <time>2013-08-18T09:22:38Z</time>
      </trkpt>
      <trkpt lat="47.26316" lon="-1.60654">
        <ele>13</ele>
        <time>2013-08-18T09:22:42Z</time>
      </trkpt>
      <trkpt lat="47.26309" lon="-1.60643">
        <ele>12.5</ele>
        <time>2013-08-18T09:22:49Z</time>
      </trkpt>
      <trkpt lat="47.26303" lon="-1.6063">
        <ele>12.1</ele>
        <time>2013-08-18T09:22:52Z</time>
      </trkpt>
      <trkpt lat="47.26297" lon="-1.60617">
        <ele>11.7</ele>
        <time>2013-08-18T09:22:55Z</time>
      </trkpt>
      <trkpt lat="47.26289" lon="-1.60611">
        <ele>11.6</ele>
        <time>2013-08-18T09:22:59Z</time>
      </trkpt>
      <trkpt lat="47.26277" lon="-1.60607">
        <ele>11.3</ele>
        <time>2013-08-18T09:23:03Z</time>
      </trkpt>
      <trkpt lat="47.2628" lon="-1.60593">
        <ele>9.1</ele>
        <time>2013-08-18T09:23:24Z</time>
      </trkpt>
      <trkpt lat="47.26281" lon="-1.60579">
        <ele>8.3</ele>
        <time>2013-08-18T09:23:27Z</time>
      </trkpt>
      <trkpt lat="47.26283" lon="-1.60561">
        <ele>7.6</ele>
        <time>2013-08-18T09:23:30Z</time>
      </trkpt>
      <trkpt lat="47.26282" lon="-1.60545">
        <ele>7.2</ele>
        <time>2013-08-18T09:23:32Z</time>
      </trkpt>
      <trkpt lat="47.26284" lon="-1.60529">
        <ele>6.1</ele>
        <time>2013-08-18T09:23:34Z</time>
      </trkpt>
      <trkpt lat="47.26283" lon="-1.6051">
        <ele>7.6</ele>
        <time>2013-08-18T09:23:37Z</time>
      </trkpt>
      <trkpt lat="47.26281" lon="-1.60496">
        <ele>9.5</ele>
        <time>2013-08-18T09:23:39Z</time>
      </trkpt>
      <trkpt lat="47.26277" lon="-1.60477">
        <ele>9.8</ele>
        <time>2013-08-18T09:23:42Z</time>
      </trkpt>
      <trkpt lat="47.26277" lon="-1.60462">
        <ele>9.5</ele>
        <time>2013-08-18T09:23:45Z</time>
      </trkpt>
      <trkpt lat="47.26278" lon="-1.60448">
        <ele>9.5</ele>
        <time>2013-08-18T09:23:49Z</time>
      </trkpt>
      <trkpt lat="47.26284" lon="-1.60438">
        <ele>13</ele>
        <time>2013-08-18T09:24:18Z</time>
      </trkpt>
      <trkpt lat="47.26292" lon="-1.60424">
        <ele>13.8</ele>
        <time>2013-08-18T09:24:23Z</time>
      </trkpt>
      <trkpt lat="47.26294" lon="-1.60406">
        <ele>13.9</ele>
        <time>2013-08-18T09:24:26Z</time>
      </trkpt>
      <trkpt lat="47.26296" lon="-1.60391">
        <ele>13.9</ele>
        <time>2013-08-18T09:24:29Z</time>
      </trkpt>
      <trkpt lat="47.26295" lon="-1.60375">
        <ele>13.9</ele>
        <time>2013-08-18T09:24:35Z</time>
      </trkpt>
      <trkpt lat="47.26296" lon="-1.60362">
        <ele>13.5</ele>
        <time>2013-08-18T09:24:39Z</time>
      </trkpt>
      <trkpt lat="47.26304" lon="-1.6035">
        <ele>12.8</ele>
        <time>2013-08-18T09:24:45Z</time>
      </trkpt>
      <trkpt lat="47.2631" lon="-1.60338">
        <ele>12.1</ele>
        <time>2013-08-18T09:24:49Z</time>
      </trkpt>
      <trkpt lat="47.26308" lon="-1.60353">
        <ele>10</ele>
        <time>2013-08-18T09:25:30Z</time>
      </trkpt>
      <trkpt lat="47.26306" lon="-1.60339">
        <ele>8</ele>
        <time>2013-08-18T09:26:11Z</time>
      </trkpt>
      <trkpt lat="47.263" lon="-1.60329">
        <ele>7.2</ele>
        <time>2013-08-18T09:26:20Z</time>
      </trkpt>
      <trkpt lat="47.26298" lon="-1.60315">
        <ele>6.8</ele>
        <time>2013-08-18T09:26:26Z</time>
      </trkpt>
      <trkpt lat="47.26296" lon="-1.603">
        <ele>6.7</ele>
        <time>2013-08-18T09:26:33Z</time>
      </trkpt>
      <trkpt lat="47.26291" lon="-1.60286">
        <ele>6.6</ele>
        <time>2013-08-18T09:26:37Z</time>
      </trkpt>
      <trkpt lat="47.26283" lon="-1.60278">
        <ele>6.1</ele>
        <time>2013-08-18T09:26:45Z</time>
      </trkpt>
      <trkpt lat="47.26276" lon="-1.6027">
        <ele>5.4</ele>
        <time>2013-08-18T09:26:53Z</time>
      </trkpt>
      <trkpt lat="47.26273" lon="-1.60283">
        <ele>7.3</ele>
        <time>2013-08-18T09:27:28Z</time>
      </trkpt>
      <trkpt lat="47.26275" lon="-1.60296">
        <ele>9.8</ele>
        <time>2013-08-18T09:27:47Z</time>
      </trkpt>
      <trkpt lat="47.26276" lon="-1.6031">
        <ele>11</ele>
        <time>2013-08-18T09:27:58Z</time>
      </trkpt>
      <trkpt lat="47.26268" lon="-1.60313">
        <ele>12</ele>
        <time>2013-08-18T09:28:21Z</time>
      </trkpt>
      <trkpt lat="47.26258" lon="-1.60308">
        <ele>13</ele>
        <time>2013-08-18T09:28:32Z</time>
      </trkpt>
      <trkpt lat="47.26248" lon="-1.60309">
        <ele>13.3</ele>
        <time>2013-08-18T09:28:38Z</time>
      </trkpt>
      <trkpt lat="47.26239" lon="-1.60312">
        <ele>13.6</ele>
        <time>2013-08-18T09:28:47Z</time>
      </trkpt>
      <trkpt lat="47.26234" lon="-1.60324">
        <ele>14.2</ele>
        <time>2013-08-18T09:28:57Z</time>
      </trkpt>
      <trkpt lat="47.26226" lon="-1.60331">
        <ele>14.3</ele>
        <time>2013-08-18T09:29:06Z</time>
      </trkpt>
      <trkpt lat="47.26223" lon="-1.60343">
        <ele>14.7</ele>
        <time>2013-08-18T09:29:16Z</time>
      </trkpt>
      <trkpt lat="47.26219" lon="-1.60356">
        <ele>15.3</ele>
        <time>2013-08-18T09:29:25Z</time>
      </trkpt>
      <trkpt lat="47.26217" lon="-1.6037">
        <ele>15.6</ele>
        <time>2013-08-18T09:29:34Z</time>
      </trkpt>
      <trkpt lat="47.26212" lon="-1.60384">
        <ele>17.2</ele>
        <time>2013-08-18T09:29:44Z</time>
      </trkpt>
      <trkpt lat="47.26203" lon="-1.6039">
        <ele>16.4</ele>
        <time>2013-08-18T09:29:55Z</time>
      </trkpt>
      <trkpt lat="47.26196" lon="-1.60398">
        <ele>15.7</ele>
        <time>2013-08-18T09:30:05Z</time>
      </trkpt>
      <trkpt lat="47.26192" lon="-1.60411">
        <ele>17</ele>
        <time>2013-08-18T09:30:33Z</time>
      </trkpt>
      <trkpt lat="47.2619" lon="-1.60424">
        <ele>17.1</ele>
        <time>2013-08-18T09:30:41Z</time>
      </trkpt>
      <trkpt lat="47.26188" lon="-1.60439">
        <ele>17.1</ele>
        <time>2013-08-18T09:30:47Z</time>
      </trkpt>
      <trkpt lat="47.26182" lon="-1.60455">
        <ele>18.1</ele>
        <time>2013-08-18T09:30:50Z</time>
      </trkpt>
      <trkpt lat="47.26173" lon="-1.60469">
        <ele>19</ele>
        <time>2013-08-18T09:30:52Z</time>
      </trkpt>
      <trkpt lat="47.26162" lon="-1.60482">
        <ele>18.9</ele>
        <time>2013-08-18T09:30:54Z</time>
      </trkpt>
      <trkpt lat="47.26149" lon="-1.60494">
        <ele>18.6</ele>
        <time>2013-08-18T09:30:56Z</time>
      </trkpt>
      <trkpt lat="47.26141" lon="-1.60501">
        <ele>17.4</ele>
        <time>2013-08-18T09:30:57Z</time>
      </trkpt>
      <trkpt lat="47.26127" lon="-1.60518">
        <ele>14.8</ele>
        <time>2013-08-18T09:30:59Z</time>
      </trkpt>
      <trkpt lat="47.2612" lon="-1.60527">
        <ele>13.7</ele>
        <time>2013-08-18T09:31:00Z</time>
      </trkpt>
      <trkpt lat="47.26113" lon="-1.60539">
        <ele>12.9</ele>
        <time>2013-08-18T09:31:01Z</time>
      </trkpt>
      <trkpt lat="47.26106" lon="-1.6055">
        <ele>12.5</ele>
        <time>2013-08-18T09:31:02Z</time>
      </trkpt>
      <trkpt lat="47.26099" lon="-1.60561">
        <ele>12</ele>
        <time>2013-08-18T09:31:03Z</time>
      </trkpt>
      <trkpt lat="47.26092" lon="-1.60573">
        <ele>11.7</ele>
        <time>2013-08-18T09:31:04Z</time>
      </trkpt>
      <trkpt lat="47.26085" lon="-1.60587">
        <ele>11.3</ele>
        <time>2013-08-18T09:31:05Z</time>
      </trkpt>
      <trkpt lat="47.26078" lon="-1.606">
        <ele>11.2</ele>
        <time>2013-08-18T09:31:06Z</time>
      </trkpt>
      <trkpt lat="47.26071" lon="-1.60613">
        <ele>11</ele>
        <time>2013-08-18T09:31:07Z</time>
      </trkpt>
      <trkpt lat="47.26059" lon="-1.60642">
        <ele>10.5</ele>
        <time>2013-08-18T09:31:09Z</time>
      </trkpt>
      <trkpt lat="47.26058" lon="-1.60659">
        <ele>10.1</ele>
        <time>2013-08-18T09:31:10Z</time>
      </trkpt>
      <trkpt lat="47.26107" lon="-1.60493">
        <ele>8.6</ele>
        <time>2013-08-18T09:31:19Z</time>
      </trkpt>
      <trkpt lat="47.26119" lon="-1.60467">
        <ele>8.6</ele>
        <time>2013-08-18T09:31:21Z</time>
      </trkpt>
      <trkpt lat="47.26215" lon="-1.60382">
        <ele>8.6</ele>
        <time>2013-08-18T09:31:30Z</time>
      </trkpt>
      <trkpt lat="47.26196" lon="-1.60378">
        <ele>7.9</ele>
        <time>2013-08-18T09:31:43Z</time>
      </trkpt>
      <trkpt lat="47.26181" lon="-1.60373">
        <ele>7.9</ele>
        <time>2013-08-18T09:31:48Z</time>
      </trkpt>
      <trkpt lat="47.262" lon="-1.60392">
        <ele>7.8</ele>
        <time>2013-08-18T09:31:53Z</time>
      </trkpt>
      <trkpt lat="47.26209" lon="-1.60386">
        <ele>20.6</ele>
        <time>2013-08-18T09:35:50Z</time>
      </trkpt>
      <trkpt lat="47.26218" lon="-1.60378">
        <ele>21.3</ele>
        <time>2013-08-18T09:35:53Z</time>
      </trkpt>
      <trkpt lat="47.26224" lon="-1.60367">
        <ele>21.8</ele>
        <time>2013-08-18T09:35:56Z</time>
      </trkpt>
      <trkpt lat="47.26235" lon="-1.60355">
        <ele>22.9</ele>
        <time>2013-08-18T09:36:13Z</time>
      </trkpt>
      <trkpt lat="47.26242" lon="-1.60346">
        <ele>24.6</ele>
        <time>2013-08-18T09:36:30Z</time>
      </trkpt>
      <trkpt lat="47.26252" lon="-1.60344">
        <ele>25.1</ele>
        <time>2013-08-18T09:36:36Z</time>
      </trkpt>
      <trkpt lat="47.26261" lon="-1.60342">
        <ele>25.2</ele>
        <time>2013-08-18T09:36:42Z</time>
      </trkpt>
      <trkpt lat="47.26269" lon="-1.60335">
        <ele>24.5</ele>
        <time>2013-08-18T09:36:50Z</time>
      </trkpt>
      <trkpt lat="47.26274" lon="-1.60323">
        <ele>23.8</ele>
        <time>2013-08-18T09:36:56Z</time>
      </trkpt>
      <trkpt lat="47.26282" lon="-1.60315">
        <ele>23</ele>
        <time>2013-08-18T09:37:00Z</time>
      </trkpt>
      <trkpt lat="47.26291" lon="-1.60315">
        <ele>22</ele>
        <time>2013-08-18T09:37:06Z</time>
      </trkpt>
      <trkpt lat="47.26297" lon="-1.60305">
        <ele>20.8</ele>
        <time>2013-08-18T09:37:23Z</time>
      </trkpt>
      <trkpt lat="47.26294" lon="-1.60291">
        <ele>18.8</ele>
        <time>2013-08-18T09:38:16Z</time>
      </trkpt>
      <trkpt lat="47.26292" lon="-1.60278">
        <ele>18.4</ele>
        <time>2013-08-18T09:38:20Z</time>
      </trkpt>
      <trkpt lat="47.26287" lon="-1.60264">
        <ele>17.8</ele>
        <time>2013-08-18T09:38:24Z</time>
      </trkpt>
      <trkpt lat="47.26283" lon="-1.60243">
        <ele>13.1</ele>
        <time>2013-08-18T09:38:27Z</time>
      </trkpt>
      <trkpt lat="47.26278" lon="-1.60228">
        <ele>10.7</ele>
        <time>2013-08-18T09:38:29Z</time>
      </trkpt>
      <trkpt lat="47.26271" lon="-1.60216">
        <ele>10.3</ele>
        <time>2013-08-18T09:38:32Z</time>
      </trkpt>
      <trkpt lat="47.26263" lon="-1.60204">
        <ele>9.6</ele>
        <time>2013-08-18T09:38:36Z</time>
      </trkpt>
      <trkpt lat="47.26256" lon="-1.60193">
        <ele>8.8</ele>
        <time>2013-08-18T09:38:39Z</time>
      </trkpt>
      <trkpt lat="47.26247" lon="-1.60182">
        <ele>8</ele>
        <time>2013-08-18T09:38:43Z</time>
      </trkpt>
      <trkpt lat="47.26239" lon="-1.60172">
        <ele>7.4</ele>
        <time>2013-08-18T09:38:46Z</time>
      </trkpt>
      <trkpt lat="47.2623" lon="-1.6016">
        <ele>6.9</ele>
        <time>2013-08-18T09:38:50Z</time>
      </trkpt>
      <trkpt lat="47.26222" lon="-1.6015">
        <ele>6.8</ele>
        <time>2013-08-18T09:38:53Z</time>
      </trkpt>
      <trkpt lat="47.26214" lon="-1.60143">
        <ele>6.3</ele>
        <time>2013-08-18T09:38:56Z</time>
      </trkpt>
      <trkpt lat="47.26204" lon="-1.60134">
        <ele>5.8</ele>
        <time>2013-08-18T09:39:00Z</time>
      </trkpt>
      <trkpt lat="47.26198" lon="-1.60123">
        <ele>5.6</ele>
        <time>2013-08-18T09:39:04Z</time>
      </trkpt>
      <trkpt lat="47.26193" lon="-1.6011">
        <ele>5.5</ele>
        <time>2013-08-18T09:39:09Z</time>
      </trkpt>
      <trkpt lat="47.26186" lon="-1.60101">
        <ele>4.2</ele>
        <time>2013-08-18T09:39:20Z</time>
      </trkpt>
      <trkpt lat="47.26182" lon="-1.60087">
        <ele>3.5</ele>
        <time>2013-08-18T09:39:31Z</time>
      </trkpt>
      <trkpt lat="47.26182" lon="-1.6007">
        <ele>3</ele>
        <time>2013-08-18T09:39:34Z</time>
      </trkpt>
      <trkpt lat="47.26181" lon="-1.6005">
        <ele>1.7</ele>
        <time>2013-08-18T09:39:37Z</time>
      </trkpt>
      <trkpt lat="47.26179" lon="-1.6003">
        <ele>1.6</ele>
        <time>2013-08-18T09:39:40Z</time>
      </trkpt>
      <trkpt lat="47.26179" lon="-1.60016">
        <ele>14.3</ele>
        <time>2013-08-18T09:39:42Z</time>
      </trkpt>
      <trkpt lat="47.26177" lon="-1.59997">
        <ele>-0.1</ele>
        <time>2013-08-18T09:39:44Z</time>
      </trkpt>
      <trkpt lat="47.26179" lon="-1.59978">
        <ele>-0.2</ele>
        <time>2013-08-18T09:39:47Z</time>
      </trkpt>
      <trkpt lat="47.26183" lon="-1.59961">
        <ele>-0.3</ele>
        <time>2013-08-18T09:39:50Z</time>
      </trkpt>
      <trkpt lat="47.26185" lon="-1.59945">
        <ele>12.7</ele>
        <time>2013-08-18T09:39:53Z</time>
      </trkpt>
      <trkpt lat="47.26188" lon="-1.59926">
        <ele>0.6</ele>
        <time>2013-08-18T09:39:56Z</time>
      </trkpt>
      <trkpt lat="47.26191" lon="-1.5991">
        <ele>2</ele>
        <time>2013-08-18T09:39:58Z</time>
      </trkpt>
      <trkpt lat="47.26195" lon="-1.59895">
        <ele>3.2</ele>
        <time>2013-08-18T09:40:00Z</time>
      </trkpt>
      <trkpt lat="47.26195" lon="-1.59878">
        <ele>4.1</ele>
        <time>2013-08-18T09:40:03Z</time>
      </trkpt>
      <trkpt lat="47.262" lon="-1.59864">
        <ele>4.7</ele>
        <time>2013-08-18T09:40:08Z</time>
      </trkpt>
      <trkpt lat="47.26206" lon="-1.59853">
        <ele>5.4</ele>
        <time>2013-08-18T09:40:11Z</time>
      </trkpt>
      <trkpt lat="47.26216" lon="-1.59844">
        <ele>6.3</ele>
        <time>2013-08-18T09:40:15Z</time>
      </trkpt>
      <trkpt lat="47.26225" lon="-1.59836">
        <ele>7</ele>
        <time>2013-08-18T09:40:19Z</time>
      </trkpt>
      <trkpt lat="47.26234" lon="-1.59828">
        <ele>7.4</ele>
        <time>2013-08-18T09:40:23Z</time>
      </trkpt>
      <trkpt lat="47.26243" lon="-1.59818">
        <ele>7.5</ele>
        <time>2013-08-18T09:40:28Z</time>
      </trkpt>
      <trkpt lat="47.26251" lon="-1.59806">
        <ele>7.8</ele>
        <time>2013-08-18T09:40:32Z</time>
      </trkpt>
      <trkpt lat="47.26249" lon="-1.59792">
        <ele>7.9</ele>
        <time>2013-08-18T09:40:36Z</time>
      </trkpt>
      <trkpt lat="47.26242" lon="-1.59778">
        <ele>8.2</ele>
        <time>2013-08-18T09:40:40Z</time>
      </trkpt>
      <trkpt lat="47.26233" lon="-1.59767">
        <ele>7.6</ele>
        <time>2013-08-18T09:40:43Z</time>
      </trkpt>
      <trkpt lat="47.26225" lon="-1.59756">
        <ele>7.5</ele>
        <time>2013-08-18T09:40:45Z</time>
      </trkpt>
      <trkpt lat="47.26217" lon="-1.59745">
        <ele>8.2</ele>
        <time>2013-08-18T09:40:47Z</time>
      </trkpt>
      <trkpt lat="47.26209" lon="-1.59736">
        <ele>8.8</ele>
        <time>2013-08-18T09:40:49Z</time>
      </trkpt>
      <trkpt lat="47.262" lon="-1.59729">
        <ele>9</ele>
        <time>2013-08-18T09:40:51Z</time>
      </trkpt>
      <trkpt lat="47.26189" lon="-1.59723">
        <ele>9.4</ele>
        <time>2013-08-18T09:40:53Z</time>
      </trkpt>
      <trkpt lat="47.26178" lon="-1.59721">
        <ele>10.5</ele>
        <time>2013-08-18T09:40:55Z</time>
      </trkpt>
      <trkpt lat="47.26167" lon="-1.59721">
        <ele>11.8</ele>
        <time>2013-08-18T09:40:57Z</time>
      </trkpt>
      <trkpt lat="47.26157" lon="-1.59719">
        <ele>12.4</ele>
        <time>2013-08-18T09:40:59Z</time>
      </trkpt>
      <trkpt lat="47.26144" lon="-1.59717">
        <ele>13.2</ele>
        <time>2013-08-18T09:41:01Z</time>
      </trkpt>
      <trkpt lat="47.2613" lon="-1.59716">
        <ele>12.7</ele>
        <time>2013-08-18T09:41:03Z</time>
      </trkpt>
      <trkpt lat="47.26116" lon="-1.59713">
        <ele>12.1</ele>
        <time>2013-08-18T09:41:05Z</time>
      </trkpt>
      <trkpt lat="47.261" lon="-1.5971">
        <ele>11.9</ele>
        <time>2013-08-18T09:41:07Z</time>
      </trkpt>
      <trkpt lat="47.26085" lon="-1.59705">
        <ele>12.1</ele>
        <time>2013-08-18T09:41:09Z</time>
      </trkpt>
      <trkpt lat="47.26071" lon="-1.597">
        <ele>12.4</ele>
        <time>2013-08-18T09:41:11Z</time>
      </trkpt>
      <trkpt lat="47.26058" lon="-1.59692">
        <ele>13.3</ele>
        <time>2013-08-18T09:41:13Z</time>
      </trkpt>
      <trkpt lat="47.26044" lon="-1.5968">
        <ele>12.6</ele>
        <time>2013-08-18T09:41:15Z</time>
      </trkpt>
      <trkpt lat="47.2603" lon="-1.59668">
        <ele>11.5</ele>
        <time>2013-08-18T09:41:17Z</time>
      </trkpt>
      <trkpt lat="47.26017" lon="-1.59656">
        <ele>11.5</ele>
        <time>2013-08-18T09:41:19Z</time>
      </trkpt>
      <trkpt lat="47.26004" lon="-1.59642">
        <ele>11.4</ele>
        <time>2013-08-18T09:41:21Z</time>
      </trkpt>
      <trkpt lat="47.25991" lon="-1.59626">
        <ele>10.6</ele>
        <time>2013-08-18T09:41:23Z</time>
      </trkpt>
      <trkpt lat="47.25982" lon="-1.59606">
        <ele>9.1</ele>
        <time>2013-08-18T09:41:25Z</time>
      </trkpt>
      <trkpt lat="47.25976" lon="-1.59587">
        <ele>7.3</ele>
        <time>2013-08-18T09:41:27Z</time>
      </trkpt>
      <trkpt lat="47.25973" lon="-1.59568">
        <ele>6.4</ele>
        <time>2013-08-18T09:41:29Z</time>
      </trkpt>
      <trkpt lat="47.25972" lon="-1.59548">
        <ele>5.3</ele>
        <time>2013-08-18T09:41:31Z</time>
      </trkpt>
      <trkpt lat="47.25972" lon="-1.59532">
        <ele>3.8</ele>
        <time>2013-08-18T09:41:33Z</time>
      </trkpt>
      <trkpt lat="47.25973" lon="-1.59512">
        <ele>3.7</ele>
        <time>2013-08-18T09:41:35Z</time>
      </trkpt>
      <trkpt lat="47.25973" lon="-1.59491">
        <ele>5.6</ele>
        <time>2013-08-18T09:41:37Z</time>
      </trkpt>
      <trkpt lat="47.2597" lon="-1.59474">
        <ele>8.2</ele>
        <time>2013-08-18T09:41:39Z</time>
      </trkpt>
      <trkpt lat="47.25967" lon="-1.59457">
        <ele>9.3</ele>
        <time>2013-08-18T09:41:41Z</time>
      </trkpt>
      <trkpt lat="47.25969" lon="-1.59439">
        <ele>9</ele>
        <time>2013-08-18T09:41:43Z</time>
      </trkpt>
      <trkpt lat="47.25976" lon="-1.59424">
        <ele>8.1</ele>
        <time>2013-08-18T09:41:45Z</time>
      </trkpt>
      <trkpt lat="47.25983" lon="-1.59409">
        <ele>8.1</ele>
        <time>2013-08-18T09:41:47Z</time>
      </trkpt>
      <trkpt lat="47.25991" lon="-1.59393">
        <ele>7.6</ele>
        <time>2013-08-18T09:41:49Z</time>
      </trkpt>
      <trkpt lat="47.26" lon="-1.59378">
        <ele>6.6</ele>
        <time>2013-08-18T09:41:51Z</time>
      </trkpt>
      <trkpt lat="47.26008" lon="-1.59365">
        <ele>6.1</ele>
        <time>2013-08-18T09:41:53Z</time>
      </trkpt>
      <trkpt lat="47.26016" lon="-1.5935">
        <ele>5.6</ele>
        <time>2013-08-18T09:41:55Z</time>
      </trkpt>
      <trkpt lat="47.26023" lon="-1.59335">
        <ele>5.6</ele>
        <time>2013-08-18T09:41:57Z</time>
      </trkpt>
      <trkpt lat="47.26027" lon="-1.5932">
        <ele>5.6</ele>
        <time>2013-08-18T09:41:59Z</time>
      </trkpt>
      <trkpt lat="47.2603" lon="-1.59305">
        <ele>4.4</ele>
        <time>2013-08-18T09:42:01Z</time>
      </trkpt>
      <trkpt lat="47.26028" lon="-1.59289">
        <ele>3.4</ele>
        <time>2013-08-18T09:42:03Z</time>
      </trkpt>
      <trkpt lat="47.26026" lon="-1.59272">
        <ele>2</ele>
        <time>2013-08-18T09:42:05Z</time>
      </trkpt>
      <trkpt lat="47.26023" lon="-1.59257">
        <ele>0.8</ele>
        <time>2013-08-18T09:42:07Z</time>
      </trkpt>
      <trkpt lat="47.2602" lon="-1.59241">
        <ele>0.8</ele>
        <time>2013-08-18T09:42:09Z</time>
      </trkpt>
      <trkpt lat="47.26015" lon="-1.59228">
        <ele>1.4</ele>
        <time>2013-08-18T09:42:11Z</time>
      </trkpt>
      <trkpt lat="47.26006" lon="-1.5922">
        <ele>0.3</ele>
        <time>2013-08-18T09:42:13Z</time>
      </trkpt>
      <trkpt lat="47.25996" lon="-1.59215">
        <ele>-0.8</ele>
        <time>2013-08-18T09:42:15Z</time>
      </trkpt>
      <trkpt lat="47.25985" lon="-1.59211">
        <ele>-2</ele>
        <time>2013-08-18T09:42:17Z</time>
      </trkpt>
      <trkpt lat="47.25973" lon="-1.59209">
        <ele>-2.9</ele>
        <time>2013-08-18T09:42:19Z</time>
      </trkpt>
      <trkpt lat="47.2596" lon="-1.59206">
        <ele>-3.6</ele>
        <time>2013-08-18T09:42:21Z</time>
      </trkpt>
      <trkpt lat="47.25947" lon="-1.59204">
        <ele>-4.3</ele>
        <time>2013-08-18T09:42:23Z</time>
      </trkpt>
      <trkpt lat="47.25935" lon="-1.59206">
        <ele>-6.6</ele>
        <time>2013-08-18T09:42:25Z</time>
      </trkpt>
      <trkpt lat="47.25924" lon="-1.59212">
        <ele>-9</ele>
        <time>2013-08-18T09:42:27Z</time>
      </trkpt>
      <trkpt lat="47.25916" lon="-1.59223">
        <ele>-11</ele>
        <time>2013-08-18T09:42:29Z</time>
      </trkpt>
      <trkpt lat="47.25908" lon="-1.59236">
        <ele>-10.8</ele>
        <time>2013-08-18T09:42:31Z</time>
      </trkpt>
      <trkpt lat="47.25901" lon="-1.59251">
        <ele>-9.7</ele>
        <time>2013-08-18T09:42:33Z</time>
      </trkpt>
      <trkpt lat="47.25891" lon="-1.59262">
        <ele>-8.7</ele>
        <time>2013-08-18T09:42:35Z</time>
      </trkpt>
      <trkpt lat="47.25881" lon="-1.59271">
        <ele>-8.1</ele>
        <time>2013-08-18T09:42:37Z</time>
      </trkpt>
      <trkpt lat="47.2587" lon="-1.59276">
        <ele>-7.8</ele>
        <time>2013-08-18T09:42:39Z</time>
      </trkpt>
      <trkpt lat="47.2586" lon="-1.59278">
        <ele>-7.7</ele>
        <time>2013-08-18T09:42:41Z</time>
      </trkpt>
      <trkpt lat="47.25848" lon="-1.59271">
        <ele>-10.2</ele>
        <time>2013-08-18T09:42:44Z</time>
      </trkpt>
      <trkpt lat="47.25839" lon="-1.59265">
        <ele>-12.7</ele>
        <time>2013-08-18T09:42:46Z</time>
      </trkpt>
      <trkpt lat="47.2583" lon="-1.59258">
        <ele>-13.8</ele>
        <time>2013-08-18T09:42:48Z</time>
      </trkpt>
      <trkpt lat="47.25821" lon="-1.59249">
        <ele>-15.7</ele>
        <time>2013-08-18T09:42:50Z</time>
      </trkpt>
      <trkpt lat="47.25813" lon="-1.59236">
        <ele>-17.5</ele>
        <time>2013-08-18T09:42:52Z</time>
      </trkpt>
      <trkpt lat="47.25804" lon="-1.59221">
        <ele>-19.5</ele>
        <time>2013-08-18T09:42:54Z</time>
      </trkpt>
      <trkpt lat="47.25798" lon="-1.59208">
        <ele>-19.2</ele>
        <time>2013-08-18T09:42:56Z</time>
      </trkpt>
      <trkpt lat="47.25791" lon="-1.59196">
        <ele>-19.5</ele>
        <time>2013-08-18T09:42:58Z</time>
      </trkpt>
      <trkpt lat="47.25784" lon="-1.59183">
        <ele>-19.9</ele>
        <time>2013-08-18T09:43:00Z</time>
      </trkpt>
      <trkpt lat="47.25777" lon="-1.5917">
        <ele>-19.4</ele>
        <time>2013-08-18T09:43:02Z</time>
      </trkpt>
      <trkpt lat="47.25768" lon="-1.5916">
        <ele>-18.1</ele>
        <time>2013-08-18T09:43:05Z</time>
      </trkpt>
      <trkpt lat="47.25759" lon="-1.5915">
        <ele>-17.9</ele>
        <time>2013-08-18T09:43:09Z</time>
      </trkpt>
      <trkpt lat="47.25749" lon="-1.59141">
        <ele>-17.8</ele>
        <time>2013-08-18T09:43:12Z</time>
      </trkpt>
      <trkpt lat="47.2574" lon="-1.59132">
        <ele>-17.6</ele>
        <time>2013-08-18T09:43:15Z</time>
      </trkpt>
      <trkpt lat="47.25732" lon="-1.59122">
        <ele>-17.3</ele>
        <time>2013-08-18T09:43:18Z</time>
      </trkpt>
      <trkpt lat="47.25729" lon="-1.59108">
        <ele>-16.9</ele>
        <time>2013-08-18T09:43:22Z</time>
      </trkpt>
      <trkpt lat="47.25732" lon="-1.59093">
        <ele>-15.8</ele>
        <time>2013-08-18T09:43:26Z</time>
      </trkpt>
      <trkpt lat="47.25732" lon="-1.59074">
        <ele>-14.9</ele>
        <time>2013-08-18T09:43:29Z</time>
      </trkpt>
      <trkpt lat="47.25723" lon="-1.59065">
        <ele>-13.8</ele>
        <time>2013-08-18T09:43:33Z</time>
      </trkpt>
      <trkpt lat="47.25714" lon="-1.59066">
        <ele>-12.8</ele>
        <time>2013-08-18T09:43:37Z</time>
      </trkpt>
      <trkpt lat="47.25703" lon="-1.59061">
        <ele>-12.1</ele>
        <time>2013-08-18T09:43:40Z</time>
      </trkpt>
      <trkpt lat="47.25694" lon="-1.59055">
        <ele>-11.7</ele>
        <time>2013-08-18T09:43:42Z</time>
      </trkpt>
      <trkpt lat="47.25685" lon="-1.59047">
        <ele>-11.3</ele>
        <time>2013-08-18T09:43:44Z</time>
      </trkpt>
      <trkpt lat="47.25678" lon="-1.59036">
        <ele>-7.1</ele>
        <time>2013-08-18T09:43:46Z</time>
      </trkpt>
      <trkpt lat="47.25673" lon="-1.59019">
        <ele>-4.4</ele>
        <time>2013-08-18T09:43:48Z</time>
      </trkpt>
      <trkpt lat="47.25668" lon="-1.59">
        <ele>-2.2</ele>
        <time>2013-08-18T09:43:50Z</time>
      </trkpt>
      <trkpt lat="47.25663" lon="-1.58983">
        <ele>-0.3</ele>
        <time>2013-08-18T09:43:52Z</time>
      </trkpt>
      <trkpt lat="47.25658" lon="-1.58968">
        <ele>0.7</ele>
        <time>2013-08-18T09:43:54Z</time>
      </trkpt>
      <trkpt lat="47.25649" lon="-1.58956">
        <ele>1.6</ele>
        <time>2013-08-18T09:43:57Z</time>
      </trkpt>
      <trkpt lat="47.25642" lon="-1.58947">
        <ele>1.6</ele>
        <time>2013-08-18T09:44:01Z</time>
      </trkpt>
      <trkpt lat="47.25638" lon="-1.58934">
        <ele>1.5</ele>
        <time>2013-08-18T09:44:04Z</time>
      </trkpt>
      <trkpt lat="47.2564" lon="-1.58919">
        <ele>1.4</ele>
        <time>2013-08-18T09:44:08Z</time>
      </trkpt>
      <trkpt lat="47.25648" lon="-1.58909">
        <ele>1.3</ele>
        <time>2013-08-18T09:44:12Z</time>
      </trkpt>
      <trkpt lat="47.25657" lon="-1.58899">
        <ele>1.6</ele>
        <time>2013-08-18T09:44:16Z</time>
      </trkpt>
      <trkpt lat="47.25663" lon="-1.58886">
        <ele>2.4</ele>
        <time>2013-08-18T09:44:20Z</time>
      </trkpt>
      <trkpt lat="47.25657" lon="-1.5887">
        <ele>2.9</ele>
        <time>2013-08-18T09:44:24Z</time>
      </trkpt>
      <trkpt lat="47.25649" lon="-1.58857">
        <ele>3.1</ele>
        <time>2013-08-18T09:44:27Z</time>
      </trkpt>
      <trkpt lat="47.25642" lon="-1.58844">
        <ele>3.4</ele>
        <time>2013-08-18T09:44:30Z</time>
      </trkpt>
      <trkpt lat="47.25634" lon="-1.58832">
        <ele>3.6</ele>
        <time>2013-08-18T09:44:33Z</time>
      </trkpt>
      <trkpt lat="47.25625" lon="-1.58819">
        <ele>4.7</ele>
        <time>2013-08-18T09:44:36Z</time>
      </trkpt>
      <trkpt lat="47.25614" lon="-1.58826">
        <ele>5</ele>
        <time>2013-08-18T09:44:41Z</time>
      </trkpt>
      <trkpt lat="47.25605" lon="-1.58832">
        <ele>4.9</ele>
        <time>2013-08-18T09:44:44Z</time>
      </trkpt>
      <trkpt lat="47.25595" lon="-1.58832">
        <ele>4.8</ele>
        <time>2013-08-18T09:44:47Z</time>
      </trkpt>
      <trkpt lat="47.25582" lon="-1.58832">
        <ele>4.1</ele>
        <time>2013-08-18T09:44:50Z</time>
      </trkpt>
      <trkpt lat="47.25572" lon="-1.58832">
        <ele>4</ele>
        <time>2013-08-18T09:44:52Z</time>
      </trkpt>
      <trkpt lat="47.25562" lon="-1.58833">
        <ele>3.8</ele>
        <time>2013-08-18T09:44:54Z</time>
      </trkpt>
      <trkpt lat="47.25552" lon="-1.58837">
        <ele>3.6</ele>
        <time>2013-08-18T09:44:57Z</time>
      </trkpt>
      <trkpt lat="47.25546" lon="-1.58855">
        <ele>3.4</ele>
        <time>2013-08-18T09:45:00Z</time>
      </trkpt>
      <trkpt lat="47.25542" lon="-1.58867">
        <ele>3.2</ele>
        <time>2013-08-18T09:45:02Z</time>
      </trkpt>
      <trkpt lat="47.25538" lon="-1.58884">
        <ele>2.7</ele>
        <time>2013-08-18T09:45:05Z</time>
      </trkpt>
      <trkpt lat="47.25536" lon="-1.589">
        <ele>2.9</ele>
        <time>2013-08-18T09:45:07Z</time>
      </trkpt>
      <trkpt lat="47.25534" lon="-1.58914">
        <ele>3.1</ele>
        <time>2013-08-18T09:45:09Z</time>
      </trkpt>
      <trkpt lat="47.25533" lon="-1.58929">
        <ele>3.2</ele>
        <time>2013-08-18T09:45:12Z</time>
      </trkpt>
      <trkpt lat="47.25534" lon="-1.5895">
        <ele>3.2</ele>
        <time>2013-08-18T09:45:15Z</time>
      </trkpt>
      <trkpt lat="47.25533" lon="-1.58967">
        <ele>3.2</ele>
        <time>2013-08-18T09:45:18Z</time>
      </trkpt>
      <trkpt lat="47.25531" lon="-1.58986">
        <ele>3</ele>
        <time>2013-08-18T09:45:21Z</time>
      </trkpt>
      <trkpt lat="47.25524" lon="-1.59001">
        <ele>2.1</ele>
        <time>2013-08-18T09:45:23Z</time>
      </trkpt>
      <trkpt lat="47.25512" lon="-1.59011">
        <ele>2</ele>
        <time>2013-08-18T09:45:25Z</time>
      </trkpt>
      <trkpt lat="47.25498" lon="-1.59018">
        <ele>1.8</ele>
        <time>2013-08-18T09:45:27Z</time>
      </trkpt>
      <trkpt lat="47.25486" lon="-1.59024">
        <ele>1.2</ele>
        <time>2013-08-18T09:45:29Z</time>
      </trkpt>
      <trkpt lat="47.25476" lon="-1.59032">
        <ele>1.4</ele>
        <time>2013-08-18T09:45:31Z</time>
      </trkpt>
      <trkpt lat="47.25466" lon="-1.59041">
        <ele>0.2</ele>
        <time>2013-08-18T09:45:33Z</time>
      </trkpt>
      <trkpt lat="47.25455" lon="-1.59055">
        <ele>0.3</ele>
        <time>2013-08-18T09:45:35Z</time>
      </trkpt>
      <trkpt lat="47.25443" lon="-1.59069">
        <ele>10</ele>
        <time>2013-08-18T09:45:37Z</time>
      </trkpt>
      <trkpt lat="47.25431" lon="-1.59077">
        <ele>-1.5</ele>
        <time>2013-08-18T09:45:39Z</time>
      </trkpt>
      <trkpt lat="47.2542" lon="-1.59078">
        <ele>-2.1</ele>
        <time>2013-08-18T09:45:41Z</time>
      </trkpt>
      <trkpt lat="47.25411" lon="-1.59078">
        <ele>-3.1</ele>
        <time>2013-08-18T09:45:43Z</time>
      </trkpt>
      <trkpt lat="47.25399" lon="-1.59075">
        <ele>-5.3</ele>
        <time>2013-08-18T09:45:46Z</time>
      </trkpt>
      <trkpt lat="47.2539" lon="-1.59071">
        <ele>-5.2</ele>
        <time>2013-08-18T09:45:48Z</time>
      </trkpt>
      <trkpt lat="47.25379" lon="-1.59069">
        <ele>-4.8</ele>
        <time>2013-08-18T09:45:50Z</time>
      </trkpt>
      <trkpt lat="47.25369" lon="-1.59066">
        <ele>-4.6</ele>
        <time>2013-08-18T09:45:52Z</time>
      </trkpt>
      <trkpt lat="47.25361" lon="-1.59059">
        <ele>-3.9</ele>
        <time>2013-08-18T09:45:54Z</time>
      </trkpt>
      <trkpt lat="47.25353" lon="-1.59044">
        <ele>-2.2</ele>
        <time>2013-08-18T09:45:56Z</time>
      </trkpt>
      <trkpt lat="47.25347" lon="-1.59026">
        <ele>0.3</ele>
        <time>2013-08-18T09:45:58Z</time>
      </trkpt>
      <trkpt lat="47.25339" lon="-1.59013">
        <ele>0.4</ele>
        <time>2013-08-18T09:46:00Z</time>
      </trkpt>
      <trkpt lat="47.25332" lon="-1.59002">
        <ele>-0.2</ele>
        <time>2013-08-18T09:46:02Z</time>
      </trkpt>
      <trkpt lat="47.25324" lon="-1.5899">
        <ele>-0.1</ele>
        <time>2013-08-18T09:46:05Z</time>
      </trkpt>
      <trkpt lat="47.25317" lon="-1.58981">
        <ele>-0.2</ele>
        <time>2013-08-18T09:46:08Z</time>
      </trkpt>
      <trkpt lat="47.25305" lon="-1.58969">
        <ele>-1</ele>
        <time>2013-08-18T09:46:11Z</time>
      </trkpt>
      <trkpt lat="47.25297" lon="-1.58961">
        <ele>-2.3</ele>
        <time>2013-08-18T09:46:13Z</time>
      </trkpt>
      <trkpt lat="47.25289" lon="-1.58954">
        <ele>-3.4</ele>
        <time>2013-08-18T09:46:15Z</time>
      </trkpt>
      <trkpt lat="47.25278" lon="-1.58944">
        <ele>-3.3</ele>
        <time>2013-08-18T09:46:18Z</time>
      </trkpt>
      <trkpt lat="47.25269" lon="-1.58934">
        <ele>-3.2</ele>
        <time>2013-08-18T09:46:21Z</time>
      </trkpt>
      <trkpt lat="47.25259" lon="-1.58924">
        <ele>-2.9</ele>
        <time>2013-08-18T09:46:24Z</time>
      </trkpt>
      <trkpt lat="47.25252" lon="-1.58915">
        <ele>-1.9</ele>
        <time>2013-08-18T09:46:26Z</time>
      </trkpt>
      <trkpt lat="47.25244" lon="-1.58907">
        <ele>-0.4</ele>
        <time>2013-08-18T09:46:28Z</time>
      </trkpt>
      <trkpt lat="47.25236" lon="-1.58899">
        <ele>0.6</ele>
        <time>2013-08-18T09:46:30Z</time>
      </trkpt>
      <trkpt lat="47.25228" lon="-1.58889">
        <ele>0.8</ele>
        <time>2013-08-18T09:46:33Z</time>
      </trkpt>
      <trkpt lat="47.25228" lon="-1.58872">
        <ele>2.5</ele>
        <time>2013-08-18T09:46:36Z</time>
      </trkpt>
      <trkpt lat="47.25234" lon="-1.58853">
        <ele>4.3</ele>
        <time>2013-08-18T09:46:39Z</time>
      </trkpt>
      <trkpt lat="47.25239" lon="-1.58838">
        <ele>4.8</ele>
        <time>2013-08-18T09:46:41Z</time>
      </trkpt>
      <trkpt lat="47.25246" lon="-1.58828">
        <ele>4.8</ele>
        <time>2013-08-18T09:46:43Z</time>
      </trkpt>
      <trkpt lat="47.25255" lon="-1.58822">
        <ele>4.7</ele>
        <time>2013-08-18T09:46:45Z</time>
      </trkpt>
      <trkpt lat="47.25265" lon="-1.58822">
        <ele>4.9</ele>
        <time>2013-08-18T09:46:50Z</time>
      </trkpt>
      <trkpt lat="47.25275" lon="-1.58829">
        <ele>4.8</ele>
        <time>2013-08-18T09:46:53Z</time>
      </trkpt>
      <trkpt lat="47.25285" lon="-1.58836">
        <ele>4.6</ele>
        <time>2013-08-18T09:46:57Z</time>
      </trkpt>
      <trkpt lat="47.25298" lon="-1.58827">
        <ele>5.5</ele>
        <time>2013-08-18T09:47:08Z</time>
      </trkpt>
      <trkpt lat="47.25289" lon="-1.58826">
        <ele>6.3</ele>
        <time>2013-08-18T09:47:39Z</time>
      </trkpt>
      <trkpt lat="47.2529" lon="-1.58812">
        <ele>4</ele>
        <time>2013-08-18T09:47:58Z</time>
      </trkpt>
      <trkpt lat="47.25292" lon="-1.58797">
        <ele>2.5</ele>
        <time>2013-08-18T09:48:03Z</time>
      </trkpt>
      <trkpt lat="47.25293" lon="-1.58784">
        <ele>1.3</ele>
        <time>2013-08-18T09:48:07Z</time>
      </trkpt>
      <trkpt lat="47.25297" lon="-1.58769">
        <ele>0.3</ele>
        <time>2013-08-18T09:48:11Z</time>
      </trkpt>
      <trkpt lat="47.25302" lon="-1.58753">
        <ele>-0.6</ele>
        <time>2013-08-18T09:48:15Z</time>
      </trkpt>
      <trkpt lat="47.25308" lon="-1.5874">
        <ele>-1.5</ele>
        <time>2013-08-18T09:48:19Z</time>
      </trkpt>
      <trkpt lat="47.2531" lon="-1.58726">
        <ele>-2.2</ele>
        <time>2013-08-18T09:48:22Z</time>
      </trkpt>
      <trkpt lat="47.25311" lon="-1.58709">
        <ele>-2.6</ele>
        <time>2013-08-18T09:48:27Z</time>
      </trkpt>
      <trkpt lat="47.2531" lon="-1.58693">
        <ele>-3</ele>
        <time>2013-08-18T09:48:31Z</time>
      </trkpt>
      <trkpt lat="47.2531" lon="-1.58679">
        <ele>-3.4</ele>
        <time>2013-08-18T09:48:34Z</time>
      </trkpt>
      <trkpt lat="47.25312" lon="-1.58666">
        <ele>-3.7</ele>
        <time>2013-08-18T09:48:37Z</time>
      </trkpt>
      <trkpt lat="47.25315" lon="-1.58652">
        <ele>-4.5</ele>
        <time>2013-08-18T09:48:41Z</time>
      </trkpt>
      <trkpt lat="47.25322" lon="-1.58636">
        <ele>-4.7</ele>
        <time>2013-08-18T09:48:45Z</time>
      </trkpt>
      <trkpt lat="47.25326" lon="-1.58621">
        <ele>-4.5</ele>
        <time>2013-08-18T09:48:48Z</time>
      </trkpt>
      <trkpt lat="47.25325" lon="-1.58602">
        <ele>-3.9</ele>
        <time>2013-08-18T09:48:51Z</time>
      </trkpt>
      <trkpt lat="47.2532" lon="-1.58588">
        <ele>-3.4</ele>
        <time>2013-08-18T09:48:54Z</time>
      </trkpt>
      <trkpt lat="47.25314" lon="-1.58576">
        <ele>-3.2</ele>
        <time>2013-08-18T09:48:57Z</time>
      </trkpt>
      <trkpt lat="47.253" lon="-1.58575">
        <ele>-3</ele>
        <time>2013-08-18T09:49:00Z</time>
      </trkpt>
      <trkpt lat="47.25289" lon="-1.58577">
        <ele>-3</ele>
        <time>2013-08-18T09:49:03Z</time>
      </trkpt>
      <trkpt lat="47.2528" lon="-1.58576">
        <ele>-3.1</ele>
        <time>2013-08-18T09:49:07Z</time>
      </trkpt>
      <trkpt lat="47.25271" lon="-1.58568">
        <ele>-3.3</ele>
        <time>2013-08-18T09:49:11Z</time>
      </trkpt>
      <trkpt lat="47.25263" lon="-1.5856">
        <ele>-3.6</ele>
        <time>2013-08-18T09:49:14Z</time>
      </trkpt>
      <trkpt lat="47.25253" lon="-1.58552">
        <ele>-4.3</ele>
        <time>2013-08-18T09:49:18Z</time>
      </trkpt>
      <trkpt lat="47.25241" lon="-1.58552">
        <ele>-4.9</ele>
        <time>2013-08-18T09:49:21Z</time>
      </trkpt>
      <trkpt lat="47.25229" lon="-1.58554">
        <ele>-5.7</ele>
        <time>2013-08-18T09:49:24Z</time>
      </trkpt>
      <trkpt lat="47.25219" lon="-1.58558">
        <ele>-6.4</ele>
        <time>2013-08-18T09:49:27Z</time>
      </trkpt>
      <trkpt lat="47.2521" lon="-1.58559">
        <ele>-9.4</ele>
        <time>2013-08-18T09:49:29Z</time>
      </trkpt>
      <trkpt lat="47.25198" lon="-1.5856">
        <ele>-14.3</ele>
        <time>2013-08-18T09:49:31Z</time>
      </trkpt>
      <trkpt lat="47.25187" lon="-1.58561">
        <ele>-18</ele>
        <time>2013-08-18T09:49:33Z</time>
      </trkpt>
      <trkpt lat="47.25177" lon="-1.58556">
        <ele>-21.3</ele>
        <time>2013-08-18T09:49:35Z</time>
      </trkpt>
      <trkpt lat="47.25164" lon="-1.58548">
        <ele>-22.6</ele>
        <time>2013-08-18T09:49:38Z</time>
      </trkpt>
      <trkpt lat="47.25153" lon="-1.58536">
        <ele>-19.2</ele>
        <time>2013-08-18T09:49:40Z</time>
      </trkpt>
      <trkpt lat="47.25143" lon="-1.58526">
        <ele>-17</ele>
        <time>2013-08-18T09:49:42Z</time>
      </trkpt>
      <trkpt lat="47.25133" lon="-1.58518">
        <ele>-15.7</ele>
        <time>2013-08-18T09:49:44Z</time>
      </trkpt>
      <trkpt lat="47.25124" lon="-1.58509">
        <ele>-13.5</ele>
        <time>2013-08-18T09:49:46Z</time>
      </trkpt>
      <trkpt lat="47.25115" lon="-1.58494">
        <ele>-10.1</ele>
        <time>2013-08-18T09:49:48Z</time>
      </trkpt>
      <trkpt lat="47.25108" lon="-1.58477">
        <ele>-8.1</ele>
        <time>2013-08-18T09:49:50Z</time>
      </trkpt>
      <trkpt lat="47.25103" lon="-1.5846">
        <ele>-6</ele>
        <time>2013-08-18T09:49:52Z</time>
      </trkpt>
      <trkpt lat="47.25099" lon="-1.58448">
        <ele>-3.9</ele>
        <time>2013-08-18T09:49:53Z</time>
      </trkpt>
      <trkpt lat="47.25094" lon="-1.58434">
        <ele>-3.6</ele>
        <time>2013-08-18T09:49:55Z</time>
      </trkpt>
      <trkpt lat="47.25091" lon="-1.58416">
        <ele>-0.1</ele>
        <time>2013-08-18T09:49:58Z</time>
      </trkpt>
      <trkpt lat="47.25088" lon="-1.58402">
        <ele>0.4</ele>
        <time>2013-08-18T09:50:00Z</time>
      </trkpt>
      <trkpt lat="47.25087" lon="-1.58386">
        <ele>8.6</ele>
        <time>2013-08-18T09:50:02Z</time>
      </trkpt>
      <trkpt lat="47.25086" lon="-1.5837">
        <ele>-1.4</ele>
        <time>2013-08-18T09:50:04Z</time>
      </trkpt>
      <trkpt lat="47.25086" lon="-1.58352">
        <ele>-3.4</ele>
        <time>2013-08-18T09:50:06Z</time>
      </trkpt>
      <trkpt lat="47.2509" lon="-1.58338">
        <ele>-3.4</ele>
        <time>2013-08-18T09:50:08Z</time>
      </trkpt>
      <trkpt lat="47.25093" lon="-1.58325">
        <ele>-2.9</ele>
        <time>2013-08-18T09:50:10Z</time>
      </trkpt>
      <trkpt lat="47.25095" lon="-1.58307">
        <ele>-2.2</ele>
        <time>2013-08-18T09:50:12Z</time>
      </trkpt>
      <trkpt lat="47.25098" lon="-1.58284">
        <ele>-1.2</ele>
        <time>2013-08-18T09:50:14Z</time>
      </trkpt>
      <trkpt lat="47.251" lon="-1.58266">
        <ele>7.8</ele>
        <time>2013-08-18T09:50:16Z</time>
      </trkpt>
      <trkpt lat="47.25102" lon="-1.58248">
        <ele>0.8</ele>
        <time>2013-08-18T09:50:18Z</time>
      </trkpt>
      <trkpt lat="47.25102" lon="-1.58229">
        <ele>1.4</ele>
        <time>2013-08-18T09:50:20Z</time>
      </trkpt>
      <trkpt lat="47.25101" lon="-1.58211">
        <ele>1.7</ele>
        <time>2013-08-18T09:50:22Z</time>
      </trkpt>
      <trkpt lat="47.25096" lon="-1.58194">
        <ele>2.1</ele>
        <time>2013-08-18T09:50:24Z</time>
      </trkpt>
      <trkpt lat="47.25091" lon="-1.58176">
        <ele>2.7</ele>
        <time>2013-08-18T09:50:26Z</time>
      </trkpt>
      <trkpt lat="47.25084" lon="-1.58156">
        <ele>3.8</ele>
        <time>2013-08-18T09:50:28Z</time>
      </trkpt>
      <trkpt lat="47.2508" lon="-1.58138">
        <ele>4.6</ele>
        <time>2013-08-18T09:50:30Z</time>
      </trkpt>
      <trkpt lat="47.25078" lon="-1.58117">
        <ele>5</ele>
        <time>2013-08-18T09:50:32Z</time>
      </trkpt>
      <trkpt lat="47.2508" lon="-1.58097">
        <ele>5.7</ele>
        <time>2013-08-18T09:50:34Z</time>
      </trkpt>
      <trkpt lat="47.25081" lon="-1.58077">
        <ele>6.3</ele>
        <time>2013-08-18T09:50:36Z</time>
      </trkpt>
      <trkpt lat="47.25079" lon="-1.58057">
        <ele>7.1</ele>
        <time>2013-08-18T09:50:38Z</time>
      </trkpt>
      <trkpt lat="47.25072" lon="-1.58039">
        <ele>6.6</ele>
        <time>2013-08-18T09:50:40Z</time>
      </trkpt>
      <trkpt lat="47.25061" lon="-1.58027">
        <ele>6</ele>
        <time>2013-08-18T09:50:42Z</time>
      </trkpt>
      <trkpt lat="47.25049" lon="-1.58018">
        <ele>5.7</ele>
        <time>2013-08-18T09:50:44Z</time>
      </trkpt>
      <trkpt lat="47.25035" lon="-1.58011">
        <ele>5.6</ele>
        <time>2013-08-18T09:50:46Z</time>
      </trkpt>
      <trkpt lat="47.25022" lon="-1.58003">
        <ele>5.3</ele>
        <time>2013-08-18T09:50:48Z</time>
      </trkpt>
      <trkpt lat="47.2501" lon="-1.57995">
        <ele>5.6</ele>
        <time>2013-08-18T09:50:50Z</time>
      </trkpt>
      <trkpt lat="47.24999" lon="-1.57985">
        <ele>5.6</ele>
        <time>2013-08-18T09:50:52Z</time>
      </trkpt>
      <trkpt lat="47.2499" lon="-1.57973">
        <ele>6.5</ele>
        <time>2013-08-18T09:50:54Z</time>
      </trkpt>
      <trkpt lat="47.24981" lon="-1.57959">
        <ele>7.3</ele>
        <time>2013-08-18T09:50:56Z</time>
      </trkpt>
      <trkpt lat="47.24972" lon="-1.57945">
        <ele>8</ele>
        <time>2013-08-18T09:50:58Z</time>
      </trkpt>
      <trkpt lat="47.24963" lon="-1.57933">
        <ele>8</ele>
        <time>2013-08-18T09:51:00Z</time>
      </trkpt>
      <trkpt lat="47.24957" lon="-1.57917">
        <ele>6.6</ele>
        <time>2013-08-18T09:51:02Z</time>
      </trkpt>
      <trkpt lat="47.24953" lon="-1.57899">
        <ele>5.2</ele>
        <time>2013-08-18T09:51:04Z</time>
      </trkpt>
      <trkpt lat="47.24946" lon="-1.57886">
        <ele>3.8</ele>
        <time>2013-08-18T09:51:06Z</time>
      </trkpt>
      <trkpt lat="47.24937" lon="-1.57882">
        <ele>4.1</ele>
        <time>2013-08-18T09:51:08Z</time>
      </trkpt>
      <trkpt lat="47.24928" lon="-1.57887">
        <ele>4.2</ele>
        <time>2013-08-18T09:51:10Z</time>
      </trkpt>
      <trkpt lat="47.24922" lon="-1.57899">
        <ele>4.6</ele>
        <time>2013-08-18T09:51:27Z</time>
      </trkpt>
      <trkpt lat="47.24913" lon="-1.5791">
        <ele>4.8</ele>
        <time>2013-08-18T09:51:31Z</time>
      </trkpt>
      <trkpt lat="47.24905" lon="-1.57918">
        <ele>4.7</ele>
        <time>2013-08-18T09:51:36Z</time>
      </trkpt>
      <trkpt lat="47.24896" lon="-1.57922">
        <ele>4.5</ele>
        <time>2013-08-18T09:51:55Z</time>
      </trkpt>
      <trkpt lat="47.24888" lon="-1.57914">
        <ele>4.3</ele>
        <time>2013-08-18T09:51:58Z</time>
      </trkpt>
      <trkpt lat="47.24883" lon="-1.57901">
        <ele>4.3</ele>
        <time>2013-08-18T09:52:02Z</time>
      </trkpt>
      <trkpt lat="47.24879" lon="-1.57889">
        <ele>4.5</ele>
        <time>2013-08-18T09:52:07Z</time>
      </trkpt>
      <trkpt lat="47.2487" lon="-1.57881">
        <ele>4.4</ele>
        <time>2013-08-18T09:52:11Z</time>
      </trkpt>
      <trkpt lat="47.2486" lon="-1.57873">
        <ele>4.4</ele>
        <time>2013-08-18T09:52:15Z</time>
      </trkpt>
      <trkpt lat="47.24853" lon="-1.57864">
        <ele>4.4</ele>
        <time>2013-08-18T09:52:18Z</time>
      </trkpt>
      <trkpt lat="47.24845" lon="-1.57854">
        <ele>4.6</ele>
        <time>2013-08-18T09:52:21Z</time>
      </trkpt>
      <trkpt lat="47.24836" lon="-1.57842">
        <ele>5</ele>
        <time>2013-08-18T09:52:24Z</time>
      </trkpt>
      <trkpt lat="47.24829" lon="-1.57832">
        <ele>5.4</ele>
        <time>2013-08-18T09:52:27Z</time>
      </trkpt>
      <trkpt lat="47.24821" lon="-1.57822">
        <ele>5.9</ele>
        <time>2013-08-18T09:52:30Z</time>
      </trkpt>
      <trkpt lat="47.24811" lon="-1.5781">
        <ele>8</ele>
        <time>2013-08-18T09:52:33Z</time>
      </trkpt>
      <trkpt lat="47.24803" lon="-1.57801">
        <ele>9.3</ele>
        <time>2013-08-18T09:52:36Z</time>
      </trkpt>
      <trkpt lat="47.24794" lon="-1.57789">
        <ele>9.6</ele>
        <time>2013-08-18T09:52:39Z</time>
      </trkpt>
      <trkpt lat="47.24785" lon="-1.57776">
        <ele>10</ele>
        <time>2013-08-18T09:52:42Z</time>
      </trkpt>
      <trkpt lat="47.24777" lon="-1.57765">
        <ele>10.5</ele>
        <time>2013-08-18T09:52:46Z</time>
      </trkpt>
      <trkpt lat="47.24767" lon="-1.57759">
        <ele>10.3</ele>
        <time>2013-08-18T09:53:39Z</time>
      </trkpt>
      <trkpt lat="47.24761" lon="-1.57747">
        <ele>10.4</ele>
        <time>2013-08-18T09:53:43Z</time>
      </trkpt>
      <trkpt lat="47.24759" lon="-1.57732">
        <ele>10.4</ele>
        <time>2013-08-18T09:53:46Z</time>
      </trkpt>
      <trkpt lat="47.24758" lon="-1.57718">
        <ele>10.3</ele>
        <time>2013-08-18T09:53:49Z</time>
      </trkpt>
      <trkpt lat="47.24757" lon="-1.57698">
        <ele>10.1</ele>
        <time>2013-08-18T09:53:52Z</time>
      </trkpt>
      <trkpt lat="47.24756" lon="-1.57683">
        <ele>9.1</ele>
        <time>2013-08-18T09:53:54Z</time>
      </trkpt>
      <trkpt lat="47.24756" lon="-1.57669">
        <ele>8.6</ele>
        <time>2013-08-18T09:53:56Z</time>
      </trkpt>
      <trkpt lat="47.24757" lon="-1.57652">
        <ele>8.7</ele>
        <time>2013-08-18T09:53:59Z</time>
      </trkpt>
      <trkpt lat="47.24757" lon="-1.57635">
        <ele>8.8</ele>
        <time>2013-08-18T09:54:02Z</time>
      </trkpt>
      <trkpt lat="47.24757" lon="-1.5762">
        <ele>8.9</ele>
        <time>2013-08-18T09:54:05Z</time>
      </trkpt>
      <trkpt lat="47.2476" lon="-1.57603">
        <ele>8.2</ele>
        <time>2013-08-18T09:54:08Z</time>
      </trkpt>
      <trkpt lat="47.24761" lon="-1.57586">
        <ele>7.9</ele>
        <time>2013-08-18T09:54:11Z</time>
      </trkpt>
      <trkpt lat="47.24761" lon="-1.5757">
        <ele>7.5</ele>
        <time>2013-08-18T09:54:14Z</time>
      </trkpt>
      <trkpt lat="47.24761" lon="-1.57553">
        <ele>7</ele>
        <time>2013-08-18T09:54:17Z</time>
      </trkpt>
      <trkpt lat="47.24769" lon="-1.57541">
        <ele>6.7</ele>
        <time>2013-08-18T09:54:21Z</time>
      </trkpt>
      <trkpt lat="47.24777" lon="-1.57536">
        <ele>6.4</ele>
        <time>2013-08-18T09:54:25Z</time>
      </trkpt>
      <trkpt lat="47.24788" lon="-1.57532">
        <ele>6.7</ele>
        <time>2013-08-18T09:54:28Z</time>
      </trkpt>
      <trkpt lat="47.24772" lon="-1.5754">
        <ele>11.8</ele>
        <time>2013-08-18T09:55:34Z</time>
      </trkpt>
      <trkpt lat="47.24768" lon="-1.57527">
        <ele>11.7</ele>
        <time>2013-08-18T09:55:38Z</time>
      </trkpt>
      <trkpt lat="47.24766" lon="-1.57513">
        <ele>11</ele>
        <time>2013-08-18T09:55:42Z</time>
      </trkpt>
      <trkpt lat="47.24764" lon="-1.575">
        <ele>10.3</ele>
        <time>2013-08-18T09:55:47Z</time>
      </trkpt>
      <trkpt lat="47.24762" lon="-1.57487">
        <ele>9.5</ele>
        <time>2013-08-18T09:55:54Z</time>
      </trkpt>
      <trkpt lat="47.24764" lon="-1.57474">
        <ele>8.9</ele>
        <time>2013-08-18T09:56:02Z</time>
      </trkpt>
      <trkpt lat="47.24771" lon="-1.57465">
        <ele>7.9</ele>
        <time>2013-08-18T09:56:13Z</time>
      </trkpt>
      <trkpt lat="47.24769" lon="-1.5745">
        <ele>9.3</ele>
        <time>2013-08-18T09:56:41Z</time>
      </trkpt>
      <trkpt lat="47.2476" lon="-1.57442">
        <ele>10.7</ele>
        <time>2013-08-18T09:56:44Z</time>
      </trkpt>
      <trkpt lat="47.2475" lon="-1.57448">
        <ele>12.4</ele>
        <time>2013-08-18T09:56:48Z</time>
      </trkpt>
      <trkpt lat="47.24744" lon="-1.57462">
        <ele>14.3</ele>
        <time>2013-08-18T09:56:52Z</time>
      </trkpt>
      <trkpt lat="47.24741" lon="-1.57476">
        <ele>15.7</ele>
        <time>2013-08-18T09:56:56Z</time>
      </trkpt>
      <trkpt lat="47.2474" lon="-1.57493">
        <ele>17.1</ele>
        <time>2013-08-18T09:57:00Z</time>
      </trkpt>
      <trkpt lat="47.24736" lon="-1.57509">
        <ele>17.9</ele>
        <time>2013-08-18T09:57:04Z</time>
      </trkpt>
      <trkpt lat="47.2473" lon="-1.57521">
        <ele>18.4</ele>
        <time>2013-08-18T09:57:08Z</time>
      </trkpt>
      <trkpt lat="47.24723" lon="-1.57532">
        <ele>18.7</ele>
        <time>2013-08-18T09:57:11Z</time>
      </trkpt>
      <trkpt lat="47.24715" lon="-1.57544">
        <ele>19.1</ele>
        <time>2013-08-18T09:57:14Z</time>
      </trkpt>
      <trkpt lat="47.24708" lon="-1.57555">
        <ele>18.8</ele>
        <time>2013-08-18T09:57:17Z</time>
      </trkpt>
      <trkpt lat="47.24695" lon="-1.57561">
        <ele>13.3</ele>
        <time>2013-08-18T09:57:36Z</time>
      </trkpt>
      <trkpt lat="47.24678" lon="-1.57558">
        <ele>11.1</ele>
        <time>2013-08-18T09:57:38Z</time>
      </trkpt>
      <trkpt lat="47.24664" lon="-1.57554">
        <ele>10.2</ele>
        <time>2013-08-18T09:57:40Z</time>
      </trkpt>
      <trkpt lat="47.2465" lon="-1.5755">
        <ele>10.1</ele>
        <time>2013-08-18T09:57:42Z</time>
      </trkpt>
      <trkpt lat="47.24639" lon="-1.57549">
        <ele>9.9</ele>
        <time>2013-08-18T09:57:44Z</time>
      </trkpt>
      <trkpt lat="47.24627" lon="-1.57544">
        <ele>9.4</ele>
        <time>2013-08-18T09:57:47Z</time>
      </trkpt>
      <trkpt lat="47.2462" lon="-1.5753">
        <ele>9</ele>
        <time>2013-08-18T09:57:50Z</time>
      </trkpt>
      <trkpt lat="47.24613" lon="-1.57521">
        <ele>8.6</ele>
        <time>2013-08-18T09:57:53Z</time>
      </trkpt>
      <trkpt lat="47.24603" lon="-1.57514">
        <ele>8.2</ele>
        <time>2013-08-18T09:57:57Z</time>
      </trkpt>
      <trkpt lat="47.24595" lon="-1.57507">
        <ele>7.7</ele>
        <time>2013-08-18T09:58:01Z</time>
      </trkpt>
      <trkpt lat="47.24587" lon="-1.575">
        <ele>7.5</ele>
        <time>2013-08-18T09:58:05Z</time>
      </trkpt>
      <trkpt lat="47.24578" lon="-1.57484">
        <ele>3.4</ele>
        <time>2013-08-18T09:58:08Z</time>
      </trkpt>
      <trkpt lat="47.24571" lon="-1.5747">
        <ele>-2.8</ele>
        <time>2013-08-18T09:58:10Z</time>
      </trkpt>
      <trkpt lat="47.24564" lon="-1.57455">
        <ele>-7.4</ele>
        <time>2013-08-18T09:58:12Z</time>
      </trkpt>
      <trkpt lat="47.24559" lon="-1.5744">
        <ele>-9.1</ele>
        <time>2013-08-18T09:58:14Z</time>
      </trkpt>
      <trkpt lat="47.24555" lon="-1.57422">
        <ele>-10.6</ele>
        <time>2013-08-18T09:58:16Z</time>
      </trkpt>
      <trkpt lat="47.24551" lon="-1.57404">
        <ele>-12.3</ele>
        <time>2013-08-18T09:58:18Z</time>
      </trkpt>
      <trkpt lat="47.24548" lon="-1.57388">
        <ele>-14.9</ele>
        <time>2013-08-18T09:58:20Z</time>
      </trkpt>
      <trkpt lat="47.24544" lon="-1.57367">
        <ele>-16.1</ele>
        <time>2013-08-18T09:58:22Z</time>
      </trkpt>
      <trkpt lat="47.24539" lon="-1.57345">
        <ele>-16.6</ele>
        <time>2013-08-18T09:58:24Z</time>
      </trkpt>
      <trkpt lat="47.24535" lon="-1.57325">
        <ele>-16.6</ele>
        <time>2013-08-18T09:58:26Z</time>
      </trkpt>
      <trkpt lat="47.24531" lon="-1.57305">
        <ele>-16.6</ele>
        <time>2013-08-18T09:58:28Z</time>
      </trkpt>
      <trkpt lat="47.24529" lon="-1.57284">
        <ele>-16.5</ele>
        <time>2013-08-18T09:58:30Z</time>
      </trkpt>
      <trkpt lat="47.24525" lon="-1.5726">
        <ele>-13.9</ele>
        <time>2013-08-18T09:58:32Z</time>
      </trkpt>
      <trkpt lat="47.24521" lon="-1.5724">
        <ele>-10.9</ele>
        <time>2013-08-18T09:58:34Z</time>
      </trkpt>
      <trkpt lat="47.24521" lon="-1.57219">
        <ele>-11.2</ele>
        <time>2013-08-18T09:58:36Z</time>
      </trkpt>
      <trkpt lat="47.24523" lon="-1.57193">
        <ele>-9.1</ele>
        <time>2013-08-18T09:58:38Z</time>
      </trkpt>
      <trkpt lat="47.24525" lon="-1.57179">
        <ele>-7.9</ele>
        <time>2013-08-18T09:58:39Z</time>
      </trkpt>
      <trkpt lat="47.24527" lon="-1.57157">
        <ele>-5.3</ele>
        <time>2013-08-18T09:58:41Z</time>
      </trkpt>
      <trkpt lat="47.24527" lon="-1.5714">
        <ele>-1.9</ele>
        <time>2013-08-18T09:58:43Z</time>
      </trkpt>
      <trkpt lat="47.24524" lon="-1.57127">
        <ele>0.6</ele>
        <time>2013-08-18T09:58:46Z</time>
      </trkpt>
      <trkpt lat="47.24516" lon="-1.57118">
        <ele>0.9</ele>
        <time>2013-08-18T09:58:50Z</time>
      </trkpt>
      <trkpt lat="47.24507" lon="-1.57112">
        <ele>1.3</ele>
        <time>2013-08-18T09:58:53Z</time>
      </trkpt>
      <trkpt lat="47.24499" lon="-1.57106">
        <ele>1.5</ele>
        <time>2013-08-18T09:58:57Z</time>
      </trkpt>
      <trkpt lat="47.24492" lon="-1.57095">
        <ele>1.8</ele>
        <time>2013-08-18T09:59:01Z</time>
      </trkpt>
      <trkpt lat="47.24488" lon="-1.57079">
        <ele>2.1</ele>
        <time>2013-08-18T09:59:04Z</time>
      </trkpt>
      <trkpt lat="47.24483" lon="-1.57064">
        <ele>3.5</ele>
        <time>2013-08-18T09:59:06Z</time>
      </trkpt>
      <trkpt lat="47.24478" lon="-1.57051">
        <ele>4.1</ele>
        <time>2013-08-18T09:59:08Z</time>
      </trkpt>
      <trkpt lat="47.2447" lon="-1.57036">
        <ele>3.7</ele>
        <time>2013-08-18T09:59:10Z</time>
      </trkpt>
      <trkpt lat="47.24462" lon="-1.57023">
        <ele>3.9</ele>
        <time>2013-08-18T09:59:12Z</time>
      </trkpt>
      <trkpt lat="47.24454" lon="-1.57012">
        <ele>5.6</ele>
        <time>2013-08-18T09:59:14Z</time>
      </trkpt>
      <trkpt lat="47.24446" lon="-1.56999">
        <ele>6.9</ele>
        <time>2013-08-18T09:59:16Z</time>
      </trkpt>
      <trkpt lat="47.24439" lon="-1.56989">
        <ele>6.3</ele>
        <time>2013-08-18T09:59:18Z</time>
      </trkpt>
      <trkpt lat="47.24431" lon="-1.56977">
        <ele>5.2</ele>
        <time>2013-08-18T09:59:20Z</time>
      </trkpt>
      <trkpt lat="47.24421" lon="-1.56961">
        <ele>5.9</ele>
        <time>2013-08-18T09:59:22Z</time>
      </trkpt>
      <trkpt lat="47.24411" lon="-1.56945">
        <ele>7.4</ele>
        <time>2013-08-18T09:59:24Z</time>
      </trkpt>
      <trkpt lat="47.24402" lon="-1.56929">
        <ele>8.7</ele>
        <time>2013-08-18T09:59:26Z</time>
      </trkpt>
      <trkpt lat="47.24394" lon="-1.56915">
        <ele>9.6</ele>
        <time>2013-08-18T09:59:28Z</time>
      </trkpt>
      <trkpt lat="47.24387" lon="-1.56903">
        <ele>9.8</ele>
        <time>2013-08-18T09:59:30Z</time>
      </trkpt>
      <trkpt lat="47.24379" lon="-1.56889">
        <ele>8.7</ele>
        <time>2013-08-18T09:59:32Z</time>
      </trkpt>
      <trkpt lat="47.24373" lon="-1.56876">
        <ele>6.8</ele>
        <time>2013-08-18T09:59:34Z</time>
      </trkpt>
      <trkpt lat="47.24367" lon="-1.5686">
        <ele>5.8</ele>
        <time>2013-08-18T09:59:36Z</time>
      </trkpt>
      <trkpt lat="47.24362" lon="-1.56847">
        <ele>4.6</ele>
        <time>2013-08-18T09:59:38Z</time>
      </trkpt>
      <trkpt lat="47.24357" lon="-1.56833">
        <ele>5.8</ele>
        <time>2013-08-18T09:59:40Z</time>
      </trkpt>
      <trkpt lat="47.24352" lon="-1.56815">
        <ele>5.4</ele>
        <time>2013-08-18T09:59:43Z</time>
      </trkpt>
      <trkpt lat="47.24349" lon="-1.56802">
        <ele>6.6</ele>
        <time>2013-08-18T09:59:45Z</time>
      </trkpt>
      <trkpt lat="47.24347" lon="-1.56784">
        <ele>5.5</ele>
        <time>2013-08-18T09:59:47Z</time>
      </trkpt>
      <trkpt lat="47.24346" lon="-1.56767">
        <ele>6.1</ele>
        <time>2013-08-18T09:59:49Z</time>
      </trkpt>
      <trkpt lat="47.24344" lon="-1.56751">
        <ele>6.2</ele>
        <time>2013-08-18T09:59:51Z</time>
      </trkpt>
      <trkpt lat="47.24341" lon="-1.5673">
        <ele>6.4</ele>
        <time>2013-08-18T09:59:53Z</time>
      </trkpt>
      <trkpt lat="47.24337" lon="-1.56711">
        <ele>8.4</ele>
        <time>2013-08-18T09:59:55Z</time>
      </trkpt>
      <trkpt lat="47.24335" lon="-1.56695">
        <ele>10.8</ele>
        <time>2013-08-18T09:59:57Z</time>
      </trkpt>
      <trkpt lat="47.24333" lon="-1.56677">
        <ele>11.9</ele>
        <time>2013-08-18T09:59:59Z</time>
      </trkpt>
      <trkpt lat="47.24332" lon="-1.56657">
        <ele>11.6</ele>
        <time>2013-08-18T10:00:01Z</time>
      </trkpt>
      <trkpt lat="47.2433" lon="-1.56641">
        <ele>10.9</ele>
        <time>2013-08-18T10:00:03Z</time>
      </trkpt>
      <trkpt lat="47.24328" lon="-1.56622">
        <ele>9.1</ele>
        <time>2013-08-18T10:00:05Z</time>
      </trkpt>
      <trkpt lat="47.24326" lon="-1.56604">
        <ele>5.9</ele>
        <time>2013-08-18T10:00:07Z</time>
      </trkpt>
      <trkpt lat="47.24324" lon="-1.56586">
        <ele>1.8</ele>
        <time>2013-08-18T10:00:09Z</time>
      </trkpt>
      <trkpt lat="47.24323" lon="-1.56568">
        <ele>0.1</ele>
        <time>2013-08-18T10:00:11Z</time>
      </trkpt>
      <trkpt lat="47.24321" lon="-1.5655">
        <ele>-0.2</ele>
        <time>2013-08-18T10:00:13Z</time>
      </trkpt>
      <trkpt lat="47.24324" lon="-1.56531">
        <ele>-2.7</ele>
        <time>2013-08-18T10:00:16Z</time>
      </trkpt>
      <trkpt lat="47.24332" lon="-1.56518">
        <ele>-4.5</ele>
        <time>2013-08-18T10:00:18Z</time>
      </trkpt>
      <trkpt lat="47.2434" lon="-1.56503">
        <ele>-4.5</ele>
        <time>2013-08-18T10:00:20Z</time>
      </trkpt>
      <trkpt lat="47.24344" lon="-1.56491">
        <ele>-4.4</ele>
        <time>2013-08-18T10:00:22Z</time>
      </trkpt>
      <trkpt lat="47.24347" lon="-1.56477">
        <ele>-4.3</ele>
        <time>2013-08-18T10:00:25Z</time>
      </trkpt>
      <trkpt lat="47.24348" lon="-1.56462">
        <ele>-4.1</ele>
        <time>2013-08-18T10:00:28Z</time>
      </trkpt>
      <trkpt lat="47.24353" lon="-1.56444">
        <ele>-4.1</ele>
        <time>2013-08-18T10:00:31Z</time>
      </trkpt>
      <trkpt lat="47.2436" lon="-1.5643">
        <ele>-2.6</ele>
        <time>2013-08-18T10:00:33Z</time>
      </trkpt>
      <trkpt lat="47.24366" lon="-1.56408">
        <ele>-1.4</ele>
        <time>2013-08-18T10:00:35Z</time>
      </trkpt>
      <trkpt lat="47.24366" lon="-1.56393">
        <ele>-0.5</ele>
        <time>2013-08-18T10:00:36Z</time>
      </trkpt>
      <trkpt lat="47.24365" lon="-1.56367">
        <ele>1.5</ele>
        <time>2013-08-18T10:00:38Z</time>
      </trkpt>
      <trkpt lat="47.24365" lon="-1.56345">
        <ele>3.4</ele>
        <time>2013-08-18T10:00:40Z</time>
      </trkpt>
      <trkpt lat="47.24369" lon="-1.56325">
        <ele>5</ele>
        <time>2013-08-18T10:00:42Z</time>
      </trkpt>
      <trkpt lat="47.24372" lon="-1.56308">
        <ele>5.8</ele>
        <time>2013-08-18T10:00:44Z</time>
      </trkpt>
      <trkpt lat="47.24375" lon="-1.56294">
        <ele>6.9</ele>
        <time>2013-08-18T10:00:46Z</time>
      </trkpt>
      <trkpt lat="47.24379" lon="-1.56279">
        <ele>7.4</ele>
        <time>2013-08-18T10:00:48Z</time>
      </trkpt>
      <trkpt lat="47.24381" lon="-1.56259">
        <ele>7.1</ele>
        <time>2013-08-18T10:00:50Z</time>
      </trkpt>
      <trkpt lat="47.2438" lon="-1.56239">
        <ele>6.2</ele>
        <time>2013-08-18T10:00:52Z</time>
      </trkpt>
      <trkpt lat="47.24376" lon="-1.56227">
        <ele>6.3</ele>
        <time>2013-08-18T10:00:54Z</time>
      </trkpt>
      <trkpt lat="47.2437" lon="-1.56215">
        <ele>5.6</ele>
        <time>2013-08-18T10:00:56Z</time>
      </trkpt>
      <trkpt lat="47.24362" lon="-1.56205">
        <ele>5.4</ele>
        <time>2013-08-18T10:00:58Z</time>
      </trkpt>
      <trkpt lat="47.24353" lon="-1.56192">
        <ele>4.8</ele>
        <time>2013-08-18T10:01:01Z</time>
      </trkpt>
      <trkpt lat="47.24346" lon="-1.56181">
        <ele>3.5</ele>
        <time>2013-08-18T10:01:03Z</time>
      </trkpt>
      <trkpt lat="47.24339" lon="-1.56168">
        <ele>2.8</ele>
        <time>2013-08-18T10:01:05Z</time>
      </trkpt>
      <trkpt lat="47.2433" lon="-1.56156">
        <ele>3.1</ele>
        <time>2013-08-18T10:01:07Z</time>
      </trkpt>
      <trkpt lat="47.24322" lon="-1.56146">
        <ele>3.4</ele>
        <time>2013-08-18T10:01:09Z</time>
      </trkpt>
      <trkpt lat="47.24313" lon="-1.56136">
        <ele>2.7</ele>
        <time>2013-08-18T10:01:11Z</time>
      </trkpt>
      <trkpt lat="47.24302" lon="-1.56124">
        <ele>1.1</ele>
        <time>2013-08-18T10:01:13Z</time>
      </trkpt>
      <trkpt lat="47.24292" lon="-1.56113">
        <ele>1.3</ele>
        <time>2013-08-18T10:01:15Z</time>
      </trkpt>
      <trkpt lat="47.24282" lon="-1.561">
        <ele>1</ele>
        <time>2013-08-18T10:01:17Z</time>
      </trkpt>
      <trkpt lat="47.24273" lon="-1.56085">
        <ele>1</ele>
        <time>2013-08-18T10:01:19Z</time>
      </trkpt>
      <trkpt lat="47.24267" lon="-1.5607">
        <ele>-0.5</ele>
        <time>2013-08-18T10:01:21Z</time>
      </trkpt>
      <trkpt lat="47.24264" lon="-1.56056">
        <ele>-0.7</ele>
        <time>2013-08-18T10:01:23Z</time>
      </trkpt>
      <trkpt lat="47.24271" lon="-1.56043">
        <ele>-1.3</ele>
        <time>2013-08-18T10:01:28Z</time>
      </trkpt>
      <trkpt lat="47.24273" lon="-1.56028">
        <ele>-1.5</ele>
        <time>2013-08-18T10:01:33Z</time>
      </trkpt>
      <trkpt lat="47.24269" lon="-1.56012">
        <ele>-1.3</ele>
        <time>2013-08-18T10:01:37Z</time>
      </trkpt>
      <trkpt lat="47.24264" lon="-1.55998">
        <ele>-1</ele>
        <time>2013-08-18T10:01:40Z</time>
      </trkpt>
      <trkpt lat="47.24259" lon="-1.55983">
        <ele>-1.1</ele>
        <time>2013-08-18T10:01:43Z</time>
      </trkpt>
      <trkpt lat="47.24256" lon="-1.55968">
        <ele>-1</ele>
        <time>2013-08-18T10:01:46Z</time>
      </trkpt>
      <trkpt lat="47.24253" lon="-1.55949">
        <ele>-0.7</ele>
        <time>2013-08-18T10:01:49Z</time>
      </trkpt>
      <trkpt lat="47.24252" lon="-1.5593">
        <ele>-0.4</ele>
        <time>2013-08-18T10:01:52Z</time>
      </trkpt>
      <trkpt lat="47.24252" lon="-1.55915">
        <ele>5.1</ele>
        <time>2013-08-18T10:01:55Z</time>
      </trkpt>
      <trkpt lat="47.24252" lon="-1.55898">
        <ele>0.3</ele>
        <time>2013-08-18T10:01:59Z</time>
      </trkpt>
      <trkpt lat="47.2425" lon="-1.5588">
        <ele>0.5</ele>
        <time>2013-08-18T10:02:02Z</time>
      </trkpt>
      <trkpt lat="47.2425" lon="-1.55864">
        <ele>0.9</ele>
        <time>2013-08-18T10:02:06Z</time>
      </trkpt>
      <trkpt lat="47.24249" lon="-1.5585">
        <ele>1.1</ele>
        <time>2013-08-18T10:02:09Z</time>
      </trkpt>
      <trkpt lat="47.24247" lon="-1.55833">
        <ele>1.2</ele>
        <time>2013-08-18T10:02:12Z</time>
      </trkpt>
      <trkpt lat="47.24246" lon="-1.55817">
        <ele>1.3</ele>
        <time>2013-08-18T10:02:15Z</time>
      </trkpt>
      <trkpt lat="47.24245" lon="-1.55804">
        <ele>1.4</ele>
        <time>2013-08-18T10:02:18Z</time>
      </trkpt>
      <trkpt lat="47.24242" lon="-1.55786">
        <ele>1.6</ele>
        <time>2013-08-18T10:02:21Z</time>
      </trkpt>
      <trkpt lat="47.2424" lon="-1.5577">
        <ele>1.6</ele>
        <time>2013-08-18T10:02:24Z</time>
      </trkpt>
      <trkpt lat="47.24238" lon="-1.55753">
        <ele>1.6</ele>
        <time>2013-08-18T10:02:27Z</time>
      </trkpt>
      <trkpt lat="47.24235" lon="-1.5574">
        <ele>1.7</ele>
        <time>2013-08-18T10:02:31Z</time>
      </trkpt>
      <trkpt lat="47.2423" lon="-1.55724">
        <ele>1.1</ele>
        <time>2013-08-18T10:02:35Z</time>
      </trkpt>
      <trkpt lat="47.24229" lon="-1.55707">
        <ele>0.8</ele>
        <time>2013-08-18T10:02:39Z</time>
      </trkpt>
      <trkpt lat="47.2423" lon="-1.55693">
        <ele>1</ele>
        <time>2013-08-18T10:02:45Z</time>
      </trkpt>
      <trkpt lat="47.2423" lon="-1.55679">
        <ele>1.1</ele>
        <time>2013-08-18T10:02:49Z</time>
      </trkpt>
      <trkpt lat="47.24228" lon="-1.55665">
        <ele>1.1</ele>
        <time>2013-08-18T10:02:54Z</time>
      </trkpt>
      <trkpt lat="47.24219" lon="-1.55659">
        <ele>1.3</ele>
        <time>2013-08-18T10:03:03Z</time>
      </trkpt>
      <trkpt lat="47.2421" lon="-1.55661">
        <ele>1.9</ele>
        <time>2013-08-18T10:03:06Z</time>
      </trkpt>
      <trkpt lat="47.242" lon="-1.55664">
        <ele>2.7</ele>
        <time>2013-08-18T10:03:10Z</time>
      </trkpt>
      <trkpt lat="47.2419" lon="-1.55668">
        <ele>3.7</ele>
        <time>2013-08-18T10:03:14Z</time>
      </trkpt>
      <trkpt lat="47.2418" lon="-1.5567">
        <ele>4.5</ele>
        <time>2013-08-18T10:03:18Z</time>
      </trkpt>
      <trkpt lat="47.2417" lon="-1.55674">
        <ele>5.1</ele>
        <time>2013-08-18T10:03:21Z</time>
      </trkpt>
      <trkpt lat="47.2416" lon="-1.55677">
        <ele>5.6</ele>
        <time>2013-08-18T10:03:24Z</time>
      </trkpt>
      <trkpt lat="47.24149" lon="-1.55679">
        <ele>6.4</ele>
        <time>2013-08-18T10:03:28Z</time>
      </trkpt>
      <trkpt lat="47.24139" lon="-1.55682">
        <ele>6.7</ele>
        <time>2013-08-18T10:03:32Z</time>
      </trkpt>
      <trkpt lat="47.24129" lon="-1.55685">
        <ele>6.7</ele>
        <time>2013-08-18T10:03:36Z</time>
      </trkpt>
      <trkpt lat="47.24119" lon="-1.5569">
        <ele>7</ele>
        <time>2013-08-18T10:03:40Z</time>
      </trkpt>
      <trkpt lat="47.24111" lon="-1.55701">
        <ele>7.7</ele>
        <time>2013-08-18T10:03:44Z</time>
      </trkpt>
      <trkpt lat="47.24105" lon="-1.55712">
        <ele>8.5</ele>
        <time>2013-08-18T10:03:47Z</time>
      </trkpt>
      <trkpt lat="47.24099" lon="-1.55725">
        <ele>9.2</ele>
        <time>2013-08-18T10:03:50Z</time>
      </trkpt>
      <trkpt lat="47.24095" lon="-1.55738">
        <ele>9.7</ele>
        <time>2013-08-18T10:03:53Z</time>
      </trkpt>
      <trkpt lat="47.24089" lon="-1.55754">
        <ele>10</ele>
        <time>2013-08-18T10:03:56Z</time>
      </trkpt>
      <trkpt lat="47.24084" lon="-1.55767">
        <ele>10.3</ele>
        <time>2013-08-18T10:03:59Z</time>
      </trkpt>
      <trkpt lat="47.2408" lon="-1.55784">
        <ele>10.7</ele>
        <time>2013-08-18T10:04:03Z</time>
      </trkpt>
      <trkpt lat="47.24077" lon="-1.55798">
        <ele>10.9</ele>
        <time>2013-08-18T10:04:06Z</time>
      </trkpt>
      <trkpt lat="47.24073" lon="-1.55812">
        <ele>10.9</ele>
        <time>2013-08-18T10:04:09Z</time>
      </trkpt>
      <trkpt lat="47.24069" lon="-1.55826">
        <ele>10.9</ele>
        <time>2013-08-18T10:04:12Z</time>
      </trkpt>
      <trkpt lat="47.24065" lon="-1.5584">
        <ele>10.8</ele>
        <time>2013-08-18T10:04:15Z</time>
      </trkpt>
      <trkpt lat="47.24059" lon="-1.55855">
        <ele>10.8</ele>
        <time>2013-08-18T10:04:19Z</time>
      </trkpt>
      <trkpt lat="47.24052" lon="-1.5587">
        <ele>11.2</ele>
        <time>2013-08-18T10:04:23Z</time>
      </trkpt>
      <trkpt lat="47.24046" lon="-1.55885">
        <ele>11.5</ele>
        <time>2013-08-18T10:04:26Z</time>
      </trkpt>
      <trkpt lat="47.24039" lon="-1.55898">
        <ele>11.8</ele>
        <time>2013-08-18T10:04:29Z</time>
      </trkpt>
      <trkpt lat="47.24035" lon="-1.55911">
        <ele>12.3</ele>
        <time>2013-08-18T10:04:32Z</time>
      </trkpt>
      <trkpt lat="47.24031" lon="-1.55927">
        <ele>12.7</ele>
        <time>2013-08-18T10:04:35Z</time>
      </trkpt>
      <trkpt lat="47.24028" lon="-1.55944">
        <ele>13.4</ele>
        <time>2013-08-18T10:04:39Z</time>
      </trkpt>
      <trkpt lat="47.24023" lon="-1.5596">
        <ele>13.8</ele>
        <time>2013-08-18T10:04:42Z</time>
      </trkpt>
      <trkpt lat="47.2402" lon="-1.55972">
        <ele>14.2</ele>
        <time>2013-08-18T10:04:45Z</time>
      </trkpt>
      <trkpt lat="47.24017" lon="-1.55987">
        <ele>14.6</ele>
        <time>2013-08-18T10:04:48Z</time>
      </trkpt>
      <trkpt lat="47.24014" lon="-1.56">
        <ele>15</ele>
        <time>2013-08-18T10:04:51Z</time>
      </trkpt>
      <trkpt lat="47.24009" lon="-1.56014">
        <ele>15.6</ele>
        <time>2013-08-18T10:04:55Z</time>
      </trkpt>
      <trkpt lat="47.24001" lon="-1.56024">
        <ele>15.8</ele>
        <time>2013-08-18T10:04:58Z</time>
      </trkpt>
      <trkpt lat="47.23991" lon="-1.56034">
        <ele>18</ele>
        <time>2013-08-18T10:05:02Z</time>
      </trkpt>
      <trkpt lat="47.23984" lon="-1.56044">
        <ele>18.5</ele>
        <time>2013-08-18T10:05:04Z</time>
      </trkpt>
      <trkpt lat="47.23975" lon="-1.56057">
        <ele>17.5</ele>
        <time>2013-08-18T10:05:06Z</time>
      </trkpt>
      <trkpt lat="47.23966" lon="-1.56069">
        <ele>16.1</ele>
        <time>2013-08-18T10:05:08Z</time>
      </trkpt>
      <trkpt lat="47.23958" lon="-1.5608">
        <ele>14.9</ele>
        <time>2013-08-18T10:05:10Z</time>
      </trkpt>
      <trkpt lat="47.2395" lon="-1.56089">
        <ele>14.8</ele>
        <time>2013-08-18T10:05:12Z</time>
      </trkpt>
      <trkpt lat="47.23939" lon="-1.561">
        <ele>14.8</ele>
        <time>2013-08-18T10:05:15Z</time>
      </trkpt>
      <trkpt lat="47.23932" lon="-1.56108">
        <ele>15.7</ele>
        <time>2013-08-18T10:05:17Z</time>
      </trkpt>
      <trkpt lat="47.23924" lon="-1.56116">
        <ele>17.3</ele>
        <time>2013-08-18T10:05:19Z</time>
      </trkpt>
      <trkpt lat="47.23913" lon="-1.56126">
        <ele>17.2</ele>
        <time>2013-08-18T10:05:22Z</time>
      </trkpt>
      <trkpt lat="47.23905" lon="-1.56134">
        <ele>17.8</ele>
        <time>2013-08-18T10:05:25Z</time>
      </trkpt>
      <trkpt lat="47.23895" lon="-1.56145">
        <ele>18.2</ele>
        <time>2013-08-18T10:05:28Z</time>
      </trkpt>
      <trkpt lat="47.23883" lon="-1.56156">
        <ele>18.2</ele>
        <time>2013-08-18T10:05:31Z</time>
      </trkpt>
      <trkpt lat="47.23873" lon="-1.56165">
        <ele>17.9</ele>
        <time>2013-08-18T10:05:34Z</time>
      </trkpt>
      <trkpt lat="47.23861" lon="-1.56175">
        <ele>18</ele>
        <time>2013-08-18T10:05:37Z</time>
      </trkpt>
      <trkpt lat="47.23853" lon="-1.56182">
        <ele>18</ele>
        <time>2013-08-18T10:05:39Z</time>
      </trkpt>
      <trkpt lat="47.23844" lon="-1.5619">
        <ele>18.9</ele>
        <time>2013-08-18T10:05:42Z</time>
      </trkpt>
      <trkpt lat="47.23835" lon="-1.56201">
        <ele>20</ele>
        <time>2013-08-18T10:05:45Z</time>
      </trkpt>
      <trkpt lat="47.23825" lon="-1.5621">
        <ele>21.4</ele>
        <time>2013-08-18T10:05:48Z</time>
      </trkpt>
      <trkpt lat="47.23814" lon="-1.5622">
        <ele>21.5</ele>
        <time>2013-08-18T10:05:51Z</time>
      </trkpt>
      <trkpt lat="47.23805" lon="-1.5623">
        <ele>21.7</ele>
        <time>2013-08-18T10:05:54Z</time>
      </trkpt>
      <trkpt lat="47.23795" lon="-1.56239">
        <ele>21.9</ele>
        <time>2013-08-18T10:05:57Z</time>
      </trkpt>
      <trkpt lat="47.23787" lon="-1.56247">
        <ele>21.7</ele>
        <time>2013-08-18T10:06:00Z</time>
      </trkpt>
      <trkpt lat="47.23778" lon="-1.56256">
        <ele>21.8</ele>
        <time>2013-08-18T10:06:03Z</time>
      </trkpt>
      <trkpt lat="47.23769" lon="-1.56265">
        <ele>22</ele>
        <time>2013-08-18T10:06:06Z</time>
      </trkpt>
      <trkpt lat="47.23759" lon="-1.56276">
        <ele>22.4</ele>
        <time>2013-08-18T10:06:09Z</time>
      </trkpt>
      <trkpt lat="47.23751" lon="-1.56286">
        <ele>22.7</ele>
        <time>2013-08-18T10:06:12Z</time>
      </trkpt>
      <trkpt lat="47.23743" lon="-1.56296">
        <ele>23</ele>
        <time>2013-08-18T10:06:15Z</time>
      </trkpt>
      <trkpt lat="47.23735" lon="-1.56304">
        <ele>23.4</ele>
        <time>2013-08-18T10:06:18Z</time>
      </trkpt>
      <trkpt lat="47.23726" lon="-1.56311">
        <ele>23.9</ele>
        <time>2013-08-18T10:06:21Z</time>
      </trkpt>
      <trkpt lat="47.23717" lon="-1.56318">
        <ele>24.5</ele>
        <time>2013-08-18T10:06:24Z</time>
      </trkpt>
      <trkpt lat="47.23707" lon="-1.56323">
        <ele>25</ele>
        <time>2013-08-18T10:06:27Z</time>
      </trkpt>
      <trkpt lat="47.23695" lon="-1.56326">
        <ele>25.5</ele>
        <time>2013-08-18T10:06:30Z</time>
      </trkpt>
      <trkpt lat="47.23684" lon="-1.56329">
        <ele>26.3</ele>
        <time>2013-08-18T10:06:34Z</time>
      </trkpt>
      <trkpt lat="47.23675" lon="-1.56332">
        <ele>27</ele>
        <time>2013-08-18T10:06:38Z</time>
      </trkpt>
      <trkpt lat="47.23665" lon="-1.56333">
        <ele>27.8</ele>
        <time>2013-08-18T10:06:42Z</time>
      </trkpt>
      <trkpt lat="47.23654" lon="-1.56333">
        <ele>28.8</ele>
        <time>2013-08-18T10:06:46Z</time>
      </trkpt>
      <trkpt lat="47.23645" lon="-1.56339">
        <ele>29.4</ele>
        <time>2013-08-18T10:06:49Z</time>
      </trkpt>
      <trkpt lat="47.23636" lon="-1.56342">
        <ele>29.7</ele>
        <time>2013-08-18T10:06:51Z</time>
      </trkpt>
      <trkpt lat="47.23625" lon="-1.56342">
        <ele>30.1</ele>
        <time>2013-08-18T10:06:54Z</time>
      </trkpt>
      <trkpt lat="47.23615" lon="-1.56343">
        <ele>30.3</ele>
        <time>2013-08-18T10:06:57Z</time>
      </trkpt>
      <trkpt lat="47.23606" lon="-1.56343">
        <ele>30.5</ele>
        <time>2013-08-18T10:07:01Z</time>
      </trkpt>
      <trkpt lat="47.23605" lon="-1.56358">
        <ele>30.7</ele>
        <time>2013-08-18T10:07:04Z</time>
      </trkpt>
      <trkpt lat="47.23605" lon="-1.56374">
        <ele>30.7</ele>
        <time>2013-08-18T10:07:08Z</time>
      </trkpt>
      <trkpt lat="47.23606" lon="-1.56388">
        <ele>30.6</ele>
        <time>2013-08-18T10:07:12Z</time>
      </trkpt>
      <trkpt lat="47.23606" lon="-1.56404">
        <ele>31</ele>
        <time>2013-08-18T10:07:16Z</time>
      </trkpt>
      <trkpt lat="47.23605" lon="-1.56418">
        <ele>31.2</ele>
        <time>2013-08-18T10:07:19Z</time>
      </trkpt>
      <trkpt lat="47.23605" lon="-1.56435">
        <ele>31</ele>
        <time>2013-08-18T10:07:24Z</time>
      </trkpt>
      <trkpt lat="47.23605" lon="-1.56451">
        <ele>30.6</ele>
        <time>2013-08-18T10:07:29Z</time>
      </trkpt>
      <trkpt lat="47.23603" lon="-1.56465">
        <ele>30.1</ele>
        <time>2013-08-18T10:07:34Z</time>
      </trkpt>
      <trkpt lat="47.23597" lon="-1.56477">
        <ele>29.9</ele>
        <time>2013-08-18T10:07:39Z</time>
      </trkpt>
      <trkpt lat="47.23591" lon="-1.56488">
        <ele>30.1</ele>
        <time>2013-08-18T10:07:44Z</time>
      </trkpt>
      <trkpt lat="47.23584" lon="-1.56498">
        <ele>30.4</ele>
        <time>2013-08-18T10:08:17Z</time>
      </trkpt>
      <trkpt lat="47.2358" lon="-1.56514">
        <ele>27.9</ele>
        <time>2013-08-18T10:12:57Z</time>
      </trkpt>
      <trkpt lat="47.23573" lon="-1.56526">
        <ele>27.9</ele>
        <time>2013-08-18T10:13:01Z</time>
      </trkpt>
      <trkpt lat="47.23565" lon="-1.5654">
        <ele>28.1</ele>
        <time>2013-08-18T10:13:05Z</time>
      </trkpt>
      <trkpt lat="47.23559" lon="-1.56551">
        <ele>28.2</ele>
        <time>2013-08-18T10:13:08Z</time>
      </trkpt>
      <trkpt lat="47.23555" lon="-1.56563">
        <ele>28.5</ele>
        <time>2013-08-18T10:13:15Z</time>
      </trkpt>
      <trkpt lat="47.23548" lon="-1.56576">
        <ele>28.1</ele>
        <time>2013-08-18T10:13:21Z</time>
      </trkpt>
      <trkpt lat="47.23544" lon="-1.56589">
        <ele>28</ele>
        <time>2013-08-18T10:13:26Z</time>
      </trkpt>
      <trkpt lat="47.23537" lon="-1.56602">
        <ele>28.1</ele>
        <time>2013-08-18T10:13:31Z</time>
      </trkpt>
      <trkpt lat="47.23531" lon="-1.56613">
        <ele>28.3</ele>
        <time>2013-08-18T10:13:34Z</time>
      </trkpt>
      <trkpt lat="47.23525" lon="-1.56625">
        <ele>28.3</ele>
        <time>2013-08-18T10:13:37Z</time>
      </trkpt>
      <trkpt lat="47.23519" lon="-1.56639">
        <ele>28.3</ele>
        <time>2013-08-18T10:13:41Z</time>
      </trkpt>
      <trkpt lat="47.23514" lon="-1.56651">
        <ele>28.5</ele>
        <time>2013-08-18T10:13:44Z</time>
      </trkpt>
      <trkpt lat="47.23508" lon="-1.56662">
        <ele>28.7</ele>
        <time>2013-08-18T10:13:47Z</time>
      </trkpt>
      <trkpt lat="47.23502" lon="-1.56677">
        <ele>28.9</ele>
        <time>2013-08-18T10:13:51Z</time>
      </trkpt>
      <trkpt lat="47.23496" lon="-1.56691">
        <ele>28.9</ele>
        <time>2013-08-18T10:13:54Z</time>
      </trkpt>
      <trkpt lat="47.23491" lon="-1.56703">
        <ele>28.8</ele>
        <time>2013-08-18T10:13:58Z</time>
      </trkpt>
      <trkpt lat="47.23482" lon="-1.56706">
        <ele>28.8</ele>
        <time>2013-08-18T10:14:09Z</time>
      </trkpt>
      <trkpt lat="47.23473" lon="-1.56697">
        <ele>28.9</ele>
        <time>2013-08-18T10:14:14Z</time>
      </trkpt>
      <trkpt lat="47.23463" lon="-1.56693">
        <ele>29</ele>
        <time>2013-08-18T10:14:18Z</time>
      </trkpt>
      <trkpt lat="47.23452" lon="-1.56691">
        <ele>29.7</ele>
        <time>2013-08-18T10:14:23Z</time>
      </trkpt>
      <trkpt lat="47.23444" lon="-1.56683">
        <ele>30.9</ele>
        <time>2013-08-18T10:14:28Z</time>
      </trkpt>
      <trkpt lat="47.23435" lon="-1.56676">
        <ele>32</ele>
        <time>2013-08-18T10:14:36Z</time>
      </trkpt>
      <trkpt lat="47.23427" lon="-1.56668">
        <ele>32.4</ele>
        <time>2013-08-18T10:14:42Z</time>
      </trkpt>
      <trkpt lat="47.23417" lon="-1.5666">
        <ele>33.5</ele>
        <time>2013-08-18T10:14:48Z</time>
      </trkpt>
      <trkpt lat="47.2341" lon="-1.56668">
        <ele>34.1</ele>
        <time>2013-08-18T10:15:25Z</time>
      </trkpt>
      <trkpt lat="47.23419" lon="-1.56676">
        <ele>34.1</ele>
        <time>2013-08-18T10:15:48Z</time>
      </trkpt>
      <trkpt lat="47.23431" lon="-1.56684">
        <ele>34.6</ele>
        <time>2013-08-18T10:15:51Z</time>
      </trkpt>
      <trkpt lat="47.2344" lon="-1.5669">
        <ele>35</ele>
        <time>2013-08-18T10:15:54Z</time>
      </trkpt>
      <trkpt lat="47.2345" lon="-1.56696">
        <ele>35.4</ele>
        <time>2013-08-18T10:15:57Z</time>
      </trkpt>
      <trkpt lat="47.23459" lon="-1.56702">
        <ele>35.7</ele>
        <time>2013-08-18T10:16:00Z</time>
      </trkpt>
      <trkpt lat="47.2347" lon="-1.56711">
        <ele>35.9</ele>
        <time>2013-08-18T10:16:03Z</time>
      </trkpt>
      <trkpt lat="47.2348" lon="-1.5672">
        <ele>36.9</ele>
        <time>2013-08-18T10:16:06Z</time>
      </trkpt>
      <trkpt lat="47.23489" lon="-1.56728">
        <ele>37.2</ele>
        <time>2013-08-18T10:16:09Z</time>
      </trkpt>
      <trkpt lat="47.23499" lon="-1.56735">
        <ele>37.3</ele>
        <time>2013-08-18T10:16:12Z</time>
      </trkpt>
      <trkpt lat="47.23508" lon="-1.56742">
        <ele>37.5</ele>
        <time>2013-08-18T10:16:15Z</time>
      </trkpt>
      <trkpt lat="47.23517" lon="-1.5675">
        <ele>37.3</ele>
        <time>2013-08-18T10:16:18Z</time>
      </trkpt>
      <trkpt lat="47.23521" lon="-1.56762">
        <ele>37.1</ele>
        <time>2013-08-18T10:16:22Z</time>
      </trkpt>
      <trkpt lat="47.23519" lon="-1.56776">
        <ele>36.9</ele>
        <time>2013-08-18T10:16:25Z</time>
      </trkpt>
      <trkpt lat="47.23515" lon="-1.56789">
        <ele>34.7</ele>
        <time>2013-08-18T10:16:27Z</time>
      </trkpt>
      <trkpt lat="47.2351" lon="-1.56804">
        <ele>32.7</ele>
        <time>2013-08-18T10:16:29Z</time>
      </trkpt>
      <trkpt lat="47.23507" lon="-1.56817">
        <ele>31.1</ele>
        <time>2013-08-18T10:16:31Z</time>
      </trkpt>
      <trkpt lat="47.23505" lon="-1.56831">
        <ele>29.8</ele>
        <time>2013-08-18T10:16:33Z</time>
      </trkpt>
      <trkpt lat="47.235" lon="-1.56846">
        <ele>27.7</ele>
        <time>2013-08-18T10:16:35Z</time>
      </trkpt>
      <trkpt lat="47.23494" lon="-1.56861">
        <ele>25.2</ele>
        <time>2013-08-18T10:16:37Z</time>
      </trkpt>
      <trkpt lat="47.2349" lon="-1.56874">
        <ele>25</ele>
        <time>2013-08-18T10:16:39Z</time>
      </trkpt>
      <trkpt lat="47.23494" lon="-1.56889">
        <ele>25</ele>
        <time>2013-08-18T10:16:43Z</time>
      </trkpt>
      <trkpt lat="47.23505" lon="-1.56898">
        <ele>25.2</ele>
        <time>2013-08-18T10:16:47Z</time>
      </trkpt>
      <trkpt lat="47.23515" lon="-1.56908">
        <ele>26.8</ele>
        <time>2013-08-18T10:16:50Z</time>
      </trkpt>
      <trkpt lat="47.23527" lon="-1.56917">
        <ele>28.1</ele>
        <time>2013-08-18T10:16:53Z</time>
      </trkpt>
      <trkpt lat="47.23537" lon="-1.56927">
        <ele>28</ele>
        <time>2013-08-18T10:16:56Z</time>
      </trkpt>
      <trkpt lat="47.23545" lon="-1.56935">
        <ele>28</ele>
        <time>2013-08-18T10:17:00Z</time>
      </trkpt>
      <trkpt lat="47.23546" lon="-1.56949">
        <ele>27.8</ele>
        <time>2013-08-18T10:17:04Z</time>
      </trkpt>
      <trkpt lat="47.23542" lon="-1.56964">
        <ele>27.7</ele>
        <time>2013-08-18T10:17:07Z</time>
      </trkpt>
      <trkpt lat="47.23536" lon="-1.56981">
        <ele>28.2</ele>
        <time>2013-08-18T10:17:09Z</time>
      </trkpt>
      <trkpt lat="47.2353" lon="-1.56996">
        <ele>28</ele>
        <time>2013-08-18T10:17:11Z</time>
      </trkpt>
      <trkpt lat="47.23524" lon="-1.57009">
        <ele>27.2</ele>
        <time>2013-08-18T10:17:13Z</time>
      </trkpt>
      <trkpt lat="47.23517" lon="-1.57022">
        <ele>25.7</ele>
        <time>2013-08-18T10:17:15Z</time>
      </trkpt>
      <trkpt lat="47.23512" lon="-1.57035">
        <ele>24.2</ele>
        <time>2013-08-18T10:17:17Z</time>
      </trkpt>
      <trkpt lat="47.23507" lon="-1.57048">
        <ele>22.3</ele>
        <time>2013-08-18T10:17:19Z</time>
      </trkpt>
      <trkpt lat="47.23501" lon="-1.57063">
        <ele>19.9</ele>
        <time>2013-08-18T10:17:21Z</time>
      </trkpt>
      <trkpt lat="47.23496" lon="-1.57076">
        <ele>18.5</ele>
        <time>2013-08-18T10:17:23Z</time>
      </trkpt>
      <trkpt lat="47.23491" lon="-1.57088">
        <ele>18.2</ele>
        <time>2013-08-18T10:17:25Z</time>
      </trkpt>
      <trkpt lat="47.23487" lon="-1.571">
        <ele>18.5</ele>
        <time>2013-08-18T10:17:27Z</time>
      </trkpt>
      <trkpt lat="47.23482" lon="-1.57113">
        <ele>18.6</ele>
        <time>2013-08-18T10:17:29Z</time>
      </trkpt>
      <trkpt lat="47.23476" lon="-1.57128">
        <ele>19.2</ele>
        <time>2013-08-18T10:17:31Z</time>
      </trkpt>
      <trkpt lat="47.23471" lon="-1.57141">
        <ele>19.7</ele>
        <time>2013-08-18T10:17:33Z</time>
      </trkpt>
      <trkpt lat="47.23467" lon="-1.57155">
        <ele>19.9</ele>
        <time>2013-08-18T10:17:35Z</time>
      </trkpt>
      <trkpt lat="47.23462" lon="-1.57166">
        <ele>20.7</ele>
        <time>2013-08-18T10:17:37Z</time>
      </trkpt>
      <trkpt lat="47.23457" lon="-1.57178">
        <ele>21.4</ele>
        <time>2013-08-18T10:17:39Z</time>
      </trkpt>
      <trkpt lat="47.23451" lon="-1.57192">
        <ele>21.4</ele>
        <time>2013-08-18T10:17:41Z</time>
      </trkpt>
      <trkpt lat="47.23446" lon="-1.57207">
        <ele>20.7</ele>
        <time>2013-08-18T10:17:43Z</time>
      </trkpt>
      <trkpt lat="47.23441" lon="-1.57222">
        <ele>21.2</ele>
        <time>2013-08-18T10:17:45Z</time>
      </trkpt>
      <trkpt lat="47.23436" lon="-1.57235">
        <ele>21.5</ele>
        <time>2013-08-18T10:17:47Z</time>
      </trkpt>
      <trkpt lat="47.23431" lon="-1.57249">
        <ele>20.9</ele>
        <time>2013-08-18T10:17:49Z</time>
      </trkpt>
      <trkpt lat="47.23425" lon="-1.57263">
        <ele>20.1</ele>
        <time>2013-08-18T10:17:51Z</time>
      </trkpt>
      <trkpt lat="47.2342" lon="-1.57275">
        <ele>19.9</ele>
        <time>2013-08-18T10:17:53Z</time>
      </trkpt>
      <trkpt lat="47.23415" lon="-1.57287">
        <ele>19.5</ele>
        <time>2013-08-18T10:17:55Z</time>
      </trkpt>
      <trkpt lat="47.2341" lon="-1.573">
        <ele>19.3</ele>
        <time>2013-08-18T10:17:57Z</time>
      </trkpt>
      <trkpt lat="47.23406" lon="-1.57315">
        <ele>19.6</ele>
        <time>2013-08-18T10:17:59Z</time>
      </trkpt>
      <trkpt lat="47.234" lon="-1.57332">
        <ele>19.6</ele>
        <time>2013-08-18T10:18:02Z</time>
      </trkpt>
      <trkpt lat="47.23396" lon="-1.57344">
        <ele>19.5</ele>
        <time>2013-08-18T10:18:04Z</time>
      </trkpt>
      <trkpt lat="47.23391" lon="-1.57356">
        <ele>18.7</ele>
        <time>2013-08-18T10:18:06Z</time>
      </trkpt>
      <trkpt lat="47.23386" lon="-1.57367">
        <ele>18.5</ele>
        <time>2013-08-18T10:18:08Z</time>
      </trkpt>
      <trkpt lat="47.23381" lon="-1.57379">
        <ele>18.4</ele>
        <time>2013-08-18T10:18:10Z</time>
      </trkpt>
      <trkpt lat="47.23377" lon="-1.57392">
        <ele>18.7</ele>
        <time>2013-08-18T10:18:12Z</time>
      </trkpt>
      <trkpt lat="47.23372" lon="-1.57405">
        <ele>20.1</ele>
        <time>2013-08-18T10:18:14Z</time>
      </trkpt>
      <trkpt lat="47.23367" lon="-1.57417">
        <ele>21</ele>
        <time>2013-08-18T10:18:16Z</time>
      </trkpt>
      <trkpt lat="47.23363" lon="-1.57432">
        <ele>25</ele>
        <time>2013-08-18T10:18:19Z</time>
      </trkpt>
      <trkpt lat="47.23357" lon="-1.57449">
        <ele>29.7</ele>
        <time>2013-08-18T10:18:22Z</time>
      </trkpt>
      <trkpt lat="47.23352" lon="-1.57465">
        <ele>31.3</ele>
        <time>2013-08-18T10:18:25Z</time>
      </trkpt>
      <trkpt lat="47.23346" lon="-1.57482">
        <ele>31.7</ele>
        <time>2013-08-18T10:18:28Z</time>
      </trkpt>
      <trkpt lat="47.2334" lon="-1.57496">
        <ele>31.2</ele>
        <time>2013-08-18T10:18:30Z</time>
      </trkpt>
      <trkpt lat="47.23335" lon="-1.57508">
        <ele>30.4</ele>
        <time>2013-08-18T10:18:32Z</time>
      </trkpt>
      <trkpt lat="47.23331" lon="-1.5752">
        <ele>30.3</ele>
        <time>2013-08-18T10:18:34Z</time>
      </trkpt>
      <trkpt lat="47.23326" lon="-1.57532">
        <ele>30.1</ele>
        <time>2013-08-18T10:18:36Z</time>
      </trkpt>
      <trkpt lat="47.23322" lon="-1.57546">
        <ele>30.4</ele>
        <time>2013-08-18T10:18:38Z</time>
      </trkpt>
      <trkpt lat="47.23317" lon="-1.57559">
        <ele>31.1</ele>
        <time>2013-08-18T10:18:40Z</time>
      </trkpt>
      <trkpt lat="47.23311" lon="-1.57575">
        <ele>31</ele>
        <time>2013-08-18T10:18:43Z</time>
      </trkpt>
      <trkpt lat="47.23305" lon="-1.57589">
        <ele>31.2</ele>
        <time>2013-08-18T10:18:46Z</time>
      </trkpt>
      <trkpt lat="47.23298" lon="-1.57602">
        <ele>31.1</ele>
        <time>2013-08-18T10:18:49Z</time>
      </trkpt>
      <trkpt lat="47.23293" lon="-1.57614">
        <ele>30.8</ele>
        <time>2013-08-18T10:18:51Z</time>
      </trkpt>
      <trkpt lat="47.23286" lon="-1.57628">
        <ele>30.7</ele>
        <time>2013-08-18T10:18:54Z</time>
      </trkpt>
      <trkpt lat="47.23277" lon="-1.5764">
        <ele>30.6</ele>
        <time>2013-08-18T10:18:57Z</time>
      </trkpt>
      <trkpt lat="47.23273" lon="-1.57657">
        <ele>30.7</ele>
        <time>2013-08-18T10:19:00Z</time>
      </trkpt>
      <trkpt lat="47.23269" lon="-1.57672">
        <ele>31</ele>
        <time>2013-08-18T10:19:03Z</time>
      </trkpt>
      <trkpt lat="47.23265" lon="-1.57689">
        <ele>34.2</ele>
        <time>2013-08-18T10:19:06Z</time>
      </trkpt>
      <trkpt lat="47.23262" lon="-1.57703">
        <ele>35.6</ele>
        <time>2013-08-18T10:19:08Z</time>
      </trkpt>
      <trkpt lat="47.23255" lon="-1.5772">
        <ele>35.7</ele>
        <time>2013-08-18T10:19:11Z</time>
      </trkpt>
      <trkpt lat="47.23255" lon="-1.57733">
        <ele>35.8</ele>
        <time>2013-08-18T10:19:14Z</time>
      </trkpt>
      <trkpt lat="47.23261" lon="-1.57749">
        <ele>35.9</ele>
        <time>2013-08-18T10:19:17Z</time>
      </trkpt>
      <trkpt lat="47.23261" lon="-1.57767">
        <ele>35.9</ele>
        <time>2013-08-18T10:19:20Z</time>
      </trkpt>
      <trkpt lat="47.23266" lon="-1.57784">
        <ele>37.1</ele>
        <time>2013-08-18T10:19:23Z</time>
      </trkpt>
      <trkpt lat="47.23274" lon="-1.57798">
        <ele>37.1</ele>
        <time>2013-08-18T10:19:27Z</time>
      </trkpt>
      <trkpt lat="47.23265" lon="-1.57806">
        <ele>36.3</ele>
        <time>2013-08-18T10:19:31Z</time>
      </trkpt>
      <trkpt lat="47.23256" lon="-1.5781">
        <ele>36.3</ele>
        <time>2013-08-18T10:19:33Z</time>
      </trkpt>
      <trkpt lat="47.23245" lon="-1.57813">
        <ele>36.3</ele>
        <time>2013-08-18T10:19:36Z</time>
      </trkpt>
      <trkpt lat="47.23235" lon="-1.57818">
        <ele>36.6</ele>
        <time>2013-08-18T10:19:39Z</time>
      </trkpt>
      <trkpt lat="47.23223" lon="-1.57826">
        <ele>37.1</ele>
        <time>2013-08-18T10:19:42Z</time>
      </trkpt>
      <trkpt lat="47.23214" lon="-1.57832">
        <ele>37.8</ele>
        <time>2013-08-18T10:19:45Z</time>
      </trkpt>
      <trkpt lat="47.23204" lon="-1.57837">
        <ele>40.9</ele>
        <time>2013-08-18T10:19:48Z</time>
      </trkpt>
      <trkpt lat="47.23194" lon="-1.57843">
        <ele>42.9</ele>
        <time>2013-08-18T10:19:51Z</time>
      </trkpt>
      <trkpt lat="47.23182" lon="-1.57849">
        <ele>41.7</ele>
        <time>2013-08-18T10:19:54Z</time>
      </trkpt>
      <trkpt lat="47.2317" lon="-1.57855">
        <ele>40.1</ele>
        <time>2013-08-18T10:19:57Z</time>
      </trkpt>
      <trkpt lat="47.2316" lon="-1.57859">
        <ele>39.9</ele>
        <time>2013-08-18T10:19:59Z</time>
      </trkpt>
      <trkpt lat="47.23149" lon="-1.57864">
        <ele>39.2</ele>
        <time>2013-08-18T10:20:01Z</time>
      </trkpt>
      <trkpt lat="47.23139" lon="-1.57868">
        <ele>37.2</ele>
        <time>2013-08-18T10:20:03Z</time>
      </trkpt>
      <trkpt lat="47.23129" lon="-1.57871">
        <ele>34.9</ele>
        <time>2013-08-18T10:20:05Z</time>
      </trkpt>
      <trkpt lat="47.23117" lon="-1.57875">
        <ele>32.8</ele>
        <time>2013-08-18T10:20:07Z</time>
      </trkpt>
      <trkpt lat="47.23106" lon="-1.57879">
        <ele>32.2</ele>
        <time>2013-08-18T10:20:09Z</time>
      </trkpt>
      <trkpt lat="47.23095" lon="-1.57884">
        <ele>33.7</ele>
        <time>2013-08-18T10:20:11Z</time>
      </trkpt>
      <trkpt lat="47.23085" lon="-1.57888">
        <ele>34.9</ele>
        <time>2013-08-18T10:20:13Z</time>
      </trkpt>
      <trkpt lat="47.23073" lon="-1.57893">
        <ele>35.2</ele>
        <time>2013-08-18T10:20:15Z</time>
      </trkpt>
      <trkpt lat="47.23061" lon="-1.57898">
        <ele>34.6</ele>
        <time>2013-08-18T10:20:17Z</time>
      </trkpt>
      <trkpt lat="47.23052" lon="-1.57906">
        <ele>34.1</ele>
        <time>2013-08-18T10:20:19Z</time>
      </trkpt>
      <trkpt lat="47.23048" lon="-1.57919">
        <ele>35</ele>
        <time>2013-08-18T10:20:21Z</time>
      </trkpt>
      <trkpt lat="47.2305" lon="-1.57935">
        <ele>35.5</ele>
        <time>2013-08-18T10:20:23Z</time>
      </trkpt>
      <trkpt lat="47.23055" lon="-1.5795">
        <ele>35.4</ele>
        <time>2013-08-18T10:20:25Z</time>
      </trkpt>
      <trkpt lat="47.23059" lon="-1.57965">
        <ele>35.6</ele>
        <time>2013-08-18T10:20:27Z</time>
      </trkpt>
      <trkpt lat="47.23064" lon="-1.5798">
        <ele>36.3</ele>
        <time>2013-08-18T10:20:29Z</time>
      </trkpt>
      <trkpt lat="47.23071" lon="-1.57996">
        <ele>36.3</ele>
        <time>2013-08-18T10:20:31Z</time>
      </trkpt>
      <trkpt lat="47.23076" lon="-1.58013">
        <ele>37.1</ele>
        <time>2013-08-18T10:20:33Z</time>
      </trkpt>
      <trkpt lat="47.2308" lon="-1.58028">
        <ele>37.6</ele>
        <time>2013-08-18T10:20:35Z</time>
      </trkpt>
      <trkpt lat="47.23084" lon="-1.58041">
        <ele>37.6</ele>
        <time>2013-08-18T10:20:37Z</time>
      </trkpt>
      <trkpt lat="47.23089" lon="-1.58056">
        <ele>37.8</ele>
        <time>2013-08-18T10:20:39Z</time>
      </trkpt>
      <trkpt lat="47.23093" lon="-1.5807">
        <ele>37.9</ele>
        <time>2013-08-18T10:20:41Z</time>
      </trkpt>
      <trkpt lat="47.23097" lon="-1.58084">
        <ele>38.3</ele>
        <time>2013-08-18T10:20:43Z</time>
      </trkpt>
      <trkpt lat="47.231" lon="-1.58097">
        <ele>38.3</ele>
        <time>2013-08-18T10:20:45Z</time>
      </trkpt>
      <trkpt lat="47.23105" lon="-1.5811">
        <ele>37.7</ele>
        <time>2013-08-18T10:20:47Z</time>
      </trkpt>
      <trkpt lat="47.23108" lon="-1.58122">
        <ele>37.5</ele>
        <time>2013-08-18T10:20:49Z</time>
      </trkpt>
      <trkpt lat="47.23112" lon="-1.58134">
        <ele>37.3</ele>
        <time>2013-08-18T10:20:51Z</time>
      </trkpt>
      <trkpt lat="47.23118" lon="-1.58152">
        <ele>37.7</ele>
        <time>2013-08-18T10:20:54Z</time>
      </trkpt>
      <trkpt lat="47.23121" lon="-1.58165">
        <ele>37.9</ele>
        <time>2013-08-18T10:20:56Z</time>
      </trkpt>
      <trkpt lat="47.23125" lon="-1.58178">
        <ele>38.7</ele>
        <time>2013-08-18T10:20:58Z</time>
      </trkpt>
      <trkpt lat="47.23128" lon="-1.58191">
        <ele>39.2</ele>
        <time>2013-08-18T10:21:00Z</time>
      </trkpt>
      <trkpt lat="47.23132" lon="-1.58209">
        <ele>40</ele>
        <time>2013-08-18T10:21:03Z</time>
      </trkpt>
      <trkpt lat="47.23138" lon="-1.58226">
        <ele>40.6</ele>
        <time>2013-08-18T10:21:06Z</time>
      </trkpt>
      <trkpt lat="47.23142" lon="-1.58242">
        <ele>40.5</ele>
        <time>2013-08-18T10:21:09Z</time>
      </trkpt>
      <trkpt lat="47.23146" lon="-1.5826">
        <ele>40.4</ele>
        <time>2013-08-18T10:21:12Z</time>
      </trkpt>
      <trkpt lat="47.23149" lon="-1.58274">
        <ele>39.9</ele>
        <time>2013-08-18T10:21:15Z</time>
      </trkpt>
      <trkpt lat="47.23154" lon="-1.5829">
        <ele>40.1</ele>
        <time>2013-08-18T10:21:18Z</time>
      </trkpt>
      <trkpt lat="47.23158" lon="-1.58302">
        <ele>39.9</ele>
        <time>2013-08-18T10:21:20Z</time>
      </trkpt>
      <trkpt lat="47.23163" lon="-1.58316">
        <ele>39.9</ele>
        <time>2013-08-18T10:21:23Z</time>
      </trkpt>
      <trkpt lat="47.2317" lon="-1.58331">
        <ele>40.2</ele>
        <time>2013-08-18T10:21:26Z</time>
      </trkpt>
      <trkpt lat="47.23176" lon="-1.58344">
        <ele>40.3</ele>
        <time>2013-08-18T10:21:29Z</time>
      </trkpt>
      <trkpt lat="47.23184" lon="-1.58357">
        <ele>40.3</ele>
        <time>2013-08-18T10:21:32Z</time>
      </trkpt>
      <trkpt lat="47.23194" lon="-1.5837">
        <ele>42.4</ele>
        <time>2013-08-18T10:21:35Z</time>
      </trkpt>
      <trkpt lat="47.23201" lon="-1.58379">
        <ele>43.8</ele>
        <time>2013-08-18T10:21:37Z</time>
      </trkpt>
      <trkpt lat="47.23209" lon="-1.5839">
        <ele>44.2</ele>
        <time>2013-08-18T10:21:39Z</time>
      </trkpt>
      <trkpt lat="47.23217" lon="-1.58403">
        <ele>43</ele>
        <time>2013-08-18T10:21:41Z</time>
      </trkpt>
      <trkpt lat="47.23224" lon="-1.58414">
        <ele>43.6</ele>
        <time>2013-08-18T10:21:43Z</time>
      </trkpt>
      <trkpt lat="47.2323" lon="-1.58425">
        <ele>44.2</ele>
        <time>2013-08-18T10:21:45Z</time>
      </trkpt>
      <trkpt lat="47.23237" lon="-1.58438">
        <ele>43.4</ele>
        <time>2013-08-18T10:21:47Z</time>
      </trkpt>
      <trkpt lat="47.23245" lon="-1.58449">
        <ele>43.1</ele>
        <time>2013-08-18T10:21:49Z</time>
      </trkpt>
      <trkpt lat="47.23252" lon="-1.58463">
        <ele>42.3</ele>
        <time>2013-08-18T10:21:51Z</time>
      </trkpt>
      <trkpt lat="47.23259" lon="-1.58473">
        <ele>42</ele>
        <time>2013-08-18T10:21:53Z</time>
      </trkpt>
      <trkpt lat="47.23267" lon="-1.58483">
        <ele>40.4</ele>
        <time>2013-08-18T10:21:55Z</time>
      </trkpt>
      <trkpt lat="47.23275" lon="-1.58495">
        <ele>40.1</ele>
        <time>2013-08-18T10:21:57Z</time>
      </trkpt>
      <trkpt lat="47.23282" lon="-1.58508">
        <ele>40.6</ele>
        <time>2013-08-18T10:21:59Z</time>
      </trkpt>
      <trkpt lat="47.23291" lon="-1.58523">
        <ele>39.8</ele>
        <time>2013-08-18T10:22:01Z</time>
      </trkpt>
      <trkpt lat="47.233" lon="-1.58542">
        <ele>39.1</ele>
        <time>2013-08-18T10:22:03Z</time>
      </trkpt>
      <trkpt lat="47.23307" lon="-1.58558">
        <ele>38.8</ele>
        <time>2013-08-18T10:22:05Z</time>
      </trkpt>
      <trkpt lat="47.23313" lon="-1.58574">
        <ele>38.3</ele>
        <time>2013-08-18T10:22:07Z</time>
      </trkpt>
      <trkpt lat="47.23319" lon="-1.58587">
        <ele>37.6</ele>
        <time>2013-08-18T10:22:09Z</time>
      </trkpt>
      <trkpt lat="47.23325" lon="-1.58598">
        <ele>38.1</ele>
        <time>2013-08-18T10:22:11Z</time>
      </trkpt>
      <trkpt lat="47.23332" lon="-1.58609">
        <ele>37.6</ele>
        <time>2013-08-18T10:22:13Z</time>
      </trkpt>
      <trkpt lat="47.23336" lon="-1.58625">
        <ele>38.3</ele>
        <time>2013-08-18T10:22:16Z</time>
      </trkpt>
      <trkpt lat="47.23326" lon="-1.58639">
        <ele>39.8</ele>
        <time>2013-08-18T10:22:19Z</time>
      </trkpt>
      <trkpt lat="47.23317" lon="-1.58648">
        <ele>40.5</ele>
        <time>2013-08-18T10:22:21Z</time>
      </trkpt>
      <trkpt lat="47.23308" lon="-1.5866">
        <ele>40.4</ele>
        <time>2013-08-18T10:22:23Z</time>
      </trkpt>
      <trkpt lat="47.23297" lon="-1.58672">
        <ele>40.2</ele>
        <time>2013-08-18T10:22:25Z</time>
      </trkpt>
      <trkpt lat="47.23287" lon="-1.58682">
        <ele>39.4</ele>
        <time>2013-08-18T10:22:27Z</time>
      </trkpt>
      <trkpt lat="47.23276" lon="-1.58695">
        <ele>37.4</ele>
        <time>2013-08-18T10:22:29Z</time>
      </trkpt>
      <trkpt lat="47.23265" lon="-1.58707">
        <ele>35.6</ele>
        <time>2013-08-18T10:22:31Z</time>
      </trkpt>
      <trkpt lat="47.23255" lon="-1.5872">
        <ele>33.9</ele>
        <time>2013-08-18T10:22:33Z</time>
      </trkpt>
      <trkpt lat="47.23244" lon="-1.58733">
        <ele>31.9</ele>
        <time>2013-08-18T10:22:35Z</time>
      </trkpt>
      <trkpt lat="47.23234" lon="-1.58746">
        <ele>30.6</ele>
        <time>2013-08-18T10:22:37Z</time>
      </trkpt>
      <trkpt lat="47.23225" lon="-1.58758">
        <ele>30.4</ele>
        <time>2013-08-18T10:22:39Z</time>
      </trkpt>
      <trkpt lat="47.23215" lon="-1.5877">
        <ele>31.9</ele>
        <time>2013-08-18T10:22:41Z</time>
      </trkpt>
      <trkpt lat="47.23205" lon="-1.58781">
        <ele>33.7</ele>
        <time>2013-08-18T10:22:43Z</time>
      </trkpt>
      <trkpt lat="47.23195" lon="-1.58793">
        <ele>34.2</ele>
        <time>2013-08-18T10:22:45Z</time>
      </trkpt>
      <trkpt lat="47.23185" lon="-1.58805">
        <ele>33.8</ele>
        <time>2013-08-18T10:22:47Z</time>
      </trkpt>
      <trkpt lat="47.23175" lon="-1.58817">
        <ele>34</ele>
        <time>2013-08-18T10:22:49Z</time>
      </trkpt>
      <trkpt lat="47.23166" lon="-1.58828">
        <ele>34.6</ele>
        <time>2013-08-18T10:22:51Z</time>
      </trkpt>
      <trkpt lat="47.23156" lon="-1.5884">
        <ele>34.9</ele>
        <time>2013-08-18T10:22:53Z</time>
      </trkpt>
      <trkpt lat="47.23146" lon="-1.58851">
        <ele>34.3</ele>
        <time>2013-08-18T10:22:55Z</time>
      </trkpt>
      <trkpt lat="47.23136" lon="-1.58863">
        <ele>33.4</ele>
        <time>2013-08-18T10:22:57Z</time>
      </trkpt>
      <trkpt lat="47.23127" lon="-1.58872">
        <ele>32.9</ele>
        <time>2013-08-18T10:22:59Z</time>
      </trkpt>
      <trkpt lat="47.2312" lon="-1.58885">
        <ele>33.5</ele>
        <time>2013-08-18T10:23:02Z</time>
      </trkpt>
      <trkpt lat="47.23116" lon="-1.58897">
        <ele>33.4</ele>
        <time>2013-08-18T10:23:05Z</time>
      </trkpt>
      <trkpt lat="47.23123" lon="-1.58913">
        <ele>33.2</ele>
        <time>2013-08-18T10:23:09Z</time>
      </trkpt>
      <trkpt lat="47.23128" lon="-1.58925">
        <ele>33</ele>
        <time>2013-08-18T10:23:11Z</time>
      </trkpt>
      <trkpt lat="47.23134" lon="-1.58937">
        <ele>31</ele>
        <time>2013-08-18T10:23:13Z</time>
      </trkpt>
      <trkpt lat="47.2314" lon="-1.58948">
        <ele>30.2</ele>
        <time>2013-08-18T10:23:15Z</time>
      </trkpt>
      <trkpt lat="47.23148" lon="-1.5896">
        <ele>27.6</ele>
        <time>2013-08-18T10:23:17Z</time>
      </trkpt>
      <trkpt lat="47.23155" lon="-1.58973">
        <ele>26.1</ele>
        <time>2013-08-18T10:23:19Z</time>
      </trkpt>
      <trkpt lat="47.23162" lon="-1.58984">
        <ele>26.1</ele>
        <time>2013-08-18T10:23:21Z</time>
      </trkpt>
      <trkpt lat="47.23171" lon="-1.58999">
        <ele>27.5</ele>
        <time>2013-08-18T10:23:23Z</time>
      </trkpt>
      <trkpt lat="47.2318" lon="-1.59016">
        <ele>27.5</ele>
        <time>2013-08-18T10:23:25Z</time>
      </trkpt>
      <trkpt lat="47.23188" lon="-1.59029">
        <ele>27.7</ele>
        <time>2013-08-18T10:23:27Z</time>
      </trkpt>
      <trkpt lat="47.23196" lon="-1.5904">
        <ele>27.1</ele>
        <time>2013-08-18T10:23:29Z</time>
      </trkpt>
      <trkpt lat="47.23204" lon="-1.59051">
        <ele>27.1</ele>
        <time>2013-08-18T10:23:31Z</time>
      </trkpt>
      <trkpt lat="47.23209" lon="-1.59063">
        <ele>27</ele>
        <time>2013-08-18T10:23:33Z</time>
      </trkpt>
      <trkpt lat="47.23205" lon="-1.59078">
        <ele>27.4</ele>
        <time>2013-08-18T10:23:35Z</time>
      </trkpt>
      <trkpt lat="47.23198" lon="-1.59091">
        <ele>27.3</ele>
        <time>2013-08-18T10:23:37Z</time>
      </trkpt>
      <trkpt lat="47.2319" lon="-1.59102">
        <ele>26.1</ele>
        <time>2013-08-18T10:23:39Z</time>
      </trkpt>
      <trkpt lat="47.23182" lon="-1.59116">
        <ele>24.6</ele>
        <time>2013-08-18T10:23:41Z</time>
      </trkpt>
      <trkpt lat="47.23175" lon="-1.59129">
        <ele>23.8</ele>
        <time>2013-08-18T10:23:43Z</time>
      </trkpt>
      <trkpt lat="47.23167" lon="-1.59142">
        <ele>23.7</ele>
        <time>2013-08-18T10:23:45Z</time>
      </trkpt>
      <trkpt lat="47.2316" lon="-1.59154">
        <ele>23.2</ele>
        <time>2013-08-18T10:23:47Z</time>
      </trkpt>
      <trkpt lat="47.23152" lon="-1.59167">
        <ele>22.6</ele>
        <time>2013-08-18T10:23:49Z</time>
      </trkpt>
      <trkpt lat="47.23144" lon="-1.59179">
        <ele>22.1</ele>
        <time>2013-08-18T10:23:51Z</time>
      </trkpt>
      <trkpt lat="47.23138" lon="-1.59191">
        <ele>21</ele>
        <time>2013-08-18T10:23:53Z</time>
      </trkpt>
      <trkpt lat="47.23142" lon="-1.59208">
        <ele>21.5</ele>
        <time>2013-08-18T10:23:56Z</time>
      </trkpt>
      <trkpt lat="47.2315" lon="-1.59223">
        <ele>21.6</ele>
        <time>2013-08-18T10:23:59Z</time>
      </trkpt>
      <trkpt lat="47.23154" lon="-1.59238">
        <ele>21.6</ele>
        <time>2013-08-18T10:24:02Z</time>
      </trkpt>
      <trkpt lat="47.23156" lon="-1.59252">
        <ele>21.4</ele>
        <time>2013-08-18T10:24:05Z</time>
      </trkpt>
      <trkpt lat="47.2316" lon="-1.59266">
        <ele>21.4</ele>
        <time>2013-08-18T10:24:10Z</time>
      </trkpt>
      <trkpt lat="47.23159" lon="-1.59281">
        <ele>21.4</ele>
        <time>2013-08-18T10:24:15Z</time>
      </trkpt>
      <trkpt lat="47.23152" lon="-1.59297">
        <ele>21.5</ele>
        <time>2013-08-18T10:24:18Z</time>
      </trkpt>
      <trkpt lat="47.23146" lon="-1.59309">
        <ele>20.9</ele>
        <time>2013-08-18T10:24:20Z</time>
      </trkpt>
      <trkpt lat="47.23139" lon="-1.59323">
        <ele>20.8</ele>
        <time>2013-08-18T10:24:22Z</time>
      </trkpt>
      <trkpt lat="47.23132" lon="-1.59337">
        <ele>20.3</ele>
        <time>2013-08-18T10:24:24Z</time>
      </trkpt>
      <trkpt lat="47.23125" lon="-1.59349">
        <ele>20.3</ele>
        <time>2013-08-18T10:24:26Z</time>
      </trkpt>
      <trkpt lat="47.23118" lon="-1.59363">
        <ele>21.1</ele>
        <time>2013-08-18T10:24:28Z</time>
      </trkpt>
      <trkpt lat="47.23111" lon="-1.59377">
        <ele>21.3</ele>
        <time>2013-08-18T10:24:30Z</time>
      </trkpt>
      <trkpt lat="47.23103" lon="-1.59393">
        <ele>21.4</ele>
        <time>2013-08-18T10:24:32Z</time>
      </trkpt>
      <trkpt lat="47.23094" lon="-1.59409">
        <ele>20.5</ele>
        <time>2013-08-18T10:24:34Z</time>
      </trkpt>
      <trkpt lat="47.23086" lon="-1.59424">
        <ele>19.6</ele>
        <time>2013-08-18T10:24:36Z</time>
      </trkpt>
      <trkpt lat="47.23078" lon="-1.59439">
        <ele>18.4</ele>
        <time>2013-08-18T10:24:38Z</time>
      </trkpt>
      <trkpt lat="47.23071" lon="-1.59455">
        <ele>16.5</ele>
        <time>2013-08-18T10:24:40Z</time>
      </trkpt>
      <trkpt lat="47.23063" lon="-1.59471">
        <ele>15.1</ele>
        <time>2013-08-18T10:24:42Z</time>
      </trkpt>
      <trkpt lat="47.23056" lon="-1.59485">
        <ele>14.1</ele>
        <time>2013-08-18T10:24:44Z</time>
      </trkpt>
      <trkpt lat="47.23048" lon="-1.59501">
        <ele>13.6</ele>
        <time>2013-08-18T10:24:46Z</time>
      </trkpt>
      <trkpt lat="47.2304" lon="-1.59518">
        <ele>12.9</ele>
        <time>2013-08-18T10:24:48Z</time>
      </trkpt>
      <trkpt lat="47.23031" lon="-1.59539">
        <ele>12.4</ele>
        <time>2013-08-18T10:24:50Z</time>
      </trkpt>
      <trkpt lat="47.23022" lon="-1.59557">
        <ele>13.9</ele>
        <time>2013-08-18T10:24:52Z</time>
      </trkpt>
      <trkpt lat="47.23013" lon="-1.59575">
        <ele>14.9</ele>
        <time>2013-08-18T10:24:54Z</time>
      </trkpt>
      <trkpt lat="47.23004" lon="-1.59594">
        <ele>15.2</ele>
        <time>2013-08-18T10:24:56Z</time>
      </trkpt>
      <trkpt lat="47.22995" lon="-1.59613">
        <ele>14.7</ele>
        <time>2013-08-18T10:24:58Z</time>
      </trkpt>
      <trkpt lat="47.22987" lon="-1.59632">
        <ele>13.1</ele>
        <time>2013-08-18T10:25:00Z</time>
      </trkpt>
      <trkpt lat="47.22979" lon="-1.5965">
        <ele>11.2</ele>
        <time>2013-08-18T10:25:02Z</time>
      </trkpt>
      <trkpt lat="47.22971" lon="-1.59668">
        <ele>9.9</ele>
        <time>2013-08-18T10:25:04Z</time>
      </trkpt>
      <trkpt lat="47.22962" lon="-1.59686">
        <ele>8.7</ele>
        <time>2013-08-18T10:25:06Z</time>
      </trkpt>
      <trkpt lat="47.22953" lon="-1.59701">
        <ele>7.1</ele>
        <time>2013-08-18T10:25:08Z</time>
      </trkpt>
      <trkpt lat="47.22943" lon="-1.59718">
        <ele>5.6</ele>
        <time>2013-08-18T10:25:10Z</time>
      </trkpt>
      <trkpt lat="47.22935" lon="-1.59733">
        <ele>4.8</ele>
        <time>2013-08-18T10:25:12Z</time>
      </trkpt>
      <trkpt lat="47.22927" lon="-1.59746">
        <ele>3.9</ele>
        <time>2013-08-18T10:25:14Z</time>
      </trkpt>
      <trkpt lat="47.22922" lon="-1.59757">
        <ele>3.8</ele>
        <time>2013-08-18T10:25:16Z</time>
      </trkpt>
      <trkpt lat="47.22922" lon="-1.59771">
        <ele>3.9</ele>
        <time>2013-08-18T10:25:19Z</time>
      </trkpt>
      <trkpt lat="47.22923" lon="-1.59788">
        <ele>4</ele>
        <time>2013-08-18T10:25:22Z</time>
      </trkpt>
      <trkpt lat="47.2293" lon="-1.598">
        <ele>4.4</ele>
        <time>2013-08-18T10:25:27Z</time>
      </trkpt>
      <trkpt lat="47.22925" lon="-1.59783">
        <ele>4.9</ele>
        <time>2013-08-18T10:25:36Z</time>
      </trkpt>
      <trkpt lat="47.22933" lon="-1.59775">
        <ele>5.4</ele>
        <time>2013-08-18T10:25:40Z</time>
      </trkpt>
      <trkpt lat="47.22943" lon="-1.59777">
        <ele>5.6</ele>
        <time>2013-08-18T10:25:44Z</time>
      </trkpt>
      <trkpt lat="47.22952" lon="-1.59787">
        <ele>6</ele>
        <time>2013-08-18T10:25:48Z</time>
      </trkpt>
      <trkpt lat="47.22959" lon="-1.59797">
        <ele>6.4</ele>
        <time>2013-08-18T10:25:51Z</time>
      </trkpt>
      <trkpt lat="47.22966" lon="-1.59805">
        <ele>6.6</ele>
        <time>2013-08-18T10:25:54Z</time>
      </trkpt>
      <trkpt lat="47.22972" lon="-1.59815">
        <ele>6.8</ele>
        <time>2013-08-18T10:25:56Z</time>
      </trkpt>
      <trkpt lat="47.22973" lon="-1.59832">
        <ele>7.2</ele>
        <time>2013-08-18T10:25:59Z</time>
      </trkpt>
      <trkpt lat="47.22968" lon="-1.59847">
        <ele>7.8</ele>
        <time>2013-08-18T10:26:03Z</time>
      </trkpt>
      <trkpt lat="47.22962" lon="-1.59858">
        <ele>8.2</ele>
        <time>2013-08-18T10:26:06Z</time>
      </trkpt>
      <trkpt lat="47.22966" lon="-1.59872">
        <ele>8.5</ele>
        <time>2013-08-18T10:26:11Z</time>
      </trkpt>
      <trkpt lat="47.22971" lon="-1.59884">
        <ele>8.8</ele>
        <time>2013-08-18T10:26:15Z</time>
      </trkpt>
      <trkpt lat="47.22974" lon="-1.599">
        <ele>9.3</ele>
        <time>2013-08-18T10:26:18Z</time>
      </trkpt>
      <trkpt lat="47.22977" lon="-1.59913">
        <ele>10.1</ele>
        <time>2013-08-18T10:26:21Z</time>
      </trkpt>
      <trkpt lat="47.2298" lon="-1.5993">
        <ele>11.1</ele>
        <time>2013-08-18T10:26:25Z</time>
      </trkpt>
      <trkpt lat="47.22983" lon="-1.59944">
        <ele>11.9</ele>
        <time>2013-08-18T10:26:28Z</time>
      </trkpt>
      <trkpt lat="47.22985" lon="-1.5996">
        <ele>12.8</ele>
        <time>2013-08-18T10:26:31Z</time>
      </trkpt>
      <trkpt lat="47.22986" lon="-1.59977">
        <ele>13.5</ele>
        <time>2013-08-18T10:26:34Z</time>
      </trkpt>
      <trkpt lat="47.22987" lon="-1.59993">
        <ele>14.2</ele>
        <time>2013-08-18T10:26:37Z</time>
      </trkpt>
      <trkpt lat="47.22987" lon="-1.60007">
        <ele>14.6</ele>
        <time>2013-08-18T10:26:40Z</time>
      </trkpt>
      <trkpt lat="47.22986" lon="-1.60024">
        <ele>15.1</ele>
        <time>2013-08-18T10:26:43Z</time>
      </trkpt>
      <trkpt lat="47.22981" lon="-1.6004">
        <ele>15.3</ele>
        <time>2013-08-18T10:26:46Z</time>
      </trkpt>
      <trkpt lat="47.22977" lon="-1.60053">
        <ele>15.4</ele>
        <time>2013-08-18T10:26:48Z</time>
      </trkpt>
      <trkpt lat="47.22971" lon="-1.60067">
        <ele>15.6</ele>
        <time>2013-08-18T10:26:51Z</time>
      </trkpt>
      <trkpt lat="47.22966" lon="-1.60082">
        <ele>16</ele>
        <time>2013-08-18T10:26:55Z</time>
      </trkpt>
      <trkpt lat="47.22965" lon="-1.60097">
        <ele>16.4</ele>
        <time>2013-08-18T10:26:58Z</time>
      </trkpt>
      <trkpt lat="47.22965" lon="-1.60114">
        <ele>16.7</ele>
        <time>2013-08-18T10:27:01Z</time>
      </trkpt>
      <trkpt lat="47.22967" lon="-1.60129">
        <ele>17.3</ele>
        <time>2013-08-18T10:27:05Z</time>
      </trkpt>
      <trkpt lat="47.2297" lon="-1.60144">
        <ele>18.1</ele>
        <time>2013-08-18T10:27:08Z</time>
      </trkpt>
      <trkpt lat="47.22972" lon="-1.60158">
        <ele>18.6</ele>
        <time>2013-08-18T10:27:10Z</time>
      </trkpt>
      <trkpt lat="47.22976" lon="-1.60172">
        <ele>19.3</ele>
        <time>2013-08-18T10:27:13Z</time>
      </trkpt>
      <trkpt lat="47.22978" lon="-1.6019">
        <ele>20.1</ele>
        <time>2013-08-18T10:27:17Z</time>
      </trkpt>
      <trkpt lat="47.2298" lon="-1.60204">
        <ele>20.5</ele>
        <time>2013-08-18T10:27:20Z</time>
      </trkpt>
      <trkpt lat="47.22982" lon="-1.60218">
        <ele>20.9</ele>
        <time>2013-08-18T10:27:23Z</time>
      </trkpt>
      <trkpt lat="47.22984" lon="-1.60235">
        <ele>21.2</ele>
        <time>2013-08-18T10:27:26Z</time>
      </trkpt>
      <trkpt lat="47.22984" lon="-1.60249">
        <ele>21.9</ele>
        <time>2013-08-18T10:27:30Z</time>
      </trkpt>
      <trkpt lat="47.22982" lon="-1.60265">
        <ele>22.4</ele>
        <time>2013-08-18T10:27:33Z</time>
      </trkpt>
      <trkpt lat="47.22981" lon="-1.6028">
        <ele>22.5</ele>
        <time>2013-08-18T10:27:36Z</time>
      </trkpt>
      <trkpt lat="47.22982" lon="-1.60293">
        <ele>22.8</ele>
        <time>2013-08-18T10:27:39Z</time>
      </trkpt>
      <trkpt lat="47.22984" lon="-1.60308">
        <ele>23.1</ele>
        <time>2013-08-18T10:27:42Z</time>
      </trkpt>
      <trkpt lat="47.22985" lon="-1.60324">
        <ele>23.3</ele>
        <time>2013-08-18T10:27:45Z</time>
      </trkpt>
      <trkpt lat="47.22985" lon="-1.6034">
        <ele>23.5</ele>
        <time>2013-08-18T10:27:48Z</time>
      </trkpt>
      <trkpt lat="47.22984" lon="-1.60354">
        <ele>23.7</ele>
        <time>2013-08-18T10:27:51Z</time>
      </trkpt>
      <trkpt lat="47.22985" lon="-1.60371">
        <ele>23.9</ele>
        <time>2013-08-18T10:27:55Z</time>
      </trkpt>
      <trkpt lat="47.2299" lon="-1.60386">
        <ele>23.9</ele>
        <time>2013-08-18T10:27:59Z</time>
      </trkpt>
      <trkpt lat="47.22996" lon="-1.60397">
        <ele>23.8</ele>
        <time>2013-08-18T10:28:02Z</time>
      </trkpt>
      <trkpt lat="47.23006" lon="-1.60407">
        <ele>23.8</ele>
        <time>2013-08-18T10:28:05Z</time>
      </trkpt>
      <trkpt lat="47.23015" lon="-1.60417">
        <ele>23.7</ele>
        <time>2013-08-18T10:28:08Z</time>
      </trkpt>
      <trkpt lat="47.23024" lon="-1.60426">
        <ele>23.7</ele>
        <time>2013-08-18T10:28:11Z</time>
      </trkpt>
      <trkpt lat="47.23033" lon="-1.60435">
        <ele>23.6</ele>
        <time>2013-08-18T10:28:14Z</time>
      </trkpt>
      <trkpt lat="47.23043" lon="-1.60446">
        <ele>23.7</ele>
        <time>2013-08-18T10:28:17Z</time>
      </trkpt>
      <trkpt lat="47.23052" lon="-1.60454">
        <ele>23.7</ele>
        <time>2013-08-18T10:28:19Z</time>
      </trkpt>
      <trkpt lat="47.23062" lon="-1.6046">
        <ele>24.1</ele>
        <time>2013-08-18T10:28:21Z</time>
      </trkpt>
      <trkpt lat="47.23068" lon="-1.6047">
        <ele>24.6</ele>
        <time>2013-08-18T10:28:24Z</time>
      </trkpt>
      <trkpt lat="47.23069" lon="-1.60488">
        <ele>25.3</ele>
        <time>2013-08-18T10:28:28Z</time>
      </trkpt>
      <trkpt lat="47.23068" lon="-1.60501">
        <ele>25.5</ele>
        <time>2013-08-18T10:28:30Z</time>
      </trkpt>
      <trkpt lat="47.23066" lon="-1.60514">
        <ele>25.7</ele>
        <time>2013-08-18T10:28:32Z</time>
      </trkpt>
      <trkpt lat="47.23059" lon="-1.60524">
        <ele>25.7</ele>
        <time>2013-08-18T10:28:35Z</time>
      </trkpt>
      <trkpt lat="47.23051" lon="-1.60534">
        <ele>26.6</ele>
        <time>2013-08-18T10:28:38Z</time>
      </trkpt>
      <trkpt lat="47.23043" lon="-1.60543">
        <ele>28.6</ele>
        <time>2013-08-18T10:28:40Z</time>
      </trkpt>
      <trkpt lat="47.23035" lon="-1.6055">
        <ele>30.1</ele>
        <time>2013-08-18T10:28:42Z</time>
      </trkpt>
      <trkpt lat="47.23025" lon="-1.60559">
        <ele>29.8</ele>
        <time>2013-08-18T10:28:44Z</time>
      </trkpt>
      <trkpt lat="47.23016" lon="-1.60566">
        <ele>28.5</ele>
        <time>2013-08-18T10:28:46Z</time>
      </trkpt>
      <trkpt lat="47.23009" lon="-1.60573">
        <ele>27.8</ele>
        <time>2013-08-18T10:28:48Z</time>
      </trkpt>
      <trkpt lat="47.23001" lon="-1.6058">
        <ele>27</ele>
        <time>2013-08-18T10:28:50Z</time>
      </trkpt>
      <trkpt lat="47.2299" lon="-1.60588">
        <ele>27</ele>
        <time>2013-08-18T10:28:53Z</time>
      </trkpt>
      <trkpt lat="47.22981" lon="-1.60595">
        <ele>27.4</ele>
        <time>2013-08-18T10:28:56Z</time>
      </trkpt>
      <trkpt lat="47.22978" lon="-1.60612">
        <ele>27.6</ele>
        <time>2013-08-18T10:28:59Z</time>
      </trkpt>
      <trkpt lat="47.22983" lon="-1.60629">
        <ele>29</ele>
        <time>2013-08-18T10:29:02Z</time>
      </trkpt>
      <trkpt lat="47.22988" lon="-1.60641">
        <ele>29.2</ele>
        <time>2013-08-18T10:29:04Z</time>
      </trkpt>
      <trkpt lat="47.22994" lon="-1.60656">
        <ele>29.7</ele>
        <time>2013-08-18T10:29:07Z</time>
      </trkpt>
      <trkpt lat="47.23" lon="-1.60671">
        <ele>30.4</ele>
        <time>2013-08-18T10:29:10Z</time>
      </trkpt>
      <trkpt lat="47.23006" lon="-1.60687">
        <ele>31.1</ele>
        <time>2013-08-18T10:29:13Z</time>
      </trkpt>
      <trkpt lat="47.23007" lon="-1.60703">
        <ele>31.7</ele>
        <time>2013-08-18T10:29:17Z</time>
      </trkpt>
      <trkpt lat="47.23012" lon="-1.60718">
        <ele>32</ele>
        <time>2013-08-18T10:29:20Z</time>
      </trkpt>
      <trkpt lat="47.23017" lon="-1.60734">
        <ele>32.3</ele>
        <time>2013-08-18T10:29:24Z</time>
      </trkpt>
      <trkpt lat="47.23021" lon="-1.60746">
        <ele>32.4</ele>
        <time>2013-08-18T10:29:27Z</time>
      </trkpt>
      <trkpt lat="47.23025" lon="-1.60758">
        <ele>32.6</ele>
        <time>2013-08-18T10:29:30Z</time>
      </trkpt>
      <trkpt lat="47.23034" lon="-1.6077">
        <ele>33.1</ele>
        <time>2013-08-18T10:29:33Z</time>
      </trkpt>
      <trkpt lat="47.23047" lon="-1.60769">
        <ele>33.5</ele>
        <time>2013-08-18T10:29:37Z</time>
      </trkpt>
      <trkpt lat="47.23057" lon="-1.60763">
        <ele>33.6</ele>
        <time>2013-08-18T10:29:40Z</time>
      </trkpt>
      <trkpt lat="47.23067" lon="-1.60753">
        <ele>33.5</ele>
        <time>2013-08-18T10:29:43Z</time>
      </trkpt>
      <trkpt lat="47.23076" lon="-1.6074">
        <ele>33.7</ele>
        <time>2013-08-18T10:29:46Z</time>
      </trkpt>
      <trkpt lat="47.23077" lon="-1.60725">
        <ele>34</ele>
        <time>2013-08-18T10:29:48Z</time>
      </trkpt>
      <trkpt lat="47.23075" lon="-1.60708">
        <ele>35.2</ele>
        <time>2013-08-18T10:29:51Z</time>
      </trkpt>
      <trkpt lat="47.23073" lon="-1.60691">
        <ele>36</ele>
        <time>2013-08-18T10:29:54Z</time>
      </trkpt>
      <trkpt lat="47.23073" lon="-1.60674">
        <ele>36.1</ele>
        <time>2013-08-18T10:29:57Z</time>
      </trkpt>
      <trkpt lat="47.23069" lon="-1.60661">
        <ele>36.2</ele>
        <time>2013-08-18T10:30:06Z</time>
      </trkpt>
      <trkpt lat="47.23077" lon="-1.60655">
        <ele>35.9</ele>
        <time>2013-08-18T10:30:15Z</time>
      </trkpt>
      <trkpt lat="47.23076" lon="-1.6065">
        <ele>42.5</ele>
        <time>2013-08-18T10:35:50Z</time>
      </trkpt>
      <trkpt lat="47.23076" lon="-1.6065">
        <ele>42.5</ele>
        <time>2013-08-18T10:35:50Z</time>
      </trkpt>
    </trkseg>
  </trk>
</gpx>